<?xml version="1.0" encoding="UTF-8" standalone="no" ?>
<gpx xmlns="http://www.topografix.com/GPX/1/1" xmlns:xsi="http://www.w3.org/2001/XMLSchema-instance" xsi:schemaLocation="http://www.topografix.com/GPX/1/1 http://www.topografix.com/GPX/1/1/gpx.xsd" version="1.1" creator="VisuGPX - https://www.visugpx.com">
  <metadata>
    <name>Aston Marche à pied</name>
  </metadata>
  <trk>
    <name><![CDATA[Aston Marche à pied_1]]></name>
    <trkseg>
      <trkpt lat="42.71241" lon="1.68369">
        <ele>1695</ele>
        <time>2024-07-10T05:50:44Z</time>
      </trkpt>
      <trkpt lat="42.71248" lon="1.68383">
        <ele>1695.6</ele>
        <time>2024-07-10T05:50:54Z</time>
      </trkpt>
      <trkpt lat="42.71255" lon="1.68395">
        <ele>1695.8</ele>
        <time>2024-07-10T05:51:04Z</time>
      </trkpt>
      <trkpt lat="42.71265" lon="1.68409">
        <ele>1695.4</ele>
        <time>2024-07-10T05:51:15Z</time>
      </trkpt>
      <trkpt lat="42.71273" lon="1.6842">
        <ele>1695</ele>
        <time>2024-07-10T05:51:25Z</time>
      </trkpt>
      <trkpt lat="42.71281" lon="1.68433">
        <ele>1694.2</ele>
        <time>2024-07-10T05:51:35Z</time>
      </trkpt>
      <trkpt lat="42.71286" lon="1.68448">
        <ele>1694</ele>
        <time>2024-07-10T05:51:45Z</time>
      </trkpt>
      <trkpt lat="42.71289" lon="1.68463">
        <ele>1695.8</ele>
        <time>2024-07-10T05:51:54Z</time>
      </trkpt>
      <trkpt lat="42.71291" lon="1.68477">
        <ele>1697</ele>
        <time>2024-07-10T05:52:03Z</time>
      </trkpt>
      <trkpt lat="42.71299" lon="1.68489">
        <ele>1697.4</ele>
        <time>2024-07-10T05:52:14Z</time>
      </trkpt>
      <trkpt lat="42.71309" lon="1.68501">
        <ele>1699</ele>
        <time>2024-07-10T05:52:26Z</time>
      </trkpt>
      <trkpt lat="42.71319" lon="1.6851">
        <ele>1699</ele>
        <time>2024-07-10T05:52:36Z</time>
      </trkpt>
      <trkpt lat="42.7133" lon="1.68522">
        <ele>1700.2</ele>
        <time>2024-07-10T05:52:48Z</time>
      </trkpt>
      <trkpt lat="42.71339" lon="1.6853">
        <ele>1701.2</ele>
        <time>2024-07-10T05:52:57Z</time>
      </trkpt>
      <trkpt lat="42.71349" lon="1.68538">
        <ele>1702.8</ele>
        <time>2024-07-10T05:53:08Z</time>
      </trkpt>
      <trkpt lat="42.71359" lon="1.68544">
        <ele>1703.4</ele>
        <time>2024-07-10T05:53:17Z</time>
      </trkpt>
      <trkpt lat="42.71367" lon="1.68549">
        <ele>1704</ele>
        <time>2024-07-10T05:53:26Z</time>
      </trkpt>
      <trkpt lat="42.71378" lon="1.68552">
        <ele>1704.6</ele>
        <time>2024-07-10T05:53:35Z</time>
      </trkpt>
      <trkpt lat="42.71388" lon="1.68555">
        <ele>1705.2</ele>
        <time>2024-07-10T05:53:44Z</time>
      </trkpt>
      <trkpt lat="42.71398" lon="1.68558">
        <ele>1707</ele>
        <time>2024-07-10T05:53:53Z</time>
      </trkpt>
      <trkpt lat="42.71416" lon="1.68565">
        <ele>1709.2</ele>
        <time>2024-07-10T05:54:09Z</time>
      </trkpt>
      <trkpt lat="42.71417" lon="1.68566">
        <ele>1709.4</ele>
        <time>2024-07-10T05:54:10Z</time>
      </trkpt>
      <trkpt lat="42.71428" lon="1.68572">
        <ele>1710</ele>
        <time>2024-07-10T05:54:20Z</time>
      </trkpt>
      <trkpt lat="42.71438" lon="1.68581">
        <ele>1711.2</ele>
        <time>2024-07-10T05:54:31Z</time>
      </trkpt>
      <trkpt lat="42.7145" lon="1.6859">
        <ele>1711.2</ele>
        <time>2024-07-10T05:54:43Z</time>
      </trkpt>
      <trkpt lat="42.71461" lon="1.68596">
        <ele>1711.8</ele>
        <time>2024-07-10T05:54:52Z</time>
      </trkpt>
      <trkpt lat="42.71474" lon="1.68604">
        <ele>1713.8</ele>
        <time>2024-07-10T05:55:04Z</time>
      </trkpt>
      <trkpt lat="42.71484" lon="1.6861">
        <ele>1715.6</ele>
        <time>2024-07-10T05:55:13Z</time>
      </trkpt>
      <trkpt lat="42.71498" lon="1.68617">
        <ele>1716.2</ele>
        <time>2024-07-10T05:55:25Z</time>
      </trkpt>
      <trkpt lat="42.7151" lon="1.68622">
        <ele>1717</ele>
        <time>2024-07-10T05:55:35Z</time>
      </trkpt>
      <trkpt lat="42.71523" lon="1.6863">
        <ele>1719</ele>
        <time>2024-07-10T05:55:46Z</time>
      </trkpt>
      <trkpt lat="42.71532" lon="1.68637">
        <ele>1721</ele>
        <time>2024-07-10T05:55:56Z</time>
      </trkpt>
      <trkpt lat="42.71542" lon="1.68641">
        <ele>1720.8</ele>
        <time>2024-07-10T05:56:05Z</time>
      </trkpt>
      <trkpt lat="42.71551" lon="1.68646">
        <ele>1722.8</ele>
        <time>2024-07-10T05:56:14Z</time>
      </trkpt>
      <trkpt lat="42.71552" lon="1.68646">
        <ele>1722.8</ele>
        <time>2024-07-10T05:56:16Z</time>
      </trkpt>
      <trkpt lat="42.71553" lon="1.68646">
        <ele>1722.8</ele>
        <time>2024-07-10T05:56:19Z</time>
      </trkpt>
      <trkpt lat="42.71554" lon="1.68646">
        <ele>1723</ele>
        <time>2024-07-10T05:56:21Z</time>
      </trkpt>
      <trkpt lat="42.71554" lon="1.68646">
        <ele>1723.4</ele>
        <time>2024-07-10T05:56:28Z</time>
      </trkpt>
      <trkpt lat="42.71552" lon="1.68644">
        <ele>1724.8</ele>
        <time>2024-07-10T05:56:38Z</time>
      </trkpt>
      <trkpt lat="42.71559" lon="1.68645">
        <ele>1725.6</ele>
        <time>2024-07-10T05:56:48Z</time>
      </trkpt>
      <trkpt lat="42.71572" lon="1.68646">
        <ele>1725.2</ele>
        <time>2024-07-10T05:56:56Z</time>
      </trkpt>
      <trkpt lat="42.71582" lon="1.6865">
        <ele>1724.8</ele>
        <time>2024-07-10T05:57:04Z</time>
      </trkpt>
      <trkpt lat="42.71584" lon="1.68651">
        <ele>1724.8</ele>
        <time>2024-07-10T05:57:05Z</time>
      </trkpt>
      <trkpt lat="42.71591" lon="1.68652">
        <ele>1725</ele>
        <time>2024-07-10T05:57:11Z</time>
      </trkpt>
      <trkpt lat="42.71603" lon="1.68653">
        <ele>1726.4</ele>
        <time>2024-07-10T05:57:22Z</time>
      </trkpt>
      <trkpt lat="42.71616" lon="1.68655">
        <ele>1728.8</ele>
        <time>2024-07-10T05:57:33Z</time>
      </trkpt>
      <trkpt lat="42.71626" lon="1.68655">
        <ele>1729.4</ele>
        <time>2024-07-10T05:57:42Z</time>
      </trkpt>
      <trkpt lat="42.7163" lon="1.68654">
        <ele>1729.4</ele>
        <time>2024-07-10T05:57:45Z</time>
      </trkpt>
      <trkpt lat="42.71635" lon="1.68655">
        <ele>1729.4</ele>
        <time>2024-07-10T05:57:49Z</time>
      </trkpt>
      <trkpt lat="42.71645" lon="1.68661">
        <ele>1730.2</ele>
        <time>2024-07-10T05:57:58Z</time>
      </trkpt>
      <trkpt lat="42.71653" lon="1.68666">
        <ele>1732.2</ele>
        <time>2024-07-10T05:58:06Z</time>
      </trkpt>
      <trkpt lat="42.71661" lon="1.68673">
        <ele>1733.8</ele>
        <time>2024-07-10T05:58:14Z</time>
      </trkpt>
      <trkpt lat="42.7167" lon="1.68681">
        <ele>1735.2</ele>
        <time>2024-07-10T05:58:23Z</time>
      </trkpt>
      <trkpt lat="42.71675" lon="1.6869">
        <ele>1734.6</ele>
        <time>2024-07-10T05:58:29Z</time>
      </trkpt>
      <trkpt lat="42.71684" lon="1.68699">
        <ele>1733.6</ele>
        <time>2024-07-10T05:58:37Z</time>
      </trkpt>
      <trkpt lat="42.71693" lon="1.6871">
        <ele>1733</ele>
        <time>2024-07-10T05:58:47Z</time>
      </trkpt>
      <trkpt lat="42.717" lon="1.68718">
        <ele>1735</ele>
        <time>2024-07-10T05:58:55Z</time>
      </trkpt>
      <trkpt lat="42.7171" lon="1.68723">
        <ele>1736.6</ele>
        <time>2024-07-10T05:59:03Z</time>
      </trkpt>
      <trkpt lat="42.71721" lon="1.68731">
        <ele>1734.4</ele>
        <time>2024-07-10T05:59:13Z</time>
      </trkpt>
      <trkpt lat="42.71729" lon="1.68741">
        <ele>1734.8</ele>
        <time>2024-07-10T05:59:22Z</time>
      </trkpt>
      <trkpt lat="42.71736" lon="1.68751">
        <ele>1735</ele>
        <time>2024-07-10T05:59:30Z</time>
      </trkpt>
      <trkpt lat="42.71742" lon="1.68762">
        <ele>1736.2</ele>
        <time>2024-07-10T05:59:38Z</time>
      </trkpt>
      <trkpt lat="42.71748" lon="1.68772">
        <ele>1740.6</ele>
        <time>2024-07-10T05:59:47Z</time>
      </trkpt>
      <trkpt lat="42.71755" lon="1.68784">
        <ele>1742.2</ele>
        <time>2024-07-10T05:59:56Z</time>
      </trkpt>
      <trkpt lat="42.71758" lon="1.68788">
        <ele>1742</ele>
        <time>2024-07-10T05:59:59Z</time>
      </trkpt>
      <trkpt lat="42.71762" lon="1.68792">
        <ele>1742.2</ele>
        <time>2024-07-10T06:00:03Z</time>
      </trkpt>
      <trkpt lat="42.71768" lon="1.688">
        <ele>1742</ele>
        <time>2024-07-10T06:00:10Z</time>
      </trkpt>
      <trkpt lat="42.71775" lon="1.68814">
        <ele>1742.4</ele>
        <time>2024-07-10T06:00:21Z</time>
      </trkpt>
      <trkpt lat="42.71776" lon="1.6883">
        <ele>1742.4</ele>
        <time>2024-07-10T06:00:29Z</time>
      </trkpt>
      <trkpt lat="42.71777" lon="1.6884">
        <ele>1743.6</ele>
        <time>2024-07-10T06:00:35Z</time>
      </trkpt>
      <trkpt lat="42.71777" lon="1.68852">
        <ele>1747</ele>
        <time>2024-07-10T06:00:43Z</time>
      </trkpt>
      <trkpt lat="42.71781" lon="1.68865">
        <ele>1750</ele>
        <time>2024-07-10T06:00:51Z</time>
      </trkpt>
      <trkpt lat="42.71784" lon="1.68867">
        <ele>1750.2</ele>
        <time>2024-07-10T06:00:54Z</time>
      </trkpt>
      <trkpt lat="42.71787" lon="1.68867">
        <ele>1750.2</ele>
        <time>2024-07-10T06:00:58Z</time>
      </trkpt>
      <trkpt lat="42.71795" lon="1.68866">
        <ele>1751.8</ele>
        <time>2024-07-10T06:01:05Z</time>
      </trkpt>
      <trkpt lat="42.71798" lon="1.68866">
        <ele>1751.8</ele>
        <time>2024-07-10T06:01:07Z</time>
      </trkpt>
      <trkpt lat="42.71801" lon="1.68865">
        <ele>1751.4</ele>
        <time>2024-07-10T06:01:10Z</time>
      </trkpt>
      <trkpt lat="42.71805" lon="1.68864">
        <ele>1750.8</ele>
        <time>2024-07-10T06:01:13Z</time>
      </trkpt>
      <trkpt lat="42.71807" lon="1.68864">
        <ele>1750.2</ele>
        <time>2024-07-10T06:01:15Z</time>
      </trkpt>
      <trkpt lat="42.71808" lon="1.68863">
        <ele>1750</ele>
        <time>2024-07-10T06:01:16Z</time>
      </trkpt>
      <trkpt lat="42.7181" lon="1.68863">
        <ele>1749.2</ele>
        <time>2024-07-10T06:01:18Z</time>
      </trkpt>
      <trkpt lat="42.71812" lon="1.68862">
        <ele>1748.6</ele>
        <time>2024-07-10T06:01:20Z</time>
      </trkpt>
      <trkpt lat="42.71821" lon="1.68859">
        <ele>1747.2</ele>
        <time>2024-07-10T06:01:27Z</time>
      </trkpt>
      <trkpt lat="42.71831" lon="1.68852">
        <ele>1746.4</ele>
        <time>2024-07-10T06:01:34Z</time>
      </trkpt>
      <trkpt lat="42.71833" lon="1.6885">
        <ele>1747.2</ele>
        <time>2024-07-10T06:01:40Z</time>
      </trkpt>
      <trkpt lat="42.71833" lon="1.68851">
        <ele>1747.8</ele>
        <time>2024-07-10T06:01:48Z</time>
      </trkpt>
      <trkpt lat="42.71833" lon="1.6885">
        <ele>1748.2</ele>
        <time>2024-07-10T06:02:19Z</time>
      </trkpt>
      <trkpt lat="42.71837" lon="1.68853">
        <ele>1749.2</ele>
        <time>2024-07-10T06:02:28Z</time>
      </trkpt>
      <trkpt lat="42.71846" lon="1.68856">
        <ele>1748.8</ele>
        <time>2024-07-10T06:02:34Z</time>
      </trkpt>
      <trkpt lat="42.71853" lon="1.68858">
        <ele>1748.2</ele>
        <time>2024-07-10T06:02:40Z</time>
      </trkpt>
      <trkpt lat="42.71855" lon="1.68858">
        <ele>1748</ele>
        <time>2024-07-10T06:02:42Z</time>
      </trkpt>
      <trkpt lat="42.71862" lon="1.68859">
        <ele>1747.2</ele>
        <time>2024-07-10T06:02:47Z</time>
      </trkpt>
      <trkpt lat="42.7187" lon="1.68861">
        <ele>1742.2</ele>
        <time>2024-07-10T06:02:54Z</time>
      </trkpt>
      <trkpt lat="42.71879" lon="1.68862">
        <ele>1740</ele>
        <time>2024-07-10T06:03:02Z</time>
      </trkpt>
      <trkpt lat="42.71893" lon="1.68859">
        <ele>1740.6</ele>
        <time>2024-07-10T06:03:13Z</time>
      </trkpt>
      <trkpt lat="42.71904" lon="1.68858">
        <ele>1740</ele>
        <time>2024-07-10T06:03:23Z</time>
      </trkpt>
      <trkpt lat="42.7191" lon="1.68854">
        <ele>1740.4</ele>
        <time>2024-07-10T06:03:29Z</time>
      </trkpt>
      <trkpt lat="42.71912" lon="1.68852">
        <ele>1740.6</ele>
        <time>2024-07-10T06:03:31Z</time>
      </trkpt>
      <trkpt lat="42.71921" lon="1.68851">
        <ele>1742.4</ele>
        <time>2024-07-10T06:03:39Z</time>
      </trkpt>
      <trkpt lat="42.71923" lon="1.6885">
        <ele>1742.6</ele>
        <time>2024-07-10T06:03:41Z</time>
      </trkpt>
      <trkpt lat="42.71928" lon="1.68848">
        <ele>1743</ele>
        <time>2024-07-10T06:03:46Z</time>
      </trkpt>
      <trkpt lat="42.71933" lon="1.68847">
        <ele>1743.8</ele>
        <time>2024-07-10T06:03:54Z</time>
      </trkpt>
      <trkpt lat="42.71933" lon="1.68848">
        <ele>1743.4</ele>
        <time>2024-07-10T06:04:02Z</time>
      </trkpt>
      <trkpt lat="42.71933" lon="1.68849">
        <ele>1744.2</ele>
        <time>2024-07-10T06:04:14Z</time>
      </trkpt>
      <trkpt lat="42.71937" lon="1.68843">
        <ele>1744</ele>
        <time>2024-07-10T06:04:32Z</time>
      </trkpt>
      <trkpt lat="42.7195" lon="1.68835">
        <ele>1747.8</ele>
        <time>2024-07-10T06:04:41Z</time>
      </trkpt>
      <trkpt lat="42.71958" lon="1.68832">
        <ele>1750.4</ele>
        <time>2024-07-10T06:04:49Z</time>
      </trkpt>
      <trkpt lat="42.71959" lon="1.68831">
        <ele>1750.4</ele>
        <time>2024-07-10T06:04:50Z</time>
      </trkpt>
      <trkpt lat="42.7197" lon="1.68832">
        <ele>1753</ele>
        <time>2024-07-10T06:04:59Z</time>
      </trkpt>
      <trkpt lat="42.71973" lon="1.68831">
        <ele>1752.2</ele>
        <time>2024-07-10T06:05:01Z</time>
      </trkpt>
      <trkpt lat="42.71979" lon="1.68831">
        <ele>1750.8</ele>
        <time>2024-07-10T06:05:07Z</time>
      </trkpt>
      <trkpt lat="42.71984" lon="1.68832">
        <ele>1751</ele>
        <time>2024-07-10T06:05:13Z</time>
      </trkpt>
      <trkpt lat="42.71993" lon="1.68828">
        <ele>1753.8</ele>
        <time>2024-07-10T06:05:22Z</time>
      </trkpt>
      <trkpt lat="42.71999" lon="1.6883">
        <ele>1757.6</ele>
        <time>2024-07-10T06:05:28Z</time>
      </trkpt>
      <trkpt lat="42.72012" lon="1.68832">
        <ele>1757.2</ele>
        <time>2024-07-10T06:05:39Z</time>
      </trkpt>
      <trkpt lat="42.72023" lon="1.68834">
        <ele>1757.8</ele>
        <time>2024-07-10T06:05:48Z</time>
      </trkpt>
      <trkpt lat="42.72032" lon="1.68832">
        <ele>1757.8</ele>
        <time>2024-07-10T06:05:56Z</time>
      </trkpt>
      <trkpt lat="42.7204" lon="1.68833">
        <ele>1761.2</ele>
        <time>2024-07-10T06:06:03Z</time>
      </trkpt>
      <trkpt lat="42.72044" lon="1.68831">
        <ele>1762</ele>
        <time>2024-07-10T06:06:06Z</time>
      </trkpt>
      <trkpt lat="42.72047" lon="1.68827">
        <ele>1762.6</ele>
        <time>2024-07-10T06:06:09Z</time>
      </trkpt>
      <trkpt lat="42.72056" lon="1.68825">
        <ele>1764.6</ele>
        <time>2024-07-10T06:06:15Z</time>
      </trkpt>
      <trkpt lat="42.72066" lon="1.68827">
        <ele>1766</ele>
        <time>2024-07-10T06:06:23Z</time>
      </trkpt>
      <trkpt lat="42.72069" lon="1.68829">
        <ele>1765.4</ele>
        <time>2024-07-10T06:06:25Z</time>
      </trkpt>
      <trkpt lat="42.72074" lon="1.68831">
        <ele>1762.2</ele>
        <time>2024-07-10T06:06:30Z</time>
      </trkpt>
      <trkpt lat="42.72076" lon="1.68831">
        <ele>1761.4</ele>
        <time>2024-07-10T06:06:32Z</time>
      </trkpt>
      <trkpt lat="42.72085" lon="1.68833">
        <ele>1760.2</ele>
        <time>2024-07-10T06:06:39Z</time>
      </trkpt>
      <trkpt lat="42.72094" lon="1.68836">
        <ele>1760.2</ele>
        <time>2024-07-10T06:06:47Z</time>
      </trkpt>
      <trkpt lat="42.72095" lon="1.68836">
        <ele>1760.8</ele>
        <time>2024-07-10T06:06:49Z</time>
      </trkpt>
      <trkpt lat="42.72101" lon="1.68839">
        <ele>1762.2</ele>
        <time>2024-07-10T06:06:53Z</time>
      </trkpt>
      <trkpt lat="42.72104" lon="1.68841">
        <ele>1762.6</ele>
        <time>2024-07-10T06:06:56Z</time>
      </trkpt>
      <trkpt lat="42.7211" lon="1.68845">
        <ele>1760.8</ele>
        <time>2024-07-10T06:07:01Z</time>
      </trkpt>
      <trkpt lat="42.7212" lon="1.6885">
        <ele>1761.2</ele>
        <time>2024-07-10T06:07:10Z</time>
      </trkpt>
      <trkpt lat="42.7213" lon="1.68854">
        <ele>1761.6</ele>
        <time>2024-07-10T06:07:17Z</time>
      </trkpt>
      <trkpt lat="42.72141" lon="1.68857">
        <ele>1762.4</ele>
        <time>2024-07-10T06:07:26Z</time>
      </trkpt>
      <trkpt lat="42.72149" lon="1.68857">
        <ele>1763.2</ele>
        <time>2024-07-10T06:07:33Z</time>
      </trkpt>
      <trkpt lat="42.72159" lon="1.68856">
        <ele>1765.6</ele>
        <time>2024-07-10T06:07:42Z</time>
      </trkpt>
      <trkpt lat="42.7217" lon="1.68856">
        <ele>1765</ele>
        <time>2024-07-10T06:07:52Z</time>
      </trkpt>
      <trkpt lat="42.72179" lon="1.68854">
        <ele>1765</ele>
        <time>2024-07-10T06:07:59Z</time>
      </trkpt>
      <trkpt lat="42.7218" lon="1.68854">
        <ele>1765</ele>
        <time>2024-07-10T06:08:00Z</time>
      </trkpt>
      <trkpt lat="42.72185" lon="1.6885">
        <ele>1765.2</ele>
        <time>2024-07-10T06:08:05Z</time>
      </trkpt>
      <trkpt lat="42.72192" lon="1.6885">
        <ele>1766.4</ele>
        <time>2024-07-10T06:08:12Z</time>
      </trkpt>
      <trkpt lat="42.72202" lon="1.6885">
        <ele>1770.2</ele>
        <time>2024-07-10T06:08:22Z</time>
      </trkpt>
      <trkpt lat="42.72207" lon="1.68849">
        <ele>1770.8</ele>
        <time>2024-07-10T06:08:26Z</time>
      </trkpt>
      <trkpt lat="42.72211" lon="1.68849">
        <ele>1770.8</ele>
        <time>2024-07-10T06:08:29Z</time>
      </trkpt>
      <trkpt lat="42.72224" lon="1.68848">
        <ele>1771.8</ele>
        <time>2024-07-10T06:08:40Z</time>
      </trkpt>
      <trkpt lat="42.72231" lon="1.6885">
        <ele>1775.2</ele>
        <time>2024-07-10T06:08:47Z</time>
      </trkpt>
      <trkpt lat="42.72242" lon="1.68855">
        <ele>1777.2</ele>
        <time>2024-07-10T06:08:57Z</time>
      </trkpt>
      <trkpt lat="42.72251" lon="1.68867">
        <ele>1776.6</ele>
        <time>2024-07-10T06:09:08Z</time>
      </trkpt>
      <trkpt lat="42.7226" lon="1.68868">
        <ele>1777.6</ele>
        <time>2024-07-10T06:09:15Z</time>
      </trkpt>
      <trkpt lat="42.72262" lon="1.68871">
        <ele>1777.2</ele>
        <time>2024-07-10T06:09:18Z</time>
      </trkpt>
      <trkpt lat="42.72264" lon="1.68875">
        <ele>1776.8</ele>
        <time>2024-07-10T06:09:21Z</time>
      </trkpt>
      <trkpt lat="42.72265" lon="1.68876">
        <ele>1776.8</ele>
        <time>2024-07-10T06:09:22Z</time>
      </trkpt>
      <trkpt lat="42.7227" lon="1.68877">
        <ele>1776.6</ele>
        <time>2024-07-10T06:09:28Z</time>
      </trkpt>
      <trkpt lat="42.72276" lon="1.68882">
        <ele>1776.8</ele>
        <time>2024-07-10T06:09:37Z</time>
      </trkpt>
      <trkpt lat="42.72278" lon="1.68882">
        <ele>1777.8</ele>
        <time>2024-07-10T06:09:44Z</time>
      </trkpt>
      <trkpt lat="42.72281" lon="1.68883">
        <ele>1779.4</ele>
        <time>2024-07-10T06:09:47Z</time>
      </trkpt>
      <trkpt lat="42.72283" lon="1.68887">
        <ele>1780.4</ele>
        <time>2024-07-10T06:09:50Z</time>
      </trkpt>
      <trkpt lat="42.72291" lon="1.68896">
        <ele>1780.8</ele>
        <time>2024-07-10T06:10:00Z</time>
      </trkpt>
      <trkpt lat="42.72304" lon="1.68909">
        <ele>1780.6</ele>
        <time>2024-07-10T06:10:13Z</time>
      </trkpt>
      <trkpt lat="42.72309" lon="1.68918">
        <ele>1780.6</ele>
        <time>2024-07-10T06:10:20Z</time>
      </trkpt>
      <trkpt lat="42.72312" lon="1.68922">
        <ele>1780.6</ele>
        <time>2024-07-10T06:10:23Z</time>
      </trkpt>
      <trkpt lat="42.72318" lon="1.68932">
        <ele>1781.4</ele>
        <time>2024-07-10T06:10:31Z</time>
      </trkpt>
      <trkpt lat="42.72327" lon="1.68942">
        <ele>1782.2</ele>
        <time>2024-07-10T06:10:41Z</time>
      </trkpt>
      <trkpt lat="42.72331" lon="1.68951">
        <ele>1781.8</ele>
        <time>2024-07-10T06:10:48Z</time>
      </trkpt>
      <trkpt lat="42.7234" lon="1.6896">
        <ele>1781</ele>
        <time>2024-07-10T06:10:57Z</time>
      </trkpt>
      <trkpt lat="42.72348" lon="1.68972">
        <ele>1780.2</ele>
        <time>2024-07-10T06:11:06Z</time>
      </trkpt>
      <trkpt lat="42.72353" lon="1.68989">
        <ele>1781.2</ele>
        <time>2024-07-10T06:11:18Z</time>
      </trkpt>
      <trkpt lat="42.72352" lon="1.69005">
        <ele>1781.6</ele>
        <time>2024-07-10T06:11:28Z</time>
      </trkpt>
      <trkpt lat="42.72354" lon="1.69017">
        <ele>1782.2</ele>
        <time>2024-07-10T06:11:36Z</time>
      </trkpt>
      <trkpt lat="42.72355" lon="1.69032">
        <ele>1782.2</ele>
        <time>2024-07-10T06:11:45Z</time>
      </trkpt>
      <trkpt lat="42.72356" lon="1.69046">
        <ele>1782.2</ele>
        <time>2024-07-10T06:11:54Z</time>
      </trkpt>
      <trkpt lat="42.72351" lon="1.6906">
        <ele>1783.4</ele>
        <time>2024-07-10T06:12:04Z</time>
      </trkpt>
      <trkpt lat="42.72337" lon="1.69073">
        <ele>1785.2</ele>
        <time>2024-07-10T06:12:17Z</time>
      </trkpt>
      <trkpt lat="42.72326" lon="1.69087">
        <ele>1786.6</ele>
        <time>2024-07-10T06:12:30Z</time>
      </trkpt>
      <trkpt lat="42.72317" lon="1.69095">
        <ele>1787</ele>
        <time>2024-07-10T06:12:39Z</time>
      </trkpt>
      <trkpt lat="42.72312" lon="1.69099">
        <ele>1786.8</ele>
        <time>2024-07-10T06:12:45Z</time>
      </trkpt>
      <trkpt lat="42.72308" lon="1.69101">
        <ele>1786.2</ele>
        <time>2024-07-10T06:12:48Z</time>
      </trkpt>
      <trkpt lat="42.72296" lon="1.69107">
        <ele>1785.6</ele>
        <time>2024-07-10T06:12:58Z</time>
      </trkpt>
      <trkpt lat="42.72286" lon="1.69115">
        <ele>1788.6</ele>
        <time>2024-07-10T06:13:08Z</time>
      </trkpt>
      <trkpt lat="42.72277" lon="1.69123">
        <ele>1788.6</ele>
        <time>2024-07-10T06:13:17Z</time>
      </trkpt>
      <trkpt lat="42.72265" lon="1.6913">
        <ele>1790.2</ele>
        <time>2024-07-10T06:13:26Z</time>
      </trkpt>
      <trkpt lat="42.72258" lon="1.6913">
        <ele>1795</ele>
        <time>2024-07-10T06:13:32Z</time>
      </trkpt>
      <trkpt lat="42.72258" lon="1.6913">
        <ele>1796.2</ele>
        <time>2024-07-10T06:13:33Z</time>
      </trkpt>
      <trkpt lat="42.72257" lon="1.6913">
        <ele>1799.8</ele>
        <time>2024-07-10T06:13:37Z</time>
      </trkpt>
      <trkpt lat="42.72257" lon="1.69128">
        <ele>1801.4</ele>
        <time>2024-07-10T06:13:42Z</time>
      </trkpt>
      <trkpt lat="42.72257" lon="1.69125">
        <ele>1804</ele>
        <time>2024-07-10T06:13:55Z</time>
      </trkpt>
      <trkpt lat="42.72251" lon="1.69125">
        <ele>1806</ele>
        <time>2024-07-10T06:16:14Z</time>
      </trkpt>
      <trkpt lat="42.72242" lon="1.69125">
        <ele>1804.8</ele>
        <time>2024-07-10T06:16:20Z</time>
      </trkpt>
      <trkpt lat="42.72232" lon="1.69123">
        <ele>1800.2</ele>
        <time>2024-07-10T06:16:29Z</time>
      </trkpt>
      <trkpt lat="42.72222" lon="1.69119">
        <ele>1797</ele>
        <time>2024-07-10T06:16:38Z</time>
      </trkpt>
      <trkpt lat="42.7221" lon="1.69113">
        <ele>1796.6</ele>
        <time>2024-07-10T06:16:47Z</time>
      </trkpt>
      <trkpt lat="42.72201" lon="1.69108">
        <ele>1796.8</ele>
        <time>2024-07-10T06:16:55Z</time>
      </trkpt>
      <trkpt lat="42.72189" lon="1.69104">
        <ele>1798</ele>
        <time>2024-07-10T06:17:04Z</time>
      </trkpt>
      <trkpt lat="42.72181" lon="1.691">
        <ele>1799.8</ele>
        <time>2024-07-10T06:17:11Z</time>
      </trkpt>
      <trkpt lat="42.72171" lon="1.69096">
        <ele>1799</ele>
        <time>2024-07-10T06:17:20Z</time>
      </trkpt>
      <trkpt lat="42.7216" lon="1.69093">
        <ele>1799.4</ele>
        <time>2024-07-10T06:17:29Z</time>
      </trkpt>
      <trkpt lat="42.7215" lon="1.69089">
        <ele>1799.8</ele>
        <time>2024-07-10T06:17:37Z</time>
      </trkpt>
      <trkpt lat="42.72139" lon="1.69086">
        <ele>1799.4</ele>
        <time>2024-07-10T06:17:46Z</time>
      </trkpt>
      <trkpt lat="42.72135" lon="1.69087">
        <ele>1799</ele>
        <time>2024-07-10T06:17:49Z</time>
      </trkpt>
      <trkpt lat="42.72132" lon="1.69087">
        <ele>1798.2</ele>
        <time>2024-07-10T06:17:52Z</time>
      </trkpt>
      <trkpt lat="42.72123" lon="1.69086">
        <ele>1796</ele>
        <time>2024-07-10T06:17:59Z</time>
      </trkpt>
      <trkpt lat="42.72111" lon="1.69084">
        <ele>1796.6</ele>
        <time>2024-07-10T06:18:07Z</time>
      </trkpt>
      <trkpt lat="42.721" lon="1.69081">
        <ele>1797.4</ele>
        <time>2024-07-10T06:18:15Z</time>
      </trkpt>
      <trkpt lat="42.72092" lon="1.69081">
        <ele>1797.8</ele>
        <time>2024-07-10T06:18:22Z</time>
      </trkpt>
      <trkpt lat="42.72083" lon="1.69079">
        <ele>1798.4</ele>
        <time>2024-07-10T06:18:29Z</time>
      </trkpt>
      <trkpt lat="42.72069" lon="1.69076">
        <ele>1799.6</ele>
        <time>2024-07-10T06:18:39Z</time>
      </trkpt>
      <trkpt lat="42.72059" lon="1.69075">
        <ele>1801.4</ele>
        <time>2024-07-10T06:18:47Z</time>
      </trkpt>
      <trkpt lat="42.72045" lon="1.6907">
        <ele>1803.2</ele>
        <time>2024-07-10T06:18:58Z</time>
      </trkpt>
      <trkpt lat="42.72037" lon="1.69067">
        <ele>1803.6</ele>
        <time>2024-07-10T06:19:05Z</time>
      </trkpt>
      <trkpt lat="42.72028" lon="1.69064">
        <ele>1803</ele>
        <time>2024-07-10T06:19:12Z</time>
      </trkpt>
      <trkpt lat="42.72015" lon="1.69063">
        <ele>1802</ele>
        <time>2024-07-10T06:19:21Z</time>
      </trkpt>
      <trkpt lat="42.72004" lon="1.69061">
        <ele>1801.2</ele>
        <time>2024-07-10T06:19:30Z</time>
      </trkpt>
      <trkpt lat="42.71992" lon="1.6906">
        <ele>1801.4</ele>
        <time>2024-07-10T06:19:38Z</time>
      </trkpt>
      <trkpt lat="42.71981" lon="1.69058">
        <ele>1801</ele>
        <time>2024-07-10T06:19:47Z</time>
      </trkpt>
      <trkpt lat="42.71967" lon="1.69056">
        <ele>1798.6</ele>
        <time>2024-07-10T06:19:58Z</time>
      </trkpt>
      <trkpt lat="42.71953" lon="1.69054">
        <ele>1798.4</ele>
        <time>2024-07-10T06:20:08Z</time>
      </trkpt>
      <trkpt lat="42.71944" lon="1.69053">
        <ele>1797.2</ele>
        <time>2024-07-10T06:20:15Z</time>
      </trkpt>
      <trkpt lat="42.71934" lon="1.69052">
        <ele>1796.4</ele>
        <time>2024-07-10T06:20:22Z</time>
      </trkpt>
      <trkpt lat="42.7193" lon="1.69053">
        <ele>1796.4</ele>
        <time>2024-07-10T06:20:25Z</time>
      </trkpt>
      <trkpt lat="42.7192" lon="1.69054">
        <ele>1801</ele>
        <time>2024-07-10T06:20:34Z</time>
      </trkpt>
      <trkpt lat="42.71908" lon="1.69058">
        <ele>1806.4</ele>
        <time>2024-07-10T06:20:42Z</time>
      </trkpt>
      <trkpt lat="42.71897" lon="1.69065">
        <ele>1810.6</ele>
        <time>2024-07-10T06:20:52Z</time>
      </trkpt>
      <trkpt lat="42.71883" lon="1.6907">
        <ele>1812.2</ele>
        <time>2024-07-10T06:21:01Z</time>
      </trkpt>
      <trkpt lat="42.7187" lon="1.69072">
        <ele>1812.4</ele>
        <time>2024-07-10T06:21:11Z</time>
      </trkpt>
      <trkpt lat="42.71859" lon="1.69069">
        <ele>1811.4</ele>
        <time>2024-07-10T06:21:19Z</time>
      </trkpt>
      <trkpt lat="42.71857" lon="1.69068">
        <ele>1810.8</ele>
        <time>2024-07-10T06:21:21Z</time>
      </trkpt>
      <trkpt lat="42.71852" lon="1.69067">
        <ele>1810.2</ele>
        <time>2024-07-10T06:21:25Z</time>
      </trkpt>
      <trkpt lat="42.71842" lon="1.69066">
        <ele>1810</ele>
        <time>2024-07-10T06:21:33Z</time>
      </trkpt>
      <trkpt lat="42.71838" lon="1.69067">
        <ele>1810.2</ele>
        <time>2024-07-10T06:21:36Z</time>
      </trkpt>
      <trkpt lat="42.71833" lon="1.69067">
        <ele>1810.4</ele>
        <time>2024-07-10T06:21:40Z</time>
      </trkpt>
      <trkpt lat="42.71822" lon="1.6907">
        <ele>1810.2</ele>
        <time>2024-07-10T06:21:49Z</time>
      </trkpt>
      <trkpt lat="42.71808" lon="1.69075">
        <ele>1810.4</ele>
        <time>2024-07-10T06:22:00Z</time>
      </trkpt>
      <trkpt lat="42.71797" lon="1.69079">
        <ele>1811.8</ele>
        <time>2024-07-10T06:22:07Z</time>
      </trkpt>
      <trkpt lat="42.71789" lon="1.69083">
        <ele>1813</ele>
        <time>2024-07-10T06:22:15Z</time>
      </trkpt>
      <trkpt lat="42.71783" lon="1.69086">
        <ele>1812.4</ele>
        <time>2024-07-10T06:22:20Z</time>
      </trkpt>
      <trkpt lat="42.71782" lon="1.69089">
        <ele>1812.2</ele>
        <time>2024-07-10T06:22:23Z</time>
      </trkpt>
      <trkpt lat="42.71783" lon="1.69089">
        <ele>1812</ele>
        <time>2024-07-10T06:22:24Z</time>
      </trkpt>
      <trkpt lat="42.71787" lon="1.6909">
        <ele>1811.2</ele>
        <time>2024-07-10T06:22:28Z</time>
      </trkpt>
      <trkpt lat="42.71798" lon="1.69087">
        <ele>1812.8</ele>
        <time>2024-07-10T06:22:36Z</time>
      </trkpt>
      <trkpt lat="42.71809" lon="1.69086">
        <ele>1815.2</ele>
        <time>2024-07-10T06:22:44Z</time>
      </trkpt>
      <trkpt lat="42.71818" lon="1.69084">
        <ele>1817.4</ele>
        <time>2024-07-10T06:22:51Z</time>
      </trkpt>
      <trkpt lat="42.71824" lon="1.69085">
        <ele>1818.4</ele>
        <time>2024-07-10T06:22:58Z</time>
      </trkpt>
      <trkpt lat="42.71823" lon="1.69084">
        <ele>1819.4</ele>
        <time>2024-07-10T06:23:03Z</time>
      </trkpt>
      <trkpt lat="42.71824" lon="1.69085">
        <ele>1821.2</ele>
        <time>2024-07-10T06:23:12Z</time>
      </trkpt>
      <trkpt lat="42.71825" lon="1.69085">
        <ele>1821.2</ele>
        <time>2024-07-10T06:23:18Z</time>
      </trkpt>
      <trkpt lat="42.71823" lon="1.69083">
        <ele>1821.2</ele>
        <time>2024-07-10T06:23:25Z</time>
      </trkpt>
      <trkpt lat="42.71824" lon="1.69083">
        <ele>1825.4</ele>
        <time>2024-07-10T06:23:34Z</time>
      </trkpt>
      <trkpt lat="42.71824" lon="1.69085">
        <ele>1824.8</ele>
        <time>2024-07-10T06:23:41Z</time>
      </trkpt>
      <trkpt lat="42.71825" lon="1.69085">
        <ele>1822.6</ele>
        <time>2024-07-10T06:24:04Z</time>
      </trkpt>
      <trkpt lat="42.71821" lon="1.69078">
        <ele>1826.8</ele>
        <time>2024-07-10T06:24:14Z</time>
      </trkpt>
      <trkpt lat="42.71819" lon="1.69075">
        <ele>1835</ele>
        <time>2024-07-10T06:24:24Z</time>
      </trkpt>
      <trkpt lat="42.71818" lon="1.69073">
        <ele>1837.6</ele>
        <time>2024-07-10T06:24:30Z</time>
      </trkpt>
      <trkpt lat="42.71818" lon="1.69074">
        <ele>1838</ele>
        <time>2024-07-10T06:24:37Z</time>
      </trkpt>
      <trkpt lat="42.71817" lon="1.69073">
        <ele>1838.2</ele>
        <time>2024-07-10T06:24:51Z</time>
      </trkpt>
      <trkpt lat="42.71816" lon="1.6907">
        <ele>1839.6</ele>
        <time>2024-07-10T06:24:59Z</time>
      </trkpt>
      <trkpt lat="42.71816" lon="1.69069">
        <ele>1842.8</ele>
        <time>2024-07-10T06:25:12Z</time>
      </trkpt>
      <trkpt lat="42.71812" lon="1.69063">
        <ele>1844</ele>
        <time>2024-07-10T06:25:32Z</time>
      </trkpt>
      <trkpt lat="42.71812" lon="1.69063">
        <ele>1843.4</ele>
        <time>2024-07-10T06:25:43Z</time>
      </trkpt>
      <trkpt lat="42.71823" lon="1.69073">
        <ele>1840.8</ele>
        <time>2024-07-10T06:26:32Z</time>
      </trkpt>
      <trkpt lat="42.7184" lon="1.6908">
        <ele>1836.4</ele>
        <time>2024-07-10T06:26:41Z</time>
      </trkpt>
      <trkpt lat="42.71857" lon="1.69087">
        <ele>1825</ele>
        <time>2024-07-10T06:26:53Z</time>
      </trkpt>
      <trkpt lat="42.71868" lon="1.69089">
        <ele>1821.6</ele>
        <time>2024-07-10T06:27:02Z</time>
      </trkpt>
      <trkpt lat="42.71879" lon="1.69092">
        <ele>1823</ele>
        <time>2024-07-10T06:27:12Z</time>
      </trkpt>
      <trkpt lat="42.7189" lon="1.69095">
        <ele>1823.6</ele>
        <time>2024-07-10T06:27:20Z</time>
      </trkpt>
      <trkpt lat="42.71901" lon="1.691">
        <ele>1822.8</ele>
        <time>2024-07-10T06:27:29Z</time>
      </trkpt>
      <trkpt lat="42.71912" lon="1.69102">
        <ele>1822</ele>
        <time>2024-07-10T06:27:38Z</time>
      </trkpt>
      <trkpt lat="42.71925" lon="1.69104">
        <ele>1824</ele>
        <time>2024-07-10T06:27:49Z</time>
      </trkpt>
      <trkpt lat="42.71935" lon="1.69106">
        <ele>1825.8</ele>
        <time>2024-07-10T06:27:57Z</time>
      </trkpt>
      <trkpt lat="42.7195" lon="1.69111">
        <ele>1825.8</ele>
        <time>2024-07-10T06:28:08Z</time>
      </trkpt>
      <trkpt lat="42.71966" lon="1.69116">
        <ele>1822.2</ele>
        <time>2024-07-10T06:28:19Z</time>
      </trkpt>
      <trkpt lat="42.71976" lon="1.69122">
        <ele>1821.4</ele>
        <time>2024-07-10T06:28:28Z</time>
      </trkpt>
      <trkpt lat="42.71987" lon="1.69125">
        <ele>1821.6</ele>
        <time>2024-07-10T06:28:36Z</time>
      </trkpt>
      <trkpt lat="42.71999" lon="1.69131">
        <ele>1822</ele>
        <time>2024-07-10T06:28:46Z</time>
      </trkpt>
      <trkpt lat="42.72009" lon="1.69133">
        <ele>1822.6</ele>
        <time>2024-07-10T06:28:54Z</time>
      </trkpt>
      <trkpt lat="42.72024" lon="1.69143">
        <ele>1823</ele>
        <time>2024-07-10T06:29:05Z</time>
      </trkpt>
      <trkpt lat="42.72033" lon="1.69147">
        <ele>1822.2</ele>
        <time>2024-07-10T06:29:13Z</time>
      </trkpt>
      <trkpt lat="42.72047" lon="1.69157">
        <ele>1821.6</ele>
        <time>2024-07-10T06:29:25Z</time>
      </trkpt>
      <trkpt lat="42.72052" lon="1.69163">
        <ele>1821.6</ele>
        <time>2024-07-10T06:29:31Z</time>
      </trkpt>
      <trkpt lat="42.72051" lon="1.69163">
        <ele>1821.8</ele>
        <time>2024-07-10T06:29:32Z</time>
      </trkpt>
      <trkpt lat="42.72043" lon="1.69164">
        <ele>1822.8</ele>
        <time>2024-07-10T06:29:39Z</time>
      </trkpt>
      <trkpt lat="42.72031" lon="1.69162">
        <ele>1823</ele>
        <time>2024-07-10T06:29:48Z</time>
      </trkpt>
      <trkpt lat="42.72023" lon="1.6916">
        <ele>1823.6</ele>
        <time>2024-07-10T06:29:56Z</time>
      </trkpt>
      <trkpt lat="42.72014" lon="1.69158">
        <ele>1825.2</ele>
        <time>2024-07-10T06:30:05Z</time>
      </trkpt>
      <trkpt lat="42.72002" lon="1.69159">
        <ele>1826.4</ele>
        <time>2024-07-10T06:30:14Z</time>
      </trkpt>
      <trkpt lat="42.71994" lon="1.69159">
        <ele>1826.8</ele>
        <time>2024-07-10T06:30:22Z</time>
      </trkpt>
      <trkpt lat="42.71984" lon="1.69161">
        <ele>1827.8</ele>
        <time>2024-07-10T06:30:30Z</time>
      </trkpt>
      <trkpt lat="42.71973" lon="1.69162">
        <ele>1829.4</ele>
        <time>2024-07-10T06:30:39Z</time>
      </trkpt>
      <trkpt lat="42.71964" lon="1.69161">
        <ele>1831.6</ele>
        <time>2024-07-10T06:30:47Z</time>
      </trkpt>
      <trkpt lat="42.71953" lon="1.69162">
        <ele>1834</ele>
        <time>2024-07-10T06:30:56Z</time>
      </trkpt>
      <trkpt lat="42.71941" lon="1.69164">
        <ele>1837.6</ele>
        <time>2024-07-10T06:31:06Z</time>
      </trkpt>
      <trkpt lat="42.71929" lon="1.69165">
        <ele>1839.8</ele>
        <time>2024-07-10T06:31:16Z</time>
      </trkpt>
      <trkpt lat="42.71927" lon="1.69165">
        <ele>1839.8</ele>
        <time>2024-07-10T06:31:18Z</time>
      </trkpt>
      <trkpt lat="42.71919" lon="1.69167">
        <ele>1840</ele>
        <time>2024-07-10T06:31:23Z</time>
      </trkpt>
      <trkpt lat="42.71911" lon="1.69172">
        <ele>1838</ele>
        <time>2024-07-10T06:31:31Z</time>
      </trkpt>
      <trkpt lat="42.719" lon="1.69175">
        <ele>1837</ele>
        <time>2024-07-10T06:31:40Z</time>
      </trkpt>
      <trkpt lat="42.7189" lon="1.69177">
        <ele>1835.8</ele>
        <time>2024-07-10T06:31:49Z</time>
      </trkpt>
      <trkpt lat="42.71876" lon="1.69181">
        <ele>1835.2</ele>
        <time>2024-07-10T06:32:01Z</time>
      </trkpt>
      <trkpt lat="42.71867" lon="1.69184">
        <ele>1835.4</ele>
        <time>2024-07-10T06:32:09Z</time>
      </trkpt>
      <trkpt lat="42.71866" lon="1.69185">
        <ele>1835.6</ele>
        <time>2024-07-10T06:32:10Z</time>
      </trkpt>
      <trkpt lat="42.7186" lon="1.69188">
        <ele>1836.4</ele>
        <time>2024-07-10T06:32:15Z</time>
      </trkpt>
      <trkpt lat="42.71851" lon="1.69195">
        <ele>1838.6</ele>
        <time>2024-07-10T06:32:23Z</time>
      </trkpt>
      <trkpt lat="42.71841" lon="1.69204">
        <ele>1840.4</ele>
        <time>2024-07-10T06:32:32Z</time>
      </trkpt>
      <trkpt lat="42.71833" lon="1.69213">
        <ele>1842.4</ele>
        <time>2024-07-10T06:32:41Z</time>
      </trkpt>
      <trkpt lat="42.71823" lon="1.69222">
        <ele>1844.2</ele>
        <time>2024-07-10T06:32:51Z</time>
      </trkpt>
      <trkpt lat="42.71822" lon="1.69223">
        <ele>1844.2</ele>
        <time>2024-07-10T06:32:52Z</time>
      </trkpt>
      <trkpt lat="42.71817" lon="1.69225">
        <ele>1844.4</ele>
        <time>2024-07-10T06:32:57Z</time>
      </trkpt>
      <trkpt lat="42.71808" lon="1.69231">
        <ele>1843.4</ele>
        <time>2024-07-10T06:33:05Z</time>
      </trkpt>
      <trkpt lat="42.71797" lon="1.69233">
        <ele>1846.8</ele>
        <time>2024-07-10T06:33:15Z</time>
      </trkpt>
      <trkpt lat="42.71786" lon="1.69236">
        <ele>1849.2</ele>
        <time>2024-07-10T06:33:25Z</time>
      </trkpt>
      <trkpt lat="42.71776" lon="1.69239">
        <ele>1851.2</ele>
        <time>2024-07-10T06:33:33Z</time>
      </trkpt>
      <trkpt lat="42.71766" lon="1.69242">
        <ele>1852.6</ele>
        <time>2024-07-10T06:33:41Z</time>
      </trkpt>
      <trkpt lat="42.71756" lon="1.69244">
        <ele>1854.6</ele>
        <time>2024-07-10T06:33:50Z</time>
      </trkpt>
      <trkpt lat="42.71744" lon="1.69248">
        <ele>1854.4</ele>
        <time>2024-07-10T06:34:00Z</time>
      </trkpt>
      <trkpt lat="42.71737" lon="1.69258">
        <ele>1856.4</ele>
        <time>2024-07-10T06:34:09Z</time>
      </trkpt>
      <trkpt lat="42.71734" lon="1.69266">
        <ele>1856.2</ele>
        <time>2024-07-10T06:34:15Z</time>
      </trkpt>
      <trkpt lat="42.71727" lon="1.69277">
        <ele>1855</ele>
        <time>2024-07-10T06:34:23Z</time>
      </trkpt>
      <trkpt lat="42.71726" lon="1.69279">
        <ele>1854.8</ele>
        <time>2024-07-10T06:34:24Z</time>
      </trkpt>
      <trkpt lat="42.71722" lon="1.69288">
        <ele>1853.6</ele>
        <time>2024-07-10T06:34:29Z</time>
      </trkpt>
      <trkpt lat="42.71721" lon="1.69289">
        <ele>1853.6</ele>
        <time>2024-07-10T06:34:30Z</time>
      </trkpt>
      <trkpt lat="42.71718" lon="1.69296">
        <ele>1853.6</ele>
        <time>2024-07-10T06:34:34Z</time>
      </trkpt>
      <trkpt lat="42.71717" lon="1.693">
        <ele>1855</ele>
        <time>2024-07-10T06:34:37Z</time>
      </trkpt>
      <trkpt lat="42.71713" lon="1.69313">
        <ele>1857.6</ele>
        <time>2024-07-10T06:34:45Z</time>
      </trkpt>
      <trkpt lat="42.71712" lon="1.69316">
        <ele>1857.4</ele>
        <time>2024-07-10T06:34:48Z</time>
      </trkpt>
      <trkpt lat="42.7171" lon="1.69323">
        <ele>1857.4</ele>
        <time>2024-07-10T06:34:52Z</time>
      </trkpt>
      <trkpt lat="42.71707" lon="1.69333">
        <ele>1857.4</ele>
        <time>2024-07-10T06:34:59Z</time>
      </trkpt>
      <trkpt lat="42.71706" lon="1.69336">
        <ele>1857.6</ele>
        <time>2024-07-10T06:35:01Z</time>
      </trkpt>
      <trkpt lat="42.71705" lon="1.6935">
        <ele>1858.4</ele>
        <time>2024-07-10T06:35:10Z</time>
      </trkpt>
      <trkpt lat="42.71704" lon="1.69364">
        <ele>1856.6</ele>
        <time>2024-07-10T06:35:19Z</time>
      </trkpt>
      <trkpt lat="42.71705" lon="1.69387">
        <ele>1856</ele>
        <time>2024-07-10T06:35:33Z</time>
      </trkpt>
      <trkpt lat="42.71709" lon="1.69403">
        <ele>1857.2</ele>
        <time>2024-07-10T06:35:43Z</time>
      </trkpt>
      <trkpt lat="42.71716" lon="1.69415">
        <ele>1860</ele>
        <time>2024-07-10T06:35:53Z</time>
      </trkpt>
      <trkpt lat="42.71726" lon="1.69424">
        <ele>1860.8</ele>
        <time>2024-07-10T06:36:04Z</time>
      </trkpt>
      <trkpt lat="42.71736" lon="1.69431">
        <ele>1861.8</ele>
        <time>2024-07-10T06:36:13Z</time>
      </trkpt>
      <trkpt lat="42.71752" lon="1.69435">
        <ele>1863</ele>
        <time>2024-07-10T06:36:27Z</time>
      </trkpt>
      <trkpt lat="42.71763" lon="1.69437">
        <ele>1865.6</ele>
        <time>2024-07-10T06:36:36Z</time>
      </trkpt>
      <trkpt lat="42.71768" lon="1.69435">
        <ele>1866</ele>
        <time>2024-07-10T06:36:40Z</time>
      </trkpt>
      <trkpt lat="42.71771" lon="1.69435">
        <ele>1865.8</ele>
        <time>2024-07-10T06:36:43Z</time>
      </trkpt>
      <trkpt lat="42.71786" lon="1.69436">
        <ele>1867</ele>
        <time>2024-07-10T06:36:54Z</time>
      </trkpt>
      <trkpt lat="42.71791" lon="1.69437">
        <ele>1866.8</ele>
        <time>2024-07-10T06:36:58Z</time>
      </trkpt>
      <trkpt lat="42.71792" lon="1.69441">
        <ele>1866.6</ele>
        <time>2024-07-10T06:37:01Z</time>
      </trkpt>
      <trkpt lat="42.71795" lon="1.69447">
        <ele>1865.2</ele>
        <time>2024-07-10T06:37:08Z</time>
      </trkpt>
      <trkpt lat="42.71794" lon="1.69447">
        <ele>1865</ele>
        <time>2024-07-10T06:37:19Z</time>
      </trkpt>
      <trkpt lat="42.71794" lon="1.69447">
        <ele>1864.8</ele>
        <time>2024-07-10T06:37:27Z</time>
      </trkpt>
      <trkpt lat="42.71801" lon="1.69454">
        <ele>1868.4</ele>
        <time>2024-07-10T06:39:32Z</time>
      </trkpt>
      <trkpt lat="42.71809" lon="1.69464">
        <ele>1868</ele>
        <time>2024-07-10T06:39:40Z</time>
      </trkpt>
      <trkpt lat="42.7181" lon="1.69474">
        <ele>1868.4</ele>
        <time>2024-07-10T06:39:48Z</time>
      </trkpt>
      <trkpt lat="42.71811" lon="1.69475">
        <ele>1868.8</ele>
        <time>2024-07-10T06:40:04Z</time>
      </trkpt>
      <trkpt lat="42.71813" lon="1.69496">
        <ele>1869.2</ele>
        <time>2024-07-10T06:40:13Z</time>
      </trkpt>
      <trkpt lat="42.71812" lon="1.69503">
        <ele>1870.2</ele>
        <time>2024-07-10T06:40:18Z</time>
      </trkpt>
      <trkpt lat="42.71812" lon="1.69505">
        <ele>1870.4</ele>
        <time>2024-07-10T06:40:19Z</time>
      </trkpt>
      <trkpt lat="42.71811" lon="1.69516">
        <ele>1871.4</ele>
        <time>2024-07-10T06:40:26Z</time>
      </trkpt>
      <trkpt lat="42.71811" lon="1.69527">
        <ele>1871.8</ele>
        <time>2024-07-10T06:40:33Z</time>
      </trkpt>
      <trkpt lat="42.71812" lon="1.6954">
        <ele>1871.6</ele>
        <time>2024-07-10T06:40:41Z</time>
      </trkpt>
      <trkpt lat="42.71812" lon="1.69555">
        <ele>1872</ele>
        <time>2024-07-10T06:40:50Z</time>
      </trkpt>
      <trkpt lat="42.71808" lon="1.69571">
        <ele>1873.4</ele>
        <time>2024-07-10T06:41:00Z</time>
      </trkpt>
      <trkpt lat="42.71809" lon="1.69583">
        <ele>1876</ele>
        <time>2024-07-10T06:41:08Z</time>
      </trkpt>
      <trkpt lat="42.71808" lon="1.69585">
        <ele>1876.2</ele>
        <time>2024-07-10T06:41:09Z</time>
      </trkpt>
      <trkpt lat="42.71809" lon="1.69601">
        <ele>1875.4</ele>
        <time>2024-07-10T06:41:19Z</time>
      </trkpt>
      <trkpt lat="42.7181" lon="1.69615">
        <ele>1876.4</ele>
        <time>2024-07-10T06:41:29Z</time>
      </trkpt>
      <trkpt lat="42.71811" lon="1.6963">
        <ele>1877.4</ele>
        <time>2024-07-10T06:41:39Z</time>
      </trkpt>
      <trkpt lat="42.71814" lon="1.69647">
        <ele>1877.8</ele>
        <time>2024-07-10T06:41:49Z</time>
      </trkpt>
      <trkpt lat="42.71817" lon="1.69661">
        <ele>1879.2</ele>
        <time>2024-07-10T06:41:57Z</time>
      </trkpt>
      <trkpt lat="42.7182" lon="1.69672">
        <ele>1879.4</ele>
        <time>2024-07-10T06:42:04Z</time>
      </trkpt>
      <trkpt lat="42.7182" lon="1.69674">
        <ele>1879.4</ele>
        <time>2024-07-10T06:42:05Z</time>
      </trkpt>
      <trkpt lat="42.71824" lon="1.6969">
        <ele>1879</ele>
        <time>2024-07-10T06:42:14Z</time>
      </trkpt>
      <trkpt lat="42.71825" lon="1.69704">
        <ele>1879</ele>
        <time>2024-07-10T06:42:22Z</time>
      </trkpt>
      <trkpt lat="42.71825" lon="1.69722">
        <ele>1879.4</ele>
        <time>2024-07-10T06:42:32Z</time>
      </trkpt>
      <trkpt lat="42.71821" lon="1.69743">
        <ele>1880</ele>
        <time>2024-07-10T06:42:44Z</time>
      </trkpt>
      <trkpt lat="42.71816" lon="1.69755">
        <ele>1881</ele>
        <time>2024-07-10T06:42:52Z</time>
      </trkpt>
      <trkpt lat="42.7181" lon="1.69768">
        <ele>1882.2</ele>
        <time>2024-07-10T06:43:01Z</time>
      </trkpt>
      <trkpt lat="42.71804" lon="1.69784">
        <ele>1883</ele>
        <time>2024-07-10T06:43:11Z</time>
      </trkpt>
      <trkpt lat="42.718" lon="1.69797">
        <ele>1884.4</ele>
        <time>2024-07-10T06:43:19Z</time>
      </trkpt>
      <trkpt lat="42.71796" lon="1.69811">
        <ele>1885.6</ele>
        <time>2024-07-10T06:43:28Z</time>
      </trkpt>
      <trkpt lat="42.71793" lon="1.69823">
        <ele>1886.2</ele>
        <time>2024-07-10T06:43:36Z</time>
      </trkpt>
      <trkpt lat="42.71792" lon="1.69837">
        <ele>1887.2</ele>
        <time>2024-07-10T06:43:45Z</time>
      </trkpt>
      <trkpt lat="42.71791" lon="1.69849">
        <ele>1887.4</ele>
        <time>2024-07-10T06:43:53Z</time>
      </trkpt>
      <trkpt lat="42.7179" lon="1.69863">
        <ele>1888.4</ele>
        <time>2024-07-10T06:44:02Z</time>
      </trkpt>
      <trkpt lat="42.7179" lon="1.69877">
        <ele>1888.8</ele>
        <time>2024-07-10T06:44:11Z</time>
      </trkpt>
      <trkpt lat="42.7179" lon="1.69888">
        <ele>1889.2</ele>
        <time>2024-07-10T06:44:18Z</time>
      </trkpt>
      <trkpt lat="42.71792" lon="1.69911">
        <ele>1891</ele>
        <time>2024-07-10T06:44:32Z</time>
      </trkpt>
      <trkpt lat="42.71794" lon="1.69925">
        <ele>1892.4</ele>
        <time>2024-07-10T06:44:41Z</time>
      </trkpt>
      <trkpt lat="42.71795" lon="1.69942">
        <ele>1895</ele>
        <time>2024-07-10T06:44:52Z</time>
      </trkpt>
      <trkpt lat="42.71796" lon="1.69961">
        <ele>1895</ele>
        <time>2024-07-10T06:45:04Z</time>
      </trkpt>
      <trkpt lat="42.71796" lon="1.69983">
        <ele>1895.6</ele>
        <time>2024-07-10T06:45:17Z</time>
      </trkpt>
      <trkpt lat="42.71798" lon="1.70008">
        <ele>1896.2</ele>
        <time>2024-07-10T06:45:32Z</time>
      </trkpt>
      <trkpt lat="42.71798" lon="1.70012">
        <ele>1896.4</ele>
        <time>2024-07-10T06:45:34Z</time>
      </trkpt>
      <trkpt lat="42.718" lon="1.70037">
        <ele>1898.2</ele>
        <time>2024-07-10T06:45:48Z</time>
      </trkpt>
      <trkpt lat="42.718" lon="1.70042">
        <ele>1898.8</ele>
        <time>2024-07-10T06:45:51Z</time>
      </trkpt>
      <trkpt lat="42.71802" lon="1.70068">
        <ele>1899.2</ele>
        <time>2024-07-10T06:46:06Z</time>
      </trkpt>
      <trkpt lat="42.71802" lon="1.70071">
        <ele>1899.2</ele>
        <time>2024-07-10T06:46:08Z</time>
      </trkpt>
      <trkpt lat="42.71793" lon="1.7009">
        <ele>1898.6</ele>
        <time>2024-07-10T06:46:21Z</time>
      </trkpt>
      <trkpt lat="42.71784" lon="1.70099">
        <ele>1899.6</ele>
        <time>2024-07-10T06:46:31Z</time>
      </trkpt>
      <trkpt lat="42.7177" lon="1.70113">
        <ele>1901.4</ele>
        <time>2024-07-10T06:46:46Z</time>
      </trkpt>
      <trkpt lat="42.71758" lon="1.70129">
        <ele>1902.2</ele>
        <time>2024-07-10T06:46:59Z</time>
      </trkpt>
      <trkpt lat="42.71747" lon="1.70149">
        <ele>1903.6</ele>
        <time>2024-07-10T06:47:13Z</time>
      </trkpt>
      <trkpt lat="42.71743" lon="1.70157">
        <ele>1904.6</ele>
        <time>2024-07-10T06:47:19Z</time>
      </trkpt>
      <trkpt lat="42.71737" lon="1.70176">
        <ele>1904.8</ele>
        <time>2024-07-10T06:47:31Z</time>
      </trkpt>
      <trkpt lat="42.71735" lon="1.70195">
        <ele>1906.8</ele>
        <time>2024-07-10T06:47:43Z</time>
      </trkpt>
      <trkpt lat="42.71736" lon="1.70217">
        <ele>1910.4</ele>
        <time>2024-07-10T06:47:57Z</time>
      </trkpt>
      <trkpt lat="42.71737" lon="1.70237">
        <ele>1910.8</ele>
        <time>2024-07-10T06:48:09Z</time>
      </trkpt>
      <trkpt lat="42.71739" lon="1.7026">
        <ele>1913.4</ele>
        <time>2024-07-10T06:48:23Z</time>
      </trkpt>
      <trkpt lat="42.71741" lon="1.70281">
        <ele>1914.6</ele>
        <time>2024-07-10T06:48:35Z</time>
      </trkpt>
      <trkpt lat="42.71743" lon="1.703">
        <ele>1915.8</ele>
        <time>2024-07-10T06:48:47Z</time>
      </trkpt>
      <trkpt lat="42.71743" lon="1.70325">
        <ele>1917.6</ele>
        <time>2024-07-10T06:49:02Z</time>
      </trkpt>
      <trkpt lat="42.71743" lon="1.70328">
        <ele>1917.6</ele>
        <time>2024-07-10T06:49:04Z</time>
      </trkpt>
      <trkpt lat="42.71739" lon="1.70343">
        <ele>1918</ele>
        <time>2024-07-10T06:49:14Z</time>
      </trkpt>
      <trkpt lat="42.71726" lon="1.70358">
        <ele>1918.6</ele>
        <time>2024-07-10T06:49:28Z</time>
      </trkpt>
      <trkpt lat="42.71718" lon="1.70366">
        <ele>1919.2</ele>
        <time>2024-07-10T06:49:36Z</time>
      </trkpt>
      <trkpt lat="42.71706" lon="1.7038">
        <ele>1920.2</ele>
        <time>2024-07-10T06:49:48Z</time>
      </trkpt>
      <trkpt lat="42.71697" lon="1.7039">
        <ele>1921.4</ele>
        <time>2024-07-10T06:49:58Z</time>
      </trkpt>
      <trkpt lat="42.71685" lon="1.70402">
        <ele>1922.8</ele>
        <time>2024-07-10T06:50:09Z</time>
      </trkpt>
      <trkpt lat="42.71675" lon="1.70412">
        <ele>1924.2</ele>
        <time>2024-07-10T06:50:20Z</time>
      </trkpt>
      <trkpt lat="42.71667" lon="1.7042">
        <ele>1925</ele>
        <time>2024-07-10T06:50:28Z</time>
      </trkpt>
      <trkpt lat="42.71659" lon="1.70428">
        <ele>1926.4</ele>
        <time>2024-07-10T06:50:36Z</time>
      </trkpt>
      <trkpt lat="42.71648" lon="1.7044">
        <ele>1926.6</ele>
        <time>2024-07-10T06:50:48Z</time>
      </trkpt>
      <trkpt lat="42.71638" lon="1.70456">
        <ele>1927</ele>
        <time>2024-07-10T06:51:00Z</time>
      </trkpt>
      <trkpt lat="42.71632" lon="1.70468">
        <ele>1928.2</ele>
        <time>2024-07-10T06:51:08Z</time>
      </trkpt>
      <trkpt lat="42.71625" lon="1.7048">
        <ele>1929.8</ele>
        <time>2024-07-10T06:51:17Z</time>
      </trkpt>
      <trkpt lat="42.71622" lon="1.70494">
        <ele>1931</ele>
        <time>2024-07-10T06:51:26Z</time>
      </trkpt>
      <trkpt lat="42.71616" lon="1.70509">
        <ele>1931.2</ele>
        <time>2024-07-10T06:51:35Z</time>
      </trkpt>
      <trkpt lat="42.71608" lon="1.70527">
        <ele>1930.6</ele>
        <time>2024-07-10T06:51:47Z</time>
      </trkpt>
      <trkpt lat="42.71596" lon="1.70541">
        <ele>1931.8</ele>
        <time>2024-07-10T06:51:59Z</time>
      </trkpt>
      <trkpt lat="42.71585" lon="1.70553">
        <ele>1933.2</ele>
        <time>2024-07-10T06:52:10Z</time>
      </trkpt>
      <trkpt lat="42.71572" lon="1.70564">
        <ele>1934</ele>
        <time>2024-07-10T06:52:20Z</time>
      </trkpt>
      <trkpt lat="42.71565" lon="1.70568">
        <ele>1934.6</ele>
        <time>2024-07-10T06:52:27Z</time>
      </trkpt>
      <trkpt lat="42.71552" lon="1.70574">
        <ele>1934.2</ele>
        <time>2024-07-10T06:52:38Z</time>
      </trkpt>
      <trkpt lat="42.71543" lon="1.70575">
        <ele>1934.8</ele>
        <time>2024-07-10T06:52:46Z</time>
      </trkpt>
      <trkpt lat="42.71531" lon="1.70574">
        <ele>1936.2</ele>
        <time>2024-07-10T06:52:56Z</time>
      </trkpt>
      <trkpt lat="42.71516" lon="1.70568">
        <ele>1936</ele>
        <time>2024-07-10T06:53:07Z</time>
      </trkpt>
      <trkpt lat="42.71506" lon="1.70562">
        <ele>1936.6</ele>
        <time>2024-07-10T06:53:16Z</time>
      </trkpt>
      <trkpt lat="42.71497" lon="1.70554">
        <ele>1938</ele>
        <time>2024-07-10T06:53:25Z</time>
      </trkpt>
      <trkpt lat="42.71483" lon="1.70541">
        <ele>1940</ele>
        <time>2024-07-10T06:53:39Z</time>
      </trkpt>
      <trkpt lat="42.71469" lon="1.70534">
        <ele>1940.6</ele>
        <time>2024-07-10T06:53:51Z</time>
      </trkpt>
      <trkpt lat="42.71453" lon="1.7053">
        <ele>1941.6</ele>
        <time>2024-07-10T06:54:04Z</time>
      </trkpt>
      <trkpt lat="42.71436" lon="1.70532">
        <ele>1940.2</ele>
        <time>2024-07-10T06:54:16Z</time>
      </trkpt>
      <trkpt lat="42.71423" lon="1.70536">
        <ele>1939.8</ele>
        <time>2024-07-10T06:54:26Z</time>
      </trkpt>
      <trkpt lat="42.71412" lon="1.70543">
        <ele>1941.2</ele>
        <time>2024-07-10T06:54:36Z</time>
      </trkpt>
      <trkpt lat="42.714" lon="1.70553">
        <ele>1940.2</ele>
        <time>2024-07-10T06:54:46Z</time>
      </trkpt>
      <trkpt lat="42.71389" lon="1.70558">
        <ele>1940.2</ele>
        <time>2024-07-10T06:54:55Z</time>
      </trkpt>
      <trkpt lat="42.71373" lon="1.70566">
        <ele>1942.4</ele>
        <time>2024-07-10T06:55:08Z</time>
      </trkpt>
      <trkpt lat="42.71359" lon="1.70572">
        <ele>1943.2</ele>
        <time>2024-07-10T06:55:20Z</time>
      </trkpt>
      <trkpt lat="42.71344" lon="1.70577">
        <ele>1941.8</ele>
        <time>2024-07-10T06:55:32Z</time>
      </trkpt>
      <trkpt lat="42.71333" lon="1.7058">
        <ele>1942.2</ele>
        <time>2024-07-10T06:55:41Z</time>
      </trkpt>
      <trkpt lat="42.7132" lon="1.70586">
        <ele>1945</ele>
        <time>2024-07-10T06:55:51Z</time>
      </trkpt>
      <trkpt lat="42.71306" lon="1.70591">
        <ele>1944.8</ele>
        <time>2024-07-10T06:56:02Z</time>
      </trkpt>
      <trkpt lat="42.71293" lon="1.70593">
        <ele>1944.6</ele>
        <time>2024-07-10T06:56:12Z</time>
      </trkpt>
      <trkpt lat="42.71289" lon="1.70593">
        <ele>1944.6</ele>
        <time>2024-07-10T06:56:15Z</time>
      </trkpt>
      <trkpt lat="42.71284" lon="1.70593">
        <ele>1944.8</ele>
        <time>2024-07-10T06:56:19Z</time>
      </trkpt>
      <trkpt lat="42.71273" lon="1.70597">
        <ele>1945.6</ele>
        <time>2024-07-10T06:56:28Z</time>
      </trkpt>
      <trkpt lat="42.71262" lon="1.70602">
        <ele>1947.2</ele>
        <time>2024-07-10T06:56:37Z</time>
      </trkpt>
      <trkpt lat="42.71248" lon="1.70606">
        <ele>1948.2</ele>
        <time>2024-07-10T06:56:48Z</time>
      </trkpt>
      <trkpt lat="42.71237" lon="1.70609">
        <ele>1949.4</ele>
        <time>2024-07-10T06:56:57Z</time>
      </trkpt>
      <trkpt lat="42.71225" lon="1.70613">
        <ele>1949.8</ele>
        <time>2024-07-10T06:57:07Z</time>
      </trkpt>
      <trkpt lat="42.71215" lon="1.70615">
        <ele>1949.8</ele>
        <time>2024-07-10T06:57:15Z</time>
      </trkpt>
      <trkpt lat="42.71205" lon="1.70618">
        <ele>1951.4</ele>
        <time>2024-07-10T06:57:23Z</time>
      </trkpt>
      <trkpt lat="42.71187" lon="1.70624">
        <ele>1951.8</ele>
        <time>2024-07-10T06:57:37Z</time>
      </trkpt>
      <trkpt lat="42.71185" lon="1.70625">
        <ele>1951.8</ele>
        <time>2024-07-10T06:57:39Z</time>
      </trkpt>
      <trkpt lat="42.7117" lon="1.7063">
        <ele>1952.2</ele>
        <time>2024-07-10T06:57:50Z</time>
      </trkpt>
      <trkpt lat="42.71158" lon="1.70634">
        <ele>1952.6</ele>
        <time>2024-07-10T06:57:59Z</time>
      </trkpt>
      <trkpt lat="42.71145" lon="1.7064">
        <ele>1953.8</ele>
        <time>2024-07-10T06:58:10Z</time>
      </trkpt>
      <trkpt lat="42.7113" lon="1.70645">
        <ele>1954.2</ele>
        <time>2024-07-10T06:58:21Z</time>
      </trkpt>
      <trkpt lat="42.71117" lon="1.70651">
        <ele>1954</ele>
        <time>2024-07-10T06:58:32Z</time>
      </trkpt>
      <trkpt lat="42.71106" lon="1.70658">
        <ele>1954</ele>
        <time>2024-07-10T06:58:41Z</time>
      </trkpt>
      <trkpt lat="42.71091" lon="1.70667">
        <ele>1954.6</ele>
        <time>2024-07-10T06:58:53Z</time>
      </trkpt>
      <trkpt lat="42.7108" lon="1.70675">
        <ele>1955.2</ele>
        <time>2024-07-10T06:59:02Z</time>
      </trkpt>
      <trkpt lat="42.71072" lon="1.70687">
        <ele>1954.6</ele>
        <time>2024-07-10T06:59:11Z</time>
      </trkpt>
      <trkpt lat="42.71065" lon="1.70698">
        <ele>1954</ele>
        <time>2024-07-10T06:59:19Z</time>
      </trkpt>
      <trkpt lat="42.71059" lon="1.70717">
        <ele>1953.2</ele>
        <time>2024-07-10T06:59:30Z</time>
      </trkpt>
      <trkpt lat="42.71049" lon="1.70739">
        <ele>1951.4</ele>
        <time>2024-07-10T06:59:43Z</time>
      </trkpt>
      <trkpt lat="42.7104" lon="1.70755">
        <ele>1949.8</ele>
        <time>2024-07-10T06:59:53Z</time>
      </trkpt>
      <trkpt lat="42.71031" lon="1.70772">
        <ele>1949</ele>
        <time>2024-07-10T07:00:03Z</time>
      </trkpt>
      <trkpt lat="42.71025" lon="1.70785">
        <ele>1949</ele>
        <time>2024-07-10T07:00:11Z</time>
      </trkpt>
      <trkpt lat="42.71019" lon="1.708">
        <ele>1948.4</ele>
        <time>2024-07-10T07:00:20Z</time>
      </trkpt>
      <trkpt lat="42.71011" lon="1.70815">
        <ele>1947.8</ele>
        <time>2024-07-10T07:00:30Z</time>
      </trkpt>
      <trkpt lat="42.71001" lon="1.70834">
        <ele>1947</ele>
        <time>2024-07-10T07:00:42Z</time>
      </trkpt>
      <trkpt lat="42.70994" lon="1.70851">
        <ele>1946.2</ele>
        <time>2024-07-10T07:00:52Z</time>
      </trkpt>
      <trkpt lat="42.70985" lon="1.70869">
        <ele>1945</ele>
        <time>2024-07-10T07:01:02Z</time>
      </trkpt>
      <trkpt lat="42.70974" lon="1.70887">
        <ele>1945</ele>
        <time>2024-07-10T07:01:14Z</time>
      </trkpt>
      <trkpt lat="42.70964" lon="1.70897">
        <ele>1945.2</ele>
        <time>2024-07-10T07:01:23Z</time>
      </trkpt>
      <trkpt lat="42.70951" lon="1.70908">
        <ele>1944</ele>
        <time>2024-07-10T07:01:33Z</time>
      </trkpt>
      <trkpt lat="42.70941" lon="1.70916">
        <ele>1942.2</ele>
        <time>2024-07-10T07:01:41Z</time>
      </trkpt>
      <trkpt lat="42.70929" lon="1.70922">
        <ele>1942</ele>
        <time>2024-07-10T07:01:50Z</time>
      </trkpt>
      <trkpt lat="42.70916" lon="1.70928">
        <ele>1942</ele>
        <time>2024-07-10T07:01:59Z</time>
      </trkpt>
      <trkpt lat="42.70903" lon="1.70935">
        <ele>1941</ele>
        <time>2024-07-10T07:02:09Z</time>
      </trkpt>
      <trkpt lat="42.70892" lon="1.70942">
        <ele>1940.4</ele>
        <time>2024-07-10T07:02:17Z</time>
      </trkpt>
      <trkpt lat="42.70878" lon="1.70947">
        <ele>1941.2</ele>
        <time>2024-07-10T07:02:27Z</time>
      </trkpt>
      <trkpt lat="42.70865" lon="1.70952">
        <ele>1941.2</ele>
        <time>2024-07-10T07:02:36Z</time>
      </trkpt>
      <trkpt lat="42.70852" lon="1.70953">
        <ele>1941.6</ele>
        <time>2024-07-10T07:02:44Z</time>
      </trkpt>
      <trkpt lat="42.7084" lon="1.70948">
        <ele>1941</ele>
        <time>2024-07-10T07:02:53Z</time>
      </trkpt>
      <trkpt lat="42.70831" lon="1.70944">
        <ele>1940</ele>
        <time>2024-07-10T07:03:00Z</time>
      </trkpt>
      <trkpt lat="42.70817" lon="1.70937">
        <ele>1939.4</ele>
        <time>2024-07-10T07:03:09Z</time>
      </trkpt>
      <trkpt lat="42.70805" lon="1.70932">
        <ele>1938.2</ele>
        <time>2024-07-10T07:03:18Z</time>
      </trkpt>
      <trkpt lat="42.7079" lon="1.70933">
        <ele>1938.2</ele>
        <time>2024-07-10T07:03:28Z</time>
      </trkpt>
      <trkpt lat="42.70777" lon="1.70935">
        <ele>1936.4</ele>
        <time>2024-07-10T07:03:37Z</time>
      </trkpt>
      <trkpt lat="42.70762" lon="1.70936">
        <ele>1935.4</ele>
        <time>2024-07-10T07:03:47Z</time>
      </trkpt>
      <trkpt lat="42.70751" lon="1.70937">
        <ele>1934.8</ele>
        <time>2024-07-10T07:03:55Z</time>
      </trkpt>
      <trkpt lat="42.70736" lon="1.70937">
        <ele>1933</ele>
        <time>2024-07-10T07:04:05Z</time>
      </trkpt>
      <trkpt lat="42.70725" lon="1.70939">
        <ele>1932.2</ele>
        <time>2024-07-10T07:04:13Z</time>
      </trkpt>
      <trkpt lat="42.70711" lon="1.70943">
        <ele>1933.8</ele>
        <time>2024-07-10T07:04:23Z</time>
      </trkpt>
      <trkpt lat="42.70699" lon="1.70949">
        <ele>1934.6</ele>
        <time>2024-07-10T07:04:32Z</time>
      </trkpt>
      <trkpt lat="42.70684" lon="1.70957">
        <ele>1935.4</ele>
        <time>2024-07-10T07:04:44Z</time>
      </trkpt>
      <trkpt lat="42.7067" lon="1.70968">
        <ele>1936</ele>
        <time>2024-07-10T07:04:56Z</time>
      </trkpt>
      <trkpt lat="42.70658" lon="1.70977">
        <ele>1934.6</ele>
        <time>2024-07-10T07:05:05Z</time>
      </trkpt>
      <trkpt lat="42.70641" lon="1.70988">
        <ele>1933</ele>
        <time>2024-07-10T07:05:17Z</time>
      </trkpt>
      <trkpt lat="42.70631" lon="1.70998">
        <ele>1931.2</ele>
        <time>2024-07-10T07:05:26Z</time>
      </trkpt>
      <trkpt lat="42.70619" lon="1.71011">
        <ele>1929</ele>
        <time>2024-07-10T07:05:37Z</time>
      </trkpt>
      <trkpt lat="42.70605" lon="1.71026">
        <ele>1931.2</ele>
        <time>2024-07-10T07:05:50Z</time>
      </trkpt>
      <trkpt lat="42.70596" lon="1.71041">
        <ele>1933.4</ele>
        <time>2024-07-10T07:06:00Z</time>
      </trkpt>
      <trkpt lat="42.70589" lon="1.71051">
        <ele>1933.4</ele>
        <time>2024-07-10T07:06:08Z</time>
      </trkpt>
      <trkpt lat="42.70582" lon="1.7106">
        <ele>1934</ele>
        <time>2024-07-10T07:06:16Z</time>
      </trkpt>
      <trkpt lat="42.70574" lon="1.71084">
        <ele>1936.6</ele>
        <time>2024-07-10T07:06:31Z</time>
      </trkpt>
      <trkpt lat="42.70567" lon="1.71098">
        <ele>1936.8</ele>
        <time>2024-07-10T07:06:41Z</time>
      </trkpt>
      <trkpt lat="42.70561" lon="1.71108">
        <ele>1936.6</ele>
        <time>2024-07-10T07:06:49Z</time>
      </trkpt>
      <trkpt lat="42.70552" lon="1.71119">
        <ele>1936.6</ele>
        <time>2024-07-10T07:06:59Z</time>
      </trkpt>
      <trkpt lat="42.70547" lon="1.71125">
        <ele>1936.4</ele>
        <time>2024-07-10T07:07:04Z</time>
      </trkpt>
      <trkpt lat="42.70544" lon="1.71129">
        <ele>1936.2</ele>
        <time>2024-07-10T07:07:07Z</time>
      </trkpt>
      <trkpt lat="42.70536" lon="1.71137">
        <ele>1936.8</ele>
        <time>2024-07-10T07:07:15Z</time>
      </trkpt>
      <trkpt lat="42.70527" lon="1.71146">
        <ele>1937</ele>
        <time>2024-07-10T07:07:24Z</time>
      </trkpt>
      <trkpt lat="42.70517" lon="1.71159">
        <ele>1938.8</ele>
        <time>2024-07-10T07:07:34Z</time>
      </trkpt>
      <trkpt lat="42.70509" lon="1.71169">
        <ele>1939.2</ele>
        <time>2024-07-10T07:07:42Z</time>
      </trkpt>
      <trkpt lat="42.70501" lon="1.71178">
        <ele>1938.6</ele>
        <time>2024-07-10T07:07:51Z</time>
      </trkpt>
      <trkpt lat="42.70492" lon="1.71188">
        <ele>1937.6</ele>
        <time>2024-07-10T07:08:00Z</time>
      </trkpt>
      <trkpt lat="42.70484" lon="1.71194">
        <ele>1938</ele>
        <time>2024-07-10T07:08:08Z</time>
      </trkpt>
      <trkpt lat="42.70473" lon="1.71201">
        <ele>1938</ele>
        <time>2024-07-10T07:08:17Z</time>
      </trkpt>
      <trkpt lat="42.70458" lon="1.71208">
        <ele>1938.4</ele>
        <time>2024-07-10T07:08:29Z</time>
      </trkpt>
      <trkpt lat="42.70447" lon="1.71213">
        <ele>1938.8</ele>
        <time>2024-07-10T07:08:37Z</time>
      </trkpt>
      <trkpt lat="42.70437" lon="1.71218">
        <ele>1940.8</ele>
        <time>2024-07-10T07:08:45Z</time>
      </trkpt>
      <trkpt lat="42.70423" lon="1.71229">
        <ele>1942.2</ele>
        <time>2024-07-10T07:08:58Z</time>
      </trkpt>
      <trkpt lat="42.70413" lon="1.71244">
        <ele>1942.8</ele>
        <time>2024-07-10T07:09:09Z</time>
      </trkpt>
      <trkpt lat="42.70405" lon="1.71255">
        <ele>1943.6</ele>
        <time>2024-07-10T07:09:18Z</time>
      </trkpt>
      <trkpt lat="42.70399" lon="1.71261">
        <ele>1944.2</ele>
        <time>2024-07-10T07:09:24Z</time>
      </trkpt>
      <trkpt lat="42.70398" lon="1.71262">
        <ele>1944.6</ele>
        <time>2024-07-10T07:09:25Z</time>
      </trkpt>
      <trkpt lat="42.70391" lon="1.71265">
        <ele>1945.8</ele>
        <time>2024-07-10T07:09:32Z</time>
      </trkpt>
      <trkpt lat="42.7038" lon="1.71267">
        <ele>1946.8</ele>
        <time>2024-07-10T07:09:40Z</time>
      </trkpt>
      <trkpt lat="42.70378" lon="1.71267">
        <ele>1947</ele>
        <time>2024-07-10T07:09:42Z</time>
      </trkpt>
      <trkpt lat="42.70372" lon="1.71267">
        <ele>1947.2</ele>
        <time>2024-07-10T07:09:46Z</time>
      </trkpt>
      <trkpt lat="42.70362" lon="1.71272">
        <ele>1947.4</ele>
        <time>2024-07-10T07:09:54Z</time>
      </trkpt>
      <trkpt lat="42.70351" lon="1.71275">
        <ele>1948.4</ele>
        <time>2024-07-10T07:10:03Z</time>
      </trkpt>
      <trkpt lat="42.7034" lon="1.71284">
        <ele>1947.8</ele>
        <time>2024-07-10T07:10:13Z</time>
      </trkpt>
      <trkpt lat="42.70331" lon="1.71289">
        <ele>1949</ele>
        <time>2024-07-10T07:10:21Z</time>
      </trkpt>
      <trkpt lat="42.70319" lon="1.71298">
        <ele>1950</ele>
        <time>2024-07-10T07:10:31Z</time>
      </trkpt>
      <trkpt lat="42.70311" lon="1.71303">
        <ele>1951</ele>
        <time>2024-07-10T07:10:38Z</time>
      </trkpt>
      <trkpt lat="42.70302" lon="1.71308">
        <ele>1951.4</ele>
        <time>2024-07-10T07:10:46Z</time>
      </trkpt>
      <trkpt lat="42.70291" lon="1.71319">
        <ele>1950.4</ele>
        <time>2024-07-10T07:10:57Z</time>
      </trkpt>
      <trkpt lat="42.70281" lon="1.71328">
        <ele>1953.4</ele>
        <time>2024-07-10T07:11:06Z</time>
      </trkpt>
      <trkpt lat="42.7027" lon="1.71337">
        <ele>1954.8</ele>
        <time>2024-07-10T07:11:16Z</time>
      </trkpt>
      <trkpt lat="42.70259" lon="1.71344">
        <ele>1955.4</ele>
        <time>2024-07-10T07:11:26Z</time>
      </trkpt>
      <trkpt lat="42.70249" lon="1.7135">
        <ele>1958.2</ele>
        <time>2024-07-10T07:11:35Z</time>
      </trkpt>
      <trkpt lat="42.70238" lon="1.71355">
        <ele>1960</ele>
        <time>2024-07-10T07:11:45Z</time>
      </trkpt>
      <trkpt lat="42.70227" lon="1.71361">
        <ele>1960.6</ele>
        <time>2024-07-10T07:11:55Z</time>
      </trkpt>
      <trkpt lat="42.70217" lon="1.71369">
        <ele>1961.8</ele>
        <time>2024-07-10T07:12:06Z</time>
      </trkpt>
      <trkpt lat="42.70205" lon="1.71379">
        <ele>1962.4</ele>
        <time>2024-07-10T07:12:18Z</time>
      </trkpt>
      <trkpt lat="42.70194" lon="1.71391">
        <ele>1964.2</ele>
        <time>2024-07-10T07:12:32Z</time>
      </trkpt>
      <trkpt lat="42.70186" lon="1.71399">
        <ele>1966</ele>
        <time>2024-07-10T07:12:41Z</time>
      </trkpt>
      <trkpt lat="42.70176" lon="1.71407">
        <ele>1968</ele>
        <time>2024-07-10T07:12:52Z</time>
      </trkpt>
      <trkpt lat="42.70168" lon="1.71413">
        <ele>1970</ele>
        <time>2024-07-10T07:13:01Z</time>
      </trkpt>
      <trkpt lat="42.70158" lon="1.71417">
        <ele>1972.4</ele>
        <time>2024-07-10T07:13:10Z</time>
      </trkpt>
      <trkpt lat="42.70147" lon="1.7142">
        <ele>1972</ele>
        <time>2024-07-10T07:13:19Z</time>
      </trkpt>
      <trkpt lat="42.70138" lon="1.71425">
        <ele>1974.8</ele>
        <time>2024-07-10T07:13:28Z</time>
      </trkpt>
      <trkpt lat="42.7013" lon="1.71432">
        <ele>1977.2</ele>
        <time>2024-07-10T07:13:37Z</time>
      </trkpt>
      <trkpt lat="42.70122" lon="1.71439">
        <ele>1978.4</ele>
        <time>2024-07-10T07:13:46Z</time>
      </trkpt>
      <trkpt lat="42.70107" lon="1.71448">
        <ele>1978.8</ele>
        <time>2024-07-10T07:14:00Z</time>
      </trkpt>
      <trkpt lat="42.70093" lon="1.71453">
        <ele>1978.6</ele>
        <time>2024-07-10T07:14:13Z</time>
      </trkpt>
      <trkpt lat="42.70081" lon="1.71459">
        <ele>1980.4</ele>
        <time>2024-07-10T07:14:24Z</time>
      </trkpt>
      <trkpt lat="42.70073" lon="1.71472">
        <ele>1983</ele>
        <time>2024-07-10T07:14:35Z</time>
      </trkpt>
      <trkpt lat="42.70061" lon="1.71481">
        <ele>1985</ele>
        <time>2024-07-10T07:14:46Z</time>
      </trkpt>
      <trkpt lat="42.70051" lon="1.71491">
        <ele>1985.6</ele>
        <time>2024-07-10T07:14:56Z</time>
      </trkpt>
      <trkpt lat="42.70042" lon="1.71501">
        <ele>1984.6</ele>
        <time>2024-07-10T07:15:04Z</time>
      </trkpt>
      <trkpt lat="42.70038" lon="1.71514">
        <ele>1985.8</ele>
        <time>2024-07-10T07:15:12Z</time>
      </trkpt>
      <trkpt lat="42.7003" lon="1.71535">
        <ele>1986.4</ele>
        <time>2024-07-10T07:15:24Z</time>
      </trkpt>
      <trkpt lat="42.70023" lon="1.71554">
        <ele>1983.8</ele>
        <time>2024-07-10T07:15:35Z</time>
      </trkpt>
      <trkpt lat="42.70014" lon="1.71571">
        <ele>1980.8</ele>
        <time>2024-07-10T07:15:45Z</time>
      </trkpt>
      <trkpt lat="42.70005" lon="1.71591">
        <ele>1979</ele>
        <time>2024-07-10T07:15:57Z</time>
      </trkpt>
      <trkpt lat="42.7" lon="1.71602">
        <ele>1977</ele>
        <time>2024-07-10T07:16:04Z</time>
      </trkpt>
      <trkpt lat="42.69992" lon="1.71616">
        <ele>1973.2</ele>
        <time>2024-07-10T07:16:14Z</time>
      </trkpt>
      <trkpt lat="42.69986" lon="1.7163">
        <ele>1971.2</ele>
        <time>2024-07-10T07:16:23Z</time>
      </trkpt>
      <trkpt lat="42.69986" lon="1.71632">
        <ele>1971</ele>
        <time>2024-07-10T07:16:24Z</time>
      </trkpt>
      <trkpt lat="42.69983" lon="1.71637">
        <ele>1969.6</ele>
        <time>2024-07-10T07:16:29Z</time>
      </trkpt>
      <trkpt lat="42.69979" lon="1.71647">
        <ele>1967.6</ele>
        <time>2024-07-10T07:16:38Z</time>
      </trkpt>
      <trkpt lat="42.69974" lon="1.71662">
        <ele>1961.8</ele>
        <time>2024-07-10T07:16:49Z</time>
      </trkpt>
      <trkpt lat="42.6997" lon="1.71672">
        <ele>1956.8</ele>
        <time>2024-07-10T07:16:58Z</time>
      </trkpt>
      <trkpt lat="42.69966" lon="1.71683">
        <ele>1954</ele>
        <time>2024-07-10T07:17:07Z</time>
      </trkpt>
      <trkpt lat="42.69963" lon="1.71698">
        <ele>1950.8</ele>
        <time>2024-07-10T07:17:17Z</time>
      </trkpt>
      <trkpt lat="42.69957" lon="1.71714">
        <ele>1946.8</ele>
        <time>2024-07-10T07:17:27Z</time>
      </trkpt>
      <trkpt lat="42.69945" lon="1.71722">
        <ele>1944.6</ele>
        <time>2024-07-10T07:17:37Z</time>
      </trkpt>
      <trkpt lat="42.69936" lon="1.71731">
        <ele>1942.4</ele>
        <time>2024-07-10T07:17:46Z</time>
      </trkpt>
      <trkpt lat="42.69935" lon="1.71732">
        <ele>1941.2</ele>
        <time>2024-07-10T07:17:51Z</time>
      </trkpt>
      <trkpt lat="42.69934" lon="1.71723">
        <ele>1940.2</ele>
        <time>2024-07-10T07:18:20Z</time>
      </trkpt>
      <trkpt lat="42.69928" lon="1.71713">
        <ele>1941.2</ele>
        <time>2024-07-10T07:18:26Z</time>
      </trkpt>
      <trkpt lat="42.69922" lon="1.71709">
        <ele>1941.2</ele>
        <time>2024-07-10T07:18:32Z</time>
      </trkpt>
      <trkpt lat="42.6992" lon="1.71706">
        <ele>1940.4</ele>
        <time>2024-07-10T07:18:35Z</time>
      </trkpt>
      <trkpt lat="42.69914" lon="1.71695">
        <ele>1940</ele>
        <time>2024-07-10T07:18:44Z</time>
      </trkpt>
      <trkpt lat="42.69903" lon="1.71681">
        <ele>1940.4</ele>
        <time>2024-07-10T07:18:56Z</time>
      </trkpt>
      <trkpt lat="42.69892" lon="1.71668">
        <ele>1940</ele>
        <time>2024-07-10T07:19:07Z</time>
      </trkpt>
      <trkpt lat="42.69883" lon="1.71664">
        <ele>1939.6</ele>
        <time>2024-07-10T07:19:16Z</time>
      </trkpt>
      <trkpt lat="42.69874" lon="1.71656">
        <ele>1939.2</ele>
        <time>2024-07-10T07:19:25Z</time>
      </trkpt>
      <trkpt lat="42.69873" lon="1.71655">
        <ele>1939.2</ele>
        <time>2024-07-10T07:19:26Z</time>
      </trkpt>
      <trkpt lat="42.69871" lon="1.71653">
        <ele>1939.8</ele>
        <time>2024-07-10T07:19:30Z</time>
      </trkpt>
      <trkpt lat="42.69866" lon="1.71643">
        <ele>1940.2</ele>
        <time>2024-07-10T07:19:38Z</time>
      </trkpt>
      <trkpt lat="42.69865" lon="1.71643">
        <ele>1940.2</ele>
        <time>2024-07-10T07:19:39Z</time>
      </trkpt>
      <trkpt lat="42.69864" lon="1.71639">
        <ele>1940.8</ele>
        <time>2024-07-10T07:19:44Z</time>
      </trkpt>
      <trkpt lat="42.6986" lon="1.71634">
        <ele>1941.8</ele>
        <time>2024-07-10T07:19:51Z</time>
      </trkpt>
      <trkpt lat="42.6986" lon="1.71634">
        <ele>1942.4</ele>
        <time>2024-07-10T07:19:57Z</time>
      </trkpt>
      <trkpt lat="42.69863" lon="1.71637">
        <ele>1944.8</ele>
        <time>2024-07-10T07:20:13Z</time>
      </trkpt>
      <trkpt lat="42.69867" lon="1.71643">
        <ele>1945.4</ele>
        <time>2024-07-10T07:20:19Z</time>
      </trkpt>
      <trkpt lat="42.69867" lon="1.71643">
        <ele>1944.8</ele>
        <time>2024-07-10T07:20:34Z</time>
      </trkpt>
      <trkpt lat="42.6987" lon="1.7165">
        <ele>1944.6</ele>
        <time>2024-07-10T07:20:44Z</time>
      </trkpt>
      <trkpt lat="42.69877" lon="1.71659">
        <ele>1943.6</ele>
        <time>2024-07-10T07:20:50Z</time>
      </trkpt>
      <trkpt lat="42.69887" lon="1.7167">
        <ele>1942.2</ele>
        <time>2024-07-10T07:21:00Z</time>
      </trkpt>
      <trkpt lat="42.69895" lon="1.71682">
        <ele>1939.6</ele>
        <time>2024-07-10T07:21:09Z</time>
      </trkpt>
      <trkpt lat="42.69902" lon="1.71694">
        <ele>1939</ele>
        <time>2024-07-10T07:21:17Z</time>
      </trkpt>
      <trkpt lat="42.69903" lon="1.71698">
        <ele>1939</ele>
        <time>2024-07-10T07:21:19Z</time>
      </trkpt>
      <trkpt lat="42.69908" lon="1.71712">
        <ele>1938.8</ele>
        <time>2024-07-10T07:21:28Z</time>
      </trkpt>
      <trkpt lat="42.69912" lon="1.71721">
        <ele>1937.8</ele>
        <time>2024-07-10T07:21:35Z</time>
      </trkpt>
      <trkpt lat="42.69912" lon="1.71731">
        <ele>1936</ele>
        <time>2024-07-10T07:21:41Z</time>
      </trkpt>
      <trkpt lat="42.69913" lon="1.71733">
        <ele>1935.6</ele>
        <time>2024-07-10T07:21:43Z</time>
      </trkpt>
      <trkpt lat="42.69916" lon="1.71737">
        <ele>1935.4</ele>
        <time>2024-07-10T07:21:46Z</time>
      </trkpt>
      <trkpt lat="42.69919" lon="1.71743">
        <ele>1935.6</ele>
        <time>2024-07-10T07:21:50Z</time>
      </trkpt>
      <trkpt lat="42.6992" lon="1.71748">
        <ele>1935.8</ele>
        <time>2024-07-10T07:21:53Z</time>
      </trkpt>
      <trkpt lat="42.69919" lon="1.71755">
        <ele>1935.8</ele>
        <time>2024-07-10T07:21:57Z</time>
      </trkpt>
      <trkpt lat="42.6992" lon="1.71766">
        <ele>1936</ele>
        <time>2024-07-10T07:22:04Z</time>
      </trkpt>
      <trkpt lat="42.6992" lon="1.71777">
        <ele>1936</ele>
        <time>2024-07-10T07:22:11Z</time>
      </trkpt>
      <trkpt lat="42.69919" lon="1.71791">
        <ele>1936.8</ele>
        <time>2024-07-10T07:22:20Z</time>
      </trkpt>
      <trkpt lat="42.69914" lon="1.718">
        <ele>1937.4</ele>
        <time>2024-07-10T07:22:27Z</time>
      </trkpt>
      <trkpt lat="42.69908" lon="1.7182">
        <ele>1937.6</ele>
        <time>2024-07-10T07:22:41Z</time>
      </trkpt>
      <trkpt lat="42.69904" lon="1.71832">
        <ele>1937.8</ele>
        <time>2024-07-10T07:22:50Z</time>
      </trkpt>
      <trkpt lat="42.699" lon="1.71844">
        <ele>1939.6</ele>
        <time>2024-07-10T07:23:00Z</time>
      </trkpt>
      <trkpt lat="42.69894" lon="1.71856">
        <ele>1940.4</ele>
        <time>2024-07-10T07:23:10Z</time>
      </trkpt>
      <trkpt lat="42.69887" lon="1.71867">
        <ele>1941.4</ele>
        <time>2024-07-10T07:23:20Z</time>
      </trkpt>
      <trkpt lat="42.69882" lon="1.71877">
        <ele>1944.2</ele>
        <time>2024-07-10T07:23:28Z</time>
      </trkpt>
      <trkpt lat="42.69875" lon="1.71894">
        <ele>1946.2</ele>
        <time>2024-07-10T07:23:41Z</time>
      </trkpt>
      <trkpt lat="42.69869" lon="1.71905">
        <ele>1946.8</ele>
        <time>2024-07-10T07:23:50Z</time>
      </trkpt>
      <trkpt lat="42.69859" lon="1.71916">
        <ele>1949.2</ele>
        <time>2024-07-10T07:24:01Z</time>
      </trkpt>
      <trkpt lat="42.69851" lon="1.71922">
        <ele>1950.4</ele>
        <time>2024-07-10T07:24:10Z</time>
      </trkpt>
      <trkpt lat="42.69846" lon="1.71933">
        <ele>1952.2</ele>
        <time>2024-07-10T07:24:19Z</time>
      </trkpt>
      <trkpt lat="42.69842" lon="1.71951">
        <ele>1952.8</ele>
        <time>2024-07-10T07:24:31Z</time>
      </trkpt>
      <trkpt lat="42.69841" lon="1.71962">
        <ele>1952.2</ele>
        <time>2024-07-10T07:24:38Z</time>
      </trkpt>
      <trkpt lat="42.69837" lon="1.71973">
        <ele>1950.6</ele>
        <time>2024-07-10T07:24:45Z</time>
      </trkpt>
      <trkpt lat="42.69833" lon="1.71989">
        <ele>1950.2</ele>
        <time>2024-07-10T07:24:55Z</time>
      </trkpt>
      <trkpt lat="42.69832" lon="1.71999">
        <ele>1950.8</ele>
        <time>2024-07-10T07:25:02Z</time>
      </trkpt>
      <trkpt lat="42.69829" lon="1.72014">
        <ele>1952</ele>
        <time>2024-07-10T07:25:12Z</time>
      </trkpt>
      <trkpt lat="42.69826" lon="1.72029">
        <ele>1953.2</ele>
        <time>2024-07-10T07:25:22Z</time>
      </trkpt>
      <trkpt lat="42.69824" lon="1.7204">
        <ele>1953.4</ele>
        <time>2024-07-10T07:25:31Z</time>
      </trkpt>
      <trkpt lat="42.69823" lon="1.72041">
        <ele>1955</ele>
        <time>2024-07-10T07:25:36Z</time>
      </trkpt>
      <trkpt lat="42.69822" lon="1.72048">
        <ele>1956.2</ele>
        <time>2024-07-10T07:25:55Z</time>
      </trkpt>
      <trkpt lat="42.69817" lon="1.72064">
        <ele>1958.6</ele>
        <time>2024-07-10T07:26:06Z</time>
      </trkpt>
      <trkpt lat="42.69812" lon="1.72081">
        <ele>1961.8</ele>
        <time>2024-07-10T07:26:19Z</time>
      </trkpt>
      <trkpt lat="42.69808" lon="1.72101">
        <ele>1964.8</ele>
        <time>2024-07-10T07:26:34Z</time>
      </trkpt>
      <trkpt lat="42.69805" lon="1.72116">
        <ele>1966.4</ele>
        <time>2024-07-10T07:26:46Z</time>
      </trkpt>
      <trkpt lat="42.69801" lon="1.72132">
        <ele>1967.4</ele>
        <time>2024-07-10T07:26:59Z</time>
      </trkpt>
      <trkpt lat="42.69801" lon="1.72146">
        <ele>1970</ele>
        <time>2024-07-10T07:27:10Z</time>
      </trkpt>
      <trkpt lat="42.69797" lon="1.72148">
        <ele>1971.6</ele>
        <time>2024-07-10T07:27:16Z</time>
      </trkpt>
      <trkpt lat="42.69796" lon="1.72148">
        <ele>1972.2</ele>
        <time>2024-07-10T07:27:23Z</time>
      </trkpt>
      <trkpt lat="42.69796" lon="1.72149">
        <ele>1971.6</ele>
        <time>2024-07-10T07:27:36Z</time>
      </trkpt>
      <trkpt lat="42.69797" lon="1.72159">
        <ele>1971.4</ele>
        <time>2024-07-10T07:32:06Z</time>
      </trkpt>
      <trkpt lat="42.69797" lon="1.72172">
        <ele>1973.2</ele>
        <time>2024-07-10T07:32:16Z</time>
      </trkpt>
      <trkpt lat="42.69796" lon="1.72174">
        <ele>1973.6</ele>
        <time>2024-07-10T07:32:18Z</time>
      </trkpt>
      <trkpt lat="42.69794" lon="1.72183">
        <ele>1976.2</ele>
        <time>2024-07-10T07:32:26Z</time>
      </trkpt>
      <trkpt lat="42.69792" lon="1.7219">
        <ele>1977.4</ele>
        <time>2024-07-10T07:32:32Z</time>
      </trkpt>
      <trkpt lat="42.69792" lon="1.72191">
        <ele>1977.6</ele>
        <time>2024-07-10T07:32:33Z</time>
      </trkpt>
      <trkpt lat="42.69791" lon="1.72193">
        <ele>1978.2</ele>
        <time>2024-07-10T07:32:39Z</time>
      </trkpt>
      <trkpt lat="42.69788" lon="1.72201">
        <ele>1979</ele>
        <time>2024-07-10T07:32:46Z</time>
      </trkpt>
      <trkpt lat="42.69784" lon="1.72209">
        <ele>1980</ele>
        <time>2024-07-10T07:32:54Z</time>
      </trkpt>
      <trkpt lat="42.69778" lon="1.72218">
        <ele>1981.8</ele>
        <time>2024-07-10T07:33:03Z</time>
      </trkpt>
      <trkpt lat="42.69774" lon="1.72227">
        <ele>1983.8</ele>
        <time>2024-07-10T07:33:11Z</time>
      </trkpt>
      <trkpt lat="42.69767" lon="1.72246">
        <ele>1984.4</ele>
        <time>2024-07-10T07:33:27Z</time>
      </trkpt>
      <trkpt lat="42.69763" lon="1.72255">
        <ele>1986</ele>
        <time>2024-07-10T07:33:35Z</time>
      </trkpt>
      <trkpt lat="42.69762" lon="1.72258">
        <ele>1986.8</ele>
        <time>2024-07-10T07:33:38Z</time>
      </trkpt>
      <trkpt lat="42.69761" lon="1.72263">
        <ele>1987.6</ele>
        <time>2024-07-10T07:33:42Z</time>
      </trkpt>
      <trkpt lat="42.69759" lon="1.72271">
        <ele>1988</ele>
        <time>2024-07-10T07:33:48Z</time>
      </trkpt>
      <trkpt lat="42.69759" lon="1.72273">
        <ele>1988.2</ele>
        <time>2024-07-10T07:33:50Z</time>
      </trkpt>
      <trkpt lat="42.69758" lon="1.72281">
        <ele>1988.4</ele>
        <time>2024-07-10T07:33:55Z</time>
      </trkpt>
      <trkpt lat="42.69754" lon="1.72292">
        <ele>1988.2</ele>
        <time>2024-07-10T07:34:04Z</time>
      </trkpt>
      <trkpt lat="42.69751" lon="1.72304">
        <ele>1988.2</ele>
        <time>2024-07-10T07:34:12Z</time>
      </trkpt>
      <trkpt lat="42.69749" lon="1.72316">
        <ele>1988.8</ele>
        <time>2024-07-10T07:34:21Z</time>
      </trkpt>
      <trkpt lat="42.69748" lon="1.72319">
        <ele>1989.2</ele>
        <time>2024-07-10T07:34:23Z</time>
      </trkpt>
      <trkpt lat="42.69746" lon="1.72325">
        <ele>1990.4</ele>
        <time>2024-07-10T07:34:28Z</time>
      </trkpt>
      <trkpt lat="42.69741" lon="1.72338">
        <ele>1992.2</ele>
        <time>2024-07-10T07:34:37Z</time>
      </trkpt>
      <trkpt lat="42.69731" lon="1.72356">
        <ele>1994.6</ele>
        <time>2024-07-10T07:34:50Z</time>
      </trkpt>
      <trkpt lat="42.69725" lon="1.72368">
        <ele>1996.4</ele>
        <time>2024-07-10T07:34:59Z</time>
      </trkpt>
      <trkpt lat="42.69717" lon="1.72379">
        <ele>1998</ele>
        <time>2024-07-10T07:35:08Z</time>
      </trkpt>
      <trkpt lat="42.69708" lon="1.7239">
        <ele>1998.4</ele>
        <time>2024-07-10T07:35:17Z</time>
      </trkpt>
      <trkpt lat="42.69699" lon="1.724">
        <ele>1999.2</ele>
        <time>2024-07-10T07:35:27Z</time>
      </trkpt>
      <trkpt lat="42.69688" lon="1.7241">
        <ele>1999</ele>
        <time>2024-07-10T07:35:37Z</time>
      </trkpt>
      <trkpt lat="42.69678" lon="1.72418">
        <ele>1998.6</ele>
        <time>2024-07-10T07:35:47Z</time>
      </trkpt>
      <trkpt lat="42.69665" lon="1.72433">
        <ele>1998.6</ele>
        <time>2024-07-10T07:36:00Z</time>
      </trkpt>
      <trkpt lat="42.69651" lon="1.72442">
        <ele>2000.4</ele>
        <time>2024-07-10T07:36:12Z</time>
      </trkpt>
      <trkpt lat="42.6964" lon="1.72449">
        <ele>1999.8</ele>
        <time>2024-07-10T07:36:21Z</time>
      </trkpt>
      <trkpt lat="42.69628" lon="1.72457">
        <ele>1999.4</ele>
        <time>2024-07-10T07:36:31Z</time>
      </trkpt>
      <trkpt lat="42.69619" lon="1.7247">
        <ele>1999.4</ele>
        <time>2024-07-10T07:36:41Z</time>
      </trkpt>
      <trkpt lat="42.69609" lon="1.7248">
        <ele>1998.8</ele>
        <time>2024-07-10T07:36:50Z</time>
      </trkpt>
      <trkpt lat="42.69603" lon="1.72483">
        <ele>1999.2</ele>
        <time>2024-07-10T07:36:54Z</time>
      </trkpt>
      <trkpt lat="42.69602" lon="1.72485">
        <ele>1999.2</ele>
        <time>2024-07-10T07:36:56Z</time>
      </trkpt>
      <trkpt lat="42.6959" lon="1.72497">
        <ele>1998.4</ele>
        <time>2024-07-10T07:37:06Z</time>
      </trkpt>
      <trkpt lat="42.6958" lon="1.72509">
        <ele>1997</ele>
        <time>2024-07-10T07:37:15Z</time>
      </trkpt>
      <trkpt lat="42.69573" lon="1.7252">
        <ele>1995.6</ele>
        <time>2024-07-10T07:37:23Z</time>
      </trkpt>
      <trkpt lat="42.69562" lon="1.72536">
        <ele>1992.4</ele>
        <time>2024-07-10T07:37:34Z</time>
      </trkpt>
      <trkpt lat="42.69553" lon="1.72545">
        <ele>1991.2</ele>
        <time>2024-07-10T07:37:42Z</time>
      </trkpt>
      <trkpt lat="42.69541" lon="1.72555">
        <ele>1990</ele>
        <time>2024-07-10T07:37:52Z</time>
      </trkpt>
      <trkpt lat="42.6953" lon="1.72571">
        <ele>1989.8</ele>
        <time>2024-07-10T07:38:04Z</time>
      </trkpt>
      <trkpt lat="42.69527" lon="1.72575">
        <ele>1989.8</ele>
        <time>2024-07-10T07:38:07Z</time>
      </trkpt>
      <trkpt lat="42.69522" lon="1.72579">
        <ele>1989.8</ele>
        <time>2024-07-10T07:38:11Z</time>
      </trkpt>
      <trkpt lat="42.69515" lon="1.72587">
        <ele>1989.6</ele>
        <time>2024-07-10T07:38:18Z</time>
      </trkpt>
      <trkpt lat="42.69504" lon="1.72596">
        <ele>1990.2</ele>
        <time>2024-07-10T07:38:27Z</time>
      </trkpt>
      <trkpt lat="42.6949" lon="1.72606">
        <ele>1991</ele>
        <time>2024-07-10T07:38:39Z</time>
      </trkpt>
      <trkpt lat="42.69481" lon="1.72611">
        <ele>1991</ele>
        <time>2024-07-10T07:38:47Z</time>
      </trkpt>
      <trkpt lat="42.69467" lon="1.72616">
        <ele>1991.2</ele>
        <time>2024-07-10T07:38:57Z</time>
      </trkpt>
      <trkpt lat="42.69458" lon="1.7262">
        <ele>1991.2</ele>
        <time>2024-07-10T07:39:04Z</time>
      </trkpt>
      <trkpt lat="42.69447" lon="1.72634">
        <ele>1990</ele>
        <time>2024-07-10T07:39:15Z</time>
      </trkpt>
      <trkpt lat="42.69436" lon="1.72649">
        <ele>1988.6</ele>
        <time>2024-07-10T07:39:26Z</time>
      </trkpt>
      <trkpt lat="42.69426" lon="1.72664">
        <ele>1986</ele>
        <time>2024-07-10T07:39:37Z</time>
      </trkpt>
      <trkpt lat="42.69413" lon="1.72679">
        <ele>1982.2</ele>
        <time>2024-07-10T07:39:49Z</time>
      </trkpt>
      <trkpt lat="42.69404" lon="1.72695">
        <ele>1980.6</ele>
        <time>2024-07-10T07:39:59Z</time>
      </trkpt>
      <trkpt lat="42.69395" lon="1.7271">
        <ele>1979.2</ele>
        <time>2024-07-10T07:40:10Z</time>
      </trkpt>
      <trkpt lat="42.69387" lon="1.72722">
        <ele>1977.2</ele>
        <time>2024-07-10T07:40:19Z</time>
      </trkpt>
      <trkpt lat="42.69377" lon="1.72733">
        <ele>1974.8</ele>
        <time>2024-07-10T07:40:28Z</time>
      </trkpt>
      <trkpt lat="42.6937" lon="1.72745">
        <ele>1973</ele>
        <time>2024-07-10T07:40:36Z</time>
      </trkpt>
      <trkpt lat="42.6936" lon="1.72756">
        <ele>1970.4</ele>
        <time>2024-07-10T07:40:45Z</time>
      </trkpt>
      <trkpt lat="42.69352" lon="1.72765">
        <ele>1968.6</ele>
        <time>2024-07-10T07:40:53Z</time>
      </trkpt>
      <trkpt lat="42.6934" lon="1.72781">
        <ele>1967.2</ele>
        <time>2024-07-10T07:41:06Z</time>
      </trkpt>
      <trkpt lat="42.69328" lon="1.72791">
        <ele>1964.8</ele>
        <time>2024-07-10T07:41:16Z</time>
      </trkpt>
      <trkpt lat="42.6932" lon="1.72799">
        <ele>1962.6</ele>
        <time>2024-07-10T07:41:23Z</time>
      </trkpt>
      <trkpt lat="42.69308" lon="1.72809">
        <ele>1960.4</ele>
        <time>2024-07-10T07:41:33Z</time>
      </trkpt>
      <trkpt lat="42.69294" lon="1.72815">
        <ele>1958.2</ele>
        <time>2024-07-10T07:41:44Z</time>
      </trkpt>
      <trkpt lat="42.69284" lon="1.72821">
        <ele>1958</ele>
        <time>2024-07-10T07:41:53Z</time>
      </trkpt>
      <trkpt lat="42.69273" lon="1.72827">
        <ele>1959</ele>
        <time>2024-07-10T07:42:03Z</time>
      </trkpt>
      <trkpt lat="42.69263" lon="1.7283">
        <ele>1960</ele>
        <time>2024-07-10T07:42:12Z</time>
      </trkpt>
      <trkpt lat="42.69248" lon="1.72837">
        <ele>1961</ele>
        <time>2024-07-10T07:42:25Z</time>
      </trkpt>
      <trkpt lat="42.69237" lon="1.72842">
        <ele>1961.8</ele>
        <time>2024-07-10T07:42:34Z</time>
      </trkpt>
      <trkpt lat="42.69228" lon="1.72848">
        <ele>1962</ele>
        <time>2024-07-10T07:42:43Z</time>
      </trkpt>
      <trkpt lat="42.69219" lon="1.7285">
        <ele>1963.6</ele>
        <time>2024-07-10T07:42:51Z</time>
      </trkpt>
      <trkpt lat="42.6921" lon="1.72855">
        <ele>1962.6</ele>
        <time>2024-07-10T07:43:00Z</time>
      </trkpt>
      <trkpt lat="42.69209" lon="1.72855">
        <ele>1962.6</ele>
        <time>2024-07-10T07:43:01Z</time>
      </trkpt>
      <trkpt lat="42.69199" lon="1.72855">
        <ele>1963.2</ele>
        <time>2024-07-10T07:43:10Z</time>
      </trkpt>
      <trkpt lat="42.69187" lon="1.72859">
        <ele>1964.4</ele>
        <time>2024-07-10T07:43:19Z</time>
      </trkpt>
      <trkpt lat="42.69179" lon="1.72859">
        <ele>1964</ele>
        <time>2024-07-10T07:43:26Z</time>
      </trkpt>
      <trkpt lat="42.69168" lon="1.72863">
        <ele>1962.6</ele>
        <time>2024-07-10T07:43:36Z</time>
      </trkpt>
      <trkpt lat="42.69159" lon="1.72868">
        <ele>1961.6</ele>
        <time>2024-07-10T07:43:44Z</time>
      </trkpt>
      <trkpt lat="42.69152" lon="1.72885">
        <ele>1961.4</ele>
        <time>2024-07-10T07:43:56Z</time>
      </trkpt>
      <trkpt lat="42.69148" lon="1.72895">
        <ele>1961.2</ele>
        <time>2024-07-10T07:44:04Z</time>
      </trkpt>
      <trkpt lat="42.69147" lon="1.72899">
        <ele>1960.8</ele>
        <time>2024-07-10T07:44:07Z</time>
      </trkpt>
      <trkpt lat="42.69145" lon="1.72905">
        <ele>1960.2</ele>
        <time>2024-07-10T07:44:12Z</time>
      </trkpt>
      <trkpt lat="42.69143" lon="1.7292">
        <ele>1961.6</ele>
        <time>2024-07-10T07:44:22Z</time>
      </trkpt>
      <trkpt lat="42.6914" lon="1.72931">
        <ele>1962.6</ele>
        <time>2024-07-10T07:44:30Z</time>
      </trkpt>
      <trkpt lat="42.69136" lon="1.72947">
        <ele>1963.2</ele>
        <time>2024-07-10T07:44:40Z</time>
      </trkpt>
      <trkpt lat="42.69134" lon="1.7296">
        <ele>1964.8</ele>
        <time>2024-07-10T07:44:48Z</time>
      </trkpt>
      <trkpt lat="42.6913" lon="1.72974">
        <ele>1966.2</ele>
        <time>2024-07-10T07:44:57Z</time>
      </trkpt>
      <trkpt lat="42.69127" lon="1.72986">
        <ele>1966.8</ele>
        <time>2024-07-10T07:45:05Z</time>
      </trkpt>
      <trkpt lat="42.69123" lon="1.72999">
        <ele>1967.2</ele>
        <time>2024-07-10T07:45:14Z</time>
      </trkpt>
      <trkpt lat="42.69121" lon="1.73005">
        <ele>1967</ele>
        <time>2024-07-10T07:45:18Z</time>
      </trkpt>
      <trkpt lat="42.69117" lon="1.73012">
        <ele>1967</ele>
        <time>2024-07-10T07:45:23Z</time>
      </trkpt>
      <trkpt lat="42.6911" lon="1.73025">
        <ele>1968</ele>
        <time>2024-07-10T07:45:33Z</time>
      </trkpt>
      <trkpt lat="42.69104" lon="1.73041">
        <ele>1968.2</ele>
        <time>2024-07-10T07:45:44Z</time>
      </trkpt>
      <trkpt lat="42.69103" lon="1.7305">
        <ele>1967.8</ele>
        <time>2024-07-10T07:45:52Z</time>
      </trkpt>
      <trkpt lat="42.69103" lon="1.7305">
        <ele>1968.2</ele>
        <time>2024-07-10T07:46:00Z</time>
      </trkpt>
      <trkpt lat="42.69104" lon="1.73051">
        <ele>1968.4</ele>
        <time>2024-07-10T07:46:28Z</time>
      </trkpt>
      <trkpt lat="42.69099" lon="1.73056">
        <ele>1968.2</ele>
        <time>2024-07-10T07:47:18Z</time>
      </trkpt>
      <trkpt lat="42.69088" lon="1.73065">
        <ele>1969.8</ele>
        <time>2024-07-10T07:47:27Z</time>
      </trkpt>
      <trkpt lat="42.6908" lon="1.7307">
        <ele>1970.8</ele>
        <time>2024-07-10T07:47:35Z</time>
      </trkpt>
      <trkpt lat="42.69069" lon="1.73079">
        <ele>1972.8</ele>
        <time>2024-07-10T07:47:45Z</time>
      </trkpt>
      <trkpt lat="42.69061" lon="1.73083">
        <ele>1974.4</ele>
        <time>2024-07-10T07:47:53Z</time>
      </trkpt>
      <trkpt lat="42.69048" lon="1.73093">
        <ele>1974.8</ele>
        <time>2024-07-10T07:48:04Z</time>
      </trkpt>
      <trkpt lat="42.69039" lon="1.73104">
        <ele>1975.4</ele>
        <time>2024-07-10T07:48:13Z</time>
      </trkpt>
      <trkpt lat="42.69031" lon="1.73118">
        <ele>1974.6</ele>
        <time>2024-07-10T07:48:23Z</time>
      </trkpt>
      <trkpt lat="42.69025" lon="1.73128">
        <ele>1975.4</ele>
        <time>2024-07-10T07:48:31Z</time>
      </trkpt>
      <trkpt lat="42.69015" lon="1.73137">
        <ele>1976.4</ele>
        <time>2024-07-10T07:48:41Z</time>
      </trkpt>
      <trkpt lat="42.69005" lon="1.73148">
        <ele>1977.6</ele>
        <time>2024-07-10T07:48:52Z</time>
      </trkpt>
      <trkpt lat="42.68997" lon="1.73155">
        <ele>1977.8</ele>
        <time>2024-07-10T07:49:00Z</time>
      </trkpt>
      <trkpt lat="42.68987" lon="1.73164">
        <ele>1977.8</ele>
        <time>2024-07-10T07:49:10Z</time>
      </trkpt>
      <trkpt lat="42.68977" lon="1.73173">
        <ele>1980.6</ele>
        <time>2024-07-10T07:49:20Z</time>
      </trkpt>
      <trkpt lat="42.68969" lon="1.73179">
        <ele>1981</ele>
        <time>2024-07-10T07:49:28Z</time>
      </trkpt>
      <trkpt lat="42.6896" lon="1.73188">
        <ele>1981.4</ele>
        <time>2024-07-10T07:49:37Z</time>
      </trkpt>
      <trkpt lat="42.68953" lon="1.73193">
        <ele>1982</ele>
        <time>2024-07-10T07:49:44Z</time>
      </trkpt>
      <trkpt lat="42.68945" lon="1.73201">
        <ele>1982.4</ele>
        <time>2024-07-10T07:49:52Z</time>
      </trkpt>
      <trkpt lat="42.68932" lon="1.73213">
        <ele>1982.8</ele>
        <time>2024-07-10T07:50:04Z</time>
      </trkpt>
      <trkpt lat="42.6892" lon="1.73219">
        <ele>1983.4</ele>
        <time>2024-07-10T07:50:15Z</time>
      </trkpt>
      <trkpt lat="42.68911" lon="1.73223">
        <ele>1983</ele>
        <time>2024-07-10T07:50:22Z</time>
      </trkpt>
      <trkpt lat="42.68897" lon="1.73227">
        <ele>1981.4</ele>
        <time>2024-07-10T07:50:32Z</time>
      </trkpt>
      <trkpt lat="42.68885" lon="1.73232">
        <ele>1980.4</ele>
        <time>2024-07-10T07:50:42Z</time>
      </trkpt>
      <trkpt lat="42.68873" lon="1.73235">
        <ele>1980.8</ele>
        <time>2024-07-10T07:50:50Z</time>
      </trkpt>
      <trkpt lat="42.68864" lon="1.73231">
        <ele>1980.2</ele>
        <time>2024-07-10T07:50:58Z</time>
      </trkpt>
      <trkpt lat="42.68853" lon="1.73227">
        <ele>1978.6</ele>
        <time>2024-07-10T07:51:06Z</time>
      </trkpt>
      <trkpt lat="42.6884" lon="1.73226">
        <ele>1976.8</ele>
        <time>2024-07-10T07:51:15Z</time>
      </trkpt>
      <trkpt lat="42.68827" lon="1.73228">
        <ele>1973.8</ele>
        <time>2024-07-10T07:51:25Z</time>
      </trkpt>
      <trkpt lat="42.68813" lon="1.73228">
        <ele>1971</ele>
        <time>2024-07-10T07:51:35Z</time>
      </trkpt>
      <trkpt lat="42.68802" lon="1.7323">
        <ele>1969.4</ele>
        <time>2024-07-10T07:51:43Z</time>
      </trkpt>
      <trkpt lat="42.68791" lon="1.7323">
        <ele>1967.4</ele>
        <time>2024-07-10T07:51:51Z</time>
      </trkpt>
      <trkpt lat="42.68779" lon="1.7323">
        <ele>1967.6</ele>
        <time>2024-07-10T07:52:01Z</time>
      </trkpt>
      <trkpt lat="42.68768" lon="1.73231">
        <ele>1968.2</ele>
        <time>2024-07-10T07:52:10Z</time>
      </trkpt>
      <trkpt lat="42.68756" lon="1.7323">
        <ele>1968.6</ele>
        <time>2024-07-10T07:52:22Z</time>
      </trkpt>
      <trkpt lat="42.68754" lon="1.73231">
        <ele>1968.8</ele>
        <time>2024-07-10T07:52:30Z</time>
      </trkpt>
      <trkpt lat="42.68745" lon="1.7323">
        <ele>1969</ele>
        <time>2024-07-10T07:52:37Z</time>
      </trkpt>
      <trkpt lat="42.68732" lon="1.73229">
        <ele>1970.4</ele>
        <time>2024-07-10T07:52:48Z</time>
      </trkpt>
      <trkpt lat="42.6872" lon="1.73227">
        <ele>1971.6</ele>
        <time>2024-07-10T07:52:58Z</time>
      </trkpt>
      <trkpt lat="42.68709" lon="1.73226">
        <ele>1972.2</ele>
        <time>2024-07-10T07:53:08Z</time>
      </trkpt>
      <trkpt lat="42.68697" lon="1.73226">
        <ele>1972.2</ele>
        <time>2024-07-10T07:53:19Z</time>
      </trkpt>
      <trkpt lat="42.68684" lon="1.73227">
        <ele>1973.2</ele>
        <time>2024-07-10T07:53:30Z</time>
      </trkpt>
      <trkpt lat="42.68674" lon="1.73223">
        <ele>1974.2</ele>
        <time>2024-07-10T07:53:40Z</time>
      </trkpt>
      <trkpt lat="42.68662" lon="1.73221">
        <ele>1976.6</ele>
        <time>2024-07-10T07:53:53Z</time>
      </trkpt>
      <trkpt lat="42.68651" lon="1.7322">
        <ele>1978.6</ele>
        <time>2024-07-10T07:54:05Z</time>
      </trkpt>
      <trkpt lat="42.68641" lon="1.73219">
        <ele>1980.4</ele>
        <time>2024-07-10T07:54:17Z</time>
      </trkpt>
      <trkpt lat="42.68635" lon="1.73217">
        <ele>1981.8</ele>
        <time>2024-07-10T07:54:26Z</time>
      </trkpt>
      <trkpt lat="42.68625" lon="1.73217">
        <ele>1984.8</ele>
        <time>2024-07-10T07:54:40Z</time>
      </trkpt>
      <trkpt lat="42.68619" lon="1.73216">
        <ele>1987</ele>
        <time>2024-07-10T07:54:48Z</time>
      </trkpt>
      <trkpt lat="42.6861" lon="1.73212">
        <ele>1989</ele>
        <time>2024-07-10T07:55:00Z</time>
      </trkpt>
      <trkpt lat="42.68602" lon="1.7321">
        <ele>1989.8</ele>
        <time>2024-07-10T07:55:09Z</time>
      </trkpt>
      <trkpt lat="42.68596" lon="1.73207">
        <ele>1991.2</ele>
        <time>2024-07-10T07:55:19Z</time>
      </trkpt>
      <trkpt lat="42.6859" lon="1.73205">
        <ele>1992.2</ele>
        <time>2024-07-10T07:55:29Z</time>
      </trkpt>
      <trkpt lat="42.68583" lon="1.73203">
        <ele>1993.8</ele>
        <time>2024-07-10T07:55:41Z</time>
      </trkpt>
      <trkpt lat="42.68578" lon="1.73201">
        <ele>1995.6</ele>
        <time>2024-07-10T07:55:49Z</time>
      </trkpt>
      <trkpt lat="42.6857" lon="1.73199">
        <ele>1997.4</ele>
        <time>2024-07-10T07:56:00Z</time>
      </trkpt>
      <trkpt lat="42.68564" lon="1.73197">
        <ele>1999.8</ele>
        <time>2024-07-10T07:56:10Z</time>
      </trkpt>
      <trkpt lat="42.68559" lon="1.73194">
        <ele>1999.8</ele>
        <time>2024-07-10T07:56:19Z</time>
      </trkpt>
      <trkpt lat="42.68554" lon="1.7319">
        <ele>2002.2</ele>
        <time>2024-07-10T07:56:28Z</time>
      </trkpt>
      <trkpt lat="42.68547" lon="1.73184">
        <ele>2004</ele>
        <time>2024-07-10T07:56:39Z</time>
      </trkpt>
      <trkpt lat="42.68538" lon="1.73179">
        <ele>2004.8</ele>
        <time>2024-07-10T07:56:53Z</time>
      </trkpt>
      <trkpt lat="42.6853" lon="1.73172">
        <ele>2008</ele>
        <time>2024-07-10T07:57:08Z</time>
      </trkpt>
      <trkpt lat="42.68524" lon="1.73167">
        <ele>2009.6</ele>
        <time>2024-07-10T07:57:18Z</time>
      </trkpt>
      <trkpt lat="42.68518" lon="1.73163">
        <ele>2011.4</ele>
        <time>2024-07-10T07:57:28Z</time>
      </trkpt>
      <trkpt lat="42.68512" lon="1.73159">
        <ele>2013.6</ele>
        <time>2024-07-10T07:57:39Z</time>
      </trkpt>
      <trkpt lat="42.68506" lon="1.73154">
        <ele>2014.2</ele>
        <time>2024-07-10T07:57:49Z</time>
      </trkpt>
      <trkpt lat="42.68506" lon="1.73154">
        <ele>2014.6</ele>
        <time>2024-07-10T07:57:55Z</time>
      </trkpt>
      <trkpt lat="42.68503" lon="1.73151">
        <ele>2015</ele>
        <time>2024-07-10T07:58:00Z</time>
      </trkpt>
      <trkpt lat="42.68498" lon="1.73146">
        <ele>2016.8</ele>
        <time>2024-07-10T07:58:09Z</time>
      </trkpt>
      <trkpt lat="42.68493" lon="1.73141">
        <ele>2018.6</ele>
        <time>2024-07-10T07:58:19Z</time>
      </trkpt>
      <trkpt lat="42.68488" lon="1.73135">
        <ele>2021</ele>
        <time>2024-07-10T07:58:28Z</time>
      </trkpt>
      <trkpt lat="42.68483" lon="1.73131">
        <ele>2022.4</ele>
        <time>2024-07-10T07:58:36Z</time>
      </trkpt>
      <trkpt lat="42.6848" lon="1.7313">
        <ele>2023.4</ele>
        <time>2024-07-10T07:58:43Z</time>
      </trkpt>
      <trkpt lat="42.68475" lon="1.73128">
        <ele>2024.2</ele>
        <time>2024-07-10T07:58:51Z</time>
      </trkpt>
      <trkpt lat="42.68471" lon="1.73127">
        <ele>2026</ele>
        <time>2024-07-10T07:58:57Z</time>
      </trkpt>
      <trkpt lat="42.68468" lon="1.73122">
        <ele>2028</ele>
        <time>2024-07-10T07:59:05Z</time>
      </trkpt>
      <trkpt lat="42.68462" lon="1.73117">
        <ele>2029</ele>
        <time>2024-07-10T07:59:15Z</time>
      </trkpt>
      <trkpt lat="42.68458" lon="1.73113">
        <ele>2030.8</ele>
        <time>2024-07-10T07:59:24Z</time>
      </trkpt>
      <trkpt lat="42.68453" lon="1.73109">
        <ele>2032.8</ele>
        <time>2024-07-10T07:59:36Z</time>
      </trkpt>
      <trkpt lat="42.68453" lon="1.7311">
        <ele>2033</ele>
        <time>2024-07-10T07:59:43Z</time>
      </trkpt>
      <trkpt lat="42.68452" lon="1.73109">
        <ele>2032.8</ele>
        <time>2024-07-10T07:59:57Z</time>
      </trkpt>
      <trkpt lat="42.68435" lon="1.73103">
        <ele>2031.6</ele>
        <time>2024-07-10T08:04:06Z</time>
      </trkpt>
      <trkpt lat="42.68429" lon="1.731">
        <ele>2032.6</ele>
        <time>2024-07-10T08:04:08Z</time>
      </trkpt>
      <trkpt lat="42.68419" lon="1.73098">
        <ele>2039.4</ele>
        <time>2024-07-10T08:04:17Z</time>
      </trkpt>
      <trkpt lat="42.68414" lon="1.731">
        <ele>2042.8</ele>
        <time>2024-07-10T08:04:26Z</time>
      </trkpt>
      <trkpt lat="42.68409" lon="1.73101">
        <ele>2044.8</ele>
        <time>2024-07-10T08:04:35Z</time>
      </trkpt>
      <trkpt lat="42.68403" lon="1.731">
        <ele>2047</ele>
        <time>2024-07-10T08:04:45Z</time>
      </trkpt>
      <trkpt lat="42.68398" lon="1.73103">
        <ele>2050.6</ele>
        <time>2024-07-10T08:04:55Z</time>
      </trkpt>
      <trkpt lat="42.68393" lon="1.73103">
        <ele>2052.8</ele>
        <time>2024-07-10T08:05:03Z</time>
      </trkpt>
      <trkpt lat="42.68389" lon="1.73103">
        <ele>2054.6</ele>
        <time>2024-07-10T08:05:11Z</time>
      </trkpt>
      <trkpt lat="42.68387" lon="1.73105">
        <ele>2057</ele>
        <time>2024-07-10T08:05:20Z</time>
      </trkpt>
      <trkpt lat="42.68383" lon="1.73107">
        <ele>2058</ele>
        <time>2024-07-10T08:05:28Z</time>
      </trkpt>
      <trkpt lat="42.68378" lon="1.73108">
        <ele>2059.8</ele>
        <time>2024-07-10T08:05:37Z</time>
      </trkpt>
      <trkpt lat="42.68374" lon="1.73108">
        <ele>2060.8</ele>
        <time>2024-07-10T08:05:44Z</time>
      </trkpt>
      <trkpt lat="42.68369" lon="1.73112">
        <ele>2063</ele>
        <time>2024-07-10T08:05:54Z</time>
      </trkpt>
      <trkpt lat="42.68362" lon="1.73113">
        <ele>2063.4</ele>
        <time>2024-07-10T08:06:04Z</time>
      </trkpt>
      <trkpt lat="42.68357" lon="1.73112">
        <ele>2064.8</ele>
        <time>2024-07-10T08:06:13Z</time>
      </trkpt>
      <trkpt lat="42.68352" lon="1.73112">
        <ele>2066.4</ele>
        <time>2024-07-10T08:06:22Z</time>
      </trkpt>
      <trkpt lat="42.68348" lon="1.73113">
        <ele>2067.4</ele>
        <time>2024-07-10T08:06:29Z</time>
      </trkpt>
      <trkpt lat="42.68341" lon="1.73117">
        <ele>2069.6</ele>
        <time>2024-07-10T08:06:42Z</time>
      </trkpt>
      <trkpt lat="42.68338" lon="1.73116">
        <ele>2070.6</ele>
        <time>2024-07-10T08:06:50Z</time>
      </trkpt>
      <trkpt lat="42.68338" lon="1.73108">
        <ele>2071.2</ele>
        <time>2024-07-10T08:07:28Z</time>
      </trkpt>
      <trkpt lat="42.68335" lon="1.73094">
        <ele>2071.6</ele>
        <time>2024-07-10T08:07:36Z</time>
      </trkpt>
      <trkpt lat="42.6833" lon="1.73083">
        <ele>2073.2</ele>
        <time>2024-07-10T08:07:46Z</time>
      </trkpt>
      <trkpt lat="42.68323" lon="1.73082">
        <ele>2074.2</ele>
        <time>2024-07-10T08:07:55Z</time>
      </trkpt>
      <trkpt lat="42.68322" lon="1.73082">
        <ele>2074.2</ele>
        <time>2024-07-10T08:07:56Z</time>
      </trkpt>
      <trkpt lat="42.68319" lon="1.73081">
        <ele>2074.4</ele>
        <time>2024-07-10T08:08:01Z</time>
      </trkpt>
      <trkpt lat="42.68318" lon="1.73081">
        <ele>2074.2</ele>
        <time>2024-07-10T08:08:08Z</time>
      </trkpt>
      <trkpt lat="42.68318" lon="1.73083">
        <ele>2074.4</ele>
        <time>2024-07-10T08:08:22Z</time>
      </trkpt>
      <trkpt lat="42.68318" lon="1.73083">
        <ele>2077</ele>
        <time>2024-07-10T08:08:50Z</time>
      </trkpt>
      <trkpt lat="42.68311" lon="1.73082">
        <ele>2080.2</ele>
        <time>2024-07-10T08:09:48Z</time>
      </trkpt>
      <trkpt lat="42.68307" lon="1.73082">
        <ele>2079.2</ele>
        <time>2024-07-10T08:09:52Z</time>
      </trkpt>
      <trkpt lat="42.68304" lon="1.73079">
        <ele>2077.6</ele>
        <time>2024-07-10T08:09:55Z</time>
      </trkpt>
      <trkpt lat="42.68302" lon="1.7308">
        <ele>2075</ele>
        <time>2024-07-10T08:10:00Z</time>
      </trkpt>
      <trkpt lat="42.68301" lon="1.73083">
        <ele>2074.2</ele>
        <time>2024-07-10T08:10:02Z</time>
      </trkpt>
      <trkpt lat="42.68297" lon="1.73081">
        <ele>2072.8</ele>
        <time>2024-07-10T08:10:06Z</time>
      </trkpt>
      <trkpt lat="42.68294" lon="1.73079">
        <ele>2071.4</ele>
        <time>2024-07-10T08:10:10Z</time>
      </trkpt>
      <trkpt lat="42.6829" lon="1.73079">
        <ele>2068.8</ele>
        <time>2024-07-10T08:10:15Z</time>
      </trkpt>
      <trkpt lat="42.68284" lon="1.73086">
        <ele>2066</ele>
        <time>2024-07-10T08:10:23Z</time>
      </trkpt>
      <trkpt lat="42.68282" lon="1.73086">
        <ele>2065.2</ele>
        <time>2024-07-10T08:10:25Z</time>
      </trkpt>
      <trkpt lat="42.68272" lon="1.73082">
        <ele>2061.8</ele>
        <time>2024-07-10T08:10:33Z</time>
      </trkpt>
      <trkpt lat="42.68267" lon="1.73079">
        <ele>2060</ele>
        <time>2024-07-10T08:10:37Z</time>
      </trkpt>
      <trkpt lat="42.68263" lon="1.73078">
        <ele>2058.6</ele>
        <time>2024-07-10T08:10:40Z</time>
      </trkpt>
      <trkpt lat="42.68252" lon="1.7308">
        <ele>2055.6</ele>
        <time>2024-07-10T08:10:50Z</time>
      </trkpt>
      <trkpt lat="42.68241" lon="1.73087">
        <ele>2052.4</ele>
        <time>2024-07-10T08:10:59Z</time>
      </trkpt>
      <trkpt lat="42.68235" lon="1.7309">
        <ele>2050.6</ele>
        <time>2024-07-10T08:11:05Z</time>
      </trkpt>
      <trkpt lat="42.68233" lon="1.73091">
        <ele>2050.4</ele>
        <time>2024-07-10T08:11:07Z</time>
      </trkpt>
      <trkpt lat="42.6823" lon="1.73092">
        <ele>2049.6</ele>
        <time>2024-07-10T08:11:10Z</time>
      </trkpt>
      <trkpt lat="42.68228" lon="1.7309">
        <ele>2048.6</ele>
        <time>2024-07-10T08:11:13Z</time>
      </trkpt>
      <trkpt lat="42.68218" lon="1.73088">
        <ele>2047.6</ele>
        <time>2024-07-10T08:11:21Z</time>
      </trkpt>
      <trkpt lat="42.68204" lon="1.73083">
        <ele>2048</ele>
        <time>2024-07-10T08:11:33Z</time>
      </trkpt>
      <trkpt lat="42.68199" lon="1.73081">
        <ele>2049.4</ele>
        <time>2024-07-10T08:11:40Z</time>
      </trkpt>
      <trkpt lat="42.68195" lon="1.7308">
        <ele>2051.6</ele>
        <time>2024-07-10T08:11:47Z</time>
      </trkpt>
      <trkpt lat="42.68194" lon="1.73082">
        <ele>2051.8</ele>
        <time>2024-07-10T08:11:54Z</time>
      </trkpt>
      <trkpt lat="42.68188" lon="1.73085">
        <ele>2051</ele>
        <time>2024-07-10T08:12:14Z</time>
      </trkpt>
      <trkpt lat="42.68177" lon="1.73085">
        <ele>2048.2</ele>
        <time>2024-07-10T08:12:23Z</time>
      </trkpt>
      <trkpt lat="42.68172" lon="1.73085">
        <ele>2047</ele>
        <time>2024-07-10T08:12:30Z</time>
      </trkpt>
      <trkpt lat="42.68163" lon="1.73088">
        <ele>2045.6</ele>
        <time>2024-07-10T08:12:38Z</time>
      </trkpt>
      <trkpt lat="42.6816" lon="1.7309">
        <ele>2045.4</ele>
        <time>2024-07-10T08:12:41Z</time>
      </trkpt>
      <trkpt lat="42.6816" lon="1.73091">
        <ele>2045.4</ele>
        <time>2024-07-10T08:12:43Z</time>
      </trkpt>
      <trkpt lat="42.68159" lon="1.73093">
        <ele>2045.4</ele>
        <time>2024-07-10T08:12:45Z</time>
      </trkpt>
      <trkpt lat="42.68155" lon="1.73103">
        <ele>2045.4</ele>
        <time>2024-07-10T08:12:53Z</time>
      </trkpt>
      <trkpt lat="42.68154" lon="1.73103">
        <ele>2045.4</ele>
        <time>2024-07-10T08:12:54Z</time>
      </trkpt>
      <trkpt lat="42.68146" lon="1.73101">
        <ele>2045.6</ele>
        <time>2024-07-10T08:13:00Z</time>
      </trkpt>
      <trkpt lat="42.6814" lon="1.73108">
        <ele>2045.8</ele>
        <time>2024-07-10T08:13:07Z</time>
      </trkpt>
      <trkpt lat="42.68135" lon="1.73111">
        <ele>2045.8</ele>
        <time>2024-07-10T08:13:12Z</time>
      </trkpt>
      <trkpt lat="42.68133" lon="1.7311">
        <ele>2045.6</ele>
        <time>2024-07-10T08:13:14Z</time>
      </trkpt>
      <trkpt lat="42.68132" lon="1.7311">
        <ele>2045.4</ele>
        <time>2024-07-10T08:13:15Z</time>
      </trkpt>
      <trkpt lat="42.68125" lon="1.73112">
        <ele>2044.2</ele>
        <time>2024-07-10T08:13:21Z</time>
      </trkpt>
      <trkpt lat="42.68114" lon="1.7312">
        <ele>2043</ele>
        <time>2024-07-10T08:13:32Z</time>
      </trkpt>
      <trkpt lat="42.68108" lon="1.73129">
        <ele>2040.6</ele>
        <time>2024-07-10T08:13:40Z</time>
      </trkpt>
      <trkpt lat="42.68101" lon="1.7314">
        <ele>2038.6</ele>
        <time>2024-07-10T08:13:49Z</time>
      </trkpt>
      <trkpt lat="42.68099" lon="1.73143">
        <ele>2038.4</ele>
        <time>2024-07-10T08:13:52Z</time>
      </trkpt>
      <trkpt lat="42.68096" lon="1.73147">
        <ele>2038</ele>
        <time>2024-07-10T08:13:56Z</time>
      </trkpt>
      <trkpt lat="42.68095" lon="1.73148">
        <ele>2037.8</ele>
        <time>2024-07-10T08:13:57Z</time>
      </trkpt>
      <trkpt lat="42.68091" lon="1.7315">
        <ele>2035.6</ele>
        <time>2024-07-10T08:14:03Z</time>
      </trkpt>
      <trkpt lat="42.6809" lon="1.7315">
        <ele>2035.2</ele>
        <time>2024-07-10T08:14:04Z</time>
      </trkpt>
      <trkpt lat="42.68088" lon="1.73149">
        <ele>2034.8</ele>
        <time>2024-07-10T08:14:06Z</time>
      </trkpt>
      <trkpt lat="42.68084" lon="1.73147">
        <ele>2033.8</ele>
        <time>2024-07-10T08:14:10Z</time>
      </trkpt>
      <trkpt lat="42.68077" lon="1.7314">
        <ele>2033.2</ele>
        <time>2024-07-10T08:14:18Z</time>
      </trkpt>
      <trkpt lat="42.68067" lon="1.73131">
        <ele>2034.6</ele>
        <time>2024-07-10T08:14:29Z</time>
      </trkpt>
      <trkpt lat="42.68066" lon="1.73128">
        <ele>2035.2</ele>
        <time>2024-07-10T08:14:33Z</time>
      </trkpt>
      <trkpt lat="42.68063" lon="1.73127">
        <ele>2035.8</ele>
        <time>2024-07-10T08:14:36Z</time>
      </trkpt>
      <trkpt lat="42.68062" lon="1.73128">
        <ele>2036</ele>
        <time>2024-07-10T08:14:38Z</time>
      </trkpt>
      <trkpt lat="42.68059" lon="1.73128">
        <ele>2036.8</ele>
        <time>2024-07-10T08:14:42Z</time>
      </trkpt>
      <trkpt lat="42.68055" lon="1.73128">
        <ele>2038.2</ele>
        <time>2024-07-10T08:14:49Z</time>
      </trkpt>
      <trkpt lat="42.68049" lon="1.73129">
        <ele>2038.2</ele>
        <time>2024-07-10T08:14:56Z</time>
      </trkpt>
      <trkpt lat="42.68043" lon="1.73127">
        <ele>2038.6</ele>
        <time>2024-07-10T08:15:03Z</time>
      </trkpt>
      <trkpt lat="42.68041" lon="1.73128">
        <ele>2039</ele>
        <time>2024-07-10T08:15:05Z</time>
      </trkpt>
      <trkpt lat="42.68035" lon="1.73128">
        <ele>2039.8</ele>
        <time>2024-07-10T08:15:11Z</time>
      </trkpt>
      <trkpt lat="42.68029" lon="1.73129">
        <ele>2040.8</ele>
        <time>2024-07-10T08:15:19Z</time>
      </trkpt>
      <trkpt lat="42.68026" lon="1.73128">
        <ele>2041</ele>
        <time>2024-07-10T08:15:22Z</time>
      </trkpt>
      <trkpt lat="42.68023" lon="1.73127">
        <ele>2041</ele>
        <time>2024-07-10T08:15:26Z</time>
      </trkpt>
      <trkpt lat="42.68019" lon="1.73126">
        <ele>2041.2</ele>
        <time>2024-07-10T08:15:31Z</time>
      </trkpt>
      <trkpt lat="42.68018" lon="1.73123">
        <ele>2041.6</ele>
        <time>2024-07-10T08:15:34Z</time>
      </trkpt>
      <trkpt lat="42.68014" lon="1.73117">
        <ele>2042.4</ele>
        <time>2024-07-10T08:15:41Z</time>
      </trkpt>
      <trkpt lat="42.68009" lon="1.73112">
        <ele>2042.4</ele>
        <time>2024-07-10T08:15:48Z</time>
      </trkpt>
      <trkpt lat="42.68005" lon="1.7311">
        <ele>2043</ele>
        <time>2024-07-10T08:15:53Z</time>
      </trkpt>
      <trkpt lat="42.68001" lon="1.73109">
        <ele>2043.6</ele>
        <time>2024-07-10T08:15:56Z</time>
      </trkpt>
      <trkpt lat="42.68001" lon="1.73109">
        <ele>2043.8</ele>
        <time>2024-07-10T08:15:57Z</time>
      </trkpt>
      <trkpt lat="42.67993" lon="1.73109">
        <ele>2045.2</ele>
        <time>2024-07-10T08:16:04Z</time>
      </trkpt>
      <trkpt lat="42.67982" lon="1.73111">
        <ele>2044.6</ele>
        <time>2024-07-10T08:16:14Z</time>
      </trkpt>
      <trkpt lat="42.67972" lon="1.73113">
        <ele>2045.2</ele>
        <time>2024-07-10T08:16:25Z</time>
      </trkpt>
      <trkpt lat="42.67972" lon="1.73116">
        <ele>2046.6</ele>
        <time>2024-07-10T08:16:31Z</time>
      </trkpt>
      <trkpt lat="42.67973" lon="1.73119">
        <ele>2047</ele>
        <time>2024-07-10T08:16:34Z</time>
      </trkpt>
      <trkpt lat="42.67974" lon="1.73124">
        <ele>2047.2</ele>
        <time>2024-07-10T08:16:38Z</time>
      </trkpt>
      <trkpt lat="42.67973" lon="1.73131">
        <ele>2047.6</ele>
        <time>2024-07-10T08:16:44Z</time>
      </trkpt>
      <trkpt lat="42.67973" lon="1.73136">
        <ele>2048</ele>
        <time>2024-07-10T08:16:49Z</time>
      </trkpt>
      <trkpt lat="42.67971" lon="1.73138">
        <ele>2048.6</ele>
        <time>2024-07-10T08:16:52Z</time>
      </trkpt>
      <trkpt lat="42.6797" lon="1.73141">
        <ele>2050.8</ele>
        <time>2024-07-10T08:16:56Z</time>
      </trkpt>
      <trkpt lat="42.6797" lon="1.73146">
        <ele>2053.2</ele>
        <time>2024-07-10T08:17:03Z</time>
      </trkpt>
      <trkpt lat="42.67966" lon="1.73151">
        <ele>2054</ele>
        <time>2024-07-10T08:17:12Z</time>
      </trkpt>
      <trkpt lat="42.67966" lon="1.73151">
        <ele>2053.8</ele>
        <time>2024-07-10T08:17:28Z</time>
      </trkpt>
      <trkpt lat="42.67958" lon="1.73155">
        <ele>2053.6</ele>
        <time>2024-07-10T08:17:34Z</time>
      </trkpt>
      <trkpt lat="42.67948" lon="1.73156">
        <ele>2052</ele>
        <time>2024-07-10T08:17:42Z</time>
      </trkpt>
      <trkpt lat="42.67939" lon="1.73158">
        <ele>2049.4</ele>
        <time>2024-07-10T08:17:52Z</time>
      </trkpt>
      <trkpt lat="42.67932" lon="1.73164">
        <ele>2048.2</ele>
        <time>2024-07-10T08:18:00Z</time>
      </trkpt>
      <trkpt lat="42.67925" lon="1.73173">
        <ele>2045.4</ele>
        <time>2024-07-10T08:18:10Z</time>
      </trkpt>
      <trkpt lat="42.67917" lon="1.73185">
        <ele>2042</ele>
        <time>2024-07-10T08:18:19Z</time>
      </trkpt>
      <trkpt lat="42.67906" lon="1.73187">
        <ele>2039.6</ele>
        <time>2024-07-10T08:18:27Z</time>
      </trkpt>
      <trkpt lat="42.67894" lon="1.73187">
        <ele>2037.6</ele>
        <time>2024-07-10T08:18:36Z</time>
      </trkpt>
      <trkpt lat="42.67881" lon="1.73186">
        <ele>2036.6</ele>
        <time>2024-07-10T08:18:45Z</time>
      </trkpt>
      <trkpt lat="42.6787" lon="1.7319">
        <ele>2035.6</ele>
        <time>2024-07-10T08:18:54Z</time>
      </trkpt>
      <trkpt lat="42.67859" lon="1.73194">
        <ele>2033.6</ele>
        <time>2024-07-10T08:19:03Z</time>
      </trkpt>
      <trkpt lat="42.67849" lon="1.73195">
        <ele>2033.6</ele>
        <time>2024-07-10T08:19:12Z</time>
      </trkpt>
      <trkpt lat="42.67835" lon="1.73194">
        <ele>2032.4</ele>
        <time>2024-07-10T08:19:22Z</time>
      </trkpt>
      <trkpt lat="42.67833" lon="1.73197">
        <ele>2032.2</ele>
        <time>2024-07-10T08:19:25Z</time>
      </trkpt>
      <trkpt lat="42.67831" lon="1.73201">
        <ele>2032</ele>
        <time>2024-07-10T08:19:28Z</time>
      </trkpt>
      <trkpt lat="42.67823" lon="1.73212">
        <ele>2032</ele>
        <time>2024-07-10T08:19:37Z</time>
      </trkpt>
      <trkpt lat="42.67818" lon="1.73219">
        <ele>2032.4</ele>
        <time>2024-07-10T08:19:44Z</time>
      </trkpt>
      <trkpt lat="42.6781" lon="1.7322">
        <ele>2031</ele>
        <time>2024-07-10T08:19:52Z</time>
      </trkpt>
      <trkpt lat="42.67801" lon="1.73227">
        <ele>2028.4</ele>
        <time>2024-07-10T08:20:00Z</time>
      </trkpt>
      <trkpt lat="42.67794" lon="1.73242">
        <ele>2026.4</ele>
        <time>2024-07-10T08:20:10Z</time>
      </trkpt>
      <trkpt lat="42.67787" lon="1.73252">
        <ele>2026.4</ele>
        <time>2024-07-10T08:20:18Z</time>
      </trkpt>
      <trkpt lat="42.6778" lon="1.73264">
        <ele>2026.8</ele>
        <time>2024-07-10T08:20:27Z</time>
      </trkpt>
      <trkpt lat="42.67771" lon="1.73279">
        <ele>2026.8</ele>
        <time>2024-07-10T08:20:38Z</time>
      </trkpt>
      <trkpt lat="42.67762" lon="1.73286">
        <ele>2026.8</ele>
        <time>2024-07-10T08:20:47Z</time>
      </trkpt>
      <trkpt lat="42.67761" lon="1.73287">
        <ele>2026.8</ele>
        <time>2024-07-10T08:20:52Z</time>
      </trkpt>
      <trkpt lat="42.67756" lon="1.73288">
        <ele>2027.6</ele>
        <time>2024-07-10T08:21:25Z</time>
      </trkpt>
      <trkpt lat="42.67742" lon="1.7329">
        <ele>2028</ele>
        <time>2024-07-10T08:21:34Z</time>
      </trkpt>
      <trkpt lat="42.67733" lon="1.73292">
        <ele>2026.6</ele>
        <time>2024-07-10T08:21:41Z</time>
      </trkpt>
      <trkpt lat="42.67729" lon="1.73293">
        <ele>2026</ele>
        <time>2024-07-10T08:21:44Z</time>
      </trkpt>
      <trkpt lat="42.67726" lon="1.73292">
        <ele>2025.6</ele>
        <time>2024-07-10T08:21:47Z</time>
      </trkpt>
      <trkpt lat="42.67725" lon="1.73292">
        <ele>2025.4</ele>
        <time>2024-07-10T08:21:48Z</time>
      </trkpt>
      <trkpt lat="42.67721" lon="1.73295">
        <ele>2025.2</ele>
        <time>2024-07-10T08:21:52Z</time>
      </trkpt>
      <trkpt lat="42.67717" lon="1.73296">
        <ele>2025.2</ele>
        <time>2024-07-10T08:21:57Z</time>
      </trkpt>
      <trkpt lat="42.67716" lon="1.73295">
        <ele>2025.4</ele>
        <time>2024-07-10T08:21:59Z</time>
      </trkpt>
      <trkpt lat="42.67715" lon="1.73295">
        <ele>2025.4</ele>
        <time>2024-07-10T08:22:00Z</time>
      </trkpt>
      <trkpt lat="42.67711" lon="1.73294">
        <ele>2025.8</ele>
        <time>2024-07-10T08:22:05Z</time>
      </trkpt>
      <trkpt lat="42.67704" lon="1.73296">
        <ele>2028.8</ele>
        <time>2024-07-10T08:22:16Z</time>
      </trkpt>
      <trkpt lat="42.67702" lon="1.73297">
        <ele>2029.2</ele>
        <time>2024-07-10T08:22:18Z</time>
      </trkpt>
      <trkpt lat="42.67699" lon="1.73299">
        <ele>2030.2</ele>
        <time>2024-07-10T08:22:22Z</time>
      </trkpt>
      <trkpt lat="42.67692" lon="1.73297">
        <ele>2031.4</ele>
        <time>2024-07-10T08:22:29Z</time>
      </trkpt>
      <trkpt lat="42.67685" lon="1.7329">
        <ele>2031.2</ele>
        <time>2024-07-10T08:22:36Z</time>
      </trkpt>
      <trkpt lat="42.67679" lon="1.73282">
        <ele>2032.8</ele>
        <time>2024-07-10T08:22:46Z</time>
      </trkpt>
      <trkpt lat="42.67677" lon="1.73282">
        <ele>2033</ele>
        <time>2024-07-10T08:22:48Z</time>
      </trkpt>
      <trkpt lat="42.67676" lon="1.73281">
        <ele>2033</ele>
        <time>2024-07-10T08:22:50Z</time>
      </trkpt>
      <trkpt lat="42.67675" lon="1.7328">
        <ele>2032.8</ele>
        <time>2024-07-10T08:22:52Z</time>
      </trkpt>
      <trkpt lat="42.6767" lon="1.73278">
        <ele>2032.4</ele>
        <time>2024-07-10T08:22:58Z</time>
      </trkpt>
      <trkpt lat="42.67663" lon="1.73274">
        <ele>2033.4</ele>
        <time>2024-07-10T08:23:08Z</time>
      </trkpt>
      <trkpt lat="42.67659" lon="1.73269">
        <ele>2035.8</ele>
        <time>2024-07-10T08:23:16Z</time>
      </trkpt>
      <trkpt lat="42.67652" lon="1.73264">
        <ele>2037.2</ele>
        <time>2024-07-10T08:23:24Z</time>
      </trkpt>
      <trkpt lat="42.67646" lon="1.73261">
        <ele>2038.8</ele>
        <time>2024-07-10T08:23:33Z</time>
      </trkpt>
      <trkpt lat="42.67643" lon="1.73261">
        <ele>2039.4</ele>
        <time>2024-07-10T08:23:40Z</time>
      </trkpt>
      <trkpt lat="42.67638" lon="1.73262">
        <ele>2039.2</ele>
        <time>2024-07-10T08:23:47Z</time>
      </trkpt>
      <trkpt lat="42.6763" lon="1.73261">
        <ele>2039.6</ele>
        <time>2024-07-10T08:23:57Z</time>
      </trkpt>
      <trkpt lat="42.67623" lon="1.73259">
        <ele>2039.2</ele>
        <time>2024-07-10T08:24:07Z</time>
      </trkpt>
      <trkpt lat="42.67619" lon="1.7326">
        <ele>2039.8</ele>
        <time>2024-07-10T08:24:15Z</time>
      </trkpt>
      <trkpt lat="42.67615" lon="1.73261">
        <ele>2041.2</ele>
        <time>2024-07-10T08:24:22Z</time>
      </trkpt>
      <trkpt lat="42.67608" lon="1.7326">
        <ele>2043</ele>
        <time>2024-07-10T08:24:31Z</time>
      </trkpt>
      <trkpt lat="42.67602" lon="1.73261">
        <ele>2043.4</ele>
        <time>2024-07-10T08:24:39Z</time>
      </trkpt>
      <trkpt lat="42.67597" lon="1.73264">
        <ele>2043.6</ele>
        <time>2024-07-10T08:24:47Z</time>
      </trkpt>
      <trkpt lat="42.67593" lon="1.73268">
        <ele>2044</ele>
        <time>2024-07-10T08:24:53Z</time>
      </trkpt>
      <trkpt lat="42.67587" lon="1.7327">
        <ele>2043.4</ele>
        <time>2024-07-10T08:25:01Z</time>
      </trkpt>
      <trkpt lat="42.67583" lon="1.73275">
        <ele>2044</ele>
        <time>2024-07-10T08:25:09Z</time>
      </trkpt>
      <trkpt lat="42.67578" lon="1.73278">
        <ele>2044.6</ele>
        <time>2024-07-10T08:25:16Z</time>
      </trkpt>
      <trkpt lat="42.67571" lon="1.73279">
        <ele>2044.8</ele>
        <time>2024-07-10T08:25:25Z</time>
      </trkpt>
      <trkpt lat="42.67563" lon="1.73281">
        <ele>2046.6</ele>
        <time>2024-07-10T08:25:35Z</time>
      </trkpt>
      <trkpt lat="42.67558" lon="1.73283">
        <ele>2046.8</ele>
        <time>2024-07-10T08:25:42Z</time>
      </trkpt>
      <trkpt lat="42.6755" lon="1.73287">
        <ele>2047.6</ele>
        <time>2024-07-10T08:25:50Z</time>
      </trkpt>
      <trkpt lat="42.6755" lon="1.73287">
        <ele>2048</ele>
        <time>2024-07-10T08:25:51Z</time>
      </trkpt>
      <trkpt lat="42.6754" lon="1.73289">
        <ele>2048.8</ele>
        <time>2024-07-10T08:26:00Z</time>
      </trkpt>
      <trkpt lat="42.67533" lon="1.7329">
        <ele>2049</ele>
        <time>2024-07-10T08:26:08Z</time>
      </trkpt>
      <trkpt lat="42.67523" lon="1.73294">
        <ele>2049.6</ele>
        <time>2024-07-10T08:26:18Z</time>
      </trkpt>
      <trkpt lat="42.67516" lon="1.73298">
        <ele>2050.2</ele>
        <time>2024-07-10T08:26:26Z</time>
      </trkpt>
      <trkpt lat="42.67508" lon="1.73302">
        <ele>2051.4</ele>
        <time>2024-07-10T08:26:36Z</time>
      </trkpt>
      <trkpt lat="42.67507" lon="1.73302">
        <ele>2051.6</ele>
        <time>2024-07-10T08:26:37Z</time>
      </trkpt>
      <trkpt lat="42.67503" lon="1.73304">
        <ele>2052.4</ele>
        <time>2024-07-10T08:26:42Z</time>
      </trkpt>
      <trkpt lat="42.675" lon="1.73305">
        <ele>2052.8</ele>
        <time>2024-07-10T08:26:46Z</time>
      </trkpt>
      <trkpt lat="42.67497" lon="1.73306">
        <ele>2053.4</ele>
        <time>2024-07-10T08:26:50Z</time>
      </trkpt>
      <trkpt lat="42.6749" lon="1.73309">
        <ele>2054.8</ele>
        <time>2024-07-10T08:26:59Z</time>
      </trkpt>
      <trkpt lat="42.67485" lon="1.73313">
        <ele>2055.6</ele>
        <time>2024-07-10T08:27:07Z</time>
      </trkpt>
      <trkpt lat="42.67479" lon="1.73318">
        <ele>2057</ele>
        <time>2024-07-10T08:27:19Z</time>
      </trkpt>
      <trkpt lat="42.67477" lon="1.73322">
        <ele>2058.2</ele>
        <time>2024-07-10T08:27:24Z</time>
      </trkpt>
      <trkpt lat="42.67478" lon="1.73322">
        <ele>2059</ele>
        <time>2024-07-10T08:27:28Z</time>
      </trkpt>
      <trkpt lat="42.67478" lon="1.73322">
        <ele>2061.2</ele>
        <time>2024-07-10T08:27:36Z</time>
      </trkpt>
      <trkpt lat="42.67472" lon="1.73326">
        <ele>2062.4</ele>
        <time>2024-07-10T08:28:10Z</time>
      </trkpt>
      <trkpt lat="42.67464" lon="1.73332">
        <ele>2062.8</ele>
        <time>2024-07-10T08:28:18Z</time>
      </trkpt>
      <trkpt lat="42.67459" lon="1.73337">
        <ele>2064</ele>
        <time>2024-07-10T08:28:26Z</time>
      </trkpt>
      <trkpt lat="42.67451" lon="1.7334">
        <ele>2065.6</ele>
        <time>2024-07-10T08:28:35Z</time>
      </trkpt>
      <trkpt lat="42.67445" lon="1.73341">
        <ele>2067.2</ele>
        <time>2024-07-10T08:28:43Z</time>
      </trkpt>
      <trkpt lat="42.67439" lon="1.73344">
        <ele>2067.6</ele>
        <time>2024-07-10T08:28:51Z</time>
      </trkpt>
      <trkpt lat="42.67435" lon="1.73346">
        <ele>2068.4</ele>
        <time>2024-07-10T08:28:58Z</time>
      </trkpt>
      <trkpt lat="42.6743" lon="1.73348">
        <ele>2069.2</ele>
        <time>2024-07-10T08:29:05Z</time>
      </trkpt>
      <trkpt lat="42.67424" lon="1.73354">
        <ele>2070.4</ele>
        <time>2024-07-10T08:29:14Z</time>
      </trkpt>
      <trkpt lat="42.67418" lon="1.73358">
        <ele>2070.8</ele>
        <time>2024-07-10T08:29:21Z</time>
      </trkpt>
      <trkpt lat="42.67411" lon="1.73362">
        <ele>2072.2</ele>
        <time>2024-07-10T08:29:31Z</time>
      </trkpt>
      <trkpt lat="42.67405" lon="1.73368">
        <ele>2073.8</ele>
        <time>2024-07-10T08:29:41Z</time>
      </trkpt>
      <trkpt lat="42.67399" lon="1.73377">
        <ele>2074.2</ele>
        <time>2024-07-10T08:29:52Z</time>
      </trkpt>
      <trkpt lat="42.67393" lon="1.73383">
        <ele>2075.6</ele>
        <time>2024-07-10T08:30:01Z</time>
      </trkpt>
      <trkpt lat="42.67383" lon="1.73388">
        <ele>2077.2</ele>
        <time>2024-07-10T08:30:12Z</time>
      </trkpt>
      <trkpt lat="42.67376" lon="1.73391">
        <ele>2078</ele>
        <time>2024-07-10T08:30:20Z</time>
      </trkpt>
      <trkpt lat="42.67368" lon="1.73393">
        <ele>2078.4</ele>
        <time>2024-07-10T08:30:29Z</time>
      </trkpt>
      <trkpt lat="42.67363" lon="1.73399">
        <ele>2078.4</ele>
        <time>2024-07-10T08:30:36Z</time>
      </trkpt>
      <trkpt lat="42.67357" lon="1.73407">
        <ele>2078.8</ele>
        <time>2024-07-10T08:30:44Z</time>
      </trkpt>
      <trkpt lat="42.67351" lon="1.73416">
        <ele>2079.8</ele>
        <time>2024-07-10T08:30:54Z</time>
      </trkpt>
      <trkpt lat="42.67345" lon="1.73428">
        <ele>2080.6</ele>
        <time>2024-07-10T08:31:06Z</time>
      </trkpt>
      <trkpt lat="42.67341" lon="1.73435">
        <ele>2081.6</ele>
        <time>2024-07-10T08:31:14Z</time>
      </trkpt>
      <trkpt lat="42.67335" lon="1.73441">
        <ele>2082.6</ele>
        <time>2024-07-10T08:31:24Z</time>
      </trkpt>
      <trkpt lat="42.67325" lon="1.73446">
        <ele>2085</ele>
        <time>2024-07-10T08:31:36Z</time>
      </trkpt>
      <trkpt lat="42.67315" lon="1.73448">
        <ele>2087.4</ele>
        <time>2024-07-10T08:31:46Z</time>
      </trkpt>
      <trkpt lat="42.67307" lon="1.7345">
        <ele>2088.2</ele>
        <time>2024-07-10T08:31:54Z</time>
      </trkpt>
      <trkpt lat="42.67298" lon="1.73452">
        <ele>2088.6</ele>
        <time>2024-07-10T08:32:03Z</time>
      </trkpt>
      <trkpt lat="42.67291" lon="1.73456">
        <ele>2089.6</ele>
        <time>2024-07-10T08:32:11Z</time>
      </trkpt>
      <trkpt lat="42.67282" lon="1.7346">
        <ele>2090.6</ele>
        <time>2024-07-10T08:32:21Z</time>
      </trkpt>
      <trkpt lat="42.67272" lon="1.73467">
        <ele>2090.8</ele>
        <time>2024-07-10T08:32:33Z</time>
      </trkpt>
      <trkpt lat="42.67265" lon="1.73473">
        <ele>2091.8</ele>
        <time>2024-07-10T08:32:42Z</time>
      </trkpt>
      <trkpt lat="42.67257" lon="1.73477">
        <ele>2093.2</ele>
        <time>2024-07-10T08:32:52Z</time>
      </trkpt>
      <trkpt lat="42.6725" lon="1.7348">
        <ele>2093.6</ele>
        <time>2024-07-10T08:33:00Z</time>
      </trkpt>
      <trkpt lat="42.67248" lon="1.73481">
        <ele>2094.6</ele>
        <time>2024-07-10T08:33:06Z</time>
      </trkpt>
      <trkpt lat="42.67248" lon="1.73482">
        <ele>2094.8</ele>
        <time>2024-07-10T08:33:36Z</time>
      </trkpt>
      <trkpt lat="42.67244" lon="1.73489">
        <ele>2094.6</ele>
        <time>2024-07-10T08:39:01Z</time>
      </trkpt>
      <trkpt lat="42.67236" lon="1.735">
        <ele>2095.6</ele>
        <time>2024-07-10T08:39:11Z</time>
      </trkpt>
      <trkpt lat="42.67232" lon="1.73508">
        <ele>2096.6</ele>
        <time>2024-07-10T08:39:21Z</time>
      </trkpt>
      <trkpt lat="42.67228" lon="1.73519">
        <ele>2099.2</ele>
        <time>2024-07-10T08:39:32Z</time>
      </trkpt>
      <trkpt lat="42.67226" lon="1.73528">
        <ele>2100.8</ele>
        <time>2024-07-10T08:39:43Z</time>
      </trkpt>
      <trkpt lat="42.67225" lon="1.73533">
        <ele>2101.2</ele>
        <time>2024-07-10T08:39:50Z</time>
      </trkpt>
      <trkpt lat="42.67225" lon="1.73541">
        <ele>2102.6</ele>
        <time>2024-07-10T08:40:00Z</time>
      </trkpt>
      <trkpt lat="42.67226" lon="1.73547">
        <ele>2104.6</ele>
        <time>2024-07-10T08:40:09Z</time>
      </trkpt>
      <trkpt lat="42.67223" lon="1.73554">
        <ele>2107.2</ele>
        <time>2024-07-10T08:40:20Z</time>
      </trkpt>
      <trkpt lat="42.67223" lon="1.73559">
        <ele>2107.8</ele>
        <time>2024-07-10T08:40:29Z</time>
      </trkpt>
      <trkpt lat="42.67219" lon="1.73563">
        <ele>2109.4</ele>
        <time>2024-07-10T08:40:39Z</time>
      </trkpt>
      <trkpt lat="42.67218" lon="1.73565">
        <ele>2110</ele>
        <time>2024-07-10T08:40:45Z</time>
      </trkpt>
      <trkpt lat="42.67216" lon="1.73569">
        <ele>2111</ele>
        <time>2024-07-10T08:40:54Z</time>
      </trkpt>
      <trkpt lat="42.67214" lon="1.73573">
        <ele>2111.6</ele>
        <time>2024-07-10T08:41:05Z</time>
      </trkpt>
      <trkpt lat="42.67213" lon="1.73578">
        <ele>2112.8</ele>
        <time>2024-07-10T08:41:12Z</time>
      </trkpt>
      <trkpt lat="42.67213" lon="1.7358">
        <ele>2114.4</ele>
        <time>2024-07-10T08:41:18Z</time>
      </trkpt>
      <trkpt lat="42.67212" lon="1.73583">
        <ele>2116.6</ele>
        <time>2024-07-10T08:41:25Z</time>
      </trkpt>
      <trkpt lat="42.6721" lon="1.73586">
        <ele>2118.2</ele>
        <time>2024-07-10T08:41:32Z</time>
      </trkpt>
      <trkpt lat="42.67208" lon="1.73589">
        <ele>2119.4</ele>
        <time>2024-07-10T08:41:40Z</time>
      </trkpt>
      <trkpt lat="42.67211" lon="1.73592">
        <ele>2120.8</ele>
        <time>2024-07-10T08:41:49Z</time>
      </trkpt>
      <trkpt lat="42.67213" lon="1.73594">
        <ele>2121.6</ele>
        <time>2024-07-10T08:41:58Z</time>
      </trkpt>
      <trkpt lat="42.67214" lon="1.73595">
        <ele>2122</ele>
        <time>2024-07-10T08:42:07Z</time>
      </trkpt>
      <trkpt lat="42.67219" lon="1.73605">
        <ele>2123.8</ele>
        <time>2024-07-10T08:42:35Z</time>
      </trkpt>
      <trkpt lat="42.67217" lon="1.7361">
        <ele>2128</ele>
        <time>2024-07-10T08:42:44Z</time>
      </trkpt>
      <trkpt lat="42.67217" lon="1.7361">
        <ele>2130.2</ele>
        <time>2024-07-10T08:42:53Z</time>
      </trkpt>
      <trkpt lat="42.67226" lon="1.73631">
        <ele>2135</ele>
        <time>2024-07-10T08:44:14Z</time>
      </trkpt>
      <trkpt lat="42.67229" lon="1.73639">
        <ele>2137</ele>
        <time>2024-07-10T08:44:20Z</time>
      </trkpt>
      <trkpt lat="42.67232" lon="1.73646">
        <ele>2139.8</ele>
        <time>2024-07-10T08:44:29Z</time>
      </trkpt>
      <trkpt lat="42.67232" lon="1.7365">
        <ele>2141.4</ele>
        <time>2024-07-10T08:44:37Z</time>
      </trkpt>
      <trkpt lat="42.67232" lon="1.73653">
        <ele>2142</ele>
        <time>2024-07-10T08:44:44Z</time>
      </trkpt>
      <trkpt lat="42.67232" lon="1.73657">
        <ele>2142.6</ele>
        <time>2024-07-10T08:44:49Z</time>
      </trkpt>
      <trkpt lat="42.67232" lon="1.73666">
        <ele>2144.6</ele>
        <time>2024-07-10T08:44:59Z</time>
      </trkpt>
      <trkpt lat="42.67233" lon="1.73673">
        <ele>2145.6</ele>
        <time>2024-07-10T08:45:07Z</time>
      </trkpt>
      <trkpt lat="42.67234" lon="1.73681">
        <ele>2147.6</ele>
        <time>2024-07-10T08:45:16Z</time>
      </trkpt>
      <trkpt lat="42.67236" lon="1.73688">
        <ele>2149.6</ele>
        <time>2024-07-10T08:45:25Z</time>
      </trkpt>
      <trkpt lat="42.67238" lon="1.73698">
        <ele>2151.6</ele>
        <time>2024-07-10T08:45:37Z</time>
      </trkpt>
      <trkpt lat="42.67241" lon="1.73709">
        <ele>2153.8</ele>
        <time>2024-07-10T08:45:50Z</time>
      </trkpt>
      <trkpt lat="42.67242" lon="1.73717">
        <ele>2155.8</ele>
        <time>2024-07-10T08:45:59Z</time>
      </trkpt>
      <trkpt lat="42.67245" lon="1.73725">
        <ele>2157.4</ele>
        <time>2024-07-10T08:46:09Z</time>
      </trkpt>
      <trkpt lat="42.67249" lon="1.73733">
        <ele>2160.2</ele>
        <time>2024-07-10T08:46:20Z</time>
      </trkpt>
      <trkpt lat="42.67252" lon="1.73737">
        <ele>2162.6</ele>
        <time>2024-07-10T08:46:28Z</time>
      </trkpt>
      <trkpt lat="42.67256" lon="1.73742">
        <ele>2164</ele>
        <time>2024-07-10T08:46:36Z</time>
      </trkpt>
      <trkpt lat="42.67259" lon="1.73748">
        <ele>2165.4</ele>
        <time>2024-07-10T08:46:43Z</time>
      </trkpt>
      <trkpt lat="42.67264" lon="1.73754">
        <ele>2166.4</ele>
        <time>2024-07-10T08:46:51Z</time>
      </trkpt>
      <trkpt lat="42.67266" lon="1.73765">
        <ele>2167.8</ele>
        <time>2024-07-10T08:47:02Z</time>
      </trkpt>
      <trkpt lat="42.67265" lon="1.73773">
        <ele>2169</ele>
        <time>2024-07-10T08:47:10Z</time>
      </trkpt>
      <trkpt lat="42.67264" lon="1.73779">
        <ele>2170.6</ele>
        <time>2024-07-10T08:47:17Z</time>
      </trkpt>
      <trkpt lat="42.67264" lon="1.73781">
        <ele>2171.8</ele>
        <time>2024-07-10T08:47:25Z</time>
      </trkpt>
      <trkpt lat="42.67263" lon="1.73788">
        <ele>2171.8</ele>
        <time>2024-07-10T08:47:48Z</time>
      </trkpt>
      <trkpt lat="42.67261" lon="1.73802">
        <ele>2173.2</ele>
        <time>2024-07-10T08:47:58Z</time>
      </trkpt>
      <trkpt lat="42.67259" lon="1.73813">
        <ele>2174.2</ele>
        <time>2024-07-10T08:48:09Z</time>
      </trkpt>
      <trkpt lat="42.6726" lon="1.73822">
        <ele>2175</ele>
        <time>2024-07-10T08:48:18Z</time>
      </trkpt>
      <trkpt lat="42.67259" lon="1.73832">
        <ele>2176</ele>
        <time>2024-07-10T08:48:28Z</time>
      </trkpt>
      <trkpt lat="42.67257" lon="1.73842">
        <ele>2177.8</ele>
        <time>2024-07-10T08:48:37Z</time>
      </trkpt>
      <trkpt lat="42.67256" lon="1.73853">
        <ele>2179</ele>
        <time>2024-07-10T08:48:48Z</time>
      </trkpt>
      <trkpt lat="42.67254" lon="1.7386">
        <ele>2179.6</ele>
        <time>2024-07-10T08:48:56Z</time>
      </trkpt>
      <trkpt lat="42.6725" lon="1.73868">
        <ele>2181.8</ele>
        <time>2024-07-10T08:49:06Z</time>
      </trkpt>
      <trkpt lat="42.67248" lon="1.73874">
        <ele>2183.4</ele>
        <time>2024-07-10T08:49:13Z</time>
      </trkpt>
      <trkpt lat="42.67246" lon="1.7388">
        <ele>2184.6</ele>
        <time>2024-07-10T08:49:21Z</time>
      </trkpt>
      <trkpt lat="42.67243" lon="1.73886">
        <ele>2186.2</ele>
        <time>2024-07-10T08:49:27Z</time>
      </trkpt>
      <trkpt lat="42.67241" lon="1.73892">
        <ele>2187.4</ele>
        <time>2024-07-10T08:49:33Z</time>
      </trkpt>
      <trkpt lat="42.67239" lon="1.73899">
        <ele>2188.4</ele>
        <time>2024-07-10T08:49:40Z</time>
      </trkpt>
      <trkpt lat="42.67237" lon="1.73906">
        <ele>2189</ele>
        <time>2024-07-10T08:49:48Z</time>
      </trkpt>
      <trkpt lat="42.67236" lon="1.73913">
        <ele>2190.6</ele>
        <time>2024-07-10T08:49:55Z</time>
      </trkpt>
      <trkpt lat="42.67235" lon="1.73915">
        <ele>2192.2</ele>
        <time>2024-07-10T08:50:02Z</time>
      </trkpt>
      <trkpt lat="42.67236" lon="1.7392">
        <ele>2192.8</ele>
        <time>2024-07-10T08:50:09Z</time>
      </trkpt>
      <trkpt lat="42.67236" lon="1.73927">
        <ele>2193.6</ele>
        <time>2024-07-10T08:50:16Z</time>
      </trkpt>
      <trkpt lat="42.67234" lon="1.73933">
        <ele>2194.6</ele>
        <time>2024-07-10T08:50:22Z</time>
      </trkpt>
      <trkpt lat="42.6723" lon="1.73939">
        <ele>2196</ele>
        <time>2024-07-10T08:50:29Z</time>
      </trkpt>
      <trkpt lat="42.67224" lon="1.73944">
        <ele>2198.4</ele>
        <time>2024-07-10T08:50:37Z</time>
      </trkpt>
      <trkpt lat="42.67222" lon="1.73952">
        <ele>2200</ele>
        <time>2024-07-10T08:50:45Z</time>
      </trkpt>
      <trkpt lat="42.67218" lon="1.73957">
        <ele>2201.4</ele>
        <time>2024-07-10T08:50:52Z</time>
      </trkpt>
      <trkpt lat="42.67215" lon="1.73967">
        <ele>2203</ele>
        <time>2024-07-10T08:51:01Z</time>
      </trkpt>
      <trkpt lat="42.67212" lon="1.73974">
        <ele>2203.8</ele>
        <time>2024-07-10T08:51:08Z</time>
      </trkpt>
      <trkpt lat="42.67209" lon="1.7398">
        <ele>2205.2</ele>
        <time>2024-07-10T08:51:15Z</time>
      </trkpt>
      <trkpt lat="42.67203" lon="1.73989">
        <ele>2206.6</ele>
        <time>2024-07-10T08:51:24Z</time>
      </trkpt>
      <trkpt lat="42.67197" lon="1.73997">
        <ele>2207.8</ele>
        <time>2024-07-10T08:51:33Z</time>
      </trkpt>
      <trkpt lat="42.67193" lon="1.74002">
        <ele>2209</ele>
        <time>2024-07-10T08:51:39Z</time>
      </trkpt>
      <trkpt lat="42.67191" lon="1.74002">
        <ele>2209.4</ele>
        <time>2024-07-10T08:51:41Z</time>
      </trkpt>
      <trkpt lat="42.67186" lon="1.74003">
        <ele>2209.8</ele>
        <time>2024-07-10T08:51:46Z</time>
      </trkpt>
      <trkpt lat="42.67178" lon="1.74006">
        <ele>2209.6</ele>
        <time>2024-07-10T08:51:55Z</time>
      </trkpt>
      <trkpt lat="42.67165" lon="1.7401">
        <ele>2209</ele>
        <time>2024-07-10T08:52:07Z</time>
      </trkpt>
      <trkpt lat="42.67155" lon="1.74014">
        <ele>2209.2</ele>
        <time>2024-07-10T08:52:15Z</time>
      </trkpt>
      <trkpt lat="42.67144" lon="1.74018">
        <ele>2210.6</ele>
        <time>2024-07-10T08:52:25Z</time>
      </trkpt>
      <trkpt lat="42.67131" lon="1.74025">
        <ele>2212.6</ele>
        <time>2024-07-10T08:52:36Z</time>
      </trkpt>
      <trkpt lat="42.67121" lon="1.7403">
        <ele>2213.6</ele>
        <time>2024-07-10T08:52:44Z</time>
      </trkpt>
      <trkpt lat="42.67112" lon="1.74033">
        <ele>2213.6</ele>
        <time>2024-07-10T08:52:53Z</time>
      </trkpt>
      <trkpt lat="42.67103" lon="1.74041">
        <ele>2213.8</ele>
        <time>2024-07-10T08:53:02Z</time>
      </trkpt>
      <trkpt lat="42.67097" lon="1.74047">
        <ele>2214.8</ele>
        <time>2024-07-10T08:53:10Z</time>
      </trkpt>
      <trkpt lat="42.67087" lon="1.74058">
        <ele>2215.8</ele>
        <time>2024-07-10T08:53:23Z</time>
      </trkpt>
      <trkpt lat="42.67079" lon="1.74067">
        <ele>2216.8</ele>
        <time>2024-07-10T08:53:34Z</time>
      </trkpt>
      <trkpt lat="42.67074" lon="1.74074">
        <ele>2217.8</ele>
        <time>2024-07-10T08:53:42Z</time>
      </trkpt>
      <trkpt lat="42.67067" lon="1.74087">
        <ele>2220</ele>
        <time>2024-07-10T08:53:53Z</time>
      </trkpt>
      <trkpt lat="42.67061" lon="1.74099">
        <ele>2221.8</ele>
        <time>2024-07-10T08:54:04Z</time>
      </trkpt>
      <trkpt lat="42.67057" lon="1.74105">
        <ele>2222.6</ele>
        <time>2024-07-10T08:54:11Z</time>
      </trkpt>
      <trkpt lat="42.67052" lon="1.74112">
        <ele>2223.2</ele>
        <time>2024-07-10T08:54:18Z</time>
      </trkpt>
      <trkpt lat="42.67047" lon="1.74119">
        <ele>2224.6</ele>
        <time>2024-07-10T08:54:26Z</time>
      </trkpt>
      <trkpt lat="42.6704" lon="1.74129">
        <ele>2226.4</ele>
        <time>2024-07-10T08:54:37Z</time>
      </trkpt>
      <trkpt lat="42.67037" lon="1.74137">
        <ele>2227.8</ele>
        <time>2024-07-10T08:54:45Z</time>
      </trkpt>
      <trkpt lat="42.67031" lon="1.74146">
        <ele>2228.8</ele>
        <time>2024-07-10T08:54:55Z</time>
      </trkpt>
      <trkpt lat="42.67026" lon="1.74154">
        <ele>2230</ele>
        <time>2024-07-10T08:55:03Z</time>
      </trkpt>
      <trkpt lat="42.6702" lon="1.74162">
        <ele>2231.2</ele>
        <time>2024-07-10T08:55:12Z</time>
      </trkpt>
      <trkpt lat="42.67014" lon="1.74168">
        <ele>2231.8</ele>
        <time>2024-07-10T08:55:20Z</time>
      </trkpt>
      <trkpt lat="42.6701" lon="1.74176">
        <ele>2233</ele>
        <time>2024-07-10T08:55:28Z</time>
      </trkpt>
      <trkpt lat="42.67005" lon="1.74185">
        <ele>2233.6</ele>
        <time>2024-07-10T08:55:37Z</time>
      </trkpt>
      <trkpt lat="42.66998" lon="1.74197">
        <ele>2234.8</ele>
        <time>2024-07-10T08:55:48Z</time>
      </trkpt>
      <trkpt lat="42.66992" lon="1.74205">
        <ele>2236.4</ele>
        <time>2024-07-10T08:55:58Z</time>
      </trkpt>
      <trkpt lat="42.66985" lon="1.74212">
        <ele>2237.2</ele>
        <time>2024-07-10T08:56:07Z</time>
      </trkpt>
      <trkpt lat="42.66979" lon="1.74219">
        <ele>2239.2</ele>
        <time>2024-07-10T08:56:16Z</time>
      </trkpt>
      <trkpt lat="42.66973" lon="1.74231">
        <ele>2241.4</ele>
        <time>2024-07-10T08:56:28Z</time>
      </trkpt>
      <trkpt lat="42.66966" lon="1.74242">
        <ele>2244.4</ele>
        <time>2024-07-10T08:56:40Z</time>
      </trkpt>
      <trkpt lat="42.6696" lon="1.74256">
        <ele>2246.8</ele>
        <time>2024-07-10T08:56:54Z</time>
      </trkpt>
      <trkpt lat="42.66956" lon="1.74264">
        <ele>2248.2</ele>
        <time>2024-07-10T08:57:03Z</time>
      </trkpt>
      <trkpt lat="42.66955" lon="1.74265">
        <ele>2248.4</ele>
        <time>2024-07-10T08:57:04Z</time>
      </trkpt>
      <trkpt lat="42.6695" lon="1.74279">
        <ele>2249.6</ele>
        <time>2024-07-10T08:57:15Z</time>
      </trkpt>
      <trkpt lat="42.66944" lon="1.74287">
        <ele>2251.8</ele>
        <time>2024-07-10T08:57:24Z</time>
      </trkpt>
      <trkpt lat="42.66935" lon="1.74297">
        <ele>2253.6</ele>
        <time>2024-07-10T08:57:35Z</time>
      </trkpt>
      <trkpt lat="42.66926" lon="1.74305">
        <ele>2254</ele>
        <time>2024-07-10T08:57:45Z</time>
      </trkpt>
      <trkpt lat="42.66924" lon="1.74306">
        <ele>2254</ele>
        <time>2024-07-10T08:57:47Z</time>
      </trkpt>
      <trkpt lat="42.66923" lon="1.74305">
        <ele>2254.2</ele>
        <time>2024-07-10T08:57:50Z</time>
      </trkpt>
      <trkpt lat="42.66918" lon="1.74307">
        <ele>2255</ele>
        <time>2024-07-10T08:57:59Z</time>
      </trkpt>
      <trkpt lat="42.6691" lon="1.74308">
        <ele>2255.8</ele>
        <time>2024-07-10T08:58:07Z</time>
      </trkpt>
      <trkpt lat="42.66899" lon="1.74307">
        <ele>2256.6</ele>
        <time>2024-07-10T08:58:18Z</time>
      </trkpt>
      <trkpt lat="42.66887" lon="1.74306">
        <ele>2257.8</ele>
        <time>2024-07-10T08:58:30Z</time>
      </trkpt>
      <trkpt lat="42.66878" lon="1.74306">
        <ele>2258.8</ele>
        <time>2024-07-10T08:58:40Z</time>
      </trkpt>
      <trkpt lat="42.66866" lon="1.74307">
        <ele>2260.8</ele>
        <time>2024-07-10T08:58:51Z</time>
      </trkpt>
      <trkpt lat="42.66855" lon="1.74304">
        <ele>2262.2</ele>
        <time>2024-07-10T08:59:01Z</time>
      </trkpt>
      <trkpt lat="42.66845" lon="1.743">
        <ele>2263.2</ele>
        <time>2024-07-10T08:59:10Z</time>
      </trkpt>
      <trkpt lat="42.6684" lon="1.74299">
        <ele>2262.4</ele>
        <time>2024-07-10T08:59:17Z</time>
      </trkpt>
      <trkpt lat="42.66832" lon="1.743">
        <ele>2262.4</ele>
        <time>2024-07-10T08:59:25Z</time>
      </trkpt>
      <trkpt lat="42.66831" lon="1.743">
        <ele>2262.6</ele>
        <time>2024-07-10T08:59:26Z</time>
      </trkpt>
      <trkpt lat="42.66823" lon="1.74301">
        <ele>2264</ele>
        <time>2024-07-10T08:59:34Z</time>
      </trkpt>
      <trkpt lat="42.6682" lon="1.74302">
        <ele>2264.8</ele>
        <time>2024-07-10T08:59:37Z</time>
      </trkpt>
      <trkpt lat="42.6681" lon="1.74303">
        <ele>2267.6</ele>
        <time>2024-07-10T08:59:47Z</time>
      </trkpt>
      <trkpt lat="42.66806" lon="1.74304">
        <ele>2268.2</ele>
        <time>2024-07-10T08:59:50Z</time>
      </trkpt>
      <trkpt lat="42.66803" lon="1.74304">
        <ele>2268.8</ele>
        <time>2024-07-10T08:59:54Z</time>
      </trkpt>
      <trkpt lat="42.66801" lon="1.74305">
        <ele>2269.2</ele>
        <time>2024-07-10T08:59:56Z</time>
      </trkpt>
      <trkpt lat="42.66797" lon="1.74306">
        <ele>2269.8</ele>
        <time>2024-07-10T09:00:01Z</time>
      </trkpt>
      <trkpt lat="42.66789" lon="1.74307">
        <ele>2270.6</ele>
        <time>2024-07-10T09:00:09Z</time>
      </trkpt>
      <trkpt lat="42.66781" lon="1.74309">
        <ele>2271.8</ele>
        <time>2024-07-10T09:00:18Z</time>
      </trkpt>
      <trkpt lat="42.66774" lon="1.74311">
        <ele>2273</ele>
        <time>2024-07-10T09:00:27Z</time>
      </trkpt>
      <trkpt lat="42.66772" lon="1.74312">
        <ele>2273.2</ele>
        <time>2024-07-10T09:00:29Z</time>
      </trkpt>
      <trkpt lat="42.6676" lon="1.74315">
        <ele>2274.8</ele>
        <time>2024-07-10T09:00:42Z</time>
      </trkpt>
      <trkpt lat="42.66753" lon="1.74321">
        <ele>2276.6</ele>
        <time>2024-07-10T09:00:51Z</time>
      </trkpt>
      <trkpt lat="42.66751" lon="1.74321">
        <ele>2277</ele>
        <time>2024-07-10T09:00:53Z</time>
      </trkpt>
      <trkpt lat="42.66747" lon="1.74322">
        <ele>2277.6</ele>
        <time>2024-07-10T09:00:58Z</time>
      </trkpt>
      <trkpt lat="42.66738" lon="1.74321">
        <ele>2279.2</ele>
        <time>2024-07-10T09:01:08Z</time>
      </trkpt>
      <trkpt lat="42.6673" lon="1.74316">
        <ele>2280.8</ele>
        <time>2024-07-10T09:01:17Z</time>
      </trkpt>
      <trkpt lat="42.6672" lon="1.74313">
        <ele>2281.8</ele>
        <time>2024-07-10T09:01:26Z</time>
      </trkpt>
      <trkpt lat="42.66709" lon="1.74303">
        <ele>2282</ele>
        <time>2024-07-10T09:01:37Z</time>
      </trkpt>
      <trkpt lat="42.66699" lon="1.74293">
        <ele>2282.8</ele>
        <time>2024-07-10T09:01:47Z</time>
      </trkpt>
      <trkpt lat="42.66691" lon="1.74283">
        <ele>2282.6</ele>
        <time>2024-07-10T09:01:58Z</time>
      </trkpt>
      <trkpt lat="42.66681" lon="1.74274">
        <ele>2282.6</ele>
        <time>2024-07-10T09:02:06Z</time>
      </trkpt>
      <trkpt lat="42.66672" lon="1.74267">
        <ele>2283.2</ele>
        <time>2024-07-10T09:02:15Z</time>
      </trkpt>
      <trkpt lat="42.66663" lon="1.74259">
        <ele>2283.6</ele>
        <time>2024-07-10T09:02:24Z</time>
      </trkpt>
      <trkpt lat="42.66654" lon="1.74248">
        <ele>2282</ele>
        <time>2024-07-10T09:02:34Z</time>
      </trkpt>
      <trkpt lat="42.66643" lon="1.74239">
        <ele>2281.2</ele>
        <time>2024-07-10T09:02:45Z</time>
      </trkpt>
      <trkpt lat="42.66633" lon="1.74231">
        <ele>2280.8</ele>
        <time>2024-07-10T09:02:55Z</time>
      </trkpt>
      <trkpt lat="42.66623" lon="1.74225">
        <ele>2280.8</ele>
        <time>2024-07-10T09:03:04Z</time>
      </trkpt>
      <trkpt lat="42.66612" lon="1.7422">
        <ele>2280.6</ele>
        <time>2024-07-10T09:03:14Z</time>
      </trkpt>
      <trkpt lat="42.66603" lon="1.74213">
        <ele>2280.6</ele>
        <time>2024-07-10T09:03:23Z</time>
      </trkpt>
      <trkpt lat="42.6659" lon="1.74205">
        <ele>2280.2</ele>
        <time>2024-07-10T09:03:35Z</time>
      </trkpt>
      <trkpt lat="42.66579" lon="1.74203">
        <ele>2280.6</ele>
        <time>2024-07-10T09:03:44Z</time>
      </trkpt>
      <trkpt lat="42.66569" lon="1.74202">
        <ele>2280.8</ele>
        <time>2024-07-10T09:03:53Z</time>
      </trkpt>
      <trkpt lat="42.66556" lon="1.74199">
        <ele>2282.4</ele>
        <time>2024-07-10T09:04:05Z</time>
      </trkpt>
      <trkpt lat="42.66546" lon="1.74199">
        <ele>2282.4</ele>
        <time>2024-07-10T09:04:15Z</time>
      </trkpt>
      <trkpt lat="42.66536" lon="1.742">
        <ele>2282.6</ele>
        <time>2024-07-10T09:04:24Z</time>
      </trkpt>
      <trkpt lat="42.66523" lon="1.74196">
        <ele>2281.4</ele>
        <time>2024-07-10T09:04:35Z</time>
      </trkpt>
      <trkpt lat="42.66511" lon="1.74191">
        <ele>2281</ele>
        <time>2024-07-10T09:04:45Z</time>
      </trkpt>
      <trkpt lat="42.66505" lon="1.74195">
        <ele>2281.4</ele>
        <time>2024-07-10T09:04:53Z</time>
      </trkpt>
      <trkpt lat="42.66503" lon="1.74196">
        <ele>2281.6</ele>
        <time>2024-07-10T09:04:59Z</time>
      </trkpt>
      <trkpt lat="42.66503" lon="1.74195">
        <ele>2281.6</ele>
        <time>2024-07-10T09:05:06Z</time>
      </trkpt>
      <trkpt lat="42.66499" lon="1.74194">
        <ele>2282.4</ele>
        <time>2024-07-10T09:05:44Z</time>
      </trkpt>
      <trkpt lat="42.66487" lon="1.74193">
        <ele>2281.4</ele>
        <time>2024-07-10T09:05:54Z</time>
      </trkpt>
      <trkpt lat="42.66478" lon="1.74188">
        <ele>2280.4</ele>
        <time>2024-07-10T09:06:03Z</time>
      </trkpt>
      <trkpt lat="42.66466" lon="1.74182">
        <ele>2279.8</ele>
        <time>2024-07-10T09:06:13Z</time>
      </trkpt>
      <trkpt lat="42.66453" lon="1.7418">
        <ele>2278.4</ele>
        <time>2024-07-10T09:06:23Z</time>
      </trkpt>
      <trkpt lat="42.66443" lon="1.74183">
        <ele>2277.4</ele>
        <time>2024-07-10T09:06:31Z</time>
      </trkpt>
      <trkpt lat="42.66435" lon="1.74184">
        <ele>2277.2</ele>
        <time>2024-07-10T09:06:38Z</time>
      </trkpt>
      <trkpt lat="42.66422" lon="1.74184">
        <ele>2277.4</ele>
        <time>2024-07-10T09:06:49Z</time>
      </trkpt>
      <trkpt lat="42.66409" lon="1.74182">
        <ele>2277</ele>
        <time>2024-07-10T09:07:00Z</time>
      </trkpt>
      <trkpt lat="42.66398" lon="1.74185">
        <ele>2277.4</ele>
        <time>2024-07-10T09:07:09Z</time>
      </trkpt>
      <trkpt lat="42.66388" lon="1.74186">
        <ele>2279</ele>
        <time>2024-07-10T09:07:20Z</time>
      </trkpt>
      <trkpt lat="42.66388" lon="1.74186">
        <ele>2279.2</ele>
        <time>2024-07-10T09:07:27Z</time>
      </trkpt>
      <trkpt lat="42.66388" lon="1.74186">
        <ele>2279.4</ele>
        <time>2024-07-10T09:07:48Z</time>
      </trkpt>
      <trkpt lat="42.66383" lon="1.74186">
        <ele>2279.2</ele>
        <time>2024-07-10T09:07:52Z</time>
      </trkpt>
      <trkpt lat="42.66372" lon="1.74186">
        <ele>2278.6</ele>
        <time>2024-07-10T09:07:59Z</time>
      </trkpt>
      <trkpt lat="42.66362" lon="1.74187">
        <ele>2278.4</ele>
        <time>2024-07-10T09:08:08Z</time>
      </trkpt>
      <trkpt lat="42.66356" lon="1.7419">
        <ele>2279</ele>
        <time>2024-07-10T09:08:16Z</time>
      </trkpt>
      <trkpt lat="42.66352" lon="1.74192">
        <ele>2279.8</ele>
        <time>2024-07-10T09:08:23Z</time>
      </trkpt>
      <trkpt lat="42.66346" lon="1.74192">
        <ele>2279.6</ele>
        <time>2024-07-10T09:08:31Z</time>
      </trkpt>
      <trkpt lat="42.66336" lon="1.74195">
        <ele>2278.8</ele>
        <time>2024-07-10T09:08:42Z</time>
      </trkpt>
      <trkpt lat="42.66327" lon="1.74197">
        <ele>2277.4</ele>
        <time>2024-07-10T09:08:49Z</time>
      </trkpt>
      <trkpt lat="42.66317" lon="1.74201">
        <ele>2277.4</ele>
        <time>2024-07-10T09:08:58Z</time>
      </trkpt>
      <trkpt lat="42.66309" lon="1.74205">
        <ele>2278.8</ele>
        <time>2024-07-10T09:09:07Z</time>
      </trkpt>
      <trkpt lat="42.66301" lon="1.74206">
        <ele>2281.2</ele>
        <time>2024-07-10T09:09:15Z</time>
      </trkpt>
      <trkpt lat="42.66294" lon="1.74204">
        <ele>2282</ele>
        <time>2024-07-10T09:09:21Z</time>
      </trkpt>
      <trkpt lat="42.66287" lon="1.74206">
        <ele>2281.6</ele>
        <time>2024-07-10T09:09:29Z</time>
      </trkpt>
      <trkpt lat="42.66278" lon="1.74208">
        <ele>2281.6</ele>
        <time>2024-07-10T09:09:36Z</time>
      </trkpt>
      <trkpt lat="42.6627" lon="1.7421">
        <ele>2281.6</ele>
        <time>2024-07-10T09:09:45Z</time>
      </trkpt>
      <trkpt lat="42.66263" lon="1.74211">
        <ele>2280.6</ele>
        <time>2024-07-10T09:09:54Z</time>
      </trkpt>
      <trkpt lat="42.66256" lon="1.74207">
        <ele>2279.4</ele>
        <time>2024-07-10T09:10:00Z</time>
      </trkpt>
      <trkpt lat="42.66245" lon="1.74206">
        <ele>2280.2</ele>
        <time>2024-07-10T09:10:09Z</time>
      </trkpt>
      <trkpt lat="42.66238" lon="1.74207">
        <ele>2280.6</ele>
        <time>2024-07-10T09:10:17Z</time>
      </trkpt>
      <trkpt lat="42.66227" lon="1.7421">
        <ele>2281.6</ele>
        <time>2024-07-10T09:10:28Z</time>
      </trkpt>
      <trkpt lat="42.66221" lon="1.74212">
        <ele>2281</ele>
        <time>2024-07-10T09:10:33Z</time>
      </trkpt>
      <trkpt lat="42.66216" lon="1.7421">
        <ele>2280.2</ele>
        <time>2024-07-10T09:10:37Z</time>
      </trkpt>
      <trkpt lat="42.66206" lon="1.74208">
        <ele>2279.4</ele>
        <time>2024-07-10T09:10:46Z</time>
      </trkpt>
      <trkpt lat="42.66202" lon="1.74207">
        <ele>2279.4</ele>
        <time>2024-07-10T09:10:53Z</time>
      </trkpt>
      <trkpt lat="42.66199" lon="1.74208">
        <ele>2278.6</ele>
        <time>2024-07-10T09:11:05Z</time>
      </trkpt>
      <trkpt lat="42.6619" lon="1.7421">
        <ele>2278</ele>
        <time>2024-07-10T09:11:13Z</time>
      </trkpt>
      <trkpt lat="42.6618" lon="1.74216">
        <ele>2277.2</ele>
        <time>2024-07-10T09:11:22Z</time>
      </trkpt>
      <trkpt lat="42.6617" lon="1.74219">
        <ele>2278</ele>
        <time>2024-07-10T09:11:32Z</time>
      </trkpt>
      <trkpt lat="42.66167" lon="1.74221">
        <ele>2277.2</ele>
        <time>2024-07-10T09:11:38Z</time>
      </trkpt>
      <trkpt lat="42.66161" lon="1.74219">
        <ele>2275.8</ele>
        <time>2024-07-10T09:11:45Z</time>
      </trkpt>
      <trkpt lat="42.6615" lon="1.7422">
        <ele>2273.8</ele>
        <time>2024-07-10T09:11:54Z</time>
      </trkpt>
      <trkpt lat="42.66146" lon="1.74224">
        <ele>2273</ele>
        <time>2024-07-10T09:12:01Z</time>
      </trkpt>
      <trkpt lat="42.66145" lon="1.74227">
        <ele>2272.6</ele>
        <time>2024-07-10T09:12:09Z</time>
      </trkpt>
      <trkpt lat="42.66143" lon="1.7423">
        <ele>2273</ele>
        <time>2024-07-10T09:12:17Z</time>
      </trkpt>
      <trkpt lat="42.6614" lon="1.74232">
        <ele>2274</ele>
        <time>2024-07-10T09:12:23Z</time>
      </trkpt>
      <trkpt lat="42.66134" lon="1.74235">
        <ele>2276.6</ele>
        <time>2024-07-10T09:12:32Z</time>
      </trkpt>
      <trkpt lat="42.66125" lon="1.74237">
        <ele>2279.2</ele>
        <time>2024-07-10T09:12:43Z</time>
      </trkpt>
      <trkpt lat="42.66116" lon="1.74238">
        <ele>2281.4</ele>
        <time>2024-07-10T09:12:54Z</time>
      </trkpt>
      <trkpt lat="42.66112" lon="1.74239">
        <ele>2281.8</ele>
        <time>2024-07-10T09:13:03Z</time>
      </trkpt>
      <trkpt lat="42.66108" lon="1.74238">
        <ele>2280.2</ele>
        <time>2024-07-10T09:13:09Z</time>
      </trkpt>
      <trkpt lat="42.66102" lon="1.74238">
        <ele>2278.8</ele>
        <time>2024-07-10T09:13:18Z</time>
      </trkpt>
      <trkpt lat="42.66096" lon="1.74238">
        <ele>2279</ele>
        <time>2024-07-10T09:13:27Z</time>
      </trkpt>
      <trkpt lat="42.66091" lon="1.74237">
        <ele>2280.2</ele>
        <time>2024-07-10T09:13:34Z</time>
      </trkpt>
      <trkpt lat="42.66088" lon="1.74238">
        <ele>2282.4</ele>
        <time>2024-07-10T09:13:40Z</time>
      </trkpt>
      <trkpt lat="42.66087" lon="1.74238">
        <ele>2284.6</ele>
        <time>2024-07-10T09:13:49Z</time>
      </trkpt>
      <trkpt lat="42.66078" lon="1.74251">
        <ele>2291.4</ele>
        <time>2024-07-10T09:18:23Z</time>
      </trkpt>
      <trkpt lat="42.6607" lon="1.74257">
        <ele>2294</ele>
        <time>2024-07-10T09:18:30Z</time>
      </trkpt>
      <trkpt lat="42.66069" lon="1.74257">
        <ele>2295.6</ele>
        <time>2024-07-10T09:18:38Z</time>
      </trkpt>
      <trkpt lat="42.66065" lon="1.7426">
        <ele>2297.2</ele>
        <time>2024-07-10T09:18:47Z</time>
      </trkpt>
      <trkpt lat="42.66064" lon="1.74263">
        <ele>2299.8</ele>
        <time>2024-07-10T09:18:54Z</time>
      </trkpt>
      <trkpt lat="42.66059" lon="1.74267">
        <ele>2301.4</ele>
        <time>2024-07-10T09:19:03Z</time>
      </trkpt>
      <trkpt lat="42.66053" lon="1.74269">
        <ele>2301.6</ele>
        <time>2024-07-10T09:19:11Z</time>
      </trkpt>
      <trkpt lat="42.66047" lon="1.74272">
        <ele>2304.6</ele>
        <time>2024-07-10T09:19:20Z</time>
      </trkpt>
      <trkpt lat="42.66045" lon="1.74273">
        <ele>2307.6</ele>
        <time>2024-07-10T09:19:26Z</time>
      </trkpt>
      <trkpt lat="42.66042" lon="1.74276">
        <ele>2309.8</ele>
        <time>2024-07-10T09:19:33Z</time>
      </trkpt>
      <trkpt lat="42.66039" lon="1.74277">
        <ele>2311.8</ele>
        <time>2024-07-10T09:19:44Z</time>
      </trkpt>
      <trkpt lat="42.66038" lon="1.74277">
        <ele>2313</ele>
        <time>2024-07-10T09:19:54Z</time>
      </trkpt>
      <trkpt lat="42.66028" lon="1.7428">
        <ele>2313.6</ele>
        <time>2024-07-10T09:20:19Z</time>
      </trkpt>
      <trkpt lat="42.66016" lon="1.74284">
        <ele>2316.8</ele>
        <time>2024-07-10T09:20:29Z</time>
      </trkpt>
      <trkpt lat="42.66012" lon="1.74283">
        <ele>2318.6</ele>
        <time>2024-07-10T09:20:37Z</time>
      </trkpt>
      <trkpt lat="42.6601" lon="1.74282">
        <ele>2319.6</ele>
        <time>2024-07-10T09:20:43Z</time>
      </trkpt>
      <trkpt lat="42.66008" lon="1.74282">
        <ele>2320.8</ele>
        <time>2024-07-10T09:20:50Z</time>
      </trkpt>
      <trkpt lat="42.66004" lon="1.74285">
        <ele>2322.8</ele>
        <time>2024-07-10T09:21:00Z</time>
      </trkpt>
      <trkpt lat="42.65999" lon="1.74284">
        <ele>2324</ele>
        <time>2024-07-10T09:21:09Z</time>
      </trkpt>
      <trkpt lat="42.65997" lon="1.74284">
        <ele>2325.6</ele>
        <time>2024-07-10T09:21:15Z</time>
      </trkpt>
      <trkpt lat="42.65993" lon="1.74286">
        <ele>2328.2</ele>
        <time>2024-07-10T09:21:24Z</time>
      </trkpt>
      <trkpt lat="42.65989" lon="1.74287">
        <ele>2330</ele>
        <time>2024-07-10T09:21:32Z</time>
      </trkpt>
      <trkpt lat="42.65982" lon="1.74292">
        <ele>2331</ele>
        <time>2024-07-10T09:21:41Z</time>
      </trkpt>
      <trkpt lat="42.65969" lon="1.74299">
        <ele>2329.8</ele>
        <time>2024-07-10T09:21:54Z</time>
      </trkpt>
      <trkpt lat="42.65965" lon="1.74301">
        <ele>2330.4</ele>
        <time>2024-07-10T09:22:00Z</time>
      </trkpt>
      <trkpt lat="42.65961" lon="1.74304">
        <ele>2331.4</ele>
        <time>2024-07-10T09:22:08Z</time>
      </trkpt>
      <trkpt lat="42.65958" lon="1.74305">
        <ele>2333.4</ele>
        <time>2024-07-10T09:22:14Z</time>
      </trkpt>
      <trkpt lat="42.65956" lon="1.74307">
        <ele>2334.2</ele>
        <time>2024-07-10T09:22:17Z</time>
      </trkpt>
      <trkpt lat="42.65952" lon="1.74309">
        <ele>2334.6</ele>
        <time>2024-07-10T09:22:21Z</time>
      </trkpt>
      <trkpt lat="42.65944" lon="1.74314">
        <ele>2335.8</ele>
        <time>2024-07-10T09:22:30Z</time>
      </trkpt>
      <trkpt lat="42.65937" lon="1.74319">
        <ele>2337</ele>
        <time>2024-07-10T09:22:37Z</time>
      </trkpt>
      <trkpt lat="42.65936" lon="1.7432">
        <ele>2337</ele>
        <time>2024-07-10T09:22:38Z</time>
      </trkpt>
      <trkpt lat="42.6593" lon="1.74327">
        <ele>2337.4</ele>
        <time>2024-07-10T09:22:46Z</time>
      </trkpt>
      <trkpt lat="42.65929" lon="1.74328">
        <ele>2337.4</ele>
        <time>2024-07-10T09:22:48Z</time>
      </trkpt>
      <trkpt lat="42.65926" lon="1.74328">
        <ele>2337.8</ele>
        <time>2024-07-10T09:22:53Z</time>
      </trkpt>
      <trkpt lat="42.65926" lon="1.74327">
        <ele>2338</ele>
        <time>2024-07-10T09:23:02Z</time>
      </trkpt>
      <trkpt lat="42.65924" lon="1.74327">
        <ele>2338.2</ele>
        <time>2024-07-10T09:23:32Z</time>
      </trkpt>
      <trkpt lat="42.65916" lon="1.74329">
        <ele>2338</ele>
        <time>2024-07-10T09:23:39Z</time>
      </trkpt>
      <trkpt lat="42.65911" lon="1.74331">
        <ele>2337.4</ele>
        <time>2024-07-10T09:23:47Z</time>
      </trkpt>
      <trkpt lat="42.65904" lon="1.74333">
        <ele>2338.4</ele>
        <time>2024-07-10T09:23:55Z</time>
      </trkpt>
      <trkpt lat="42.65904" lon="1.74332">
        <ele>2339.6</ele>
        <time>2024-07-10T09:24:01Z</time>
      </trkpt>
      <trkpt lat="42.65904" lon="1.74333">
        <ele>2341</ele>
        <time>2024-07-10T09:24:16Z</time>
      </trkpt>
      <trkpt lat="42.659" lon="1.74337">
        <ele>2341.2</ele>
        <time>2024-07-10T09:24:49Z</time>
      </trkpt>
      <trkpt lat="42.65897" lon="1.7434">
        <ele>2336.4</ele>
        <time>2024-07-10T09:24:57Z</time>
      </trkpt>
      <trkpt lat="42.65897" lon="1.74342">
        <ele>2334.4</ele>
        <time>2024-07-10T09:25:03Z</time>
      </trkpt>
      <trkpt lat="42.6589" lon="1.74346">
        <ele>2330.8</ele>
        <time>2024-07-10T09:25:13Z</time>
      </trkpt>
      <trkpt lat="42.65883" lon="1.74355">
        <ele>2328.6</ele>
        <time>2024-07-10T09:25:23Z</time>
      </trkpt>
      <trkpt lat="42.65877" lon="1.74359">
        <ele>2327.4</ele>
        <time>2024-07-10T09:25:30Z</time>
      </trkpt>
      <trkpt lat="42.65868" lon="1.74363">
        <ele>2326</ele>
        <time>2024-07-10T09:25:38Z</time>
      </trkpt>
      <trkpt lat="42.65864" lon="1.74365">
        <ele>2325.6</ele>
        <time>2024-07-10T09:25:45Z</time>
      </trkpt>
      <trkpt lat="42.65858" lon="1.7437">
        <ele>2322.8</ele>
        <time>2024-07-10T09:25:53Z</time>
      </trkpt>
      <trkpt lat="42.65851" lon="1.74378">
        <ele>2319</ele>
        <time>2024-07-10T09:26:02Z</time>
      </trkpt>
      <trkpt lat="42.6585" lon="1.7438">
        <ele>2318.2</ele>
        <time>2024-07-10T09:26:04Z</time>
      </trkpt>
      <trkpt lat="42.65847" lon="1.74384">
        <ele>2316.8</ele>
        <time>2024-07-10T09:26:09Z</time>
      </trkpt>
      <trkpt lat="42.65843" lon="1.74392">
        <ele>2313.8</ele>
        <time>2024-07-10T09:26:17Z</time>
      </trkpt>
      <trkpt lat="42.65838" lon="1.744">
        <ele>2310.2</ele>
        <time>2024-07-10T09:26:26Z</time>
      </trkpt>
      <trkpt lat="42.65835" lon="1.74409">
        <ele>2307.8</ele>
        <time>2024-07-10T09:26:32Z</time>
      </trkpt>
      <trkpt lat="42.65829" lon="1.7442">
        <ele>2306.4</ele>
        <time>2024-07-10T09:26:40Z</time>
      </trkpt>
      <trkpt lat="42.65823" lon="1.74434">
        <ele>2306</ele>
        <time>2024-07-10T09:26:50Z</time>
      </trkpt>
      <trkpt lat="42.65816" lon="1.74444">
        <ele>2306.2</ele>
        <time>2024-07-10T09:26:58Z</time>
      </trkpt>
      <trkpt lat="42.65813" lon="1.74447">
        <ele>2307</ele>
        <time>2024-07-10T09:27:02Z</time>
      </trkpt>
      <trkpt lat="42.65811" lon="1.7445">
        <ele>2307.4</ele>
        <time>2024-07-10T09:27:05Z</time>
      </trkpt>
      <trkpt lat="42.6581" lon="1.7445">
        <ele>2307.6</ele>
        <time>2024-07-10T09:27:12Z</time>
      </trkpt>
      <trkpt lat="42.65809" lon="1.74452">
        <ele>2308.2</ele>
        <time>2024-07-10T09:27:22Z</time>
      </trkpt>
      <trkpt lat="42.65804" lon="1.74458">
        <ele>2308.2</ele>
        <time>2024-07-10T09:27:29Z</time>
      </trkpt>
      <trkpt lat="42.65799" lon="1.74461">
        <ele>2308.2</ele>
        <time>2024-07-10T09:27:38Z</time>
      </trkpt>
      <trkpt lat="42.65795" lon="1.74462">
        <ele>2310</ele>
        <time>2024-07-10T09:27:46Z</time>
      </trkpt>
      <trkpt lat="42.65794" lon="1.74466">
        <ele>2311.2</ele>
        <time>2024-07-10T09:27:52Z</time>
      </trkpt>
      <trkpt lat="42.65791" lon="1.7447">
        <ele>2313.8</ele>
        <time>2024-07-10T09:28:03Z</time>
      </trkpt>
      <trkpt lat="42.65787" lon="1.74471">
        <ele>2314.6</ele>
        <time>2024-07-10T09:28:10Z</time>
      </trkpt>
      <trkpt lat="42.65784" lon="1.74467">
        <ele>2317</ele>
        <time>2024-07-10T09:28:18Z</time>
      </trkpt>
      <trkpt lat="42.65779" lon="1.74466">
        <ele>2318.2</ele>
        <time>2024-07-10T09:28:27Z</time>
      </trkpt>
      <trkpt lat="42.65774" lon="1.74466">
        <ele>2319.6</ele>
        <time>2024-07-10T09:28:35Z</time>
      </trkpt>
      <trkpt lat="42.65769" lon="1.74464">
        <ele>2322.2</ele>
        <time>2024-07-10T09:28:44Z</time>
      </trkpt>
      <trkpt lat="42.65762" lon="1.74462">
        <ele>2324</ele>
        <time>2024-07-10T09:28:55Z</time>
      </trkpt>
      <trkpt lat="42.65756" lon="1.74462">
        <ele>2325.4</ele>
        <time>2024-07-10T09:29:03Z</time>
      </trkpt>
      <trkpt lat="42.65751" lon="1.74463">
        <ele>2326.2</ele>
        <time>2024-07-10T09:29:10Z</time>
      </trkpt>
      <trkpt lat="42.65746" lon="1.74464">
        <ele>2327.6</ele>
        <time>2024-07-10T09:29:18Z</time>
      </trkpt>
      <trkpt lat="42.65739" lon="1.74465">
        <ele>2329</ele>
        <time>2024-07-10T09:29:27Z</time>
      </trkpt>
      <trkpt lat="42.65735" lon="1.74466">
        <ele>2330.2</ele>
        <time>2024-07-10T09:29:33Z</time>
      </trkpt>
      <trkpt lat="42.65731" lon="1.74465">
        <ele>2329.8</ele>
        <time>2024-07-10T09:29:41Z</time>
      </trkpt>
      <trkpt lat="42.65726" lon="1.74463">
        <ele>2331.6</ele>
        <time>2024-07-10T09:29:49Z</time>
      </trkpt>
      <trkpt lat="42.6572" lon="1.74462">
        <ele>2331.6</ele>
        <time>2024-07-10T09:29:57Z</time>
      </trkpt>
      <trkpt lat="42.65712" lon="1.74459">
        <ele>2332.2</ele>
        <time>2024-07-10T09:30:06Z</time>
      </trkpt>
      <trkpt lat="42.65706" lon="1.74458">
        <ele>2332.8</ele>
        <time>2024-07-10T09:30:13Z</time>
      </trkpt>
      <trkpt lat="42.65698" lon="1.74454">
        <ele>2333.2</ele>
        <time>2024-07-10T09:30:21Z</time>
      </trkpt>
      <trkpt lat="42.65696" lon="1.74454">
        <ele>2333.6</ele>
        <time>2024-07-10T09:30:23Z</time>
      </trkpt>
      <trkpt lat="42.65692" lon="1.74454">
        <ele>2333.6</ele>
        <time>2024-07-10T09:30:31Z</time>
      </trkpt>
      <trkpt lat="42.65689" lon="1.74455">
        <ele>2333.4</ele>
        <time>2024-07-10T09:30:41Z</time>
      </trkpt>
      <trkpt lat="42.65687" lon="1.74456">
        <ele>2332.6</ele>
        <time>2024-07-10T09:30:47Z</time>
      </trkpt>
      <trkpt lat="42.65684" lon="1.74456">
        <ele>2331.8</ele>
        <time>2024-07-10T09:30:53Z</time>
      </trkpt>
      <trkpt lat="42.65682" lon="1.74456">
        <ele>2331.4</ele>
        <time>2024-07-10T09:30:55Z</time>
      </trkpt>
      <trkpt lat="42.65676" lon="1.74456">
        <ele>2331</ele>
        <time>2024-07-10T09:30:59Z</time>
      </trkpt>
      <trkpt lat="42.6567" lon="1.74455">
        <ele>2331.2</ele>
        <time>2024-07-10T09:31:04Z</time>
      </trkpt>
      <trkpt lat="42.65669" lon="1.74454">
        <ele>2331.4</ele>
        <time>2024-07-10T09:31:05Z</time>
      </trkpt>
      <trkpt lat="42.65666" lon="1.74456">
        <ele>2332</ele>
        <time>2024-07-10T09:31:09Z</time>
      </trkpt>
      <trkpt lat="42.65665" lon="1.74458">
        <ele>2332.6</ele>
        <time>2024-07-10T09:31:11Z</time>
      </trkpt>
      <trkpt lat="42.65666" lon="1.74459">
        <ele>2332.8</ele>
        <time>2024-07-10T09:31:14Z</time>
      </trkpt>
      <trkpt lat="42.65666" lon="1.74458">
        <ele>2332.4</ele>
        <time>2024-07-10T09:31:18Z</time>
      </trkpt>
      <trkpt lat="42.65666" lon="1.74457">
        <ele>2331.4</ele>
        <time>2024-07-10T09:31:24Z</time>
      </trkpt>
      <trkpt lat="42.65669" lon="1.74456">
        <ele>2331.8</ele>
        <time>2024-07-10T09:31:29Z</time>
      </trkpt>
      <trkpt lat="42.65671" lon="1.74457">
        <ele>2333.2</ele>
        <time>2024-07-10T09:31:36Z</time>
      </trkpt>
      <trkpt lat="42.65671" lon="1.74457">
        <ele>2333.8</ele>
        <time>2024-07-10T09:31:47Z</time>
      </trkpt>
      <trkpt lat="42.65671" lon="1.74457">
        <ele>2334.8</ele>
        <time>2024-07-10T09:31:56Z</time>
      </trkpt>
      <trkpt lat="42.65672" lon="1.74455">
        <ele>2335</ele>
        <time>2024-07-10T09:32:02Z</time>
      </trkpt>
      <trkpt lat="42.65671" lon="1.74453">
        <ele>2335.6</ele>
        <time>2024-07-10T09:32:07Z</time>
      </trkpt>
      <trkpt lat="42.65669" lon="1.74456">
        <ele>2336</ele>
        <time>2024-07-10T09:32:11Z</time>
      </trkpt>
      <trkpt lat="42.65668" lon="1.74454">
        <ele>2336.6</ele>
        <time>2024-07-10T09:32:18Z</time>
      </trkpt>
      <trkpt lat="42.65666" lon="1.74451">
        <ele>2337.6</ele>
        <time>2024-07-10T09:32:23Z</time>
      </trkpt>
      <trkpt lat="42.65665" lon="1.74453">
        <ele>2339.8</ele>
        <time>2024-07-10T09:32:29Z</time>
      </trkpt>
      <trkpt lat="42.65667" lon="1.74454">
        <ele>2340.8</ele>
        <time>2024-07-10T09:32:36Z</time>
      </trkpt>
      <trkpt lat="42.65667" lon="1.74455">
        <ele>2340.6</ele>
        <time>2024-07-10T09:32:45Z</time>
      </trkpt>
      <trkpt lat="42.65666" lon="1.74457">
        <ele>2340.6</ele>
        <time>2024-07-10T09:32:50Z</time>
      </trkpt>
      <trkpt lat="42.65663" lon="1.7446">
        <ele>2339.2</ele>
        <time>2024-07-10T09:32:56Z</time>
      </trkpt>
      <trkpt lat="42.6566" lon="1.74462">
        <ele>2338.4</ele>
        <time>2024-07-10T09:33:02Z</time>
      </trkpt>
      <trkpt lat="42.65659" lon="1.74463">
        <ele>2337</ele>
        <time>2024-07-10T09:33:10Z</time>
      </trkpt>
      <trkpt lat="42.65656" lon="1.74466">
        <ele>2337.8</ele>
        <time>2024-07-10T09:33:17Z</time>
      </trkpt>
      <trkpt lat="42.65655" lon="1.74469">
        <ele>2338.6</ele>
        <time>2024-07-10T09:33:24Z</time>
      </trkpt>
      <trkpt lat="42.65654" lon="1.74469">
        <ele>2339</ele>
        <time>2024-07-10T09:33:29Z</time>
      </trkpt>
      <trkpt lat="42.65652" lon="1.74471">
        <ele>2340.2</ele>
        <time>2024-07-10T09:33:36Z</time>
      </trkpt>
      <trkpt lat="42.65651" lon="1.74471">
        <ele>2341.6</ele>
        <time>2024-07-10T09:33:43Z</time>
      </trkpt>
      <trkpt lat="42.65649" lon="1.7447">
        <ele>2339.4</ele>
        <time>2024-07-10T09:35:09Z</time>
      </trkpt>
      <trkpt lat="42.65643" lon="1.7447">
        <ele>2340.8</ele>
        <time>2024-07-10T09:35:16Z</time>
      </trkpt>
      <trkpt lat="42.65642" lon="1.74469">
        <ele>2341.8</ele>
        <time>2024-07-10T09:35:22Z</time>
      </trkpt>
      <trkpt lat="42.65641" lon="1.74468">
        <ele>2341</ele>
        <time>2024-07-10T09:35:29Z</time>
      </trkpt>
      <trkpt lat="42.65636" lon="1.74469">
        <ele>2341.2</ele>
        <time>2024-07-10T09:35:35Z</time>
      </trkpt>
      <trkpt lat="42.6563" lon="1.74468">
        <ele>2341.6</ele>
        <time>2024-07-10T09:35:42Z</time>
      </trkpt>
      <trkpt lat="42.6563" lon="1.74468">
        <ele>2343.4</ele>
        <time>2024-07-10T09:35:48Z</time>
      </trkpt>
      <trkpt lat="42.65626" lon="1.74466">
        <ele>2345.4</ele>
        <time>2024-07-10T09:35:55Z</time>
      </trkpt>
      <trkpt lat="42.65627" lon="1.74469">
        <ele>2345.4</ele>
        <time>2024-07-10T09:35:59Z</time>
      </trkpt>
      <trkpt lat="42.65622" lon="1.74467">
        <ele>2344.6</ele>
        <time>2024-07-10T09:36:37Z</time>
      </trkpt>
      <trkpt lat="42.65622" lon="1.74466">
        <ele>2346.8</ele>
        <time>2024-07-10T09:36:48Z</time>
      </trkpt>
      <trkpt lat="42.65625" lon="1.74469">
        <ele>2342.6</ele>
        <time>2024-07-10T09:38:59Z</time>
      </trkpt>
      <trkpt lat="42.65624" lon="1.74469">
        <ele>2340.6</ele>
        <time>2024-07-10T09:39:06Z</time>
      </trkpt>
      <trkpt lat="42.65625" lon="1.74471">
        <ele>2344.2</ele>
        <time>2024-07-10T09:39:56Z</time>
      </trkpt>
      <trkpt lat="42.65623" lon="1.74469">
        <ele>2345.2</ele>
        <time>2024-07-10T09:40:01Z</time>
      </trkpt>
      <trkpt lat="42.65623" lon="1.7447">
        <ele>2345.4</ele>
        <time>2024-07-10T09:40:06Z</time>
      </trkpt>
      <trkpt lat="42.65623" lon="1.74471">
        <ele>2345</ele>
        <time>2024-07-10T09:40:13Z</time>
      </trkpt>
      <trkpt lat="42.65619" lon="1.74472">
        <ele>2344.8</ele>
        <time>2024-07-10T09:40:55Z</time>
      </trkpt>
      <trkpt lat="42.65615" lon="1.74471">
        <ele>2343.8</ele>
        <time>2024-07-10T09:41:01Z</time>
      </trkpt>
      <trkpt lat="42.65611" lon="1.74473">
        <ele>2343</ele>
        <time>2024-07-10T09:41:09Z</time>
      </trkpt>
      <trkpt lat="42.65606" lon="1.74477">
        <ele>2342.2</ele>
        <time>2024-07-10T09:41:15Z</time>
      </trkpt>
      <trkpt lat="42.65598" lon="1.7448">
        <ele>2341.8</ele>
        <time>2024-07-10T09:41:24Z</time>
      </trkpt>
      <trkpt lat="42.65593" lon="1.74486">
        <ele>2342.2</ele>
        <time>2024-07-10T09:41:32Z</time>
      </trkpt>
      <trkpt lat="42.6559" lon="1.74492">
        <ele>2342.6</ele>
        <time>2024-07-10T09:41:38Z</time>
      </trkpt>
      <trkpt lat="42.65588" lon="1.74494">
        <ele>2342.8</ele>
        <time>2024-07-10T09:41:40Z</time>
      </trkpt>
      <trkpt lat="42.65583" lon="1.74499">
        <ele>2342.2</ele>
        <time>2024-07-10T09:41:45Z</time>
      </trkpt>
      <trkpt lat="42.65577" lon="1.74507">
        <ele>2339.6</ele>
        <time>2024-07-10T09:41:53Z</time>
      </trkpt>
      <trkpt lat="42.65566" lon="1.74513">
        <ele>2338.4</ele>
        <time>2024-07-10T09:42:02Z</time>
      </trkpt>
      <trkpt lat="42.65566" lon="1.74514">
        <ele>2338.4</ele>
        <time>2024-07-10T09:42:03Z</time>
      </trkpt>
      <trkpt lat="42.65561" lon="1.74518">
        <ele>2338.2</ele>
        <time>2024-07-10T09:42:08Z</time>
      </trkpt>
      <trkpt lat="42.6556" lon="1.74519">
        <ele>2338.2</ele>
        <time>2024-07-10T09:42:09Z</time>
      </trkpt>
      <trkpt lat="42.65557" lon="1.74523">
        <ele>2338.2</ele>
        <time>2024-07-10T09:42:14Z</time>
      </trkpt>
      <trkpt lat="42.65556" lon="1.74525">
        <ele>2338.2</ele>
        <time>2024-07-10T09:42:15Z</time>
      </trkpt>
      <trkpt lat="42.65552" lon="1.74527">
        <ele>2340.6</ele>
        <time>2024-07-10T09:42:22Z</time>
      </trkpt>
      <trkpt lat="42.65551" lon="1.74527">
        <ele>2340.8</ele>
        <time>2024-07-10T09:42:23Z</time>
      </trkpt>
      <trkpt lat="42.65545" lon="1.74528">
        <ele>2341.6</ele>
        <time>2024-07-10T09:42:29Z</time>
      </trkpt>
      <trkpt lat="42.65539" lon="1.7453">
        <ele>2341.6</ele>
        <time>2024-07-10T09:42:38Z</time>
      </trkpt>
      <trkpt lat="42.65534" lon="1.74532">
        <ele>2342.6</ele>
        <time>2024-07-10T09:42:45Z</time>
      </trkpt>
      <trkpt lat="42.65526" lon="1.7453">
        <ele>2340.4</ele>
        <time>2024-07-10T09:42:55Z</time>
      </trkpt>
      <trkpt lat="42.65524" lon="1.7453">
        <ele>2339.4</ele>
        <time>2024-07-10T09:42:57Z</time>
      </trkpt>
      <trkpt lat="42.65518" lon="1.74529">
        <ele>2338.2</ele>
        <time>2024-07-10T09:43:03Z</time>
      </trkpt>
      <trkpt lat="42.65517" lon="1.7453">
        <ele>2338</ele>
        <time>2024-07-10T09:43:04Z</time>
      </trkpt>
      <trkpt lat="42.65512" lon="1.74532">
        <ele>2337.6</ele>
        <time>2024-07-10T09:43:11Z</time>
      </trkpt>
      <trkpt lat="42.65507" lon="1.74538">
        <ele>2341.2</ele>
        <time>2024-07-10T09:43:20Z</time>
      </trkpt>
      <trkpt lat="42.65501" lon="1.74541">
        <ele>2342.4</ele>
        <time>2024-07-10T09:43:28Z</time>
      </trkpt>
      <trkpt lat="42.65495" lon="1.74544">
        <ele>2344.6</ele>
        <time>2024-07-10T09:43:37Z</time>
      </trkpt>
      <trkpt lat="42.6549" lon="1.74549">
        <ele>2346.2</ele>
        <time>2024-07-10T09:43:44Z</time>
      </trkpt>
      <trkpt lat="42.65488" lon="1.74549">
        <ele>2346.6</ele>
        <time>2024-07-10T09:43:47Z</time>
      </trkpt>
      <trkpt lat="42.65485" lon="1.7455">
        <ele>2347</ele>
        <time>2024-07-10T09:43:51Z</time>
      </trkpt>
      <trkpt lat="42.65483" lon="1.74552">
        <ele>2347.2</ele>
        <time>2024-07-10T09:43:58Z</time>
      </trkpt>
      <trkpt lat="42.65481" lon="1.74556">
        <ele>2348</ele>
        <time>2024-07-10T09:44:06Z</time>
      </trkpt>
      <trkpt lat="42.65476" lon="1.74559">
        <ele>2349.6</ele>
        <time>2024-07-10T09:44:14Z</time>
      </trkpt>
      <trkpt lat="42.65472" lon="1.74562">
        <ele>2351.2</ele>
        <time>2024-07-10T09:44:22Z</time>
      </trkpt>
      <trkpt lat="42.65469" lon="1.74564">
        <ele>2352.2</ele>
        <time>2024-07-10T09:44:29Z</time>
      </trkpt>
      <trkpt lat="42.65464" lon="1.74565">
        <ele>2353.2</ele>
        <time>2024-07-10T09:44:36Z</time>
      </trkpt>
      <trkpt lat="42.65458" lon="1.74567">
        <ele>2353.6</ele>
        <time>2024-07-10T09:44:44Z</time>
      </trkpt>
      <trkpt lat="42.6545" lon="1.74569">
        <ele>2352.8</ele>
        <time>2024-07-10T09:44:52Z</time>
      </trkpt>
      <trkpt lat="42.65442" lon="1.74568">
        <ele>2349.8</ele>
        <time>2024-07-10T09:45:00Z</time>
      </trkpt>
      <trkpt lat="42.65434" lon="1.7457">
        <ele>2349.2</ele>
        <time>2024-07-10T09:45:09Z</time>
      </trkpt>
      <trkpt lat="42.65431" lon="1.74569">
        <ele>2349.2</ele>
        <time>2024-07-10T09:45:17Z</time>
      </trkpt>
      <trkpt lat="42.6543" lon="1.74566">
        <ele>2349</ele>
        <time>2024-07-10T09:45:25Z</time>
      </trkpt>
      <trkpt lat="42.65424" lon="1.7456">
        <ele>2347</ele>
        <time>2024-07-10T09:45:34Z</time>
      </trkpt>
      <trkpt lat="42.6542" lon="1.74552">
        <ele>2344.4</ele>
        <time>2024-07-10T09:45:43Z</time>
      </trkpt>
      <trkpt lat="42.65416" lon="1.74546">
        <ele>2343.8</ele>
        <time>2024-07-10T09:45:50Z</time>
      </trkpt>
      <trkpt lat="42.65412" lon="1.74541">
        <ele>2343</ele>
        <time>2024-07-10T09:45:58Z</time>
      </trkpt>
      <trkpt lat="42.65405" lon="1.74536">
        <ele>2341</ele>
        <time>2024-07-10T09:46:07Z</time>
      </trkpt>
      <trkpt lat="42.65398" lon="1.7453">
        <ele>2339.4</ele>
        <time>2024-07-10T09:46:13Z</time>
      </trkpt>
      <trkpt lat="42.65392" lon="1.7453">
        <ele>2338.6</ele>
        <time>2024-07-10T09:46:19Z</time>
      </trkpt>
      <trkpt lat="42.65391" lon="1.74528">
        <ele>2338.6</ele>
        <time>2024-07-10T09:46:20Z</time>
      </trkpt>
      <trkpt lat="42.65387" lon="1.74521">
        <ele>2338</ele>
        <time>2024-07-10T09:46:26Z</time>
      </trkpt>
      <trkpt lat="42.65381" lon="1.74513">
        <ele>2337</ele>
        <time>2024-07-10T09:46:33Z</time>
      </trkpt>
      <trkpt lat="42.65376" lon="1.74505">
        <ele>2336.2</ele>
        <time>2024-07-10T09:46:41Z</time>
      </trkpt>
      <trkpt lat="42.65368" lon="1.74496">
        <ele>2336.4</ele>
        <time>2024-07-10T09:46:50Z</time>
      </trkpt>
      <trkpt lat="42.65362" lon="1.74491">
        <ele>2337</ele>
        <time>2024-07-10T09:46:57Z</time>
      </trkpt>
      <trkpt lat="42.65357" lon="1.74488">
        <ele>2337.2</ele>
        <time>2024-07-10T09:47:05Z</time>
      </trkpt>
      <trkpt lat="42.65354" lon="1.74486">
        <ele>2338.2</ele>
        <time>2024-07-10T09:47:11Z</time>
      </trkpt>
      <trkpt lat="42.6535" lon="1.74484">
        <ele>2340.2</ele>
        <time>2024-07-10T09:47:19Z</time>
      </trkpt>
      <trkpt lat="42.65348" lon="1.74478">
        <ele>2342.4</ele>
        <time>2024-07-10T09:47:29Z</time>
      </trkpt>
      <trkpt lat="42.65345" lon="1.74473">
        <ele>2343.2</ele>
        <time>2024-07-10T09:47:37Z</time>
      </trkpt>
      <trkpt lat="42.65343" lon="1.74471">
        <ele>2344.2</ele>
        <time>2024-07-10T09:47:44Z</time>
      </trkpt>
      <trkpt lat="42.65338" lon="1.74466">
        <ele>2345.2</ele>
        <time>2024-07-10T09:47:52Z</time>
      </trkpt>
      <trkpt lat="42.65336" lon="1.74464">
        <ele>2345.8</ele>
        <time>2024-07-10T09:47:59Z</time>
      </trkpt>
      <trkpt lat="42.65335" lon="1.74463">
        <ele>2347</ele>
        <time>2024-07-10T09:48:04Z</time>
      </trkpt>
      <trkpt lat="42.65333" lon="1.74459">
        <ele>2349.2</ele>
        <time>2024-07-10T09:48:13Z</time>
      </trkpt>
      <trkpt lat="42.6533" lon="1.74458">
        <ele>2350.2</ele>
        <time>2024-07-10T09:48:21Z</time>
      </trkpt>
      <trkpt lat="42.65326" lon="1.74456">
        <ele>2352.4</ele>
        <time>2024-07-10T09:48:30Z</time>
      </trkpt>
      <trkpt lat="42.65324" lon="1.74453">
        <ele>2354.2</ele>
        <time>2024-07-10T09:48:39Z</time>
      </trkpt>
      <trkpt lat="42.6532" lon="1.74451">
        <ele>2355.2</ele>
        <time>2024-07-10T09:48:48Z</time>
      </trkpt>
      <trkpt lat="42.65319" lon="1.7445">
        <ele>2357.4</ele>
        <time>2024-07-10T09:48:56Z</time>
      </trkpt>
      <trkpt lat="42.65316" lon="1.74447">
        <ele>2358.4</ele>
        <time>2024-07-10T09:49:03Z</time>
      </trkpt>
      <trkpt lat="42.65314" lon="1.74446">
        <ele>2358.6</ele>
        <time>2024-07-10T09:49:08Z</time>
      </trkpt>
      <trkpt lat="42.65314" lon="1.74446">
        <ele>2360</ele>
        <time>2024-07-10T09:49:15Z</time>
      </trkpt>
      <trkpt lat="42.65313" lon="1.74446">
        <ele>2358.8</ele>
        <time>2024-07-10T09:49:23Z</time>
      </trkpt>
      <trkpt lat="42.653" lon="1.74432">
        <ele>2354.4</ele>
        <time>2024-07-10T09:51:40Z</time>
      </trkpt>
      <trkpt lat="42.65292" lon="1.74421">
        <ele>2358.4</ele>
        <time>2024-07-10T09:51:47Z</time>
      </trkpt>
      <trkpt lat="42.65286" lon="1.74418">
        <ele>2361.8</ele>
        <time>2024-07-10T09:51:55Z</time>
      </trkpt>
      <trkpt lat="42.65278" lon="1.74417">
        <ele>2363.4</ele>
        <time>2024-07-10T09:52:04Z</time>
      </trkpt>
      <trkpt lat="42.65274" lon="1.74413">
        <ele>2366.2</ele>
        <time>2024-07-10T09:52:11Z</time>
      </trkpt>
      <trkpt lat="42.65271" lon="1.74408">
        <ele>2367.8</ele>
        <time>2024-07-10T09:52:16Z</time>
      </trkpt>
      <trkpt lat="42.65269" lon="1.74406">
        <ele>2368.8</ele>
        <time>2024-07-10T09:52:19Z</time>
      </trkpt>
      <trkpt lat="42.65264" lon="1.74396">
        <ele>2369.8</ele>
        <time>2024-07-10T09:52:27Z</time>
      </trkpt>
      <trkpt lat="42.65264" lon="1.74394">
        <ele>2370</ele>
        <time>2024-07-10T09:52:28Z</time>
      </trkpt>
      <trkpt lat="42.65263" lon="1.74384">
        <ele>2369.2</ele>
        <time>2024-07-10T09:52:35Z</time>
      </trkpt>
      <trkpt lat="42.65262" lon="1.74382">
        <ele>2369</ele>
        <time>2024-07-10T09:52:37Z</time>
      </trkpt>
      <trkpt lat="42.65259" lon="1.74376">
        <ele>2369.6</ele>
        <time>2024-07-10T09:52:42Z</time>
      </trkpt>
      <trkpt lat="42.65258" lon="1.74369">
        <ele>2370</ele>
        <time>2024-07-10T09:52:46Z</time>
      </trkpt>
      <trkpt lat="42.65258" lon="1.74367">
        <ele>2370.2</ele>
        <time>2024-07-10T09:52:48Z</time>
      </trkpt>
      <trkpt lat="42.65257" lon="1.74364">
        <ele>2370.2</ele>
        <time>2024-07-10T09:52:50Z</time>
      </trkpt>
      <trkpt lat="42.65259" lon="1.74361">
        <ele>2370.2</ele>
        <time>2024-07-10T09:52:53Z</time>
      </trkpt>
      <trkpt lat="42.65259" lon="1.7436">
        <ele>2370.4</ele>
        <time>2024-07-10T09:52:54Z</time>
      </trkpt>
      <trkpt lat="42.65258" lon="1.74351">
        <ele>2371.6</ele>
        <time>2024-07-10T09:53:02Z</time>
      </trkpt>
      <trkpt lat="42.65255" lon="1.74348">
        <ele>2372.6</ele>
        <time>2024-07-10T09:53:06Z</time>
      </trkpt>
      <trkpt lat="42.65254" lon="1.74345">
        <ele>2373</ele>
        <time>2024-07-10T09:53:08Z</time>
      </trkpt>
      <trkpt lat="42.65254" lon="1.74344">
        <ele>2373.2</ele>
        <time>2024-07-10T09:53:09Z</time>
      </trkpt>
      <trkpt lat="42.6525" lon="1.74334">
        <ele>2374.4</ele>
        <time>2024-07-10T09:53:20Z</time>
      </trkpt>
      <trkpt lat="42.65249" lon="1.74334">
        <ele>2375</ele>
        <time>2024-07-10T09:53:27Z</time>
      </trkpt>
      <trkpt lat="42.65246" lon="1.7433">
        <ele>2374.8</ele>
        <time>2024-07-10T09:53:32Z</time>
      </trkpt>
      <trkpt lat="42.65241" lon="1.74324">
        <ele>2373.6</ele>
        <time>2024-07-10T09:53:40Z</time>
      </trkpt>
      <trkpt lat="42.65233" lon="1.74316">
        <ele>2372.8</ele>
        <time>2024-07-10T09:53:49Z</time>
      </trkpt>
      <trkpt lat="42.65224" lon="1.74309">
        <ele>2371.4</ele>
        <time>2024-07-10T09:53:59Z</time>
      </trkpt>
      <trkpt lat="42.65221" lon="1.74307">
        <ele>2370.2</ele>
        <time>2024-07-10T09:54:06Z</time>
      </trkpt>
      <trkpt lat="42.65216" lon="1.74303">
        <ele>2369.8</ele>
        <time>2024-07-10T09:54:15Z</time>
      </trkpt>
      <trkpt lat="42.65211" lon="1.74299">
        <ele>2368.6</ele>
        <time>2024-07-10T09:54:22Z</time>
      </trkpt>
      <trkpt lat="42.65208" lon="1.74296">
        <ele>2365.8</ele>
        <time>2024-07-10T09:54:27Z</time>
      </trkpt>
      <trkpt lat="42.65206" lon="1.74291">
        <ele>2363.2</ele>
        <time>2024-07-10T09:54:34Z</time>
      </trkpt>
      <trkpt lat="42.65202" lon="1.74286">
        <ele>2361.6</ele>
        <time>2024-07-10T09:54:43Z</time>
      </trkpt>
      <trkpt lat="42.65194" lon="1.7428">
        <ele>2359.4</ele>
        <time>2024-07-10T09:54:54Z</time>
      </trkpt>
      <trkpt lat="42.65187" lon="1.7428">
        <ele>2357.8</ele>
        <time>2024-07-10T09:55:01Z</time>
      </trkpt>
      <trkpt lat="42.65182" lon="1.74274">
        <ele>2356.8</ele>
        <time>2024-07-10T09:55:08Z</time>
      </trkpt>
      <trkpt lat="42.65175" lon="1.74267">
        <ele>2354.6</ele>
        <time>2024-07-10T09:55:15Z</time>
      </trkpt>
      <trkpt lat="42.65174" lon="1.74266">
        <ele>2353.8</ele>
        <time>2024-07-10T09:55:21Z</time>
      </trkpt>
      <trkpt lat="42.65171" lon="1.7426">
        <ele>2352.4</ele>
        <time>2024-07-10T09:55:28Z</time>
      </trkpt>
      <trkpt lat="42.65165" lon="1.74255">
        <ele>2350.8</ele>
        <time>2024-07-10T09:55:35Z</time>
      </trkpt>
      <trkpt lat="42.65158" lon="1.74244">
        <ele>2349.2</ele>
        <time>2024-07-10T09:55:44Z</time>
      </trkpt>
      <trkpt lat="42.65153" lon="1.74228">
        <ele>2346</ele>
        <time>2024-07-10T09:55:54Z</time>
      </trkpt>
      <trkpt lat="42.65148" lon="1.74217">
        <ele>2344.4</ele>
        <time>2024-07-10T09:56:01Z</time>
      </trkpt>
      <trkpt lat="42.65146" lon="1.74197">
        <ele>2343.8</ele>
        <time>2024-07-10T09:56:13Z</time>
      </trkpt>
      <trkpt lat="42.65143" lon="1.74181">
        <ele>2343.8</ele>
        <time>2024-07-10T09:56:25Z</time>
      </trkpt>
      <trkpt lat="42.65137" lon="1.74161">
        <ele>2343.8</ele>
        <time>2024-07-10T09:56:38Z</time>
      </trkpt>
      <trkpt lat="42.65131" lon="1.74147">
        <ele>2344.2</ele>
        <time>2024-07-10T09:56:48Z</time>
      </trkpt>
      <trkpt lat="42.65131" lon="1.74141">
        <ele>2343.6</ele>
        <time>2024-07-10T09:56:56Z</time>
      </trkpt>
      <trkpt lat="42.65128" lon="1.74136">
        <ele>2343.8</ele>
        <time>2024-07-10T09:57:02Z</time>
      </trkpt>
      <trkpt lat="42.65124" lon="1.74127">
        <ele>2344.4</ele>
        <time>2024-07-10T09:57:09Z</time>
      </trkpt>
      <trkpt lat="42.65116" lon="1.74113">
        <ele>2345</ele>
        <time>2024-07-10T09:57:20Z</time>
      </trkpt>
      <trkpt lat="42.65109" lon="1.741">
        <ele>2345.2</ele>
        <time>2024-07-10T09:57:30Z</time>
      </trkpt>
      <trkpt lat="42.65103" lon="1.74083">
        <ele>2344</ele>
        <time>2024-07-10T09:57:41Z</time>
      </trkpt>
      <trkpt lat="42.65097" lon="1.74067">
        <ele>2343</ele>
        <time>2024-07-10T09:57:52Z</time>
      </trkpt>
      <trkpt lat="42.65092" lon="1.74057">
        <ele>2343.2</ele>
        <time>2024-07-10T09:58:01Z</time>
      </trkpt>
      <trkpt lat="42.65088" lon="1.74047">
        <ele>2343.6</ele>
        <time>2024-07-10T09:58:09Z</time>
      </trkpt>
      <trkpt lat="42.65084" lon="1.74037">
        <ele>2344</ele>
        <time>2024-07-10T09:58:17Z</time>
      </trkpt>
      <trkpt lat="42.65079" lon="1.74025">
        <ele>2346.8</ele>
        <time>2024-07-10T09:58:28Z</time>
      </trkpt>
      <trkpt lat="42.65076" lon="1.7402">
        <ele>2348</ele>
        <time>2024-07-10T09:58:34Z</time>
      </trkpt>
      <trkpt lat="42.65074" lon="1.74016">
        <ele>2348.6</ele>
        <time>2024-07-10T09:58:41Z</time>
      </trkpt>
      <trkpt lat="42.65073" lon="1.74011">
        <ele>2350.2</ele>
        <time>2024-07-10T09:58:47Z</time>
      </trkpt>
      <trkpt lat="42.65069" lon="1.74002">
        <ele>2351.8</ele>
        <time>2024-07-10T09:58:56Z</time>
      </trkpt>
      <trkpt lat="42.65064" lon="1.73991">
        <ele>2352</ele>
        <time>2024-07-10T09:59:05Z</time>
      </trkpt>
      <trkpt lat="42.65057" lon="1.73982">
        <ele>2353</ele>
        <time>2024-07-10T09:59:14Z</time>
      </trkpt>
      <trkpt lat="42.6505" lon="1.73973">
        <ele>2354.2</ele>
        <time>2024-07-10T09:59:23Z</time>
      </trkpt>
      <trkpt lat="42.65044" lon="1.73966">
        <ele>2355</ele>
        <time>2024-07-10T09:59:32Z</time>
      </trkpt>
      <trkpt lat="42.65036" lon="1.73956">
        <ele>2352.2</ele>
        <time>2024-07-10T09:59:42Z</time>
      </trkpt>
      <trkpt lat="42.65027" lon="1.73951">
        <ele>2351.2</ele>
        <time>2024-07-10T09:59:50Z</time>
      </trkpt>
      <trkpt lat="42.65018" lon="1.73946">
        <ele>2350.6</ele>
        <time>2024-07-10T09:59:58Z</time>
      </trkpt>
      <trkpt lat="42.65013" lon="1.73943">
        <ele>2349.4</ele>
        <time>2024-07-10T10:00:04Z</time>
      </trkpt>
      <trkpt lat="42.65006" lon="1.7394">
        <ele>2347.2</ele>
        <time>2024-07-10T10:00:12Z</time>
      </trkpt>
      <trkpt lat="42.65005" lon="1.7394">
        <ele>2347</ele>
        <time>2024-07-10T10:00:13Z</time>
      </trkpt>
      <trkpt lat="42.65002" lon="1.7394">
        <ele>2346.8</ele>
        <time>2024-07-10T10:00:16Z</time>
      </trkpt>
      <trkpt lat="42.65001" lon="1.73938">
        <ele>2346.6</ele>
        <time>2024-07-10T10:00:18Z</time>
      </trkpt>
      <trkpt lat="42.64999" lon="1.73938">
        <ele>2346.4</ele>
        <time>2024-07-10T10:00:20Z</time>
      </trkpt>
      <trkpt lat="42.64998" lon="1.73938">
        <ele>2346.2</ele>
        <time>2024-07-10T10:00:21Z</time>
      </trkpt>
      <trkpt lat="42.64993" lon="1.73937">
        <ele>2344.8</ele>
        <time>2024-07-10T10:00:26Z</time>
      </trkpt>
      <trkpt lat="42.64985" lon="1.73934">
        <ele>2343</ele>
        <time>2024-07-10T10:00:34Z</time>
      </trkpt>
      <trkpt lat="42.64982" lon="1.73932">
        <ele>2342</ele>
        <time>2024-07-10T10:00:38Z</time>
      </trkpt>
      <trkpt lat="42.6498" lon="1.73931">
        <ele>2341.2</ele>
        <time>2024-07-10T10:00:41Z</time>
      </trkpt>
      <trkpt lat="42.64979" lon="1.73931">
        <ele>2341</ele>
        <time>2024-07-10T10:00:42Z</time>
      </trkpt>
      <trkpt lat="42.64969" lon="1.73928">
        <ele>2338.2</ele>
        <time>2024-07-10T10:00:50Z</time>
      </trkpt>
      <trkpt lat="42.64961" lon="1.7392">
        <ele>2336.4</ele>
        <time>2024-07-10T10:00:59Z</time>
      </trkpt>
      <trkpt lat="42.6495" lon="1.73915">
        <ele>2334.6</ele>
        <time>2024-07-10T10:01:08Z</time>
      </trkpt>
      <trkpt lat="42.64945" lon="1.73913">
        <ele>2333.8</ele>
        <time>2024-07-10T10:01:13Z</time>
      </trkpt>
      <trkpt lat="42.64944" lon="1.73911">
        <ele>2333.4</ele>
        <time>2024-07-10T10:01:15Z</time>
      </trkpt>
      <trkpt lat="42.64937" lon="1.73906">
        <ele>2331.4</ele>
        <time>2024-07-10T10:01:22Z</time>
      </trkpt>
      <trkpt lat="42.6493" lon="1.73901">
        <ele>2330.2</ele>
        <time>2024-07-10T10:01:31Z</time>
      </trkpt>
      <trkpt lat="42.64928" lon="1.73897">
        <ele>2329</ele>
        <time>2024-07-10T10:01:36Z</time>
      </trkpt>
      <trkpt lat="42.64925" lon="1.73893">
        <ele>2326.6</ele>
        <time>2024-07-10T10:01:43Z</time>
      </trkpt>
      <trkpt lat="42.64922" lon="1.7389">
        <ele>2325.8</ele>
        <time>2024-07-10T10:01:47Z</time>
      </trkpt>
      <trkpt lat="42.64919" lon="1.73887">
        <ele>2325.6</ele>
        <time>2024-07-10T10:01:50Z</time>
      </trkpt>
      <trkpt lat="42.64912" lon="1.73884">
        <ele>2325.6</ele>
        <time>2024-07-10T10:01:58Z</time>
      </trkpt>
      <trkpt lat="42.64912" lon="1.73883">
        <ele>2325.6</ele>
        <time>2024-07-10T10:01:59Z</time>
      </trkpt>
      <trkpt lat="42.64905" lon="1.73881">
        <ele>2323</ele>
        <time>2024-07-10T10:02:08Z</time>
      </trkpt>
      <trkpt lat="42.649" lon="1.73876">
        <ele>2321.8</ele>
        <time>2024-07-10T10:02:16Z</time>
      </trkpt>
      <trkpt lat="42.64893" lon="1.7387">
        <ele>2318</ele>
        <time>2024-07-10T10:02:27Z</time>
      </trkpt>
      <trkpt lat="42.64886" lon="1.73868">
        <ele>2315.8</ele>
        <time>2024-07-10T10:02:34Z</time>
      </trkpt>
      <trkpt lat="42.6488" lon="1.73861">
        <ele>2314.8</ele>
        <time>2024-07-10T10:02:42Z</time>
      </trkpt>
      <trkpt lat="42.64866" lon="1.73855">
        <ele>2312.6</ele>
        <time>2024-07-10T10:02:56Z</time>
      </trkpt>
      <trkpt lat="42.64861" lon="1.73852">
        <ele>2311.6</ele>
        <time>2024-07-10T10:03:03Z</time>
      </trkpt>
      <trkpt lat="42.64851" lon="1.73851">
        <ele>2308.2</ele>
        <time>2024-07-10T10:03:12Z</time>
      </trkpt>
      <trkpt lat="42.64843" lon="1.73849">
        <ele>2306.6</ele>
        <time>2024-07-10T10:03:21Z</time>
      </trkpt>
      <trkpt lat="42.64842" lon="1.73849">
        <ele>2306.4</ele>
        <time>2024-07-10T10:03:22Z</time>
      </trkpt>
      <trkpt lat="42.64839" lon="1.73848">
        <ele>2306</ele>
        <time>2024-07-10T10:03:28Z</time>
      </trkpt>
      <trkpt lat="42.64838" lon="1.73848">
        <ele>2306</ele>
        <time>2024-07-10T10:03:29Z</time>
      </trkpt>
      <trkpt lat="42.64831" lon="1.73847">
        <ele>2304.6</ele>
        <time>2024-07-10T10:03:35Z</time>
      </trkpt>
      <trkpt lat="42.64829" lon="1.73846">
        <ele>2303.8</ele>
        <time>2024-07-10T10:03:41Z</time>
      </trkpt>
      <trkpt lat="42.64822" lon="1.73841">
        <ele>2302.8</ele>
        <time>2024-07-10T10:03:48Z</time>
      </trkpt>
      <trkpt lat="42.64817" lon="1.73839">
        <ele>2301.8</ele>
        <time>2024-07-10T10:03:54Z</time>
      </trkpt>
      <trkpt lat="42.64815" lon="1.73838">
        <ele>2301.6</ele>
        <time>2024-07-10T10:03:56Z</time>
      </trkpt>
      <trkpt lat="42.64807" lon="1.73833">
        <ele>2299.8</ele>
        <time>2024-07-10T10:04:05Z</time>
      </trkpt>
      <trkpt lat="42.64801" lon="1.73831">
        <ele>2299.2</ele>
        <time>2024-07-10T10:04:13Z</time>
      </trkpt>
      <trkpt lat="42.64796" lon="1.73828">
        <ele>2298</ele>
        <time>2024-07-10T10:04:18Z</time>
      </trkpt>
      <trkpt lat="42.64794" lon="1.73826">
        <ele>2297.4</ele>
        <time>2024-07-10T10:04:20Z</time>
      </trkpt>
      <trkpt lat="42.6479" lon="1.73822">
        <ele>2294.6</ele>
        <time>2024-07-10T10:04:28Z</time>
      </trkpt>
      <trkpt lat="42.64786" lon="1.73816">
        <ele>2292.6</ele>
        <time>2024-07-10T10:04:36Z</time>
      </trkpt>
      <trkpt lat="42.64783" lon="1.73812">
        <ele>2291.2</ele>
        <time>2024-07-10T10:04:40Z</time>
      </trkpt>
      <trkpt lat="42.64779" lon="1.73806">
        <ele>2289.2</ele>
        <time>2024-07-10T10:04:45Z</time>
      </trkpt>
      <trkpt lat="42.64768" lon="1.73799">
        <ele>2286.8</ele>
        <time>2024-07-10T10:04:55Z</time>
      </trkpt>
      <trkpt lat="42.64763" lon="1.73793">
        <ele>2286</ele>
        <time>2024-07-10T10:05:03Z</time>
      </trkpt>
      <trkpt lat="42.64762" lon="1.73789">
        <ele>2285.4</ele>
        <time>2024-07-10T10:05:08Z</time>
      </trkpt>
      <trkpt lat="42.6476" lon="1.73787">
        <ele>2285.2</ele>
        <time>2024-07-10T10:05:10Z</time>
      </trkpt>
      <trkpt lat="42.64752" lon="1.7378">
        <ele>2283.4</ele>
        <time>2024-07-10T10:05:19Z</time>
      </trkpt>
      <trkpt lat="42.64744" lon="1.73772">
        <ele>2281.2</ele>
        <time>2024-07-10T10:05:28Z</time>
      </trkpt>
      <trkpt lat="42.64739" lon="1.73764">
        <ele>2279.2</ele>
        <time>2024-07-10T10:05:36Z</time>
      </trkpt>
      <trkpt lat="42.64731" lon="1.73753">
        <ele>2276.4</ele>
        <time>2024-07-10T10:05:46Z</time>
      </trkpt>
      <trkpt lat="42.64726" lon="1.73748">
        <ele>2275.6</ele>
        <time>2024-07-10T10:05:53Z</time>
      </trkpt>
      <trkpt lat="42.64717" lon="1.73741">
        <ele>2274.6</ele>
        <time>2024-07-10T10:06:01Z</time>
      </trkpt>
      <trkpt lat="42.64715" lon="1.73736">
        <ele>2274</ele>
        <time>2024-07-10T10:06:06Z</time>
      </trkpt>
      <trkpt lat="42.64715" lon="1.73736">
        <ele>2273.8</ele>
        <time>2024-07-10T10:06:07Z</time>
      </trkpt>
      <trkpt lat="42.64714" lon="1.73735">
        <ele>2273.8</ele>
        <time>2024-07-10T10:06:08Z</time>
      </trkpt>
      <trkpt lat="42.64712" lon="1.73731">
        <ele>2273.8</ele>
        <time>2024-07-10T10:06:12Z</time>
      </trkpt>
      <trkpt lat="42.64711" lon="1.7373">
        <ele>2274.8</ele>
        <time>2024-07-10T10:06:16Z</time>
      </trkpt>
      <trkpt lat="42.64711" lon="1.73728">
        <ele>2277.4</ele>
        <time>2024-07-10T10:06:24Z</time>
      </trkpt>
      <trkpt lat="42.64709" lon="1.73726">
        <ele>2278.2</ele>
        <time>2024-07-10T10:06:31Z</time>
      </trkpt>
      <trkpt lat="42.64702" lon="1.73719">
        <ele>2278.2</ele>
        <time>2024-07-10T10:06:37Z</time>
      </trkpt>
      <trkpt lat="42.64697" lon="1.73709">
        <ele>2277.4</ele>
        <time>2024-07-10T10:06:47Z</time>
      </trkpt>
      <trkpt lat="42.6469" lon="1.737">
        <ele>2278</ele>
        <time>2024-07-10T10:06:58Z</time>
      </trkpt>
      <trkpt lat="42.6468" lon="1.73691">
        <ele>2277</ele>
        <time>2024-07-10T10:07:08Z</time>
      </trkpt>
      <trkpt lat="42.64669" lon="1.73683">
        <ele>2277.6</ele>
        <time>2024-07-10T10:07:18Z</time>
      </trkpt>
      <trkpt lat="42.64659" lon="1.73673">
        <ele>2276.6</ele>
        <time>2024-07-10T10:07:29Z</time>
      </trkpt>
      <trkpt lat="42.64649" lon="1.73663">
        <ele>2275.2</ele>
        <time>2024-07-10T10:07:40Z</time>
      </trkpt>
      <trkpt lat="42.6464" lon="1.73656">
        <ele>2272.2</ele>
        <time>2024-07-10T10:07:48Z</time>
      </trkpt>
      <trkpt lat="42.64631" lon="1.73645">
        <ele>2271.8</ele>
        <time>2024-07-10T10:07:58Z</time>
      </trkpt>
      <trkpt lat="42.64621" lon="1.73637">
        <ele>2272.8</ele>
        <time>2024-07-10T10:08:08Z</time>
      </trkpt>
      <trkpt lat="42.6461" lon="1.73627">
        <ele>2273.6</ele>
        <time>2024-07-10T10:08:19Z</time>
      </trkpt>
      <trkpt lat="42.64608" lon="1.73626">
        <ele>2273.4</ele>
        <time>2024-07-10T10:08:21Z</time>
      </trkpt>
      <trkpt lat="42.64605" lon="1.73627">
        <ele>2272.6</ele>
        <time>2024-07-10T10:08:25Z</time>
      </trkpt>
      <trkpt lat="42.64598" lon="1.73627">
        <ele>2270.2</ele>
        <time>2024-07-10T10:08:34Z</time>
      </trkpt>
      <trkpt lat="42.64594" lon="1.73631">
        <ele>2268.6</ele>
        <time>2024-07-10T10:08:40Z</time>
      </trkpt>
      <trkpt lat="42.64593" lon="1.73632">
        <ele>2268.6</ele>
        <time>2024-07-10T10:08:41Z</time>
      </trkpt>
      <trkpt lat="42.64584" lon="1.73633">
        <ele>2265.2</ele>
        <time>2024-07-10T10:08:50Z</time>
      </trkpt>
      <trkpt lat="42.64575" lon="1.73634">
        <ele>2261.4</ele>
        <time>2024-07-10T10:08:58Z</time>
      </trkpt>
      <trkpt lat="42.64562" lon="1.73635">
        <ele>2257.6</ele>
        <time>2024-07-10T10:09:08Z</time>
      </trkpt>
      <trkpt lat="42.64553" lon="1.73638">
        <ele>2256</ele>
        <time>2024-07-10T10:09:17Z</time>
      </trkpt>
      <trkpt lat="42.64543" lon="1.73639">
        <ele>2254</ele>
        <time>2024-07-10T10:09:24Z</time>
      </trkpt>
      <trkpt lat="42.64531" lon="1.73636">
        <ele>2252.6</ele>
        <time>2024-07-10T10:09:34Z</time>
      </trkpt>
      <trkpt lat="42.64513" lon="1.73634">
        <ele>2250.4</ele>
        <time>2024-07-10T10:09:47Z</time>
      </trkpt>
      <trkpt lat="42.6451" lon="1.73634">
        <ele>2249.4</ele>
        <time>2024-07-10T10:09:53Z</time>
      </trkpt>
      <trkpt lat="42.6451" lon="1.73634">
        <ele>2248.8</ele>
        <time>2024-07-10T10:10:25Z</time>
      </trkpt>
      <trkpt lat="42.64504" lon="1.7363">
        <ele>2246</ele>
        <time>2024-07-10T10:15:59Z</time>
      </trkpt>
      <trkpt lat="42.64491" lon="1.73628">
        <ele>2245.4</ele>
        <time>2024-07-10T10:16:07Z</time>
      </trkpt>
      <trkpt lat="42.64477" lon="1.73619">
        <ele>2246</ele>
        <time>2024-07-10T10:16:19Z</time>
      </trkpt>
      <trkpt lat="42.64468" lon="1.73609">
        <ele>2245.6</ele>
        <time>2024-07-10T10:16:27Z</time>
      </trkpt>
      <trkpt lat="42.64454" lon="1.73594">
        <ele>2244</ele>
        <time>2024-07-10T10:16:40Z</time>
      </trkpt>
      <trkpt lat="42.64444" lon="1.73586">
        <ele>2243.6</ele>
        <time>2024-07-10T10:16:49Z</time>
      </trkpt>
      <trkpt lat="42.64436" lon="1.73577">
        <ele>2244.2</ele>
        <time>2024-07-10T10:16:57Z</time>
      </trkpt>
      <trkpt lat="42.64421" lon="1.73571">
        <ele>2243.6</ele>
        <time>2024-07-10T10:17:09Z</time>
      </trkpt>
      <trkpt lat="42.64411" lon="1.73563">
        <ele>2243.6</ele>
        <time>2024-07-10T10:17:18Z</time>
      </trkpt>
      <trkpt lat="42.644" lon="1.73559">
        <ele>2244</ele>
        <time>2024-07-10T10:17:26Z</time>
      </trkpt>
      <trkpt lat="42.64387" lon="1.73555">
        <ele>2243.8</ele>
        <time>2024-07-10T10:17:37Z</time>
      </trkpt>
      <trkpt lat="42.64378" lon="1.73549">
        <ele>2244</ele>
        <time>2024-07-10T10:17:45Z</time>
      </trkpt>
      <trkpt lat="42.6437" lon="1.7354">
        <ele>2243.8</ele>
        <time>2024-07-10T10:17:54Z</time>
      </trkpt>
      <trkpt lat="42.64362" lon="1.73528">
        <ele>2242.8</ele>
        <time>2024-07-10T10:18:04Z</time>
      </trkpt>
      <trkpt lat="42.64356" lon="1.73516">
        <ele>2242.4</ele>
        <time>2024-07-10T10:18:14Z</time>
      </trkpt>
      <trkpt lat="42.6435" lon="1.73506">
        <ele>2242</ele>
        <time>2024-07-10T10:18:22Z</time>
      </trkpt>
      <trkpt lat="42.64343" lon="1.73496">
        <ele>2241.2</ele>
        <time>2024-07-10T10:18:30Z</time>
      </trkpt>
      <trkpt lat="42.64342" lon="1.73494">
        <ele>2240.8</ele>
        <time>2024-07-10T10:18:33Z</time>
      </trkpt>
      <trkpt lat="42.6434" lon="1.7349">
        <ele>2240.6</ele>
        <time>2024-07-10T10:18:36Z</time>
      </trkpt>
      <trkpt lat="42.64336" lon="1.73479">
        <ele>2240.4</ele>
        <time>2024-07-10T10:18:44Z</time>
      </trkpt>
      <trkpt lat="42.64335" lon="1.73466">
        <ele>2241</ele>
        <time>2024-07-10T10:18:55Z</time>
      </trkpt>
      <trkpt lat="42.64334" lon="1.73457">
        <ele>2241.8</ele>
        <time>2024-07-10T10:19:03Z</time>
      </trkpt>
      <trkpt lat="42.64334" lon="1.73455">
        <ele>2241.8</ele>
        <time>2024-07-10T10:19:04Z</time>
      </trkpt>
      <trkpt lat="42.64336" lon="1.7345">
        <ele>2242</ele>
        <time>2024-07-10T10:19:09Z</time>
      </trkpt>
      <trkpt lat="42.64336" lon="1.73446">
        <ele>2242</ele>
        <time>2024-07-10T10:19:12Z</time>
      </trkpt>
      <trkpt lat="42.64337" lon="1.7344">
        <ele>2242.4</ele>
        <time>2024-07-10T10:19:17Z</time>
      </trkpt>
      <trkpt lat="42.64337" lon="1.73438">
        <ele>2242.4</ele>
        <time>2024-07-10T10:19:18Z</time>
      </trkpt>
      <trkpt lat="42.64336" lon="1.73434">
        <ele>2243.6</ele>
        <time>2024-07-10T10:19:24Z</time>
      </trkpt>
      <trkpt lat="42.64337" lon="1.73426">
        <ele>2244</ele>
        <time>2024-07-10T10:19:50Z</time>
      </trkpt>
      <trkpt lat="42.64337" lon="1.73415">
        <ele>2247.6</ele>
        <time>2024-07-10T10:19:59Z</time>
      </trkpt>
      <trkpt lat="42.64335" lon="1.73404">
        <ele>2249.8</ele>
        <time>2024-07-10T10:20:09Z</time>
      </trkpt>
      <trkpt lat="42.64333" lon="1.73395">
        <ele>2251.6</ele>
        <time>2024-07-10T10:20:18Z</time>
      </trkpt>
      <trkpt lat="42.64333" lon="1.73386">
        <ele>2253.2</ele>
        <time>2024-07-10T10:20:26Z</time>
      </trkpt>
      <trkpt lat="42.64332" lon="1.7338">
        <ele>2254</ele>
        <time>2024-07-10T10:20:35Z</time>
      </trkpt>
      <trkpt lat="42.64332" lon="1.7338">
        <ele>2253.8</ele>
        <time>2024-07-10T10:21:03Z</time>
      </trkpt>
      <trkpt lat="42.6433" lon="1.73371">
        <ele>2254</ele>
        <time>2024-07-10T10:21:20Z</time>
      </trkpt>
      <trkpt lat="42.64327" lon="1.73358">
        <ele>2256</ele>
        <time>2024-07-10T10:21:29Z</time>
      </trkpt>
      <trkpt lat="42.64326" lon="1.7335">
        <ele>2257.8</ele>
        <time>2024-07-10T10:21:37Z</time>
      </trkpt>
      <trkpt lat="42.64324" lon="1.73341">
        <ele>2259.2</ele>
        <time>2024-07-10T10:21:44Z</time>
      </trkpt>
      <trkpt lat="42.64323" lon="1.73331">
        <ele>2260.2</ele>
        <time>2024-07-10T10:21:51Z</time>
      </trkpt>
      <trkpt lat="42.64322" lon="1.7333">
        <ele>2260.4</ele>
        <time>2024-07-10T10:21:52Z</time>
      </trkpt>
      <trkpt lat="42.6432" lon="1.73325">
        <ele>2261</ele>
        <time>2024-07-10T10:21:57Z</time>
      </trkpt>
      <trkpt lat="42.64317" lon="1.73316">
        <ele>2261.8</ele>
        <time>2024-07-10T10:22:05Z</time>
      </trkpt>
      <trkpt lat="42.64318" lon="1.73315">
        <ele>2262</ele>
        <time>2024-07-10T10:22:06Z</time>
      </trkpt>
      <trkpt lat="42.64318" lon="1.73309">
        <ele>2262.8</ele>
        <time>2024-07-10T10:22:11Z</time>
      </trkpt>
      <trkpt lat="42.64316" lon="1.73297">
        <ele>2263.8</ele>
        <time>2024-07-10T10:22:20Z</time>
      </trkpt>
      <trkpt lat="42.64311" lon="1.73288">
        <ele>2265</ele>
        <time>2024-07-10T10:22:30Z</time>
      </trkpt>
      <trkpt lat="42.64306" lon="1.73281">
        <ele>2266.4</ele>
        <time>2024-07-10T10:22:38Z</time>
      </trkpt>
      <trkpt lat="42.64302" lon="1.73278">
        <ele>2267</ele>
        <time>2024-07-10T10:22:45Z</time>
      </trkpt>
      <trkpt lat="42.64299" lon="1.73275">
        <ele>2268.2</ele>
        <time>2024-07-10T10:22:52Z</time>
      </trkpt>
      <trkpt lat="42.64294" lon="1.73279">
        <ele>2270.2</ele>
        <time>2024-07-10T10:23:00Z</time>
      </trkpt>
      <trkpt lat="42.6429" lon="1.7328">
        <ele>2272.4</ele>
        <time>2024-07-10T10:23:07Z</time>
      </trkpt>
      <trkpt lat="42.64285" lon="1.73283">
        <ele>2275.4</ele>
        <time>2024-07-10T10:23:17Z</time>
      </trkpt>
      <trkpt lat="42.64283" lon="1.73286">
        <ele>2277.6</ele>
        <time>2024-07-10T10:23:26Z</time>
      </trkpt>
      <trkpt lat="42.64283" lon="1.73287">
        <ele>2278.4</ele>
        <time>2024-07-10T10:23:46Z</time>
      </trkpt>
      <trkpt lat="42.64278" lon="1.73286">
        <ele>2279.8</ele>
        <time>2024-07-10T10:24:11Z</time>
      </trkpt>
      <trkpt lat="42.64271" lon="1.73288">
        <ele>2280</ele>
        <time>2024-07-10T10:24:19Z</time>
      </trkpt>
      <trkpt lat="42.64266" lon="1.73287">
        <ele>2280.4</ele>
        <time>2024-07-10T10:24:25Z</time>
      </trkpt>
      <trkpt lat="42.64264" lon="1.73287">
        <ele>2280.6</ele>
        <time>2024-07-10T10:24:27Z</time>
      </trkpt>
      <trkpt lat="42.64257" lon="1.73289">
        <ele>2282.2</ele>
        <time>2024-07-10T10:24:35Z</time>
      </trkpt>
      <trkpt lat="42.64252" lon="1.73289">
        <ele>2284.2</ele>
        <time>2024-07-10T10:24:40Z</time>
      </trkpt>
      <trkpt lat="42.64245" lon="1.73288">
        <ele>2285.6</ele>
        <time>2024-07-10T10:24:48Z</time>
      </trkpt>
      <trkpt lat="42.64239" lon="1.73289">
        <ele>2287</ele>
        <time>2024-07-10T10:24:54Z</time>
      </trkpt>
      <trkpt lat="42.64232" lon="1.73289">
        <ele>2290.8</ele>
        <time>2024-07-10T10:25:03Z</time>
      </trkpt>
      <trkpt lat="42.64227" lon="1.7329">
        <ele>2292.4</ele>
        <time>2024-07-10T10:25:09Z</time>
      </trkpt>
      <trkpt lat="42.6422" lon="1.73291">
        <ele>2292.4</ele>
        <time>2024-07-10T10:25:18Z</time>
      </trkpt>
      <trkpt lat="42.64215" lon="1.73294">
        <ele>2293.2</ele>
        <time>2024-07-10T10:25:25Z</time>
      </trkpt>
      <trkpt lat="42.6421" lon="1.73296">
        <ele>2294.2</ele>
        <time>2024-07-10T10:25:31Z</time>
      </trkpt>
      <trkpt lat="42.64206" lon="1.73296">
        <ele>2296</ele>
        <time>2024-07-10T10:25:39Z</time>
      </trkpt>
      <trkpt lat="42.64201" lon="1.73296">
        <ele>2297.6</ele>
        <time>2024-07-10T10:25:47Z</time>
      </trkpt>
      <trkpt lat="42.64197" lon="1.73296">
        <ele>2298.8</ele>
        <time>2024-07-10T10:25:52Z</time>
      </trkpt>
      <trkpt lat="42.64192" lon="1.73293">
        <ele>2300.8</ele>
        <time>2024-07-10T10:25:59Z</time>
      </trkpt>
      <trkpt lat="42.64188" lon="1.7329">
        <ele>2301.4</ele>
        <time>2024-07-10T10:26:05Z</time>
      </trkpt>
      <trkpt lat="42.64183" lon="1.73284">
        <ele>2302.4</ele>
        <time>2024-07-10T10:26:11Z</time>
      </trkpt>
      <trkpt lat="42.64179" lon="1.73275">
        <ele>2304</ele>
        <time>2024-07-10T10:26:19Z</time>
      </trkpt>
      <trkpt lat="42.64175" lon="1.73271">
        <ele>2304</ele>
        <time>2024-07-10T10:26:25Z</time>
      </trkpt>
      <trkpt lat="42.64175" lon="1.73271">
        <ele>2304</ele>
        <time>2024-07-10T10:26:26Z</time>
      </trkpt>
      <trkpt lat="42.64175" lon="1.7327">
        <ele>2303.6</ele>
        <time>2024-07-10T10:26:33Z</time>
      </trkpt>
      <trkpt lat="42.64173" lon="1.73263">
        <ele>2303.2</ele>
        <time>2024-07-10T10:26:39Z</time>
      </trkpt>
      <trkpt lat="42.64169" lon="1.73249">
        <ele>2300.2</ele>
        <time>2024-07-10T10:26:50Z</time>
      </trkpt>
      <trkpt lat="42.64165" lon="1.73238">
        <ele>2298.2</ele>
        <time>2024-07-10T10:26:59Z</time>
      </trkpt>
      <trkpt lat="42.6416" lon="1.73217">
        <ele>2296.4</ele>
        <time>2024-07-10T10:27:14Z</time>
      </trkpt>
      <trkpt lat="42.64153" lon="1.73198">
        <ele>2293.4</ele>
        <time>2024-07-10T10:27:25Z</time>
      </trkpt>
      <trkpt lat="42.6415" lon="1.73183">
        <ele>2290.2</ele>
        <time>2024-07-10T10:27:33Z</time>
      </trkpt>
      <trkpt lat="42.64147" lon="1.73168">
        <ele>2288.4</ele>
        <time>2024-07-10T10:27:41Z</time>
      </trkpt>
      <trkpt lat="42.64143" lon="1.73152">
        <ele>2285</ele>
        <time>2024-07-10T10:27:50Z</time>
      </trkpt>
      <trkpt lat="42.64141" lon="1.73138">
        <ele>2282.6</ele>
        <time>2024-07-10T10:27:57Z</time>
      </trkpt>
      <trkpt lat="42.64138" lon="1.73124">
        <ele>2280.4</ele>
        <time>2024-07-10T10:28:05Z</time>
      </trkpt>
      <trkpt lat="42.64135" lon="1.73111">
        <ele>2279</ele>
        <time>2024-07-10T10:28:13Z</time>
      </trkpt>
      <trkpt lat="42.64129" lon="1.73088">
        <ele>2275.6</ele>
        <time>2024-07-10T10:28:25Z</time>
      </trkpt>
      <trkpt lat="42.64128" lon="1.73075">
        <ele>2274.4</ele>
        <time>2024-07-10T10:28:31Z</time>
      </trkpt>
      <trkpt lat="42.64126" lon="1.73057">
        <ele>2270.8</ele>
        <time>2024-07-10T10:28:41Z</time>
      </trkpt>
      <trkpt lat="42.64124" lon="1.73036">
        <ele>2269.4</ele>
        <time>2024-07-10T10:28:52Z</time>
      </trkpt>
      <trkpt lat="42.64113" lon="1.7302">
        <ele>2268.4</ele>
        <time>2024-07-10T10:29:04Z</time>
      </trkpt>
      <trkpt lat="42.64107" lon="1.73009">
        <ele>2267.4</ele>
        <time>2024-07-10T10:29:11Z</time>
      </trkpt>
      <trkpt lat="42.64099" lon="1.72988">
        <ele>2264.8</ele>
        <time>2024-07-10T10:29:22Z</time>
      </trkpt>
      <trkpt lat="42.64095" lon="1.72973">
        <ele>2262.4</ele>
        <time>2024-07-10T10:29:30Z</time>
      </trkpt>
      <trkpt lat="42.6409" lon="1.72959">
        <ele>2259.4</ele>
        <time>2024-07-10T10:29:38Z</time>
      </trkpt>
      <trkpt lat="42.64084" lon="1.72939">
        <ele>2255.2</ele>
        <time>2024-07-10T10:29:49Z</time>
      </trkpt>
      <trkpt lat="42.64084" lon="1.72937">
        <ele>2255</ele>
        <time>2024-07-10T10:29:50Z</time>
      </trkpt>
      <trkpt lat="42.64083" lon="1.72928">
        <ele>2253.4</ele>
        <time>2024-07-10T10:29:55Z</time>
      </trkpt>
      <trkpt lat="42.64078" lon="1.72916">
        <ele>2251.6</ele>
        <time>2024-07-10T10:30:03Z</time>
      </trkpt>
      <trkpt lat="42.64078" lon="1.72911">
        <ele>2251.2</ele>
        <time>2024-07-10T10:30:04Z</time>
      </trkpt>
      <trkpt lat="42.64079" lon="1.72904">
        <ele>2250</ele>
        <time>2024-07-10T10:30:08Z</time>
      </trkpt>
      <trkpt lat="42.64074" lon="1.72898">
        <ele>2247.8</ele>
        <time>2024-07-10T10:30:14Z</time>
      </trkpt>
      <trkpt lat="42.64072" lon="1.72893">
        <ele>2246.4</ele>
        <time>2024-07-10T10:30:17Z</time>
      </trkpt>
      <trkpt lat="42.64072" lon="1.72887">
        <ele>2244.6</ele>
        <time>2024-07-10T10:30:20Z</time>
      </trkpt>
      <trkpt lat="42.64067" lon="1.72874">
        <ele>2242</ele>
        <time>2024-07-10T10:30:28Z</time>
      </trkpt>
      <trkpt lat="42.64064" lon="1.7286">
        <ele>2240.4</ele>
        <time>2024-07-10T10:30:35Z</time>
      </trkpt>
      <trkpt lat="42.64058" lon="1.72846">
        <ele>2239</ele>
        <time>2024-07-10T10:30:43Z</time>
      </trkpt>
      <trkpt lat="42.64054" lon="1.72836">
        <ele>2237.8</ele>
        <time>2024-07-10T10:30:50Z</time>
      </trkpt>
      <trkpt lat="42.64054" lon="1.72837">
        <ele>2237.4</ele>
        <time>2024-07-10T10:30:51Z</time>
      </trkpt>
      <trkpt lat="42.64048" lon="1.7285">
        <ele>2235.4</ele>
        <time>2024-07-10T10:30:58Z</time>
      </trkpt>
      <trkpt lat="42.64041" lon="1.72867">
        <ele>2234</ele>
        <time>2024-07-10T10:31:07Z</time>
      </trkpt>
      <trkpt lat="42.64032" lon="1.72874">
        <ele>2233.2</ele>
        <time>2024-07-10T10:31:14Z</time>
      </trkpt>
      <trkpt lat="42.64021" lon="1.72877">
        <ele>2232.4</ele>
        <time>2024-07-10T10:31:22Z</time>
      </trkpt>
      <trkpt lat="42.64009" lon="1.72879">
        <ele>2231.4</ele>
        <time>2024-07-10T10:31:31Z</time>
      </trkpt>
      <trkpt lat="42.63994" lon="1.72879">
        <ele>2229.6</ele>
        <time>2024-07-10T10:31:41Z</time>
      </trkpt>
      <trkpt lat="42.63981" lon="1.72875">
        <ele>2229</ele>
        <time>2024-07-10T10:31:50Z</time>
      </trkpt>
      <trkpt lat="42.63973" lon="1.72873">
        <ele>2227.4</ele>
        <time>2024-07-10T10:31:56Z</time>
      </trkpt>
      <trkpt lat="42.6397" lon="1.72872">
        <ele>2225.8</ele>
        <time>2024-07-10T10:31:59Z</time>
      </trkpt>
      <trkpt lat="42.63967" lon="1.72869">
        <ele>2225.2</ele>
        <time>2024-07-10T10:32:01Z</time>
      </trkpt>
      <trkpt lat="42.63958" lon="1.72867">
        <ele>2223</ele>
        <time>2024-07-10T10:32:08Z</time>
      </trkpt>
      <trkpt lat="42.63945" lon="1.72866">
        <ele>2222.2</ele>
        <time>2024-07-10T10:32:17Z</time>
      </trkpt>
      <trkpt lat="42.63944" lon="1.72865">
        <ele>2221.8</ele>
        <time>2024-07-10T10:32:18Z</time>
      </trkpt>
      <trkpt lat="42.63943" lon="1.72858">
        <ele>2221</ele>
        <time>2024-07-10T10:32:22Z</time>
      </trkpt>
      <trkpt lat="42.63937" lon="1.72841">
        <ele>2219</ele>
        <time>2024-07-10T10:32:32Z</time>
      </trkpt>
      <trkpt lat="42.6393" lon="1.72821">
        <ele>2218.4</ele>
        <time>2024-07-10T10:32:44Z</time>
      </trkpt>
      <trkpt lat="42.6392" lon="1.72802">
        <ele>2218.4</ele>
        <time>2024-07-10T10:32:56Z</time>
      </trkpt>
      <trkpt lat="42.6392" lon="1.72798">
        <ele>2218</ele>
        <time>2024-07-10T10:32:58Z</time>
      </trkpt>
      <trkpt lat="42.63921" lon="1.72793">
        <ele>2217.2</ele>
        <time>2024-07-10T10:33:01Z</time>
      </trkpt>
      <trkpt lat="42.63919" lon="1.7278">
        <ele>2214.4</ele>
        <time>2024-07-10T10:33:09Z</time>
      </trkpt>
      <trkpt lat="42.63913" lon="1.72764">
        <ele>2210.6</ele>
        <time>2024-07-10T10:33:20Z</time>
      </trkpt>
      <trkpt lat="42.6391" lon="1.7275">
        <ele>2209</ele>
        <time>2024-07-10T10:33:30Z</time>
      </trkpt>
      <trkpt lat="42.63908" lon="1.72746">
        <ele>2208.2</ele>
        <time>2024-07-10T10:33:34Z</time>
      </trkpt>
      <trkpt lat="42.63908" lon="1.72746">
        <ele>2207.4</ele>
        <time>2024-07-10T10:33:36Z</time>
      </trkpt>
      <trkpt lat="42.63908" lon="1.72746">
        <ele>2205.8</ele>
        <time>2024-07-10T10:33:48Z</time>
      </trkpt>
      <trkpt lat="42.63904" lon="1.72739">
        <ele>2205.8</ele>
        <time>2024-07-10T10:34:47Z</time>
      </trkpt>
      <trkpt lat="42.63899" lon="1.7273">
        <ele>2204.8</ele>
        <time>2024-07-10T10:34:55Z</time>
      </trkpt>
      <trkpt lat="42.63895" lon="1.72725">
        <ele>2203.4</ele>
        <time>2024-07-10T10:35:04Z</time>
      </trkpt>
      <trkpt lat="42.63895" lon="1.72725">
        <ele>2203.2</ele>
        <time>2024-07-10T10:35:17Z</time>
      </trkpt>
      <trkpt lat="42.63893" lon="1.72716">
        <ele>2202.2</ele>
        <time>2024-07-10T10:36:23Z</time>
      </trkpt>
      <trkpt lat="42.63886" lon="1.72708">
        <ele>2199.2</ele>
        <time>2024-07-10T10:36:30Z</time>
      </trkpt>
      <trkpt lat="42.63881" lon="1.72699">
        <ele>2197.2</ele>
        <time>2024-07-10T10:36:36Z</time>
      </trkpt>
      <trkpt lat="42.63873" lon="1.72688">
        <ele>2195</ele>
        <time>2024-07-10T10:36:45Z</time>
      </trkpt>
      <trkpt lat="42.63868" lon="1.72673">
        <ele>2192.8</ele>
        <time>2024-07-10T10:36:54Z</time>
      </trkpt>
      <trkpt lat="42.6386" lon="1.72662">
        <ele>2191.2</ele>
        <time>2024-07-10T10:37:02Z</time>
      </trkpt>
      <trkpt lat="42.6385" lon="1.72648">
        <ele>2189.8</ele>
        <time>2024-07-10T10:37:12Z</time>
      </trkpt>
      <trkpt lat="42.6384" lon="1.72636">
        <ele>2188.4</ele>
        <time>2024-07-10T10:37:22Z</time>
      </trkpt>
      <trkpt lat="42.63831" lon="1.72621">
        <ele>2188.6</ele>
        <time>2024-07-10T10:37:32Z</time>
      </trkpt>
      <trkpt lat="42.6382" lon="1.72611">
        <ele>2189.2</ele>
        <time>2024-07-10T10:37:42Z</time>
      </trkpt>
      <trkpt lat="42.63809" lon="1.72602">
        <ele>2189.2</ele>
        <time>2024-07-10T10:37:52Z</time>
      </trkpt>
      <trkpt lat="42.63798" lon="1.72597">
        <ele>2191</ele>
        <time>2024-07-10T10:38:01Z</time>
      </trkpt>
      <trkpt lat="42.63796" lon="1.72592">
        <ele>2192.4</ele>
        <time>2024-07-10T10:38:05Z</time>
      </trkpt>
      <trkpt lat="42.63796" lon="1.72591">
        <ele>2192.6</ele>
        <time>2024-07-10T10:38:06Z</time>
      </trkpt>
      <trkpt lat="42.63797" lon="1.72591">
        <ele>2208.6</ele>
        <time>2024-07-10T12:05:04Z</time>
      </trkpt>
      <trkpt lat="42.63797" lon="1.72596">
        <ele>2208.6</ele>
        <time>2024-07-10T12:05:11Z</time>
      </trkpt>
      <trkpt lat="42.63795" lon="1.72608">
        <ele>2208.4</ele>
        <time>2024-07-10T12:05:21Z</time>
      </trkpt>
      <trkpt lat="42.63792" lon="1.7262">
        <ele>2208</ele>
        <time>2024-07-10T12:05:31Z</time>
      </trkpt>
      <trkpt lat="42.6379" lon="1.72632">
        <ele>2207.6</ele>
        <time>2024-07-10T12:05:41Z</time>
      </trkpt>
      <trkpt lat="42.63788" lon="1.72644">
        <ele>2207.8</ele>
        <time>2024-07-10T12:05:52Z</time>
      </trkpt>
      <trkpt lat="42.63788" lon="1.72647">
        <ele>2208</ele>
        <time>2024-07-10T12:05:55Z</time>
      </trkpt>
      <trkpt lat="42.63787" lon="1.72651">
        <ele>2208</ele>
        <time>2024-07-10T12:05:59Z</time>
      </trkpt>
      <trkpt lat="42.63785" lon="1.72659">
        <ele>2207.8</ele>
        <time>2024-07-10T12:06:07Z</time>
      </trkpt>
      <trkpt lat="42.63784" lon="1.72668">
        <ele>2207.4</ele>
        <time>2024-07-10T12:06:16Z</time>
      </trkpt>
      <trkpt lat="42.63783" lon="1.72675">
        <ele>2207</ele>
        <time>2024-07-10T12:06:24Z</time>
      </trkpt>
      <trkpt lat="42.63781" lon="1.7268">
        <ele>2206.8</ele>
        <time>2024-07-10T12:06:31Z</time>
      </trkpt>
      <trkpt lat="42.6378" lon="1.72682">
        <ele>2207.4</ele>
        <time>2024-07-10T12:06:33Z</time>
      </trkpt>
      <trkpt lat="42.63775" lon="1.72687">
        <ele>2209</ele>
        <time>2024-07-10T12:06:39Z</time>
      </trkpt>
      <trkpt lat="42.63775" lon="1.72689">
        <ele>2209</ele>
        <time>2024-07-10T12:06:40Z</time>
      </trkpt>
      <trkpt lat="42.63773" lon="1.72694">
        <ele>2209.2</ele>
        <time>2024-07-10T12:06:45Z</time>
      </trkpt>
      <trkpt lat="42.63773" lon="1.72702">
        <ele>2209</ele>
        <time>2024-07-10T12:06:51Z</time>
      </trkpt>
      <trkpt lat="42.63773" lon="1.72704">
        <ele>2209</ele>
        <time>2024-07-10T12:06:53Z</time>
      </trkpt>
      <trkpt lat="42.63773" lon="1.72714">
        <ele>2209.2</ele>
        <time>2024-07-10T12:07:01Z</time>
      </trkpt>
      <trkpt lat="42.6377" lon="1.72723">
        <ele>2210.2</ele>
        <time>2024-07-10T12:07:07Z</time>
      </trkpt>
      <trkpt lat="42.6377" lon="1.72736">
        <ele>2211.4</ele>
        <time>2024-07-10T12:07:16Z</time>
      </trkpt>
      <trkpt lat="42.63767" lon="1.72751">
        <ele>2211.8</ele>
        <time>2024-07-10T12:07:26Z</time>
      </trkpt>
      <trkpt lat="42.63768" lon="1.72765">
        <ele>2213.2</ele>
        <time>2024-07-10T12:07:36Z</time>
      </trkpt>
      <trkpt lat="42.63768" lon="1.72766">
        <ele>2213.6</ele>
        <time>2024-07-10T12:07:37Z</time>
      </trkpt>
      <trkpt lat="42.63769" lon="1.72769">
        <ele>2214</ele>
        <time>2024-07-10T12:07:39Z</time>
      </trkpt>
      <trkpt lat="42.63768" lon="1.72773">
        <ele>2214.8</ele>
        <time>2024-07-10T12:07:42Z</time>
      </trkpt>
      <trkpt lat="42.63769" lon="1.72784">
        <ele>2216.2</ele>
        <time>2024-07-10T12:07:49Z</time>
      </trkpt>
      <trkpt lat="42.63769" lon="1.72787">
        <ele>2216.4</ele>
        <time>2024-07-10T12:07:51Z</time>
      </trkpt>
      <trkpt lat="42.6377" lon="1.72798">
        <ele>2217</ele>
        <time>2024-07-10T12:07:58Z</time>
      </trkpt>
      <trkpt lat="42.63769" lon="1.72816">
        <ele>2216.8</ele>
        <time>2024-07-10T12:08:09Z</time>
      </trkpt>
      <trkpt lat="42.63767" lon="1.72829">
        <ele>2217.6</ele>
        <time>2024-07-10T12:08:18Z</time>
      </trkpt>
      <trkpt lat="42.63768" lon="1.72845">
        <ele>2218</ele>
        <time>2024-07-10T12:08:27Z</time>
      </trkpt>
      <trkpt lat="42.6377" lon="1.72858">
        <ele>2217.6</ele>
        <time>2024-07-10T12:08:36Z</time>
      </trkpt>
      <trkpt lat="42.63776" lon="1.72871">
        <ele>2217.6</ele>
        <time>2024-07-10T12:08:47Z</time>
      </trkpt>
      <trkpt lat="42.63779" lon="1.7288">
        <ele>2218.6</ele>
        <time>2024-07-10T12:08:55Z</time>
      </trkpt>
      <trkpt lat="42.63784" lon="1.72895">
        <ele>2220.8</ele>
        <time>2024-07-10T12:09:05Z</time>
      </trkpt>
      <trkpt lat="42.63784" lon="1.72897">
        <ele>2221</ele>
        <time>2024-07-10T12:09:06Z</time>
      </trkpt>
      <trkpt lat="42.63787" lon="1.72904">
        <ele>2222</ele>
        <time>2024-07-10T12:09:12Z</time>
      </trkpt>
      <trkpt lat="42.63787" lon="1.72919">
        <ele>2223</ele>
        <time>2024-07-10T12:09:23Z</time>
      </trkpt>
      <trkpt lat="42.63786" lon="1.72922">
        <ele>2223</ele>
        <time>2024-07-10T12:09:25Z</time>
      </trkpt>
      <trkpt lat="42.63785" lon="1.72929">
        <ele>2222.4</ele>
        <time>2024-07-10T12:09:30Z</time>
      </trkpt>
      <trkpt lat="42.63791" lon="1.72936">
        <ele>2222.4</ele>
        <time>2024-07-10T12:09:38Z</time>
      </trkpt>
      <trkpt lat="42.63792" lon="1.72952">
        <ele>2223.6</ele>
        <time>2024-07-10T12:09:48Z</time>
      </trkpt>
      <trkpt lat="42.63793" lon="1.72961">
        <ele>2223.8</ele>
        <time>2024-07-10T12:09:54Z</time>
      </trkpt>
      <trkpt lat="42.63795" lon="1.7297">
        <ele>2225</ele>
        <time>2024-07-10T12:10:01Z</time>
      </trkpt>
      <trkpt lat="42.63799" lon="1.72984">
        <ele>2227</ele>
        <time>2024-07-10T12:10:12Z</time>
      </trkpt>
      <trkpt lat="42.63796" lon="1.72999">
        <ele>2227.8</ele>
        <time>2024-07-10T12:10:22Z</time>
      </trkpt>
      <trkpt lat="42.63794" lon="1.73013">
        <ele>2227.6</ele>
        <time>2024-07-10T12:10:31Z</time>
      </trkpt>
      <trkpt lat="42.63792" lon="1.73015">
        <ele>2227.6</ele>
        <time>2024-07-10T12:10:32Z</time>
      </trkpt>
      <trkpt lat="42.63792" lon="1.73022">
        <ele>2227.6</ele>
        <time>2024-07-10T12:10:37Z</time>
      </trkpt>
      <trkpt lat="42.63792" lon="1.73035">
        <ele>2228.4</ele>
        <time>2024-07-10T12:10:47Z</time>
      </trkpt>
      <trkpt lat="42.63793" lon="1.73047">
        <ele>2230.2</ele>
        <time>2024-07-10T12:10:55Z</time>
      </trkpt>
      <trkpt lat="42.63794" lon="1.73049">
        <ele>2230.2</ele>
        <time>2024-07-10T12:10:56Z</time>
      </trkpt>
      <trkpt lat="42.63794" lon="1.73055">
        <ele>2230.6</ele>
        <time>2024-07-10T12:11:00Z</time>
      </trkpt>
      <trkpt lat="42.63796" lon="1.7307">
        <ele>2231.4</ele>
        <time>2024-07-10T12:11:10Z</time>
      </trkpt>
      <trkpt lat="42.63796" lon="1.73072">
        <ele>2231.4</ele>
        <time>2024-07-10T12:11:11Z</time>
      </trkpt>
      <trkpt lat="42.63797" lon="1.73078">
        <ele>2232</ele>
        <time>2024-07-10T12:11:16Z</time>
      </trkpt>
      <trkpt lat="42.63801" lon="1.73094">
        <ele>2233</ele>
        <time>2024-07-10T12:11:27Z</time>
      </trkpt>
      <trkpt lat="42.63802" lon="1.73106">
        <ele>2234.2</ele>
        <time>2024-07-10T12:11:36Z</time>
      </trkpt>
      <trkpt lat="42.63804" lon="1.73118">
        <ele>2235.4</ele>
        <time>2024-07-10T12:11:45Z</time>
      </trkpt>
      <trkpt lat="42.63805" lon="1.7312">
        <ele>2236</ele>
        <time>2024-07-10T12:11:47Z</time>
      </trkpt>
      <trkpt lat="42.63805" lon="1.73123">
        <ele>2236.4</ele>
        <time>2024-07-10T12:11:49Z</time>
      </trkpt>
      <trkpt lat="42.63806" lon="1.73125">
        <ele>2236.8</ele>
        <time>2024-07-10T12:11:51Z</time>
      </trkpt>
      <trkpt lat="42.63807" lon="1.7314">
        <ele>2238.2</ele>
        <time>2024-07-10T12:12:01Z</time>
      </trkpt>
      <trkpt lat="42.63809" lon="1.73143">
        <ele>2238.2</ele>
        <time>2024-07-10T12:12:06Z</time>
      </trkpt>
      <trkpt lat="42.63809" lon="1.73146">
        <ele>2238.2</ele>
        <time>2024-07-10T12:12:10Z</time>
      </trkpt>
      <trkpt lat="42.6381" lon="1.73149">
        <ele>2238</ele>
        <time>2024-07-10T12:12:12Z</time>
      </trkpt>
      <trkpt lat="42.63807" lon="1.73161">
        <ele>2238.6</ele>
        <time>2024-07-10T12:12:20Z</time>
      </trkpt>
      <trkpt lat="42.63807" lon="1.73163">
        <ele>2238.6</ele>
        <time>2024-07-10T12:12:21Z</time>
      </trkpt>
      <trkpt lat="42.63807" lon="1.73169">
        <ele>2239.6</ele>
        <time>2024-07-10T12:12:26Z</time>
      </trkpt>
      <trkpt lat="42.63807" lon="1.73182">
        <ele>2241.8</ele>
        <time>2024-07-10T12:12:36Z</time>
      </trkpt>
      <trkpt lat="42.63805" lon="1.73197">
        <ele>2244.4</ele>
        <time>2024-07-10T12:12:46Z</time>
      </trkpt>
      <trkpt lat="42.63805" lon="1.73199">
        <ele>2244.6</ele>
        <time>2024-07-10T12:12:48Z</time>
      </trkpt>
      <trkpt lat="42.63805" lon="1.73203">
        <ele>2244.6</ele>
        <time>2024-07-10T12:12:51Z</time>
      </trkpt>
      <trkpt lat="42.63805" lon="1.73206">
        <ele>2244.4</ele>
        <time>2024-07-10T12:12:53Z</time>
      </trkpt>
      <trkpt lat="42.63806" lon="1.73216">
        <ele>2244.6</ele>
        <time>2024-07-10T12:13:00Z</time>
      </trkpt>
      <trkpt lat="42.63807" lon="1.73219">
        <ele>2245</ele>
        <time>2024-07-10T12:13:02Z</time>
      </trkpt>
      <trkpt lat="42.63809" lon="1.73231">
        <ele>2247</ele>
        <time>2024-07-10T12:13:11Z</time>
      </trkpt>
      <trkpt lat="42.63808" lon="1.73243">
        <ele>2247.2</ele>
        <time>2024-07-10T12:13:20Z</time>
      </trkpt>
      <trkpt lat="42.63809" lon="1.73253">
        <ele>2245.8</ele>
        <time>2024-07-10T12:13:28Z</time>
      </trkpt>
      <trkpt lat="42.6381" lon="1.73262">
        <ele>2246.2</ele>
        <time>2024-07-10T12:13:37Z</time>
      </trkpt>
      <trkpt lat="42.63809" lon="1.73268">
        <ele>2247.8</ele>
        <time>2024-07-10T12:13:42Z</time>
      </trkpt>
      <trkpt lat="42.63809" lon="1.73272">
        <ele>2248.4</ele>
        <time>2024-07-10T12:13:45Z</time>
      </trkpt>
      <trkpt lat="42.63808" lon="1.7328">
        <ele>2248.6</ele>
        <time>2024-07-10T12:13:52Z</time>
      </trkpt>
      <trkpt lat="42.63807" lon="1.73288">
        <ele>2250.2</ele>
        <time>2024-07-10T12:14:00Z</time>
      </trkpt>
      <trkpt lat="42.63807" lon="1.73295">
        <ele>2252.2</ele>
        <time>2024-07-10T12:14:06Z</time>
      </trkpt>
      <trkpt lat="42.63808" lon="1.73303">
        <ele>2253.4</ele>
        <time>2024-07-10T12:14:14Z</time>
      </trkpt>
      <trkpt lat="42.63808" lon="1.73311">
        <ele>2254</ele>
        <time>2024-07-10T12:14:21Z</time>
      </trkpt>
      <trkpt lat="42.63809" lon="1.73317">
        <ele>2255.2</ele>
        <time>2024-07-10T12:14:28Z</time>
      </trkpt>
      <trkpt lat="42.63808" lon="1.73326">
        <ele>2259</ele>
        <time>2024-07-10T12:14:38Z</time>
      </trkpt>
      <trkpt lat="42.63806" lon="1.73334">
        <ele>2261</ele>
        <time>2024-07-10T12:14:46Z</time>
      </trkpt>
      <trkpt lat="42.63805" lon="1.73339">
        <ele>2261.2</ele>
        <time>2024-07-10T12:14:52Z</time>
      </trkpt>
      <trkpt lat="42.63804" lon="1.73345">
        <ele>2262.6</ele>
        <time>2024-07-10T12:14:59Z</time>
      </trkpt>
      <trkpt lat="42.63803" lon="1.73349">
        <ele>2264</ele>
        <time>2024-07-10T12:15:04Z</time>
      </trkpt>
      <trkpt lat="42.63805" lon="1.73356">
        <ele>2266.4</ele>
        <time>2024-07-10T12:15:12Z</time>
      </trkpt>
      <trkpt lat="42.63804" lon="1.7336">
        <ele>2267.8</ele>
        <time>2024-07-10T12:15:18Z</time>
      </trkpt>
      <trkpt lat="42.63804" lon="1.73365">
        <ele>2268.6</ele>
        <time>2024-07-10T12:15:24Z</time>
      </trkpt>
      <trkpt lat="42.63804" lon="1.73371">
        <ele>2269.6</ele>
        <time>2024-07-10T12:15:30Z</time>
      </trkpt>
      <trkpt lat="42.63805" lon="1.73378">
        <ele>2270.2</ele>
        <time>2024-07-10T12:15:37Z</time>
      </trkpt>
      <trkpt lat="42.63804" lon="1.73386">
        <ele>2271.2</ele>
        <time>2024-07-10T12:15:46Z</time>
      </trkpt>
      <trkpt lat="42.63804" lon="1.73387">
        <ele>2271.2</ele>
        <time>2024-07-10T12:15:53Z</time>
      </trkpt>
      <trkpt lat="42.63804" lon="1.73386">
        <ele>2271.6</ele>
        <time>2024-07-10T12:16:14Z</time>
      </trkpt>
      <trkpt lat="42.63803" lon="1.73393">
        <ele>2271.2</ele>
        <time>2024-07-10T12:16:30Z</time>
      </trkpt>
      <trkpt lat="42.63805" lon="1.73404">
        <ele>2272.8</ele>
        <time>2024-07-10T12:16:38Z</time>
      </trkpt>
      <trkpt lat="42.63802" lon="1.73413">
        <ele>2274.2</ele>
        <time>2024-07-10T12:16:44Z</time>
      </trkpt>
      <trkpt lat="42.63799" lon="1.73428">
        <ele>2273.8</ele>
        <time>2024-07-10T12:16:52Z</time>
      </trkpt>
      <trkpt lat="42.63797" lon="1.73445">
        <ele>2275.6</ele>
        <time>2024-07-10T12:17:02Z</time>
      </trkpt>
      <trkpt lat="42.63797" lon="1.73458">
        <ele>2276.6</ele>
        <time>2024-07-10T12:17:10Z</time>
      </trkpt>
      <trkpt lat="42.63798" lon="1.73473">
        <ele>2277.6</ele>
        <time>2024-07-10T12:17:18Z</time>
      </trkpt>
      <trkpt lat="42.63799" lon="1.73487">
        <ele>2278</ele>
        <time>2024-07-10T12:17:26Z</time>
      </trkpt>
      <trkpt lat="42.63801" lon="1.73499">
        <ele>2278</ele>
        <time>2024-07-10T12:17:35Z</time>
      </trkpt>
      <trkpt lat="42.638" lon="1.73501">
        <ele>2278.2</ele>
        <time>2024-07-10T12:17:37Z</time>
      </trkpt>
      <trkpt lat="42.638" lon="1.73508">
        <ele>2278.6</ele>
        <time>2024-07-10T12:17:42Z</time>
      </trkpt>
      <trkpt lat="42.638" lon="1.73519">
        <ele>2279.4</ele>
        <time>2024-07-10T12:17:50Z</time>
      </trkpt>
      <trkpt lat="42.63801" lon="1.73523">
        <ele>2279.8</ele>
        <time>2024-07-10T12:17:53Z</time>
      </trkpt>
      <trkpt lat="42.63801" lon="1.73531">
        <ele>2280.2</ele>
        <time>2024-07-10T12:17:58Z</time>
      </trkpt>
      <trkpt lat="42.63801" lon="1.73532">
        <ele>2280.2</ele>
        <time>2024-07-10T12:17:59Z</time>
      </trkpt>
      <trkpt lat="42.63798" lon="1.7354">
        <ele>2280.2</ele>
        <time>2024-07-10T12:18:04Z</time>
      </trkpt>
      <trkpt lat="42.63797" lon="1.73553">
        <ele>2280</ele>
        <time>2024-07-10T12:18:13Z</time>
      </trkpt>
      <trkpt lat="42.63798" lon="1.73561">
        <ele>2281.6</ele>
        <time>2024-07-10T12:18:20Z</time>
      </trkpt>
      <trkpt lat="42.63798" lon="1.73574">
        <ele>2282.6</ele>
        <time>2024-07-10T12:18:28Z</time>
      </trkpt>
      <trkpt lat="42.63797" lon="1.7358">
        <ele>2281.8</ele>
        <time>2024-07-10T12:18:32Z</time>
      </trkpt>
      <trkpt lat="42.63796" lon="1.73581">
        <ele>2281.2</ele>
        <time>2024-07-10T12:18:34Z</time>
      </trkpt>
      <trkpt lat="42.63799" lon="1.73588">
        <ele>2281.4</ele>
        <time>2024-07-10T12:18:41Z</time>
      </trkpt>
      <trkpt lat="42.63799" lon="1.73594">
        <ele>2282.6</ele>
        <time>2024-07-10T12:18:47Z</time>
      </trkpt>
      <trkpt lat="42.63801" lon="1.73603">
        <ele>2284.8</ele>
        <time>2024-07-10T12:18:55Z</time>
      </trkpt>
      <trkpt lat="42.63803" lon="1.73612">
        <ele>2286.8</ele>
        <time>2024-07-10T12:19:03Z</time>
      </trkpt>
      <trkpt lat="42.63803" lon="1.7362">
        <ele>2288.2</ele>
        <time>2024-07-10T12:19:10Z</time>
      </trkpt>
      <trkpt lat="42.63802" lon="1.73625">
        <ele>2289</ele>
        <time>2024-07-10T12:19:14Z</time>
      </trkpt>
      <trkpt lat="42.63802" lon="1.73629">
        <ele>2290</ele>
        <time>2024-07-10T12:19:17Z</time>
      </trkpt>
      <trkpt lat="42.63801" lon="1.73639">
        <ele>2291.8</ele>
        <time>2024-07-10T12:19:27Z</time>
      </trkpt>
      <trkpt lat="42.63802" lon="1.73647">
        <ele>2293</ele>
        <time>2024-07-10T12:19:35Z</time>
      </trkpt>
      <trkpt lat="42.63801" lon="1.73652">
        <ele>2293.8</ele>
        <time>2024-07-10T12:19:39Z</time>
      </trkpt>
      <trkpt lat="42.638" lon="1.73656">
        <ele>2294.2</ele>
        <time>2024-07-10T12:19:42Z</time>
      </trkpt>
      <trkpt lat="42.638" lon="1.7366">
        <ele>2294.4</ele>
        <time>2024-07-10T12:19:45Z</time>
      </trkpt>
      <trkpt lat="42.63799" lon="1.73664">
        <ele>2294.6</ele>
        <time>2024-07-10T12:19:49Z</time>
      </trkpt>
      <trkpt lat="42.63799" lon="1.73669">
        <ele>2296</ele>
        <time>2024-07-10T12:19:52Z</time>
      </trkpt>
      <trkpt lat="42.63796" lon="1.73673">
        <ele>2297</ele>
        <time>2024-07-10T12:19:56Z</time>
      </trkpt>
      <trkpt lat="42.63793" lon="1.73683">
        <ele>2298.2</ele>
        <time>2024-07-10T12:20:04Z</time>
      </trkpt>
      <trkpt lat="42.63789" lon="1.73691">
        <ele>2299.2</ele>
        <time>2024-07-10T12:20:11Z</time>
      </trkpt>
      <trkpt lat="42.63789" lon="1.73699">
        <ele>2298.8</ele>
        <time>2024-07-10T12:20:17Z</time>
      </trkpt>
      <trkpt lat="42.63789" lon="1.73701">
        <ele>2298.8</ele>
        <time>2024-07-10T12:20:19Z</time>
      </trkpt>
      <trkpt lat="42.6379" lon="1.73706">
        <ele>2300.8</ele>
        <time>2024-07-10T12:20:26Z</time>
      </trkpt>
      <trkpt lat="42.6379" lon="1.73714">
        <ele>2303.8</ele>
        <time>2024-07-10T12:20:35Z</time>
      </trkpt>
      <trkpt lat="42.6379" lon="1.73725">
        <ele>2304.2</ele>
        <time>2024-07-10T12:20:43Z</time>
      </trkpt>
      <trkpt lat="42.63786" lon="1.73738">
        <ele>2303.4</ele>
        <time>2024-07-10T12:20:51Z</time>
      </trkpt>
      <trkpt lat="42.63784" lon="1.73741">
        <ele>2303.2</ele>
        <time>2024-07-10T12:20:54Z</time>
      </trkpt>
      <trkpt lat="42.63782" lon="1.73746">
        <ele>2302.4</ele>
        <time>2024-07-10T12:20:57Z</time>
      </trkpt>
      <trkpt lat="42.63782" lon="1.73754">
        <ele>2301</ele>
        <time>2024-07-10T12:21:04Z</time>
      </trkpt>
      <trkpt lat="42.63782" lon="1.73755">
        <ele>2301.2</ele>
        <time>2024-07-10T12:21:05Z</time>
      </trkpt>
      <trkpt lat="42.63782" lon="1.73755">
        <ele>2302.4</ele>
        <time>2024-07-10T12:21:10Z</time>
      </trkpt>
      <trkpt lat="42.63783" lon="1.73755">
        <ele>2303.8</ele>
        <time>2024-07-10T12:21:19Z</time>
      </trkpt>
      <trkpt lat="42.63781" lon="1.7376">
        <ele>2305.4</ele>
        <time>2024-07-10T12:23:29Z</time>
      </trkpt>
      <trkpt lat="42.63778" lon="1.73773">
        <ele>2305</ele>
        <time>2024-07-10T12:23:36Z</time>
      </trkpt>
      <trkpt lat="42.63774" lon="1.73787">
        <ele>2304.4</ele>
        <time>2024-07-10T12:23:46Z</time>
      </trkpt>
      <trkpt lat="42.6377" lon="1.73795">
        <ele>2305.6</ele>
        <time>2024-07-10T12:23:54Z</time>
      </trkpt>
      <trkpt lat="42.63768" lon="1.73801">
        <ele>2307.2</ele>
        <time>2024-07-10T12:23:59Z</time>
      </trkpt>
      <trkpt lat="42.63769" lon="1.73803">
        <ele>2307.6</ele>
        <time>2024-07-10T12:24:01Z</time>
      </trkpt>
      <trkpt lat="42.6377" lon="1.73805">
        <ele>2308</ele>
        <time>2024-07-10T12:24:03Z</time>
      </trkpt>
      <trkpt lat="42.6377" lon="1.7381">
        <ele>2308</ele>
        <time>2024-07-10T12:24:08Z</time>
      </trkpt>
      <trkpt lat="42.63767" lon="1.73816">
        <ele>2309.4</ele>
        <time>2024-07-10T12:24:16Z</time>
      </trkpt>
      <trkpt lat="42.63768" lon="1.73824">
        <ele>2311.6</ele>
        <time>2024-07-10T12:24:25Z</time>
      </trkpt>
      <trkpt lat="42.63769" lon="1.73831">
        <ele>2313.2</ele>
        <time>2024-07-10T12:24:33Z</time>
      </trkpt>
      <trkpt lat="42.63766" lon="1.73836">
        <ele>2314.4</ele>
        <time>2024-07-10T12:24:40Z</time>
      </trkpt>
      <trkpt lat="42.63763" lon="1.73842">
        <ele>2315.6</ele>
        <time>2024-07-10T12:24:47Z</time>
      </trkpt>
      <trkpt lat="42.63761" lon="1.73848">
        <ele>2316.4</ele>
        <time>2024-07-10T12:24:53Z</time>
      </trkpt>
      <trkpt lat="42.6376" lon="1.73853">
        <ele>2317.2</ele>
        <time>2024-07-10T12:25:00Z</time>
      </trkpt>
      <trkpt lat="42.63758" lon="1.73861">
        <ele>2318.2</ele>
        <time>2024-07-10T12:25:07Z</time>
      </trkpt>
      <trkpt lat="42.63758" lon="1.7387">
        <ele>2320.2</ele>
        <time>2024-07-10T12:25:14Z</time>
      </trkpt>
      <trkpt lat="42.63756" lon="1.73878">
        <ele>2322.2</ele>
        <time>2024-07-10T12:25:21Z</time>
      </trkpt>
      <trkpt lat="42.63754" lon="1.73885">
        <ele>2322.8</ele>
        <time>2024-07-10T12:25:28Z</time>
      </trkpt>
      <trkpt lat="42.63754" lon="1.73887">
        <ele>2323</ele>
        <time>2024-07-10T12:25:30Z</time>
      </trkpt>
      <trkpt lat="42.63753" lon="1.73892">
        <ele>2323.4</ele>
        <time>2024-07-10T12:25:35Z</time>
      </trkpt>
      <trkpt lat="42.63751" lon="1.739">
        <ele>2324.4</ele>
        <time>2024-07-10T12:25:43Z</time>
      </trkpt>
      <trkpt lat="42.63751" lon="1.73907">
        <ele>2325.6</ele>
        <time>2024-07-10T12:25:50Z</time>
      </trkpt>
      <trkpt lat="42.63747" lon="1.73911">
        <ele>2326.4</ele>
        <time>2024-07-10T12:25:56Z</time>
      </trkpt>
      <trkpt lat="42.63745" lon="1.73922">
        <ele>2327</ele>
        <time>2024-07-10T12:26:04Z</time>
      </trkpt>
      <trkpt lat="42.63745" lon="1.73928">
        <ele>2327</ele>
        <time>2024-07-10T12:26:10Z</time>
      </trkpt>
      <trkpt lat="42.63742" lon="1.73934">
        <ele>2327.8</ele>
        <time>2024-07-10T12:26:16Z</time>
      </trkpt>
      <trkpt lat="42.6374" lon="1.73941">
        <ele>2328</ele>
        <time>2024-07-10T12:26:24Z</time>
      </trkpt>
      <trkpt lat="42.63738" lon="1.73946">
        <ele>2326.8</ele>
        <time>2024-07-10T12:26:30Z</time>
      </trkpt>
      <trkpt lat="42.63734" lon="1.73954">
        <ele>2327</ele>
        <time>2024-07-10T12:26:38Z</time>
      </trkpt>
      <trkpt lat="42.63733" lon="1.73955">
        <ele>2327.2</ele>
        <time>2024-07-10T12:26:39Z</time>
      </trkpt>
      <trkpt lat="42.63733" lon="1.73956">
        <ele>2327.6</ele>
        <time>2024-07-10T12:26:40Z</time>
      </trkpt>
      <trkpt lat="42.63732" lon="1.73958">
        <ele>2328.4</ele>
        <time>2024-07-10T12:26:42Z</time>
      </trkpt>
      <trkpt lat="42.63731" lon="1.73961">
        <ele>2329.4</ele>
        <time>2024-07-10T12:26:45Z</time>
      </trkpt>
      <trkpt lat="42.63729" lon="1.73963">
        <ele>2329.8</ele>
        <time>2024-07-10T12:26:47Z</time>
      </trkpt>
      <trkpt lat="42.63726" lon="1.7397">
        <ele>2330.6</ele>
        <time>2024-07-10T12:26:54Z</time>
      </trkpt>
      <trkpt lat="42.63725" lon="1.73978">
        <ele>2331.2</ele>
        <time>2024-07-10T12:27:02Z</time>
      </trkpt>
      <trkpt lat="42.63724" lon="1.73985">
        <ele>2332.8</ele>
        <time>2024-07-10T12:27:11Z</time>
      </trkpt>
      <trkpt lat="42.63721" lon="1.73992">
        <ele>2334.8</ele>
        <time>2024-07-10T12:27:19Z</time>
      </trkpt>
      <trkpt lat="42.63715" lon="1.74005">
        <ele>2335.8</ele>
        <time>2024-07-10T12:27:29Z</time>
      </trkpt>
      <trkpt lat="42.63708" lon="1.74023">
        <ele>2336</ele>
        <time>2024-07-10T12:27:42Z</time>
      </trkpt>
      <trkpt lat="42.63703" lon="1.74033">
        <ele>2335.8</ele>
        <time>2024-07-10T12:27:49Z</time>
      </trkpt>
      <trkpt lat="42.63696" lon="1.74039">
        <ele>2335.8</ele>
        <time>2024-07-10T12:27:56Z</time>
      </trkpt>
      <trkpt lat="42.6369" lon="1.74049">
        <ele>2334.2</ele>
        <time>2024-07-10T12:28:05Z</time>
      </trkpt>
      <trkpt lat="42.63685" lon="1.74058">
        <ele>2332.6</ele>
        <time>2024-07-10T12:28:13Z</time>
      </trkpt>
      <trkpt lat="42.63682" lon="1.74064">
        <ele>2332.4</ele>
        <time>2024-07-10T12:28:19Z</time>
      </trkpt>
      <trkpt lat="42.63682" lon="1.74067">
        <ele>2332.4</ele>
        <time>2024-07-10T12:28:23Z</time>
      </trkpt>
      <trkpt lat="42.63683" lon="1.74068">
        <ele>2332.2</ele>
        <time>2024-07-10T12:28:30Z</time>
      </trkpt>
      <trkpt lat="42.63682" lon="1.74069">
        <ele>2332.2</ele>
        <time>2024-07-10T12:28:38Z</time>
      </trkpt>
      <trkpt lat="42.63677" lon="1.74066">
        <ele>2335.8</ele>
        <time>2024-07-10T12:34:46Z</time>
      </trkpt>
      <trkpt lat="42.63669" lon="1.74069">
        <ele>2334</ele>
        <time>2024-07-10T12:34:53Z</time>
      </trkpt>
      <trkpt lat="42.63663" lon="1.74074">
        <ele>2330</ele>
        <time>2024-07-10T12:35:00Z</time>
      </trkpt>
      <trkpt lat="42.63657" lon="1.74072">
        <ele>2327.6</ele>
        <time>2024-07-10T12:35:06Z</time>
      </trkpt>
      <trkpt lat="42.63652" lon="1.74069">
        <ele>2325.6</ele>
        <time>2024-07-10T12:35:12Z</time>
      </trkpt>
      <trkpt lat="42.63646" lon="1.74072">
        <ele>2323.6</ele>
        <time>2024-07-10T12:35:17Z</time>
      </trkpt>
      <trkpt lat="42.63635" lon="1.7408">
        <ele>2320.8</ele>
        <time>2024-07-10T12:35:28Z</time>
      </trkpt>
      <trkpt lat="42.63628" lon="1.74082">
        <ele>2319.2</ele>
        <time>2024-07-10T12:35:35Z</time>
      </trkpt>
      <trkpt lat="42.63624" lon="1.74079">
        <ele>2318.4</ele>
        <time>2024-07-10T12:35:41Z</time>
      </trkpt>
      <trkpt lat="42.63614" lon="1.74079">
        <ele>2319</ele>
        <time>2024-07-10T12:35:50Z</time>
      </trkpt>
      <trkpt lat="42.63606" lon="1.74085">
        <ele>2318.4</ele>
        <time>2024-07-10T12:35:59Z</time>
      </trkpt>
      <trkpt lat="42.63605" lon="1.74084">
        <ele>2318.2</ele>
        <time>2024-07-10T12:36:00Z</time>
      </trkpt>
      <trkpt lat="42.63602" lon="1.74083">
        <ele>2318.6</ele>
        <time>2024-07-10T12:36:03Z</time>
      </trkpt>
      <trkpt lat="42.636" lon="1.74084">
        <ele>2319</ele>
        <time>2024-07-10T12:36:05Z</time>
      </trkpt>
      <trkpt lat="42.63596" lon="1.74084">
        <ele>2321.4</ele>
        <time>2024-07-10T12:36:12Z</time>
      </trkpt>
      <trkpt lat="42.63596" lon="1.74086">
        <ele>2322.6</ele>
        <time>2024-07-10T12:36:19Z</time>
      </trkpt>
      <trkpt lat="42.63593" lon="1.74087">
        <ele>2323.2</ele>
        <time>2024-07-10T12:36:26Z</time>
      </trkpt>
      <trkpt lat="42.63587" lon="1.74083">
        <ele>2323.8</ele>
        <time>2024-07-10T12:36:37Z</time>
      </trkpt>
      <trkpt lat="42.63584" lon="1.74081">
        <ele>2324.8</ele>
        <time>2024-07-10T12:36:44Z</time>
      </trkpt>
      <trkpt lat="42.63579" lon="1.74078">
        <ele>2327.4</ele>
        <time>2024-07-10T12:36:52Z</time>
      </trkpt>
      <trkpt lat="42.63572" lon="1.74075">
        <ele>2329.6</ele>
        <time>2024-07-10T12:37:01Z</time>
      </trkpt>
      <trkpt lat="42.6357" lon="1.74073">
        <ele>2330.8</ele>
        <time>2024-07-10T12:37:10Z</time>
      </trkpt>
      <trkpt lat="42.63567" lon="1.74074">
        <ele>2331.2</ele>
        <time>2024-07-10T12:37:17Z</time>
      </trkpt>
      <trkpt lat="42.63563" lon="1.74072">
        <ele>2331.2</ele>
        <time>2024-07-10T12:37:26Z</time>
      </trkpt>
      <trkpt lat="42.63563" lon="1.74071">
        <ele>2332</ele>
        <time>2024-07-10T12:37:33Z</time>
      </trkpt>
      <trkpt lat="42.63563" lon="1.74071">
        <ele>2332</ele>
        <time>2024-07-10T12:37:51Z</time>
      </trkpt>
      <trkpt lat="42.63553" lon="1.74069">
        <ele>2333.2</ele>
        <time>2024-07-10T12:38:08Z</time>
      </trkpt>
      <trkpt lat="42.63542" lon="1.74068">
        <ele>2334</ele>
        <time>2024-07-10T12:38:17Z</time>
      </trkpt>
      <trkpt lat="42.63535" lon="1.74068">
        <ele>2334.4</ele>
        <time>2024-07-10T12:38:25Z</time>
      </trkpt>
      <trkpt lat="42.63531" lon="1.74066">
        <ele>2334.8</ele>
        <time>2024-07-10T12:38:29Z</time>
      </trkpt>
      <trkpt lat="42.63524" lon="1.74066">
        <ele>2335.8</ele>
        <time>2024-07-10T12:38:36Z</time>
      </trkpt>
      <trkpt lat="42.6352" lon="1.74065">
        <ele>2337</ele>
        <time>2024-07-10T12:38:43Z</time>
      </trkpt>
      <trkpt lat="42.6352" lon="1.74065">
        <ele>2338.6</ele>
        <time>2024-07-10T12:38:50Z</time>
      </trkpt>
      <trkpt lat="42.63518" lon="1.74064">
        <ele>2339</ele>
        <time>2024-07-10T12:39:13Z</time>
      </trkpt>
      <trkpt lat="42.63509" lon="1.7406">
        <ele>2339.8</ele>
        <time>2024-07-10T12:39:20Z</time>
      </trkpt>
      <trkpt lat="42.63506" lon="1.74059">
        <ele>2340</ele>
        <time>2024-07-10T12:39:25Z</time>
      </trkpt>
      <trkpt lat="42.63501" lon="1.74056">
        <ele>2340</ele>
        <time>2024-07-10T12:39:34Z</time>
      </trkpt>
      <trkpt lat="42.63499" lon="1.74051">
        <ele>2340.2</ele>
        <time>2024-07-10T12:39:40Z</time>
      </trkpt>
      <trkpt lat="42.63496" lon="1.74048">
        <ele>2341</ele>
        <time>2024-07-10T12:39:49Z</time>
      </trkpt>
      <trkpt lat="42.63493" lon="1.74047">
        <ele>2343</ele>
        <time>2024-07-10T12:39:58Z</time>
      </trkpt>
      <trkpt lat="42.63489" lon="1.74044">
        <ele>2346</ele>
        <time>2024-07-10T12:40:09Z</time>
      </trkpt>
      <trkpt lat="42.63486" lon="1.74043">
        <ele>2348.4</ele>
        <time>2024-07-10T12:40:18Z</time>
      </trkpt>
      <trkpt lat="42.63486" lon="1.74043">
        <ele>2349</ele>
        <time>2024-07-10T12:40:25Z</time>
      </trkpt>
      <trkpt lat="42.63466" lon="1.74038">
        <ele>2353.2</ele>
        <time>2024-07-10T12:41:32Z</time>
      </trkpt>
      <trkpt lat="42.63459" lon="1.74034">
        <ele>2355.6</ele>
        <time>2024-07-10T12:41:40Z</time>
      </trkpt>
      <trkpt lat="42.63451" lon="1.74029">
        <ele>2359.2</ele>
        <time>2024-07-10T12:41:52Z</time>
      </trkpt>
      <trkpt lat="42.63448" lon="1.74027">
        <ele>2361.6</ele>
        <time>2024-07-10T12:41:59Z</time>
      </trkpt>
      <trkpt lat="42.63441" lon="1.74027">
        <ele>2364.4</ele>
        <time>2024-07-10T12:42:08Z</time>
      </trkpt>
      <trkpt lat="42.63438" lon="1.74029">
        <ele>2365.4</ele>
        <time>2024-07-10T12:42:14Z</time>
      </trkpt>
      <trkpt lat="42.63433" lon="1.74027">
        <ele>2367.2</ele>
        <time>2024-07-10T12:42:23Z</time>
      </trkpt>
      <trkpt lat="42.6343" lon="1.74026">
        <ele>2369.4</ele>
        <time>2024-07-10T12:42:30Z</time>
      </trkpt>
      <trkpt lat="42.63429" lon="1.74027">
        <ele>2371.2</ele>
        <time>2024-07-10T12:42:37Z</time>
      </trkpt>
      <trkpt lat="42.63427" lon="1.74026">
        <ele>2372.4</ele>
        <time>2024-07-10T12:42:46Z</time>
      </trkpt>
      <trkpt lat="42.63423" lon="1.74026">
        <ele>2373.4</ele>
        <time>2024-07-10T12:42:55Z</time>
      </trkpt>
      <trkpt lat="42.63417" lon="1.74022">
        <ele>2374.8</ele>
        <time>2024-07-10T12:43:06Z</time>
      </trkpt>
      <trkpt lat="42.63415" lon="1.74021">
        <ele>2375.4</ele>
        <time>2024-07-10T12:43:13Z</time>
      </trkpt>
      <trkpt lat="42.6341" lon="1.74017">
        <ele>2377.8</ele>
        <time>2024-07-10T12:43:24Z</time>
      </trkpt>
      <trkpt lat="42.63407" lon="1.74016">
        <ele>2380</ele>
        <time>2024-07-10T12:43:33Z</time>
      </trkpt>
      <trkpt lat="42.63404" lon="1.74015">
        <ele>2381.2</ele>
        <time>2024-07-10T12:43:45Z</time>
      </trkpt>
      <trkpt lat="42.63401" lon="1.74015">
        <ele>2382.2</ele>
        <time>2024-07-10T12:43:54Z</time>
      </trkpt>
      <trkpt lat="42.63398" lon="1.74015">
        <ele>2383.8</ele>
        <time>2024-07-10T12:44:04Z</time>
      </trkpt>
      <trkpt lat="42.6338" lon="1.74011">
        <ele>2390</ele>
        <time>2024-07-10T12:45:03Z</time>
      </trkpt>
      <trkpt lat="42.63367" lon="1.74031">
        <ele>2397</ele>
        <time>2024-07-10T12:46:17Z</time>
      </trkpt>
      <trkpt lat="42.63359" lon="1.74024">
        <ele>2400.4</ele>
        <time>2024-07-10T12:46:27Z</time>
      </trkpt>
      <trkpt lat="42.63354" lon="1.74021">
        <ele>2404.2</ele>
        <time>2024-07-10T12:46:35Z</time>
      </trkpt>
      <trkpt lat="42.63347" lon="1.74022">
        <ele>2407.8</ele>
        <time>2024-07-10T12:46:44Z</time>
      </trkpt>
      <trkpt lat="42.63341" lon="1.74023">
        <ele>2408.8</ele>
        <time>2024-07-10T12:46:51Z</time>
      </trkpt>
      <trkpt lat="42.6334" lon="1.74022">
        <ele>2409</ele>
        <time>2024-07-10T12:46:52Z</time>
      </trkpt>
      <trkpt lat="42.63336" lon="1.74021">
        <ele>2409.2</ele>
        <time>2024-07-10T12:46:59Z</time>
      </trkpt>
      <trkpt lat="42.63335" lon="1.74021">
        <ele>2409.2</ele>
        <time>2024-07-10T12:47:00Z</time>
      </trkpt>
      <trkpt lat="42.63331" lon="1.74024">
        <ele>2408.8</ele>
        <time>2024-07-10T12:47:06Z</time>
      </trkpt>
      <trkpt lat="42.63329" lon="1.74024">
        <ele>2409.2</ele>
        <time>2024-07-10T12:47:08Z</time>
      </trkpt>
      <trkpt lat="42.63326" lon="1.74023">
        <ele>2409.8</ele>
        <time>2024-07-10T12:47:12Z</time>
      </trkpt>
      <trkpt lat="42.63316" lon="1.7402">
        <ele>2411</ele>
        <time>2024-07-10T12:47:21Z</time>
      </trkpt>
      <trkpt lat="42.63306" lon="1.7402">
        <ele>2412.6</ele>
        <time>2024-07-10T12:47:31Z</time>
      </trkpt>
      <trkpt lat="42.63297" lon="1.74018">
        <ele>2413.6</ele>
        <time>2024-07-10T12:47:40Z</time>
      </trkpt>
      <trkpt lat="42.63295" lon="1.74018">
        <ele>2413.8</ele>
        <time>2024-07-10T12:47:42Z</time>
      </trkpt>
      <trkpt lat="42.6329" lon="1.74016">
        <ele>2413</ele>
        <time>2024-07-10T12:47:48Z</time>
      </trkpt>
      <trkpt lat="42.63284" lon="1.74015">
        <ele>2413</ele>
        <time>2024-07-10T12:47:56Z</time>
      </trkpt>
      <trkpt lat="42.6328" lon="1.74015">
        <ele>2413.4</ele>
        <time>2024-07-10T12:48:01Z</time>
      </trkpt>
      <trkpt lat="42.63278" lon="1.74016">
        <ele>2413.6</ele>
        <time>2024-07-10T12:48:03Z</time>
      </trkpt>
      <trkpt lat="42.6327" lon="1.74018">
        <ele>2414.6</ele>
        <time>2024-07-10T12:48:10Z</time>
      </trkpt>
      <trkpt lat="42.63269" lon="1.74018">
        <ele>2415.2</ele>
        <time>2024-07-10T12:48:12Z</time>
      </trkpt>
      <trkpt lat="42.63266" lon="1.7402">
        <ele>2416.2</ele>
        <time>2024-07-10T12:48:16Z</time>
      </trkpt>
      <trkpt lat="42.63262" lon="1.74023">
        <ele>2417.6</ele>
        <time>2024-07-10T12:48:23Z</time>
      </trkpt>
      <trkpt lat="42.63261" lon="1.74023">
        <ele>2418.2</ele>
        <time>2024-07-10T12:48:33Z</time>
      </trkpt>
      <trkpt lat="42.63256" lon="1.74023">
        <ele>2418</ele>
        <time>2024-07-10T12:48:40Z</time>
      </trkpt>
      <trkpt lat="42.63249" lon="1.74024">
        <ele>2418</ele>
        <time>2024-07-10T12:48:47Z</time>
      </trkpt>
      <trkpt lat="42.63242" lon="1.74025">
        <ele>2419.4</ele>
        <time>2024-07-10T12:48:55Z</time>
      </trkpt>
      <trkpt lat="42.63237" lon="1.74027">
        <ele>2421</ele>
        <time>2024-07-10T12:49:03Z</time>
      </trkpt>
      <trkpt lat="42.63229" lon="1.74024">
        <ele>2422.6</ele>
        <time>2024-07-10T12:49:12Z</time>
      </trkpt>
      <trkpt lat="42.63222" lon="1.74024">
        <ele>2423.6</ele>
        <time>2024-07-10T12:49:21Z</time>
      </trkpt>
      <trkpt lat="42.63215" lon="1.74023">
        <ele>2424.2</ele>
        <time>2024-07-10T12:49:28Z</time>
      </trkpt>
      <trkpt lat="42.63207" lon="1.74021">
        <ele>2425.2</ele>
        <time>2024-07-10T12:49:36Z</time>
      </trkpt>
      <trkpt lat="42.632" lon="1.74019">
        <ele>2427.4</ele>
        <time>2024-07-10T12:49:45Z</time>
      </trkpt>
      <trkpt lat="42.63193" lon="1.74014">
        <ele>2429</ele>
        <time>2024-07-10T12:49:56Z</time>
      </trkpt>
      <trkpt lat="42.63185" lon="1.74012">
        <ele>2429.2</ele>
        <time>2024-07-10T12:50:04Z</time>
      </trkpt>
      <trkpt lat="42.6318" lon="1.7401">
        <ele>2431.2</ele>
        <time>2024-07-10T12:50:12Z</time>
      </trkpt>
      <trkpt lat="42.63176" lon="1.7401">
        <ele>2433.8</ele>
        <time>2024-07-10T12:50:20Z</time>
      </trkpt>
      <trkpt lat="42.63173" lon="1.74012">
        <ele>2434.8</ele>
        <time>2024-07-10T12:50:27Z</time>
      </trkpt>
      <trkpt lat="42.63171" lon="1.74011">
        <ele>2436.2</ele>
        <time>2024-07-10T12:50:34Z</time>
      </trkpt>
      <trkpt lat="42.63168" lon="1.74012">
        <ele>2438.2</ele>
        <time>2024-07-10T12:50:41Z</time>
      </trkpt>
      <trkpt lat="42.63165" lon="1.7401">
        <ele>2439.8</ele>
        <time>2024-07-10T12:50:49Z</time>
      </trkpt>
      <trkpt lat="42.63163" lon="1.74008">
        <ele>2441</ele>
        <time>2024-07-10T12:50:54Z</time>
      </trkpt>
      <trkpt lat="42.63161" lon="1.74006">
        <ele>2443.2</ele>
        <time>2024-07-10T12:51:03Z</time>
      </trkpt>
      <trkpt lat="42.63162" lon="1.74014">
        <ele>2445.6</ele>
        <time>2024-07-10T12:51:11Z</time>
      </trkpt>
      <trkpt lat="42.63161" lon="1.74017">
        <ele>2448.6</ele>
        <time>2024-07-10T12:51:17Z</time>
      </trkpt>
      <trkpt lat="42.63159" lon="1.74021">
        <ele>2449.8</ele>
        <time>2024-07-10T12:51:24Z</time>
      </trkpt>
      <trkpt lat="42.63155" lon="1.74024">
        <ele>2451</ele>
        <time>2024-07-10T12:51:33Z</time>
      </trkpt>
      <trkpt lat="42.63152" lon="1.74026">
        <ele>2450.8</ele>
        <time>2024-07-10T12:51:40Z</time>
      </trkpt>
      <trkpt lat="42.6315" lon="1.74031">
        <ele>2452</ele>
        <time>2024-07-10T12:51:47Z</time>
      </trkpt>
      <trkpt lat="42.63149" lon="1.74031">
        <ele>2454.6</ele>
        <time>2024-07-10T12:51:53Z</time>
      </trkpt>
      <trkpt lat="42.6315" lon="1.74032">
        <ele>2455.8</ele>
        <time>2024-07-10T12:52:01Z</time>
      </trkpt>
      <trkpt lat="42.63146" lon="1.74034">
        <ele>2456.2</ele>
        <time>2024-07-10T12:52:53Z</time>
      </trkpt>
      <trkpt lat="42.63139" lon="1.7404">
        <ele>2457.4</ele>
        <time>2024-07-10T12:53:01Z</time>
      </trkpt>
      <trkpt lat="42.63137" lon="1.74044">
        <ele>2458.4</ele>
        <time>2024-07-10T12:53:09Z</time>
      </trkpt>
      <trkpt lat="42.63132" lon="1.74048">
        <ele>2461.6</ele>
        <time>2024-07-10T12:53:19Z</time>
      </trkpt>
      <trkpt lat="42.6313" lon="1.74052">
        <ele>2463.4</ele>
        <time>2024-07-10T12:53:26Z</time>
      </trkpt>
      <trkpt lat="42.63129" lon="1.74056">
        <ele>2464.8</ele>
        <time>2024-07-10T12:53:33Z</time>
      </trkpt>
      <trkpt lat="42.63131" lon="1.7406">
        <ele>2466.6</ele>
        <time>2024-07-10T12:53:40Z</time>
      </trkpt>
      <trkpt lat="42.6313" lon="1.74065">
        <ele>2468.6</ele>
        <time>2024-07-10T12:53:47Z</time>
      </trkpt>
      <trkpt lat="42.63129" lon="1.7407">
        <ele>2469.2</ele>
        <time>2024-07-10T12:53:54Z</time>
      </trkpt>
      <trkpt lat="42.63129" lon="1.74076">
        <ele>2469.6</ele>
        <time>2024-07-10T12:54:01Z</time>
      </trkpt>
      <trkpt lat="42.63129" lon="1.74084">
        <ele>2471.4</ele>
        <time>2024-07-10T12:54:11Z</time>
      </trkpt>
      <trkpt lat="42.63127" lon="1.74089">
        <ele>2473</ele>
        <time>2024-07-10T12:54:17Z</time>
      </trkpt>
      <trkpt lat="42.63125" lon="1.74091">
        <ele>2475.2</ele>
        <time>2024-07-10T12:54:24Z</time>
      </trkpt>
      <trkpt lat="42.63122" lon="1.74092">
        <ele>2477</ele>
        <time>2024-07-10T12:54:29Z</time>
      </trkpt>
      <trkpt lat="42.6312" lon="1.74093">
        <ele>2479.8</ele>
        <time>2024-07-10T12:54:36Z</time>
      </trkpt>
      <trkpt lat="42.6312" lon="1.74093">
        <ele>2483.6</ele>
        <time>2024-07-10T12:54:50Z</time>
      </trkpt>
      <trkpt lat="42.63102" lon="1.74097">
        <ele>2484.6</ele>
        <time>2024-07-10T12:55:36Z</time>
      </trkpt>
      <trkpt lat="42.63101" lon="1.74098">
        <ele>2484.6</ele>
        <time>2024-07-10T12:55:37Z</time>
      </trkpt>
      <trkpt lat="42.63095" lon="1.74103">
        <ele>2485.2</ele>
        <time>2024-07-10T12:55:46Z</time>
      </trkpt>
      <trkpt lat="42.63093" lon="1.74105">
        <ele>2487</ele>
        <time>2024-07-10T12:55:52Z</time>
      </trkpt>
      <trkpt lat="42.63089" lon="1.74109">
        <ele>2491.4</ele>
        <time>2024-07-10T12:56:03Z</time>
      </trkpt>
      <trkpt lat="42.63086" lon="1.74109">
        <ele>2494</ele>
        <time>2024-07-10T12:56:12Z</time>
      </trkpt>
      <trkpt lat="42.63084" lon="1.74114">
        <ele>2496</ele>
        <time>2024-07-10T12:56:21Z</time>
      </trkpt>
      <trkpt lat="42.63082" lon="1.7412">
        <ele>2498.2</ele>
        <time>2024-07-10T12:56:30Z</time>
      </trkpt>
      <trkpt lat="42.63079" lon="1.74121">
        <ele>2499.2</ele>
        <time>2024-07-10T12:56:36Z</time>
      </trkpt>
      <trkpt lat="42.63076" lon="1.7412">
        <ele>2501.4</ele>
        <time>2024-07-10T12:56:44Z</time>
      </trkpt>
      <trkpt lat="42.63072" lon="1.74116">
        <ele>2503</ele>
        <time>2024-07-10T12:56:54Z</time>
      </trkpt>
      <trkpt lat="42.6307" lon="1.74117">
        <ele>2504.6</ele>
        <time>2024-07-10T12:57:01Z</time>
      </trkpt>
      <trkpt lat="42.6307" lon="1.74117">
        <ele>2506.2</ele>
        <time>2024-07-10T12:57:12Z</time>
      </trkpt>
      <trkpt lat="42.63052" lon="1.74116">
        <ele>2512</ele>
        <time>2024-07-10T12:58:20Z</time>
      </trkpt>
      <trkpt lat="42.63034" lon="1.74118">
        <ele>2520.8</ele>
        <time>2024-07-10T13:03:00Z</time>
      </trkpt>
      <trkpt lat="42.63014" lon="1.74115">
        <ele>2522</ele>
        <time>2024-07-10T13:03:20Z</time>
      </trkpt>
      <trkpt lat="42.63001" lon="1.74113">
        <ele>2532.4</ele>
        <time>2024-07-10T13:03:27Z</time>
      </trkpt>
      <trkpt lat="42.63" lon="1.74114">
        <ele>2540.4</ele>
        <time>2024-07-10T13:03:34Z</time>
      </trkpt>
      <trkpt lat="42.62998" lon="1.74117">
        <ele>2544.4</ele>
        <time>2024-07-10T13:03:40Z</time>
      </trkpt>
      <trkpt lat="42.62995" lon="1.74119">
        <ele>2548.8</ele>
        <time>2024-07-10T13:03:48Z</time>
      </trkpt>
      <trkpt lat="42.62995" lon="1.74117">
        <ele>2552.2</ele>
        <time>2024-07-10T13:03:54Z</time>
      </trkpt>
      <trkpt lat="42.62993" lon="1.74117">
        <ele>2555</ele>
        <time>2024-07-10T13:04:02Z</time>
      </trkpt>
      <trkpt lat="42.6299" lon="1.74119">
        <ele>2556</ele>
        <time>2024-07-10T13:04:10Z</time>
      </trkpt>
      <trkpt lat="42.62989" lon="1.7412">
        <ele>2556.4</ele>
        <time>2024-07-10T13:04:15Z</time>
      </trkpt>
      <trkpt lat="42.62987" lon="1.74119">
        <ele>2558.8</ele>
        <time>2024-07-10T13:04:22Z</time>
      </trkpt>
      <trkpt lat="42.62985" lon="1.74115">
        <ele>2561</ele>
        <time>2024-07-10T13:04:32Z</time>
      </trkpt>
      <trkpt lat="42.62979" lon="1.7411">
        <ele>2562.8</ele>
        <time>2024-07-10T13:05:16Z</time>
      </trkpt>
      <trkpt lat="42.62976" lon="1.74114">
        <ele>2565.8</ele>
        <time>2024-07-10T13:05:22Z</time>
      </trkpt>
      <trkpt lat="42.62974" lon="1.74113">
        <ele>2569.4</ele>
        <time>2024-07-10T13:05:29Z</time>
      </trkpt>
      <trkpt lat="42.62973" lon="1.74113">
        <ele>2571</ele>
        <time>2024-07-10T13:05:37Z</time>
      </trkpt>
      <trkpt lat="42.62964" lon="1.74116">
        <ele>2577</ele>
        <time>2024-07-10T13:08:02Z</time>
      </trkpt>
      <trkpt lat="42.62959" lon="1.74117">
        <ele>2579</ele>
        <time>2024-07-10T13:08:08Z</time>
      </trkpt>
      <trkpt lat="42.62959" lon="1.74117">
        <ele>2581.8</ele>
        <time>2024-07-10T13:08:14Z</time>
      </trkpt>
      <trkpt lat="42.6293" lon="1.741">
        <ele>2600.2</ele>
        <time>2024-07-10T13:11:14Z</time>
      </trkpt>
      <trkpt lat="42.62928" lon="1.74107">
        <ele>2600.6</ele>
        <time>2024-07-10T13:11:18Z</time>
      </trkpt>
      <trkpt lat="42.62928" lon="1.74123">
        <ele>2605.4</ele>
        <time>2024-07-10T13:11:30Z</time>
      </trkpt>
      <trkpt lat="42.62927" lon="1.74128">
        <ele>2609.4</ele>
        <time>2024-07-10T13:11:37Z</time>
      </trkpt>
      <trkpt lat="42.62929" lon="1.74136">
        <ele>2612</ele>
        <time>2024-07-10T13:11:45Z</time>
      </trkpt>
      <trkpt lat="42.62932" lon="1.74146">
        <ele>2615.2</ele>
        <time>2024-07-10T13:11:56Z</time>
      </trkpt>
      <trkpt lat="42.62933" lon="1.74147">
        <ele>2615.4</ele>
        <time>2024-07-10T13:11:57Z</time>
      </trkpt>
      <trkpt lat="42.62931" lon="1.74151">
        <ele>2617.8</ele>
        <time>2024-07-10T13:12:03Z</time>
      </trkpt>
      <trkpt lat="42.62931" lon="1.74151">
        <ele>2620</ele>
        <time>2024-07-10T13:12:12Z</time>
      </trkpt>
      <trkpt lat="42.62937" lon="1.7415">
        <ele>2620.2</ele>
        <time>2024-07-10T13:12:19Z</time>
      </trkpt>
      <trkpt lat="42.6294" lon="1.74147">
        <ele>2620.8</ele>
        <time>2024-07-10T13:12:27Z</time>
      </trkpt>
      <trkpt lat="42.6294" lon="1.74146">
        <ele>2621</ele>
        <time>2024-07-10T13:12:34Z</time>
      </trkpt>
      <trkpt lat="42.62934" lon="1.7415">
        <ele>2622</ele>
        <time>2024-07-10T13:13:22Z</time>
      </trkpt>
      <trkpt lat="42.62931" lon="1.74151">
        <ele>2621</ele>
        <time>2024-07-10T13:13:29Z</time>
      </trkpt>
      <trkpt lat="42.62931" lon="1.74151">
        <ele>2620</ele>
        <time>2024-07-10T13:13:39Z</time>
      </trkpt>
      <trkpt lat="42.62934" lon="1.74149">
        <ele>2620</ele>
        <time>2024-07-10T13:14:11Z</time>
      </trkpt>
      <trkpt lat="42.62937" lon="1.74148">
        <ele>2620.2</ele>
        <time>2024-07-10T13:14:17Z</time>
      </trkpt>
      <trkpt lat="42.62937" lon="1.74148">
        <ele>2620.2</ele>
        <time>2024-07-10T13:14:27Z</time>
      </trkpt>
      <trkpt lat="42.62933" lon="1.74151">
        <ele>2620</ele>
        <time>2024-07-10T13:14:39Z</time>
      </trkpt>
      <trkpt lat="42.62929" lon="1.74152">
        <ele>2621.6</ele>
        <time>2024-07-10T13:14:46Z</time>
      </trkpt>
      <trkpt lat="42.62929" lon="1.74151">
        <ele>2623.2</ele>
        <time>2024-07-10T13:14:58Z</time>
      </trkpt>
      <trkpt lat="42.62929" lon="1.74151">
        <ele>2622.4</ele>
        <time>2024-07-10T13:15:03Z</time>
      </trkpt>
      <trkpt lat="42.62929" lon="1.74151">
        <ele>2621.6</ele>
        <time>2024-07-10T13:15:12Z</time>
      </trkpt>
      <trkpt lat="42.62936" lon="1.74152">
        <ele>2622.8</ele>
        <time>2024-07-10T13:16:06Z</time>
      </trkpt>
      <trkpt lat="42.62938" lon="1.74153">
        <ele>2624.6</ele>
        <time>2024-07-10T13:16:14Z</time>
      </trkpt>
      <trkpt lat="42.62935" lon="1.74147">
        <ele>2617.6</ele>
        <time>2024-07-10T13:17:53Z</time>
      </trkpt>
      <trkpt lat="42.6294" lon="1.74146">
        <ele>2618.2</ele>
        <time>2024-07-10T13:18:01Z</time>
      </trkpt>
      <trkpt lat="42.6294" lon="1.74146">
        <ele>2620.2</ele>
        <time>2024-07-10T13:18:20Z</time>
      </trkpt>
      <trkpt lat="42.62939" lon="1.7415">
        <ele>2622.2</ele>
        <time>2024-07-10T13:18:49Z</time>
      </trkpt>
      <trkpt lat="42.62937" lon="1.74156">
        <ele>2624.6</ele>
        <time>2024-07-10T13:19:00Z</time>
      </trkpt>
      <trkpt lat="42.62937" lon="1.74156">
        <ele>2626.6</ele>
        <time>2024-07-10T13:19:11Z</time>
      </trkpt>
      <trkpt lat="42.62933" lon="1.74156">
        <ele>2627</ele>
        <time>2024-07-10T13:20:52Z</time>
      </trkpt>
      <trkpt lat="42.62933" lon="1.74161">
        <ele>2625.2</ele>
        <time>2024-07-10T13:29:18Z</time>
      </trkpt>
      <trkpt lat="42.62933" lon="1.74164">
        <ele>2624.8</ele>
        <time>2024-07-10T13:29:20Z</time>
      </trkpt>
      <trkpt lat="42.6293" lon="1.74169">
        <ele>2623</ele>
        <time>2024-07-10T13:29:24Z</time>
      </trkpt>
      <trkpt lat="42.62925" lon="1.74175">
        <ele>2617.8</ele>
        <time>2024-07-10T13:29:32Z</time>
      </trkpt>
      <trkpt lat="42.62925" lon="1.74176">
        <ele>2616</ele>
        <time>2024-07-10T13:29:37Z</time>
      </trkpt>
      <trkpt lat="42.62922" lon="1.74174">
        <ele>2615.4</ele>
        <time>2024-07-10T13:29:44Z</time>
      </trkpt>
      <trkpt lat="42.62918" lon="1.74171">
        <ele>2613</ele>
        <time>2024-07-10T13:29:53Z</time>
      </trkpt>
      <trkpt lat="42.6291" lon="1.74168">
        <ele>2609.6</ele>
        <time>2024-07-10T13:30:05Z</time>
      </trkpt>
      <trkpt lat="42.62909" lon="1.74168">
        <ele>2608</ele>
        <time>2024-07-10T13:30:11Z</time>
      </trkpt>
      <trkpt lat="42.6291" lon="1.7417">
        <ele>2606.6</ele>
        <time>2024-07-10T13:30:16Z</time>
      </trkpt>
      <trkpt lat="42.6291" lon="1.74171">
        <ele>2605.4</ele>
        <time>2024-07-10T13:30:26Z</time>
      </trkpt>
      <trkpt lat="42.62906" lon="1.74177">
        <ele>2603.2</ele>
        <time>2024-07-10T13:30:59Z</time>
      </trkpt>
      <trkpt lat="42.62901" lon="1.74175">
        <ele>2601.4</ele>
        <time>2024-07-10T13:31:07Z</time>
      </trkpt>
      <trkpt lat="42.62901" lon="1.74174">
        <ele>2599.8</ele>
        <time>2024-07-10T13:31:14Z</time>
      </trkpt>
      <trkpt lat="42.62902" lon="1.74184">
        <ele>2596.6</ele>
        <time>2024-07-10T13:31:56Z</time>
      </trkpt>
      <trkpt lat="42.62903" lon="1.74191">
        <ele>2594.6</ele>
        <time>2024-07-10T13:32:03Z</time>
      </trkpt>
      <trkpt lat="42.62902" lon="1.74191">
        <ele>2592.4</ele>
        <time>2024-07-10T13:32:09Z</time>
      </trkpt>
      <trkpt lat="42.62898" lon="1.74189">
        <ele>2591</ele>
        <time>2024-07-10T13:32:18Z</time>
      </trkpt>
      <trkpt lat="42.62896" lon="1.74188">
        <ele>2589.6</ele>
        <time>2024-07-10T13:32:27Z</time>
      </trkpt>
      <trkpt lat="42.62892" lon="1.74187">
        <ele>2588</ele>
        <time>2024-07-10T13:32:35Z</time>
      </trkpt>
      <trkpt lat="42.62888" lon="1.74187">
        <ele>2587.6</ele>
        <time>2024-07-10T13:32:46Z</time>
      </trkpt>
      <trkpt lat="42.62883" lon="1.74187">
        <ele>2585.6</ele>
        <time>2024-07-10T13:32:55Z</time>
      </trkpt>
      <trkpt lat="42.62877" lon="1.74187">
        <ele>2584.6</ele>
        <time>2024-07-10T13:33:01Z</time>
      </trkpt>
      <trkpt lat="42.62872" lon="1.74187">
        <ele>2583.6</ele>
        <time>2024-07-10T13:33:09Z</time>
      </trkpt>
      <trkpt lat="42.62865" lon="1.74191">
        <ele>2582.2</ele>
        <time>2024-07-10T13:33:18Z</time>
      </trkpt>
      <trkpt lat="42.6286" lon="1.74191">
        <ele>2579.8</ele>
        <time>2024-07-10T13:33:24Z</time>
      </trkpt>
      <trkpt lat="42.62858" lon="1.74192">
        <ele>2578</ele>
        <time>2024-07-10T13:33:32Z</time>
      </trkpt>
      <trkpt lat="42.62856" lon="1.74196">
        <ele>2576</ele>
        <time>2024-07-10T13:33:38Z</time>
      </trkpt>
      <trkpt lat="42.62853" lon="1.74199">
        <ele>2574.2</ele>
        <time>2024-07-10T13:33:45Z</time>
      </trkpt>
      <trkpt lat="42.62849" lon="1.74204">
        <ele>2571.8</ele>
        <time>2024-07-10T13:33:51Z</time>
      </trkpt>
      <trkpt lat="42.62848" lon="1.74206">
        <ele>2572</ele>
        <time>2024-07-10T13:33:57Z</time>
      </trkpt>
      <trkpt lat="42.62848" lon="1.74206">
        <ele>2573</ele>
        <time>2024-07-10T13:34:03Z</time>
      </trkpt>
      <trkpt lat="42.62844" lon="1.74211">
        <ele>2571.8</ele>
        <time>2024-07-10T13:34:10Z</time>
      </trkpt>
      <trkpt lat="42.62838" lon="1.74215">
        <ele>2567.4</ele>
        <time>2024-07-10T13:34:20Z</time>
      </trkpt>
      <trkpt lat="42.62836" lon="1.74218">
        <ele>2562.6</ele>
        <time>2024-07-10T13:34:28Z</time>
      </trkpt>
      <trkpt lat="42.62832" lon="1.74219">
        <ele>2558.8</ele>
        <time>2024-07-10T13:34:36Z</time>
      </trkpt>
      <trkpt lat="42.62829" lon="1.74222">
        <ele>2559.2</ele>
        <time>2024-07-10T13:34:42Z</time>
      </trkpt>
      <trkpt lat="42.62827" lon="1.74222">
        <ele>2559.8</ele>
        <time>2024-07-10T13:34:49Z</time>
      </trkpt>
      <trkpt lat="42.62825" lon="1.74225">
        <ele>2559.2</ele>
        <time>2024-07-10T13:34:59Z</time>
      </trkpt>
      <trkpt lat="42.62823" lon="1.74227">
        <ele>2558.4</ele>
        <time>2024-07-10T13:35:06Z</time>
      </trkpt>
      <trkpt lat="42.62822" lon="1.74229">
        <ele>2557.2</ele>
        <time>2024-07-10T13:35:15Z</time>
      </trkpt>
      <trkpt lat="42.62818" lon="1.74232">
        <ele>2555.4</ele>
        <time>2024-07-10T13:35:26Z</time>
      </trkpt>
      <trkpt lat="42.62815" lon="1.74235">
        <ele>2554.4</ele>
        <time>2024-07-10T13:35:33Z</time>
      </trkpt>
      <trkpt lat="42.62813" lon="1.74235">
        <ele>2554.2</ele>
        <time>2024-07-10T13:35:38Z</time>
      </trkpt>
      <trkpt lat="42.62811" lon="1.74237">
        <ele>2553.6</ele>
        <time>2024-07-10T13:35:45Z</time>
      </trkpt>
      <trkpt lat="42.62807" lon="1.74236">
        <ele>2554.6</ele>
        <time>2024-07-10T13:35:52Z</time>
      </trkpt>
      <trkpt lat="42.62802" lon="1.74241">
        <ele>2555</ele>
        <time>2024-07-10T13:35:59Z</time>
      </trkpt>
      <trkpt lat="42.62798" lon="1.74246">
        <ele>2556.6</ele>
        <time>2024-07-10T13:36:06Z</time>
      </trkpt>
      <trkpt lat="42.62791" lon="1.74252">
        <ele>2554.2</ele>
        <time>2024-07-10T13:36:16Z</time>
      </trkpt>
      <trkpt lat="42.62788" lon="1.74257">
        <ele>2552.8</ele>
        <time>2024-07-10T13:36:24Z</time>
      </trkpt>
      <trkpt lat="42.62785" lon="1.74261">
        <ele>2552.4</ele>
        <time>2024-07-10T13:36:31Z</time>
      </trkpt>
      <trkpt lat="42.62784" lon="1.74263">
        <ele>2553.4</ele>
        <time>2024-07-10T13:36:39Z</time>
      </trkpt>
      <trkpt lat="42.62784" lon="1.74263">
        <ele>2553.4</ele>
        <time>2024-07-10T13:36:46Z</time>
      </trkpt>
      <trkpt lat="42.62786" lon="1.74263">
        <ele>2552.4</ele>
        <time>2024-07-10T13:36:53Z</time>
      </trkpt>
      <trkpt lat="42.62788" lon="1.74266">
        <ele>2551.6</ele>
        <time>2024-07-10T13:37:01Z</time>
      </trkpt>
      <trkpt lat="42.62786" lon="1.74268">
        <ele>2549.8</ele>
        <time>2024-07-10T13:37:07Z</time>
      </trkpt>
      <trkpt lat="42.62785" lon="1.74269">
        <ele>2547.6</ele>
        <time>2024-07-10T13:37:15Z</time>
      </trkpt>
      <trkpt lat="42.62784" lon="1.74273">
        <ele>2543.2</ele>
        <time>2024-07-10T13:37:24Z</time>
      </trkpt>
      <trkpt lat="42.62784" lon="1.74276">
        <ele>2541.8</ele>
        <time>2024-07-10T13:37:29Z</time>
      </trkpt>
      <trkpt lat="42.62783" lon="1.74279">
        <ele>2540</ele>
        <time>2024-07-10T13:37:35Z</time>
      </trkpt>
      <trkpt lat="42.62784" lon="1.7428">
        <ele>2538</ele>
        <time>2024-07-10T13:37:41Z</time>
      </trkpt>
      <trkpt lat="42.62784" lon="1.74284">
        <ele>2536.8</ele>
        <time>2024-07-10T13:37:49Z</time>
      </trkpt>
      <trkpt lat="42.62785" lon="1.74288">
        <ele>2534</ele>
        <time>2024-07-10T13:37:58Z</time>
      </trkpt>
      <trkpt lat="42.62786" lon="1.74288">
        <ele>2532.8</ele>
        <time>2024-07-10T13:38:03Z</time>
      </trkpt>
      <trkpt lat="42.62786" lon="1.74289">
        <ele>2532.4</ele>
        <time>2024-07-10T13:38:23Z</time>
      </trkpt>
      <trkpt lat="42.62788" lon="1.74294">
        <ele>2532.6</ele>
        <time>2024-07-10T13:38:34Z</time>
      </trkpt>
      <trkpt lat="42.62794" lon="1.74297">
        <ele>2531.2</ele>
        <time>2024-07-10T13:38:41Z</time>
      </trkpt>
      <trkpt lat="42.62796" lon="1.74298">
        <ele>2529.2</ele>
        <time>2024-07-10T13:38:48Z</time>
      </trkpt>
      <trkpt lat="42.628" lon="1.743">
        <ele>2528.4</ele>
        <time>2024-07-10T13:38:55Z</time>
      </trkpt>
      <trkpt lat="42.62798" lon="1.74306">
        <ele>2528.6</ele>
        <time>2024-07-10T13:39:01Z</time>
      </trkpt>
      <trkpt lat="42.62796" lon="1.74308">
        <ele>2528.4</ele>
        <time>2024-07-10T13:39:07Z</time>
      </trkpt>
      <trkpt lat="42.62798" lon="1.74309">
        <ele>2526.8</ele>
        <time>2024-07-10T13:39:13Z</time>
      </trkpt>
      <trkpt lat="42.62799" lon="1.74312">
        <ele>2525</ele>
        <time>2024-07-10T13:39:19Z</time>
      </trkpt>
      <trkpt lat="42.628" lon="1.74314">
        <ele>2522.8</ele>
        <time>2024-07-10T13:39:26Z</time>
      </trkpt>
      <trkpt lat="42.62793" lon="1.74323">
        <ele>2522.2</ele>
        <time>2024-07-10T13:39:47Z</time>
      </trkpt>
      <trkpt lat="42.62788" lon="1.74331">
        <ele>2521.2</ele>
        <time>2024-07-10T13:39:54Z</time>
      </trkpt>
      <trkpt lat="42.62783" lon="1.74339">
        <ele>2519.4</ele>
        <time>2024-07-10T13:40:04Z</time>
      </trkpt>
      <trkpt lat="42.62781" lon="1.7434">
        <ele>2519.2</ele>
        <time>2024-07-10T13:40:10Z</time>
      </trkpt>
      <trkpt lat="42.6278" lon="1.74345">
        <ele>2517.4</ele>
        <time>2024-07-10T13:40:18Z</time>
      </trkpt>
      <trkpt lat="42.62778" lon="1.74348">
        <ele>2516.4</ele>
        <time>2024-07-10T13:40:20Z</time>
      </trkpt>
      <trkpt lat="42.62775" lon="1.74355">
        <ele>2514.2</ele>
        <time>2024-07-10T13:40:24Z</time>
      </trkpt>
      <trkpt lat="42.62769" lon="1.74371">
        <ele>2509.2</ele>
        <time>2024-07-10T13:40:33Z</time>
      </trkpt>
      <trkpt lat="42.62761" lon="1.74383">
        <ele>2504.2</ele>
        <time>2024-07-10T13:40:44Z</time>
      </trkpt>
      <trkpt lat="42.62757" lon="1.74393">
        <ele>2501</ele>
        <time>2024-07-10T13:40:53Z</time>
      </trkpt>
      <trkpt lat="42.62753" lon="1.74401">
        <ele>2496.4</ele>
        <time>2024-07-10T13:41:02Z</time>
      </trkpt>
      <trkpt lat="42.62751" lon="1.74408">
        <ele>2493.6</ele>
        <time>2024-07-10T13:41:10Z</time>
      </trkpt>
      <trkpt lat="42.62751" lon="1.74409">
        <ele>2493.4</ele>
        <time>2024-07-10T13:41:11Z</time>
      </trkpt>
      <trkpt lat="42.62749" lon="1.74416">
        <ele>2491.4</ele>
        <time>2024-07-10T13:41:20Z</time>
      </trkpt>
      <trkpt lat="42.62747" lon="1.74421">
        <ele>2488.8</ele>
        <time>2024-07-10T13:41:28Z</time>
      </trkpt>
      <trkpt lat="42.62742" lon="1.74427">
        <ele>2486</ele>
        <time>2024-07-10T13:41:37Z</time>
      </trkpt>
      <trkpt lat="42.62736" lon="1.74436">
        <ele>2483.2</ele>
        <time>2024-07-10T13:41:47Z</time>
      </trkpt>
      <trkpt lat="42.62732" lon="1.74444">
        <ele>2480.6</ele>
        <time>2024-07-10T13:41:56Z</time>
      </trkpt>
      <trkpt lat="42.62727" lon="1.74448">
        <ele>2478.2</ele>
        <time>2024-07-10T13:42:02Z</time>
      </trkpt>
      <trkpt lat="42.6272" lon="1.74453">
        <ele>2476.2</ele>
        <time>2024-07-10T13:42:10Z</time>
      </trkpt>
      <trkpt lat="42.6272" lon="1.74457">
        <ele>2476</ele>
        <time>2024-07-10T13:42:16Z</time>
      </trkpt>
      <trkpt lat="42.62717" lon="1.74464">
        <ele>2473</ele>
        <time>2024-07-10T13:42:23Z</time>
      </trkpt>
      <trkpt lat="42.62715" lon="1.74468">
        <ele>2471.8</ele>
        <time>2024-07-10T13:42:25Z</time>
      </trkpt>
      <trkpt lat="42.6271" lon="1.74476">
        <ele>2467.8</ele>
        <time>2024-07-10T13:42:32Z</time>
      </trkpt>
      <trkpt lat="42.62703" lon="1.74483">
        <ele>2463</ele>
        <time>2024-07-10T13:42:41Z</time>
      </trkpt>
      <trkpt lat="42.62703" lon="1.74483">
        <ele>2462.6</ele>
        <time>2024-07-10T13:42:42Z</time>
      </trkpt>
      <trkpt lat="42.62701" lon="1.74488">
        <ele>2460.4</ele>
        <time>2024-07-10T13:42:46Z</time>
      </trkpt>
      <trkpt lat="42.627" lon="1.74498">
        <ele>2455</ele>
        <time>2024-07-10T13:42:53Z</time>
      </trkpt>
      <trkpt lat="42.62699" lon="1.74504">
        <ele>2453.2</ele>
        <time>2024-07-10T13:42:59Z</time>
      </trkpt>
      <trkpt lat="42.62699" lon="1.74505">
        <ele>2453</ele>
        <time>2024-07-10T13:43:00Z</time>
      </trkpt>
      <trkpt lat="42.62695" lon="1.74512">
        <ele>2451.6</ele>
        <time>2024-07-10T13:43:06Z</time>
      </trkpt>
      <trkpt lat="42.62695" lon="1.74513">
        <ele>2451.4</ele>
        <time>2024-07-10T13:43:07Z</time>
      </trkpt>
      <trkpt lat="42.62691" lon="1.74524">
        <ele>2448</ele>
        <time>2024-07-10T13:43:16Z</time>
      </trkpt>
      <trkpt lat="42.62687" lon="1.74533">
        <ele>2444.8</ele>
        <time>2024-07-10T13:43:25Z</time>
      </trkpt>
      <trkpt lat="42.62681" lon="1.74544">
        <ele>2442.6</ele>
        <time>2024-07-10T13:43:37Z</time>
      </trkpt>
      <trkpt lat="42.6268" lon="1.74546">
        <ele>2442.2</ele>
        <time>2024-07-10T13:43:38Z</time>
      </trkpt>
      <trkpt lat="42.62679" lon="1.74557">
        <ele>2438.2</ele>
        <time>2024-07-10T13:43:47Z</time>
      </trkpt>
      <trkpt lat="42.62678" lon="1.7456">
        <ele>2437</ele>
        <time>2024-07-10T13:43:49Z</time>
      </trkpt>
      <trkpt lat="42.62678" lon="1.74568">
        <ele>2434</ele>
        <time>2024-07-10T13:43:55Z</time>
      </trkpt>
      <trkpt lat="42.62677" lon="1.74572">
        <ele>2432.6</ele>
        <time>2024-07-10T13:43:58Z</time>
      </trkpt>
      <trkpt lat="42.62677" lon="1.74577">
        <ele>2431.4</ele>
        <time>2024-07-10T13:44:01Z</time>
      </trkpt>
      <trkpt lat="42.62676" lon="1.74579">
        <ele>2430.6</ele>
        <time>2024-07-10T13:44:03Z</time>
      </trkpt>
      <trkpt lat="42.62671" lon="1.74591">
        <ele>2426.6</ele>
        <time>2024-07-10T13:44:12Z</time>
      </trkpt>
      <trkpt lat="42.62667" lon="1.74602">
        <ele>2422.2</ele>
        <time>2024-07-10T13:44:22Z</time>
      </trkpt>
      <trkpt lat="42.62665" lon="1.74617">
        <ele>2419.2</ele>
        <time>2024-07-10T13:44:31Z</time>
      </trkpt>
      <trkpt lat="42.62667" lon="1.74632">
        <ele>2417</ele>
        <time>2024-07-10T13:44:41Z</time>
      </trkpt>
      <trkpt lat="42.62668" lon="1.74637">
        <ele>2416.4</ele>
        <time>2024-07-10T13:44:44Z</time>
      </trkpt>
      <trkpt lat="42.62668" lon="1.74639">
        <ele>2416.2</ele>
        <time>2024-07-10T13:44:46Z</time>
      </trkpt>
      <trkpt lat="42.62668" lon="1.74641">
        <ele>2415.8</ele>
        <time>2024-07-10T13:44:48Z</time>
      </trkpt>
      <trkpt lat="42.62669" lon="1.74646">
        <ele>2414.8</ele>
        <time>2024-07-10T13:44:52Z</time>
      </trkpt>
      <trkpt lat="42.62671" lon="1.74648">
        <ele>2414.2</ele>
        <time>2024-07-10T13:44:55Z</time>
      </trkpt>
      <trkpt lat="42.62675" lon="1.74655">
        <ele>2413.8</ele>
        <time>2024-07-10T13:45:04Z</time>
      </trkpt>
      <trkpt lat="42.62677" lon="1.74659">
        <ele>2413.4</ele>
        <time>2024-07-10T13:45:10Z</time>
      </trkpt>
      <trkpt lat="42.62672" lon="1.74661">
        <ele>2412.4</ele>
        <time>2024-07-10T13:45:16Z</time>
      </trkpt>
      <trkpt lat="42.62672" lon="1.74667">
        <ele>2411</ele>
        <time>2024-07-10T13:45:22Z</time>
      </trkpt>
      <trkpt lat="42.62669" lon="1.74673">
        <ele>2412</ele>
        <time>2024-07-10T13:45:30Z</time>
      </trkpt>
      <trkpt lat="42.62667" lon="1.74676">
        <ele>2412.2</ele>
        <time>2024-07-10T13:45:37Z</time>
      </trkpt>
      <trkpt lat="42.62665" lon="1.7468">
        <ele>2412.2</ele>
        <time>2024-07-10T13:45:43Z</time>
      </trkpt>
      <trkpt lat="42.62664" lon="1.7468">
        <ele>2411.6</ele>
        <time>2024-07-10T13:45:50Z</time>
      </trkpt>
      <trkpt lat="42.62662" lon="1.74682">
        <ele>2411.8</ele>
        <time>2024-07-10T13:45:58Z</time>
      </trkpt>
      <trkpt lat="42.6266" lon="1.74686">
        <ele>2412</ele>
        <time>2024-07-10T13:46:05Z</time>
      </trkpt>
      <trkpt lat="42.62656" lon="1.74692">
        <ele>2411.8</ele>
        <time>2024-07-10T13:46:12Z</time>
      </trkpt>
      <trkpt lat="42.62655" lon="1.74696">
        <ele>2410.8</ele>
        <time>2024-07-10T13:46:18Z</time>
      </trkpt>
      <trkpt lat="42.62655" lon="1.74698">
        <ele>2410.2</ele>
        <time>2024-07-10T13:46:39Z</time>
      </trkpt>
      <trkpt lat="42.62655" lon="1.74708">
        <ele>2409.4</ele>
        <time>2024-07-10T13:46:46Z</time>
      </trkpt>
      <trkpt lat="42.62655" lon="1.74715">
        <ele>2407.4</ele>
        <time>2024-07-10T13:46:53Z</time>
      </trkpt>
      <trkpt lat="42.62655" lon="1.74718">
        <ele>2405.6</ele>
        <time>2024-07-10T13:46:59Z</time>
      </trkpt>
      <trkpt lat="42.62652" lon="1.74722">
        <ele>2401.8</ele>
        <time>2024-07-10T13:47:06Z</time>
      </trkpt>
      <trkpt lat="42.6265" lon="1.74725">
        <ele>2400.8</ele>
        <time>2024-07-10T13:47:12Z</time>
      </trkpt>
      <trkpt lat="42.62647" lon="1.74729">
        <ele>2402.8</ele>
        <time>2024-07-10T13:47:19Z</time>
      </trkpt>
      <trkpt lat="42.62643" lon="1.74734">
        <ele>2404.8</ele>
        <time>2024-07-10T13:47:25Z</time>
      </trkpt>
      <trkpt lat="42.62637" lon="1.74738">
        <ele>2405.4</ele>
        <time>2024-07-10T13:47:32Z</time>
      </trkpt>
      <trkpt lat="42.62627" lon="1.74746">
        <ele>2403.2</ele>
        <time>2024-07-10T13:47:42Z</time>
      </trkpt>
      <trkpt lat="42.62624" lon="1.7475">
        <ele>2401.8</ele>
        <time>2024-07-10T13:47:49Z</time>
      </trkpt>
      <trkpt lat="42.62621" lon="1.74749">
        <ele>2401.6</ele>
        <time>2024-07-10T13:47:55Z</time>
      </trkpt>
      <trkpt lat="42.62619" lon="1.74744">
        <ele>2402.4</ele>
        <time>2024-07-10T13:48:01Z</time>
      </trkpt>
      <trkpt lat="42.62612" lon="1.74745">
        <ele>2401.2</ele>
        <time>2024-07-10T13:48:09Z</time>
      </trkpt>
      <trkpt lat="42.62607" lon="1.74745">
        <ele>2399.4</ele>
        <time>2024-07-10T13:48:16Z</time>
      </trkpt>
      <trkpt lat="42.626" lon="1.7475">
        <ele>2397.2</ele>
        <time>2024-07-10T13:48:25Z</time>
      </trkpt>
      <trkpt lat="42.62599" lon="1.74757">
        <ele>2396.2</ele>
        <time>2024-07-10T13:48:32Z</time>
      </trkpt>
      <trkpt lat="42.62594" lon="1.74759">
        <ele>2395.4</ele>
        <time>2024-07-10T13:48:38Z</time>
      </trkpt>
      <trkpt lat="42.6259" lon="1.74763">
        <ele>2394.4</ele>
        <time>2024-07-10T13:48:46Z</time>
      </trkpt>
      <trkpt lat="42.6259" lon="1.7477">
        <ele>2393.2</ele>
        <time>2024-07-10T13:48:55Z</time>
      </trkpt>
      <trkpt lat="42.62592" lon="1.74768">
        <ele>2392.8</ele>
        <time>2024-07-10T13:49:10Z</time>
      </trkpt>
      <trkpt lat="42.62592" lon="1.74768">
        <ele>2392.6</ele>
        <time>2024-07-10T13:49:15Z</time>
      </trkpt>
      <trkpt lat="42.62591" lon="1.74775">
        <ele>2395.6</ele>
        <time>2024-07-10T13:52:58Z</time>
      </trkpt>
      <trkpt lat="42.62585" lon="1.74784">
        <ele>2394</ele>
        <time>2024-07-10T13:53:04Z</time>
      </trkpt>
      <trkpt lat="42.62577" lon="1.74791">
        <ele>2391</ele>
        <time>2024-07-10T13:53:13Z</time>
      </trkpt>
      <trkpt lat="42.62576" lon="1.74793">
        <ele>2390.6</ele>
        <time>2024-07-10T13:53:15Z</time>
      </trkpt>
      <trkpt lat="42.62574" lon="1.74796">
        <ele>2389.2</ele>
        <time>2024-07-10T13:53:19Z</time>
      </trkpt>
      <trkpt lat="42.62571" lon="1.74798">
        <ele>2386.8</ele>
        <time>2024-07-10T13:53:25Z</time>
      </trkpt>
      <trkpt lat="42.62567" lon="1.74803">
        <ele>2385.2</ele>
        <time>2024-07-10T13:53:32Z</time>
      </trkpt>
      <trkpt lat="42.62561" lon="1.74806">
        <ele>2384.4</ele>
        <time>2024-07-10T13:53:40Z</time>
      </trkpt>
      <trkpt lat="42.62556" lon="1.74808">
        <ele>2384</ele>
        <time>2024-07-10T13:53:48Z</time>
      </trkpt>
      <trkpt lat="42.62555" lon="1.74811">
        <ele>2383.8</ele>
        <time>2024-07-10T13:53:53Z</time>
      </trkpt>
      <trkpt lat="42.62554" lon="1.74816">
        <ele>2383.4</ele>
        <time>2024-07-10T13:53:59Z</time>
      </trkpt>
      <trkpt lat="42.62556" lon="1.7482">
        <ele>2382.4</ele>
        <time>2024-07-10T13:54:04Z</time>
      </trkpt>
      <trkpt lat="42.62555" lon="1.74821">
        <ele>2381.4</ele>
        <time>2024-07-10T13:54:10Z</time>
      </trkpt>
      <trkpt lat="42.62553" lon="1.74824">
        <ele>2381.6</ele>
        <time>2024-07-10T13:54:15Z</time>
      </trkpt>
      <trkpt lat="42.62551" lon="1.74828">
        <ele>2381.2</ele>
        <time>2024-07-10T13:54:23Z</time>
      </trkpt>
      <trkpt lat="42.6255" lon="1.74828">
        <ele>2380.6</ele>
        <time>2024-07-10T13:54:30Z</time>
      </trkpt>
      <trkpt lat="42.6255" lon="1.74828">
        <ele>2381.2</ele>
        <time>2024-07-10T13:54:57Z</time>
      </trkpt>
      <trkpt lat="42.62547" lon="1.74832">
        <ele>2381.4</ele>
        <time>2024-07-10T13:55:02Z</time>
      </trkpt>
      <trkpt lat="42.62547" lon="1.74844">
        <ele>2381.4</ele>
        <time>2024-07-10T13:55:09Z</time>
      </trkpt>
      <trkpt lat="42.62547" lon="1.74844">
        <ele>2380.8</ele>
        <time>2024-07-10T13:55:13Z</time>
      </trkpt>
      <trkpt lat="42.62547" lon="1.74844">
        <ele>2380.4</ele>
        <time>2024-07-10T13:55:26Z</time>
      </trkpt>
      <trkpt lat="42.62545" lon="1.74851">
        <ele>2380.2</ele>
        <time>2024-07-10T13:55:37Z</time>
      </trkpt>
      <trkpt lat="42.6254" lon="1.74859">
        <ele>2379</ele>
        <time>2024-07-10T13:55:42Z</time>
      </trkpt>
      <trkpt lat="42.6254" lon="1.74861">
        <ele>2378.6</ele>
        <time>2024-07-10T13:55:43Z</time>
      </trkpt>
      <trkpt lat="42.62537" lon="1.7487">
        <ele>2374.2</ele>
        <time>2024-07-10T13:55:50Z</time>
      </trkpt>
      <trkpt lat="42.62537" lon="1.74872">
        <ele>2373.2</ele>
        <time>2024-07-10T13:55:56Z</time>
      </trkpt>
      <trkpt lat="42.62539" lon="1.74873">
        <ele>2373.2</ele>
        <time>2024-07-10T13:56:05Z</time>
      </trkpt>
      <trkpt lat="42.6254" lon="1.74879">
        <ele>2372.6</ele>
        <time>2024-07-10T13:56:11Z</time>
      </trkpt>
      <trkpt lat="42.62539" lon="1.74885">
        <ele>2371.4</ele>
        <time>2024-07-10T13:56:18Z</time>
      </trkpt>
      <trkpt lat="42.62538" lon="1.74889">
        <ele>2370.8</ele>
        <time>2024-07-10T13:56:25Z</time>
      </trkpt>
      <trkpt lat="42.62534" lon="1.74896">
        <ele>2370.6</ele>
        <time>2024-07-10T13:56:33Z</time>
      </trkpt>
      <trkpt lat="42.6253" lon="1.74902">
        <ele>2369.8</ele>
        <time>2024-07-10T13:56:41Z</time>
      </trkpt>
      <trkpt lat="42.62528" lon="1.74909">
        <ele>2367.8</ele>
        <time>2024-07-10T13:56:47Z</time>
      </trkpt>
      <trkpt lat="42.62526" lon="1.74914">
        <ele>2367.2</ele>
        <time>2024-07-10T13:56:53Z</time>
      </trkpt>
      <trkpt lat="42.62526" lon="1.74917">
        <ele>2366.8</ele>
        <time>2024-07-10T13:56:55Z</time>
      </trkpt>
      <trkpt lat="42.62524" lon="1.7492">
        <ele>2366</ele>
        <time>2024-07-10T13:57:00Z</time>
      </trkpt>
      <trkpt lat="42.6252" lon="1.74924">
        <ele>2364</ele>
        <time>2024-07-10T13:57:08Z</time>
      </trkpt>
      <trkpt lat="42.62516" lon="1.7493">
        <ele>2362.8</ele>
        <time>2024-07-10T13:57:15Z</time>
      </trkpt>
      <trkpt lat="42.62515" lon="1.74935">
        <ele>2362</ele>
        <time>2024-07-10T13:57:22Z</time>
      </trkpt>
      <trkpt lat="42.62515" lon="1.74941">
        <ele>2360.8</ele>
        <time>2024-07-10T13:57:29Z</time>
      </trkpt>
      <trkpt lat="42.62508" lon="1.74945">
        <ele>2359.4</ele>
        <time>2024-07-10T13:57:36Z</time>
      </trkpt>
      <trkpt lat="42.62505" lon="1.74946">
        <ele>2359</ele>
        <time>2024-07-10T13:57:40Z</time>
      </trkpt>
      <trkpt lat="42.62504" lon="1.74946">
        <ele>2358.8</ele>
        <time>2024-07-10T13:57:42Z</time>
      </trkpt>
      <trkpt lat="42.62503" lon="1.74945">
        <ele>2358.8</ele>
        <time>2024-07-10T13:57:43Z</time>
      </trkpt>
      <trkpt lat="42.625" lon="1.74944">
        <ele>2359.6</ele>
        <time>2024-07-10T13:57:49Z</time>
      </trkpt>
      <trkpt lat="42.62498" lon="1.74942">
        <ele>2358.6</ele>
        <time>2024-07-10T13:57:56Z</time>
      </trkpt>
      <trkpt lat="42.62496" lon="1.74938">
        <ele>2358</ele>
        <time>2024-07-10T13:58:04Z</time>
      </trkpt>
      <trkpt lat="42.62493" lon="1.7494">
        <ele>2356.8</ele>
        <time>2024-07-10T13:58:11Z</time>
      </trkpt>
      <trkpt lat="42.62491" lon="1.74943">
        <ele>2357.2</ele>
        <time>2024-07-10T13:58:19Z</time>
      </trkpt>
      <trkpt lat="42.62489" lon="1.74944">
        <ele>2356.2</ele>
        <time>2024-07-10T13:58:25Z</time>
      </trkpt>
      <trkpt lat="42.62486" lon="1.74943">
        <ele>2356</ele>
        <time>2024-07-10T13:58:32Z</time>
      </trkpt>
      <trkpt lat="42.62485" lon="1.74945">
        <ele>2355.6</ele>
        <time>2024-07-10T13:58:39Z</time>
      </trkpt>
      <trkpt lat="42.62484" lon="1.74944">
        <ele>2356.4</ele>
        <time>2024-07-10T13:58:49Z</time>
      </trkpt>
      <trkpt lat="42.62477" lon="1.74944">
        <ele>2356.6</ele>
        <time>2024-07-10T13:59:01Z</time>
      </trkpt>
      <trkpt lat="42.6247" lon="1.74946">
        <ele>2352.2</ele>
        <time>2024-07-10T13:59:10Z</time>
      </trkpt>
      <trkpt lat="42.62465" lon="1.74948">
        <ele>2349.2</ele>
        <time>2024-07-10T13:59:17Z</time>
      </trkpt>
      <trkpt lat="42.62463" lon="1.74951">
        <ele>2348.6</ele>
        <time>2024-07-10T13:59:23Z</time>
      </trkpt>
      <trkpt lat="42.62463" lon="1.74951">
        <ele>2349.4</ele>
        <time>2024-07-10T13:59:33Z</time>
      </trkpt>
      <trkpt lat="42.62458" lon="1.74949">
        <ele>2348.2</ele>
        <time>2024-07-10T14:00:02Z</time>
      </trkpt>
      <trkpt lat="42.62453" lon="1.74949">
        <ele>2345.8</ele>
        <time>2024-07-10T14:00:09Z</time>
      </trkpt>
      <trkpt lat="42.62451" lon="1.74952">
        <ele>2344</ele>
        <time>2024-07-10T14:00:16Z</time>
      </trkpt>
      <trkpt lat="42.6245" lon="1.74957">
        <ele>2342.6</ele>
        <time>2024-07-10T14:00:22Z</time>
      </trkpt>
      <trkpt lat="42.62446" lon="1.74954">
        <ele>2340.8</ele>
        <time>2024-07-10T14:00:30Z</time>
      </trkpt>
      <trkpt lat="42.62442" lon="1.74953">
        <ele>2339</ele>
        <time>2024-07-10T14:00:38Z</time>
      </trkpt>
      <trkpt lat="42.62443" lon="1.74959">
        <ele>2336</ele>
        <time>2024-07-10T14:00:46Z</time>
      </trkpt>
      <trkpt lat="42.62439" lon="1.7496">
        <ele>2334.4</ele>
        <time>2024-07-10T14:00:52Z</time>
      </trkpt>
      <trkpt lat="42.62433" lon="1.74955">
        <ele>2332</ele>
        <time>2024-07-10T14:01:01Z</time>
      </trkpt>
      <trkpt lat="42.62426" lon="1.74955">
        <ele>2331.2</ele>
        <time>2024-07-10T14:01:09Z</time>
      </trkpt>
      <trkpt lat="42.62424" lon="1.74956">
        <ele>2330.2</ele>
        <time>2024-07-10T14:01:16Z</time>
      </trkpt>
      <trkpt lat="42.62424" lon="1.74955">
        <ele>2330</ele>
        <time>2024-07-10T14:01:24Z</time>
      </trkpt>
      <trkpt lat="42.62418" lon="1.74959">
        <ele>2330</ele>
        <time>2024-07-10T14:01:33Z</time>
      </trkpt>
      <trkpt lat="42.62412" lon="1.74961">
        <ele>2328.6</ele>
        <time>2024-07-10T14:01:40Z</time>
      </trkpt>
      <trkpt lat="42.62412" lon="1.74966">
        <ele>2326.8</ele>
        <time>2024-07-10T14:01:46Z</time>
      </trkpt>
      <trkpt lat="42.62409" lon="1.7497">
        <ele>2325.4</ele>
        <time>2024-07-10T14:01:52Z</time>
      </trkpt>
      <trkpt lat="42.62405" lon="1.74972">
        <ele>2321.6</ele>
        <time>2024-07-10T14:01:59Z</time>
      </trkpt>
      <trkpt lat="42.62402" lon="1.7497">
        <ele>2319</ele>
        <time>2024-07-10T14:02:08Z</time>
      </trkpt>
      <trkpt lat="42.62402" lon="1.7497">
        <ele>2318.6</ele>
        <time>2024-07-10T14:02:19Z</time>
      </trkpt>
      <trkpt lat="42.62395" lon="1.74967">
        <ele>2318.6</ele>
        <time>2024-07-10T14:03:17Z</time>
      </trkpt>
      <trkpt lat="42.62387" lon="1.74967">
        <ele>2316.4</ele>
        <time>2024-07-10T14:03:25Z</time>
      </trkpt>
      <trkpt lat="42.62385" lon="1.74969">
        <ele>2314.8</ele>
        <time>2024-07-10T14:03:30Z</time>
      </trkpt>
      <trkpt lat="42.62384" lon="1.74971">
        <ele>2313</ele>
        <time>2024-07-10T14:03:37Z</time>
      </trkpt>
      <trkpt lat="42.62382" lon="1.74979">
        <ele>2314.2</ele>
        <time>2024-07-10T14:04:44Z</time>
      </trkpt>
      <trkpt lat="42.62381" lon="1.74982">
        <ele>2313.6</ele>
        <time>2024-07-10T14:04:46Z</time>
      </trkpt>
      <trkpt lat="42.62379" lon="1.74989">
        <ele>2311.4</ele>
        <time>2024-07-10T14:04:51Z</time>
      </trkpt>
      <trkpt lat="42.62376" lon="1.74993">
        <ele>2308.2</ele>
        <time>2024-07-10T14:04:58Z</time>
      </trkpt>
      <trkpt lat="42.62377" lon="1.74996">
        <ele>2307</ele>
        <time>2024-07-10T14:05:01Z</time>
      </trkpt>
      <trkpt lat="42.62377" lon="1.74999">
        <ele>2306</ele>
        <time>2024-07-10T14:05:04Z</time>
      </trkpt>
      <trkpt lat="42.62379" lon="1.75006">
        <ele>2304.6</ele>
        <time>2024-07-10T14:05:11Z</time>
      </trkpt>
      <trkpt lat="42.62375" lon="1.7501">
        <ele>2304.2</ele>
        <time>2024-07-10T14:05:15Z</time>
      </trkpt>
      <trkpt lat="42.62372" lon="1.75011">
        <ele>2304</ele>
        <time>2024-07-10T14:05:19Z</time>
      </trkpt>
      <trkpt lat="42.62367" lon="1.7501">
        <ele>2302.8</ele>
        <time>2024-07-10T14:05:26Z</time>
      </trkpt>
      <trkpt lat="42.62364" lon="1.75015">
        <ele>2300.8</ele>
        <time>2024-07-10T14:05:33Z</time>
      </trkpt>
      <trkpt lat="42.62363" lon="1.75017">
        <ele>2298.4</ele>
        <time>2024-07-10T14:05:40Z</time>
      </trkpt>
      <trkpt lat="42.6236" lon="1.75015">
        <ele>2298</ele>
        <time>2024-07-10T14:05:48Z</time>
      </trkpt>
      <trkpt lat="42.62358" lon="1.75014">
        <ele>2296.6</ele>
        <time>2024-07-10T14:05:56Z</time>
      </trkpt>
      <trkpt lat="42.62356" lon="1.75012">
        <ele>2295.8</ele>
        <time>2024-07-10T14:06:04Z</time>
      </trkpt>
      <trkpt lat="42.62355" lon="1.75012">
        <ele>2295.2</ele>
        <time>2024-07-10T14:06:10Z</time>
      </trkpt>
      <trkpt lat="42.62351" lon="1.75012">
        <ele>2294.6</ele>
        <time>2024-07-10T14:06:17Z</time>
      </trkpt>
      <trkpt lat="42.62348" lon="1.7501">
        <ele>2295.2</ele>
        <time>2024-07-10T14:06:23Z</time>
      </trkpt>
      <trkpt lat="42.62347" lon="1.7501">
        <ele>2294.6</ele>
        <time>2024-07-10T14:06:29Z</time>
      </trkpt>
      <trkpt lat="42.62348" lon="1.75009">
        <ele>2294.4</ele>
        <time>2024-07-10T14:06:36Z</time>
      </trkpt>
      <trkpt lat="42.62351" lon="1.75011">
        <ele>2295</ele>
        <time>2024-07-10T14:06:43Z</time>
      </trkpt>
      <trkpt lat="42.62355" lon="1.75019">
        <ele>2293.4</ele>
        <time>2024-07-10T14:06:54Z</time>
      </trkpt>
      <trkpt lat="42.62355" lon="1.75022">
        <ele>2292.4</ele>
        <time>2024-07-10T14:07:00Z</time>
      </trkpt>
      <trkpt lat="42.62357" lon="1.75026">
        <ele>2291</ele>
        <time>2024-07-10T14:07:07Z</time>
      </trkpt>
      <trkpt lat="42.62357" lon="1.75028">
        <ele>2290.4</ele>
        <time>2024-07-10T14:07:13Z</time>
      </trkpt>
      <trkpt lat="42.6236" lon="1.75034">
        <ele>2289.8</ele>
        <time>2024-07-10T14:07:20Z</time>
      </trkpt>
      <trkpt lat="42.62363" lon="1.75041">
        <ele>2288.4</ele>
        <time>2024-07-10T14:07:28Z</time>
      </trkpt>
      <trkpt lat="42.62365" lon="1.75051">
        <ele>2286.2</ele>
        <time>2024-07-10T14:07:37Z</time>
      </trkpt>
      <trkpt lat="42.62366" lon="1.7506">
        <ele>2283.4</ele>
        <time>2024-07-10T14:07:46Z</time>
      </trkpt>
      <trkpt lat="42.62367" lon="1.75066">
        <ele>2280.6</ele>
        <time>2024-07-10T14:07:54Z</time>
      </trkpt>
      <trkpt lat="42.62372" lon="1.75072">
        <ele>2277.4</ele>
        <time>2024-07-10T14:08:03Z</time>
      </trkpt>
      <trkpt lat="42.62372" lon="1.75076">
        <ele>2274.8</ele>
        <time>2024-07-10T14:08:10Z</time>
      </trkpt>
      <trkpt lat="42.62375" lon="1.75078">
        <ele>2273.4</ele>
        <time>2024-07-10T14:08:18Z</time>
      </trkpt>
      <trkpt lat="42.62378" lon="1.75083">
        <ele>2272.4</ele>
        <time>2024-07-10T14:08:25Z</time>
      </trkpt>
      <trkpt lat="42.62375" lon="1.75091">
        <ele>2270.6</ele>
        <time>2024-07-10T14:08:33Z</time>
      </trkpt>
      <trkpt lat="42.6237" lon="1.75101">
        <ele>2266.8</ele>
        <time>2024-07-10T14:08:44Z</time>
      </trkpt>
      <trkpt lat="42.62368" lon="1.75108">
        <ele>2263.8</ele>
        <time>2024-07-10T14:08:53Z</time>
      </trkpt>
      <trkpt lat="42.62364" lon="1.75111">
        <ele>2261.6</ele>
        <time>2024-07-10T14:09:02Z</time>
      </trkpt>
      <trkpt lat="42.6236" lon="1.75113">
        <ele>2259.2</ele>
        <time>2024-07-10T14:09:10Z</time>
      </trkpt>
      <trkpt lat="42.62361" lon="1.75113">
        <ele>2258.4</ele>
        <time>2024-07-10T14:09:21Z</time>
      </trkpt>
      <trkpt lat="42.62353" lon="1.75119">
        <ele>2257.2</ele>
        <time>2024-07-10T14:09:52Z</time>
      </trkpt>
      <trkpt lat="42.62352" lon="1.7512">
        <ele>2256.6</ele>
        <time>2024-07-10T14:09:53Z</time>
      </trkpt>
      <trkpt lat="42.6235" lon="1.75122">
        <ele>2255.4</ele>
        <time>2024-07-10T14:09:55Z</time>
      </trkpt>
      <trkpt lat="42.62347" lon="1.75123">
        <ele>2253.8</ele>
        <time>2024-07-10T14:09:58Z</time>
      </trkpt>
      <trkpt lat="42.62345" lon="1.75125">
        <ele>2252.2</ele>
        <time>2024-07-10T14:10:02Z</time>
      </trkpt>
      <trkpt lat="42.62342" lon="1.75129">
        <ele>2250.4</ele>
        <time>2024-07-10T14:10:09Z</time>
      </trkpt>
      <trkpt lat="42.62339" lon="1.75132">
        <ele>2248</ele>
        <time>2024-07-10T14:10:16Z</time>
      </trkpt>
      <trkpt lat="42.62333" lon="1.75139">
        <ele>2243.8</ele>
        <time>2024-07-10T14:10:30Z</time>
      </trkpt>
      <trkpt lat="42.6233" lon="1.75144">
        <ele>2241.2</ele>
        <time>2024-07-10T14:10:38Z</time>
      </trkpt>
      <trkpt lat="42.62325" lon="1.75148">
        <ele>2239</ele>
        <time>2024-07-10T14:10:45Z</time>
      </trkpt>
      <trkpt lat="42.6232" lon="1.75147">
        <ele>2238.4</ele>
        <time>2024-07-10T14:10:50Z</time>
      </trkpt>
      <trkpt lat="42.62318" lon="1.75152">
        <ele>2239</ele>
        <time>2024-07-10T14:10:56Z</time>
      </trkpt>
      <trkpt lat="42.62315" lon="1.75159">
        <ele>2238</ele>
        <time>2024-07-10T14:11:02Z</time>
      </trkpt>
      <trkpt lat="42.62316" lon="1.75169">
        <ele>2235.4</ele>
        <time>2024-07-10T14:11:09Z</time>
      </trkpt>
      <trkpt lat="42.62316" lon="1.75169">
        <ele>2235.2</ele>
        <time>2024-07-10T14:11:10Z</time>
      </trkpt>
      <trkpt lat="42.62321" lon="1.75173">
        <ele>2234.2</ele>
        <time>2024-07-10T14:11:35Z</time>
      </trkpt>
      <trkpt lat="42.62325" lon="1.75181">
        <ele>2233.6</ele>
        <time>2024-07-10T14:11:41Z</time>
      </trkpt>
      <trkpt lat="42.62328" lon="1.75188">
        <ele>2230.6</ele>
        <time>2024-07-10T14:11:49Z</time>
      </trkpt>
      <trkpt lat="42.62329" lon="1.75192">
        <ele>2228.8</ele>
        <time>2024-07-10T14:11:52Z</time>
      </trkpt>
      <trkpt lat="42.62329" lon="1.75195">
        <ele>2228</ele>
        <time>2024-07-10T14:11:55Z</time>
      </trkpt>
      <trkpt lat="42.62329" lon="1.75194">
        <ele>2228.2</ele>
        <time>2024-07-10T14:12:05Z</time>
      </trkpt>
      <trkpt lat="42.62328" lon="1.75191">
        <ele>2228.4</ele>
        <time>2024-07-10T14:13:27Z</time>
      </trkpt>
      <trkpt lat="42.62334" lon="1.75182">
        <ele>2233.6</ele>
        <time>2024-07-10T14:48:06Z</time>
      </trkpt>
      <trkpt lat="42.62335" lon="1.75174">
        <ele>2233.8</ele>
        <time>2024-07-10T14:48:11Z</time>
      </trkpt>
      <trkpt lat="42.62338" lon="1.75181">
        <ele>2233.6</ele>
        <time>2024-07-10T14:48:19Z</time>
      </trkpt>
      <trkpt lat="42.62341" lon="1.75186">
        <ele>2233.2</ele>
        <time>2024-07-10T14:48:26Z</time>
      </trkpt>
      <trkpt lat="42.62344" lon="1.75188">
        <ele>2232.8</ele>
        <time>2024-07-10T14:48:31Z</time>
      </trkpt>
      <trkpt lat="42.62346" lon="1.75194">
        <ele>2232.6</ele>
        <time>2024-07-10T14:48:37Z</time>
      </trkpt>
      <trkpt lat="42.6235" lon="1.75203">
        <ele>2232.2</ele>
        <time>2024-07-10T14:48:47Z</time>
      </trkpt>
      <trkpt lat="42.62352" lon="1.7521">
        <ele>2231.8</ele>
        <time>2024-07-10T14:48:53Z</time>
      </trkpt>
      <trkpt lat="42.62354" lon="1.75216">
        <ele>2231.8</ele>
        <time>2024-07-10T14:48:59Z</time>
      </trkpt>
      <trkpt lat="42.62354" lon="1.75222">
        <ele>2232</ele>
        <time>2024-07-10T14:49:06Z</time>
      </trkpt>
      <trkpt lat="42.62354" lon="1.75227">
        <ele>2233.4</ele>
        <time>2024-07-10T14:49:13Z</time>
      </trkpt>
      <trkpt lat="42.62355" lon="1.75233">
        <ele>2234.6</ele>
        <time>2024-07-10T14:49:19Z</time>
      </trkpt>
      <trkpt lat="42.62356" lon="1.75238">
        <ele>2235</ele>
        <time>2024-07-10T14:49:25Z</time>
      </trkpt>
      <trkpt lat="42.6236" lon="1.75245">
        <ele>2234.8</ele>
        <time>2024-07-10T14:49:33Z</time>
      </trkpt>
      <trkpt lat="42.62361" lon="1.75252">
        <ele>2234</ele>
        <time>2024-07-10T14:49:41Z</time>
      </trkpt>
      <trkpt lat="42.62361" lon="1.75258">
        <ele>2233.8</ele>
        <time>2024-07-10T14:49:48Z</time>
      </trkpt>
      <trkpt lat="42.62358" lon="1.75266">
        <ele>2235.4</ele>
        <time>2024-07-10T14:49:56Z</time>
      </trkpt>
      <trkpt lat="42.62357" lon="1.75272">
        <ele>2234.8</ele>
        <time>2024-07-10T14:50:02Z</time>
      </trkpt>
      <trkpt lat="42.62357" lon="1.75273">
        <ele>2234.6</ele>
        <time>2024-07-10T14:50:03Z</time>
      </trkpt>
      <trkpt lat="42.62357" lon="1.75275">
        <ele>2234.2</ele>
        <time>2024-07-10T14:50:04Z</time>
      </trkpt>
      <trkpt lat="42.62357" lon="1.7528">
        <ele>2233.6</ele>
        <time>2024-07-10T14:50:08Z</time>
      </trkpt>
      <trkpt lat="42.62359" lon="1.75287">
        <ele>2233.2</ele>
        <time>2024-07-10T14:50:15Z</time>
      </trkpt>
      <trkpt lat="42.62359" lon="1.75289">
        <ele>2233.2</ele>
        <time>2024-07-10T14:50:16Z</time>
      </trkpt>
      <trkpt lat="42.62365" lon="1.75301">
        <ele>2234.6</ele>
        <time>2024-07-10T14:50:26Z</time>
      </trkpt>
      <trkpt lat="42.62366" lon="1.75312">
        <ele>2234.8</ele>
        <time>2024-07-10T14:50:33Z</time>
      </trkpt>
      <trkpt lat="42.62367" lon="1.75313">
        <ele>2234.8</ele>
        <time>2024-07-10T14:50:34Z</time>
      </trkpt>
      <trkpt lat="42.6237" lon="1.75322">
        <ele>2233.6</ele>
        <time>2024-07-10T14:50:41Z</time>
      </trkpt>
      <trkpt lat="42.62371" lon="1.75335">
        <ele>2233.4</ele>
        <time>2024-07-10T14:50:49Z</time>
      </trkpt>
      <trkpt lat="42.62374" lon="1.75346">
        <ele>2231.4</ele>
        <time>2024-07-10T14:50:57Z</time>
      </trkpt>
      <trkpt lat="42.62375" lon="1.75348">
        <ele>2231.2</ele>
        <time>2024-07-10T14:50:58Z</time>
      </trkpt>
      <trkpt lat="42.62377" lon="1.75356">
        <ele>2230.4</ele>
        <time>2024-07-10T14:51:05Z</time>
      </trkpt>
      <trkpt lat="42.62378" lon="1.75358">
        <ele>2229.6</ele>
        <time>2024-07-10T14:51:07Z</time>
      </trkpt>
      <trkpt lat="42.62381" lon="1.75361">
        <ele>2228.8</ele>
        <time>2024-07-10T14:51:11Z</time>
      </trkpt>
      <trkpt lat="42.62383" lon="1.7537">
        <ele>2227.8</ele>
        <time>2024-07-10T14:51:18Z</time>
      </trkpt>
      <trkpt lat="42.62384" lon="1.75371">
        <ele>2227.6</ele>
        <time>2024-07-10T14:51:19Z</time>
      </trkpt>
      <trkpt lat="42.62386" lon="1.75374">
        <ele>2227.2</ele>
        <time>2024-07-10T14:51:23Z</time>
      </trkpt>
      <trkpt lat="42.62387" lon="1.75376">
        <ele>2227.6</ele>
        <time>2024-07-10T14:51:26Z</time>
      </trkpt>
      <trkpt lat="42.62386" lon="1.75382">
        <ele>2229.2</ele>
        <time>2024-07-10T14:51:33Z</time>
      </trkpt>
      <trkpt lat="42.62387" lon="1.75388">
        <ele>2228.8</ele>
        <time>2024-07-10T14:51:40Z</time>
      </trkpt>
      <trkpt lat="42.62385" lon="1.75396">
        <ele>2228.2</ele>
        <time>2024-07-10T14:51:48Z</time>
      </trkpt>
      <trkpt lat="42.62385" lon="1.754">
        <ele>2226</ele>
        <time>2024-07-10T14:51:55Z</time>
      </trkpt>
      <trkpt lat="42.62385" lon="1.75407">
        <ele>2225.8</ele>
        <time>2024-07-10T14:52:05Z</time>
      </trkpt>
      <trkpt lat="42.62387" lon="1.75414">
        <ele>2226</ele>
        <time>2024-07-10T14:52:13Z</time>
      </trkpt>
      <trkpt lat="42.62391" lon="1.75419">
        <ele>2228.2</ele>
        <time>2024-07-10T14:52:20Z</time>
      </trkpt>
      <trkpt lat="42.62393" lon="1.75425">
        <ele>2230.8</ele>
        <time>2024-07-10T14:52:26Z</time>
      </trkpt>
      <trkpt lat="42.62394" lon="1.75433">
        <ele>2232.6</ele>
        <time>2024-07-10T14:52:33Z</time>
      </trkpt>
      <trkpt lat="42.62394" lon="1.75437">
        <ele>2232.2</ele>
        <time>2024-07-10T14:52:36Z</time>
      </trkpt>
      <trkpt lat="42.62394" lon="1.7545">
        <ele>2232.6</ele>
        <time>2024-07-10T14:52:46Z</time>
      </trkpt>
      <trkpt lat="42.62394" lon="1.7546">
        <ele>2233</ele>
        <time>2024-07-10T14:52:54Z</time>
      </trkpt>
      <trkpt lat="42.62393" lon="1.75466">
        <ele>2232.2</ele>
        <time>2024-07-10T14:53:01Z</time>
      </trkpt>
      <trkpt lat="42.62392" lon="1.75469">
        <ele>2232</ele>
        <time>2024-07-10T14:53:03Z</time>
      </trkpt>
      <trkpt lat="42.6239" lon="1.75473">
        <ele>2231.4</ele>
        <time>2024-07-10T14:53:07Z</time>
      </trkpt>
      <trkpt lat="42.62391" lon="1.75474">
        <ele>2231.2</ele>
        <time>2024-07-10T14:53:09Z</time>
      </trkpt>
      <trkpt lat="42.6239" lon="1.75476">
        <ele>2231.6</ele>
        <time>2024-07-10T14:53:11Z</time>
      </trkpt>
      <trkpt lat="42.62391" lon="1.75476">
        <ele>2231.8</ele>
        <time>2024-07-10T14:53:17Z</time>
      </trkpt>
      <trkpt lat="42.6239" lon="1.75478">
        <ele>2231.4</ele>
        <time>2024-07-10T14:53:23Z</time>
      </trkpt>
      <trkpt lat="42.62389" lon="1.75484">
        <ele>2232</ele>
        <time>2024-07-10T14:53:28Z</time>
      </trkpt>
      <trkpt lat="42.62386" lon="1.75494">
        <ele>2234.8</ele>
        <time>2024-07-10T14:53:36Z</time>
      </trkpt>
      <trkpt lat="42.62384" lon="1.75503">
        <ele>2237.4</ele>
        <time>2024-07-10T14:53:44Z</time>
      </trkpt>
      <trkpt lat="42.62386" lon="1.75506">
        <ele>2240.4</ele>
        <time>2024-07-10T14:53:51Z</time>
      </trkpt>
      <trkpt lat="42.62387" lon="1.75509">
        <ele>2243.2</ele>
        <time>2024-07-10T14:53:58Z</time>
      </trkpt>
      <trkpt lat="42.62383" lon="1.75519">
        <ele>2243</ele>
        <time>2024-07-10T14:54:07Z</time>
      </trkpt>
      <trkpt lat="42.62377" lon="1.75525">
        <ele>2239.6</ele>
        <time>2024-07-10T14:54:13Z</time>
      </trkpt>
      <trkpt lat="42.62371" lon="1.75533">
        <ele>2239.2</ele>
        <time>2024-07-10T14:54:21Z</time>
      </trkpt>
      <trkpt lat="42.62369" lon="1.75539">
        <ele>2240.8</ele>
        <time>2024-07-10T14:54:29Z</time>
      </trkpt>
      <trkpt lat="42.62369" lon="1.75545">
        <ele>2241.4</ele>
        <time>2024-07-10T14:54:35Z</time>
      </trkpt>
      <trkpt lat="42.62367" lon="1.75553">
        <ele>2241.6</ele>
        <time>2024-07-10T14:54:42Z</time>
      </trkpt>
      <trkpt lat="42.62365" lon="1.7556">
        <ele>2242.4</ele>
        <time>2024-07-10T14:54:50Z</time>
      </trkpt>
      <trkpt lat="42.62363" lon="1.75566">
        <ele>2244.4</ele>
        <time>2024-07-10T14:54:58Z</time>
      </trkpt>
      <trkpt lat="42.62359" lon="1.75575">
        <ele>2245.6</ele>
        <time>2024-07-10T14:55:06Z</time>
      </trkpt>
      <trkpt lat="42.62355" lon="1.75581">
        <ele>2244.6</ele>
        <time>2024-07-10T14:55:14Z</time>
      </trkpt>
      <trkpt lat="42.62354" lon="1.75583">
        <ele>2245</ele>
        <time>2024-07-10T14:55:21Z</time>
      </trkpt>
      <trkpt lat="42.62353" lon="1.75585">
        <ele>2244.6</ele>
        <time>2024-07-10T14:55:28Z</time>
      </trkpt>
      <trkpt lat="42.62351" lon="1.75589">
        <ele>2244.2</ele>
        <time>2024-07-10T14:55:35Z</time>
      </trkpt>
      <trkpt lat="42.62348" lon="1.75591">
        <ele>2244</ele>
        <time>2024-07-10T14:55:40Z</time>
      </trkpt>
      <trkpt lat="42.62345" lon="1.75594">
        <ele>2243.2</ele>
        <time>2024-07-10T14:55:47Z</time>
      </trkpt>
      <trkpt lat="42.62343" lon="1.756">
        <ele>2242.6</ele>
        <time>2024-07-10T14:55:53Z</time>
      </trkpt>
      <trkpt lat="42.62341" lon="1.75609">
        <ele>2241</ele>
        <time>2024-07-10T14:56:01Z</time>
      </trkpt>
      <trkpt lat="42.62338" lon="1.75617">
        <ele>2240.6</ele>
        <time>2024-07-10T14:56:10Z</time>
      </trkpt>
      <trkpt lat="42.62336" lon="1.75622">
        <ele>2239.4</ele>
        <time>2024-07-10T14:56:17Z</time>
      </trkpt>
      <trkpt lat="42.62335" lon="1.75631">
        <ele>2238</ele>
        <time>2024-07-10T14:56:24Z</time>
      </trkpt>
      <trkpt lat="42.62333" lon="1.7564">
        <ele>2236.4</ele>
        <time>2024-07-10T14:56:32Z</time>
      </trkpt>
      <trkpt lat="42.62332" lon="1.75647">
        <ele>2234.8</ele>
        <time>2024-07-10T14:56:40Z</time>
      </trkpt>
      <trkpt lat="42.62328" lon="1.75656">
        <ele>2234.6</ele>
        <time>2024-07-10T14:56:49Z</time>
      </trkpt>
      <trkpt lat="42.62324" lon="1.75663">
        <ele>2235.4</ele>
        <time>2024-07-10T14:56:57Z</time>
      </trkpt>
      <trkpt lat="42.62321" lon="1.75668">
        <ele>2235.8</ele>
        <time>2024-07-10T14:57:04Z</time>
      </trkpt>
      <trkpt lat="42.62317" lon="1.75675">
        <ele>2235.4</ele>
        <time>2024-07-10T14:57:13Z</time>
      </trkpt>
      <trkpt lat="42.62316" lon="1.75683">
        <ele>2234.4</ele>
        <time>2024-07-10T14:57:20Z</time>
      </trkpt>
      <trkpt lat="42.62318" lon="1.75697">
        <ele>2231.6</ele>
        <time>2024-07-10T14:57:30Z</time>
      </trkpt>
      <trkpt lat="42.62316" lon="1.75703">
        <ele>2232.4</ele>
        <time>2024-07-10T14:57:39Z</time>
      </trkpt>
      <trkpt lat="42.62314" lon="1.7571">
        <ele>2232.4</ele>
        <time>2024-07-10T14:57:46Z</time>
      </trkpt>
      <trkpt lat="42.62314" lon="1.75712">
        <ele>2232.4</ele>
        <time>2024-07-10T14:57:47Z</time>
      </trkpt>
      <trkpt lat="42.62312" lon="1.75718">
        <ele>2231.8</ele>
        <time>2024-07-10T14:57:52Z</time>
      </trkpt>
      <trkpt lat="42.62312" lon="1.75722">
        <ele>2231.8</ele>
        <time>2024-07-10T14:57:58Z</time>
      </trkpt>
      <trkpt lat="42.6231" lon="1.75729">
        <ele>2232.4</ele>
        <time>2024-07-10T14:58:04Z</time>
      </trkpt>
      <trkpt lat="42.62308" lon="1.75737">
        <ele>2230.4</ele>
        <time>2024-07-10T14:58:11Z</time>
      </trkpt>
      <trkpt lat="42.62305" lon="1.75745">
        <ele>2229</ele>
        <time>2024-07-10T14:58:19Z</time>
      </trkpt>
      <trkpt lat="42.62302" lon="1.75757">
        <ele>2227.2</ele>
        <time>2024-07-10T14:58:29Z</time>
      </trkpt>
      <trkpt lat="42.62298" lon="1.75767">
        <ele>2228.8</ele>
        <time>2024-07-10T14:58:39Z</time>
      </trkpt>
      <trkpt lat="42.62294" lon="1.75774">
        <ele>2228.6</ele>
        <time>2024-07-10T14:58:45Z</time>
      </trkpt>
      <trkpt lat="42.62293" lon="1.75775">
        <ele>2228.6</ele>
        <time>2024-07-10T14:58:46Z</time>
      </trkpt>
      <trkpt lat="42.62285" lon="1.75783">
        <ele>2229</ele>
        <time>2024-07-10T14:58:55Z</time>
      </trkpt>
      <trkpt lat="42.6228" lon="1.7579">
        <ele>2229</ele>
        <time>2024-07-10T14:59:02Z</time>
      </trkpt>
      <trkpt lat="42.62277" lon="1.75797">
        <ele>2227.4</ele>
        <time>2024-07-10T14:59:10Z</time>
      </trkpt>
      <trkpt lat="42.62271" lon="1.75806">
        <ele>2227.2</ele>
        <time>2024-07-10T14:59:18Z</time>
      </trkpt>
      <trkpt lat="42.62266" lon="1.75817">
        <ele>2229.8</ele>
        <time>2024-07-10T14:59:28Z</time>
      </trkpt>
      <trkpt lat="42.62266" lon="1.7582">
        <ele>2230.2</ele>
        <time>2024-07-10T14:59:30Z</time>
      </trkpt>
      <trkpt lat="42.62258" lon="1.75825">
        <ele>2230.8</ele>
        <time>2024-07-10T14:59:35Z</time>
      </trkpt>
      <trkpt lat="42.62257" lon="1.75825">
        <ele>2232.4</ele>
        <time>2024-07-10T14:59:41Z</time>
      </trkpt>
      <trkpt lat="42.62255" lon="1.75824">
        <ele>2236.6</ele>
        <time>2024-07-10T14:59:57Z</time>
      </trkpt>
      <trkpt lat="42.62243" lon="1.75839">
        <ele>2237.2</ele>
        <time>2024-07-10T15:00:07Z</time>
      </trkpt>
      <trkpt lat="42.62238" lon="1.75851">
        <ele>2238</ele>
        <time>2024-07-10T15:00:16Z</time>
      </trkpt>
      <trkpt lat="42.62239" lon="1.75854">
        <ele>2238.2</ele>
        <time>2024-07-10T15:00:19Z</time>
      </trkpt>
      <trkpt lat="42.62236" lon="1.7586">
        <ele>2237.6</ele>
        <time>2024-07-10T15:00:22Z</time>
      </trkpt>
      <trkpt lat="42.62234" lon="1.75867">
        <ele>2234.8</ele>
        <time>2024-07-10T15:00:28Z</time>
      </trkpt>
      <trkpt lat="42.62233" lon="1.75871">
        <ele>2234.6</ele>
        <time>2024-07-10T15:00:30Z</time>
      </trkpt>
      <trkpt lat="42.62231" lon="1.75878">
        <ele>2235.4</ele>
        <time>2024-07-10T15:00:35Z</time>
      </trkpt>
      <trkpt lat="42.6223" lon="1.75881">
        <ele>2235.6</ele>
        <time>2024-07-10T15:00:37Z</time>
      </trkpt>
      <trkpt lat="42.62229" lon="1.75883">
        <ele>2235.6</ele>
        <time>2024-07-10T15:00:38Z</time>
      </trkpt>
      <trkpt lat="42.62229" lon="1.75892">
        <ele>2235.2</ele>
        <time>2024-07-10T15:00:45Z</time>
      </trkpt>
      <trkpt lat="42.62229" lon="1.75894">
        <ele>2235</ele>
        <time>2024-07-10T15:00:46Z</time>
      </trkpt>
      <trkpt lat="42.62227" lon="1.75908">
        <ele>2232.6</ele>
        <time>2024-07-10T15:00:56Z</time>
      </trkpt>
      <trkpt lat="42.62225" lon="1.75922">
        <ele>2231.2</ele>
        <time>2024-07-10T15:01:03Z</time>
      </trkpt>
      <trkpt lat="42.62223" lon="1.75924">
        <ele>2231</ele>
        <time>2024-07-10T15:01:04Z</time>
      </trkpt>
      <trkpt lat="42.62223" lon="1.75926">
        <ele>2230.8</ele>
        <time>2024-07-10T15:01:05Z</time>
      </trkpt>
      <trkpt lat="42.62222" lon="1.75931">
        <ele>2230</ele>
        <time>2024-07-10T15:01:09Z</time>
      </trkpt>
      <trkpt lat="42.62221" lon="1.75933">
        <ele>2229.8</ele>
        <time>2024-07-10T15:01:10Z</time>
      </trkpt>
      <trkpt lat="42.62216" lon="1.75944">
        <ele>2227.2</ele>
        <time>2024-07-10T15:01:18Z</time>
      </trkpt>
      <trkpt lat="42.62209" lon="1.75959">
        <ele>2223.6</ele>
        <time>2024-07-10T15:01:28Z</time>
      </trkpt>
      <trkpt lat="42.62205" lon="1.75971">
        <ele>2225.8</ele>
        <time>2024-07-10T15:01:36Z</time>
      </trkpt>
      <trkpt lat="42.62198" lon="1.75981">
        <ele>2228.6</ele>
        <time>2024-07-10T15:01:43Z</time>
      </trkpt>
      <trkpt lat="42.62191" lon="1.75995">
        <ele>2229.4</ele>
        <time>2024-07-10T15:01:51Z</time>
      </trkpt>
      <trkpt lat="42.62189" lon="1.76004">
        <ele>2230</ele>
        <time>2024-07-10T15:01:57Z</time>
      </trkpt>
      <trkpt lat="42.62189" lon="1.76005">
        <ele>2230.2</ele>
        <time>2024-07-10T15:01:59Z</time>
      </trkpt>
      <trkpt lat="42.62188" lon="1.76007">
        <ele>2230.2</ele>
        <time>2024-07-10T15:02:00Z</time>
      </trkpt>
      <trkpt lat="42.62184" lon="1.76021">
        <ele>2227</ele>
        <time>2024-07-10T15:02:09Z</time>
      </trkpt>
      <trkpt lat="42.62183" lon="1.76022">
        <ele>2227.2</ele>
        <time>2024-07-10T15:02:10Z</time>
      </trkpt>
      <trkpt lat="42.62178" lon="1.76034">
        <ele>2228.6</ele>
        <time>2024-07-10T15:02:19Z</time>
      </trkpt>
      <trkpt lat="42.62173" lon="1.76045">
        <ele>2231.2</ele>
        <time>2024-07-10T15:02:28Z</time>
      </trkpt>
      <trkpt lat="42.62171" lon="1.7606">
        <ele>2233.4</ele>
        <time>2024-07-10T15:02:38Z</time>
      </trkpt>
      <trkpt lat="42.62169" lon="1.7607">
        <ele>2234.2</ele>
        <time>2024-07-10T15:02:47Z</time>
      </trkpt>
      <trkpt lat="42.62166" lon="1.76086">
        <ele>2234.8</ele>
        <time>2024-07-10T15:02:58Z</time>
      </trkpt>
      <trkpt lat="42.62165" lon="1.76099">
        <ele>2236.6</ele>
        <time>2024-07-10T15:03:08Z</time>
      </trkpt>
      <trkpt lat="42.62163" lon="1.76103">
        <ele>2237</ele>
        <time>2024-07-10T15:03:11Z</time>
      </trkpt>
      <trkpt lat="42.6216" lon="1.76106">
        <ele>2237.2</ele>
        <time>2024-07-10T15:03:14Z</time>
      </trkpt>
      <trkpt lat="42.62157" lon="1.76119">
        <ele>2237.4</ele>
        <time>2024-07-10T15:03:22Z</time>
      </trkpt>
      <trkpt lat="42.62154" lon="1.76127">
        <ele>2237</ele>
        <time>2024-07-10T15:03:29Z</time>
      </trkpt>
      <trkpt lat="42.62152" lon="1.76134">
        <ele>2235.6</ele>
        <time>2024-07-10T15:03:35Z</time>
      </trkpt>
      <trkpt lat="42.62151" lon="1.76135">
        <ele>2235.4</ele>
        <time>2024-07-10T15:03:36Z</time>
      </trkpt>
      <trkpt lat="42.62151" lon="1.76139">
        <ele>2235.4</ele>
        <time>2024-07-10T15:03:43Z</time>
      </trkpt>
      <trkpt lat="42.62151" lon="1.76139">
        <ele>2236.8</ele>
        <time>2024-07-10T15:03:54Z</time>
      </trkpt>
      <trkpt lat="42.62142" lon="1.7614">
        <ele>2236.2</ele>
        <time>2024-07-10T15:05:28Z</time>
      </trkpt>
      <trkpt lat="42.62137" lon="1.76142">
        <ele>2235.8</ele>
        <time>2024-07-10T15:05:35Z</time>
      </trkpt>
      <trkpt lat="42.62132" lon="1.76144">
        <ele>2236</ele>
        <time>2024-07-10T15:05:43Z</time>
      </trkpt>
      <trkpt lat="42.62129" lon="1.76149">
        <ele>2236.6</ele>
        <time>2024-07-10T15:05:49Z</time>
      </trkpt>
      <trkpt lat="42.62126" lon="1.76152">
        <ele>2240</ele>
        <time>2024-07-10T15:05:56Z</time>
      </trkpt>
      <trkpt lat="42.62122" lon="1.76156">
        <ele>2241.8</ele>
        <time>2024-07-10T15:06:04Z</time>
      </trkpt>
      <trkpt lat="42.62117" lon="1.76159">
        <ele>2243.4</ele>
        <time>2024-07-10T15:06:11Z</time>
      </trkpt>
      <trkpt lat="42.62111" lon="1.76165">
        <ele>2244.2</ele>
        <time>2024-07-10T15:06:22Z</time>
      </trkpt>
      <trkpt lat="42.62109" lon="1.76165">
        <ele>2244</ele>
        <time>2024-07-10T15:06:26Z</time>
      </trkpt>
      <trkpt lat="42.62107" lon="1.76165">
        <ele>2243.2</ele>
        <time>2024-07-10T15:06:32Z</time>
      </trkpt>
      <trkpt lat="42.62104" lon="1.76167">
        <ele>2243.6</ele>
        <time>2024-07-10T15:06:39Z</time>
      </trkpt>
      <trkpt lat="42.62101" lon="1.76173">
        <ele>2245.6</ele>
        <time>2024-07-10T15:06:50Z</time>
      </trkpt>
      <trkpt lat="42.62096" lon="1.76178">
        <ele>2249</ele>
        <time>2024-07-10T15:07:02Z</time>
      </trkpt>
      <trkpt lat="42.62094" lon="1.76178">
        <ele>2250.8</ele>
        <time>2024-07-10T15:07:08Z</time>
      </trkpt>
      <trkpt lat="42.62091" lon="1.76185">
        <ele>2252</ele>
        <time>2024-07-10T15:07:16Z</time>
      </trkpt>
      <trkpt lat="42.62086" lon="1.76191">
        <ele>2257</ele>
        <time>2024-07-10T15:07:25Z</time>
      </trkpt>
      <trkpt lat="42.62083" lon="1.76192">
        <ele>2259.2</ele>
        <time>2024-07-10T15:07:31Z</time>
      </trkpt>
      <trkpt lat="42.62079" lon="1.76189">
        <ele>2259.4</ele>
        <time>2024-07-10T15:07:38Z</time>
      </trkpt>
      <trkpt lat="42.62077" lon="1.7618">
        <ele>2260.2</ele>
        <time>2024-07-10T15:07:47Z</time>
      </trkpt>
      <trkpt lat="42.62076" lon="1.76177">
        <ele>2259.2</ele>
        <time>2024-07-10T15:07:55Z</time>
      </trkpt>
      <trkpt lat="42.62074" lon="1.7618">
        <ele>2257.2</ele>
        <time>2024-07-10T15:08:04Z</time>
      </trkpt>
      <trkpt lat="42.62072" lon="1.76184">
        <ele>2254.8</ele>
        <time>2024-07-10T15:08:13Z</time>
      </trkpt>
      <trkpt lat="42.62067" lon="1.76188">
        <ele>2253.4</ele>
        <time>2024-07-10T15:08:19Z</time>
      </trkpt>
      <trkpt lat="42.62059" lon="1.76189">
        <ele>2254</ele>
        <time>2024-07-10T15:08:27Z</time>
      </trkpt>
      <trkpt lat="42.62056" lon="1.76191">
        <ele>2254.6</ele>
        <time>2024-07-10T15:08:34Z</time>
      </trkpt>
      <trkpt lat="42.62053" lon="1.76198">
        <ele>2255.2</ele>
        <time>2024-07-10T15:08:41Z</time>
      </trkpt>
      <trkpt lat="42.62049" lon="1.76204">
        <ele>2255</ele>
        <time>2024-07-10T15:08:50Z</time>
      </trkpt>
      <trkpt lat="42.62047" lon="1.76209">
        <ele>2254.2</ele>
        <time>2024-07-10T15:08:57Z</time>
      </trkpt>
      <trkpt lat="42.62047" lon="1.76214">
        <ele>2252.6</ele>
        <time>2024-07-10T15:09:05Z</time>
      </trkpt>
      <trkpt lat="42.62049" lon="1.76217">
        <ele>2250.8</ele>
        <time>2024-07-10T15:09:14Z</time>
      </trkpt>
      <trkpt lat="42.62047" lon="1.76225">
        <ele>2250</ele>
        <time>2024-07-10T15:09:22Z</time>
      </trkpt>
      <trkpt lat="42.62047" lon="1.76232">
        <ele>2248.4</ele>
        <time>2024-07-10T15:09:28Z</time>
      </trkpt>
      <trkpt lat="42.62047" lon="1.76238">
        <ele>2246.4</ele>
        <time>2024-07-10T15:09:33Z</time>
      </trkpt>
      <trkpt lat="42.62042" lon="1.76245">
        <ele>2245</ele>
        <time>2024-07-10T15:09:41Z</time>
      </trkpt>
      <trkpt lat="42.62035" lon="1.76251">
        <ele>2241.8</ele>
        <time>2024-07-10T15:09:49Z</time>
      </trkpt>
      <trkpt lat="42.62035" lon="1.76253">
        <ele>2239.8</ele>
        <time>2024-07-10T15:09:57Z</time>
      </trkpt>
      <trkpt lat="42.62033" lon="1.76256">
        <ele>2239.6</ele>
        <time>2024-07-10T15:10:21Z</time>
      </trkpt>
      <trkpt lat="42.62027" lon="1.76266">
        <ele>2238.4</ele>
        <time>2024-07-10T15:10:31Z</time>
      </trkpt>
      <trkpt lat="42.62022" lon="1.76269">
        <ele>2236.4</ele>
        <time>2024-07-10T15:10:37Z</time>
      </trkpt>
      <trkpt lat="42.62021" lon="1.76271">
        <ele>2235.8</ele>
        <time>2024-07-10T15:10:39Z</time>
      </trkpt>
      <trkpt lat="42.62019" lon="1.76273">
        <ele>2235.2</ele>
        <time>2024-07-10T15:10:43Z</time>
      </trkpt>
      <trkpt lat="42.62014" lon="1.76274">
        <ele>2233</ele>
        <time>2024-07-10T15:10:51Z</time>
      </trkpt>
      <trkpt lat="42.62012" lon="1.76279">
        <ele>2230</ele>
        <time>2024-07-10T15:10:57Z</time>
      </trkpt>
      <trkpt lat="42.62011" lon="1.7628">
        <ele>2229.6</ele>
        <time>2024-07-10T15:10:58Z</time>
      </trkpt>
      <trkpt lat="42.62009" lon="1.76279">
        <ele>2229.2</ele>
        <time>2024-07-10T15:10:59Z</time>
      </trkpt>
      <trkpt lat="42.62007" lon="1.76277">
        <ele>2228</ele>
        <time>2024-07-10T15:11:03Z</time>
      </trkpt>
      <trkpt lat="42.62003" lon="1.76278">
        <ele>2227.6</ele>
        <time>2024-07-10T15:11:10Z</time>
      </trkpt>
      <trkpt lat="42.62" lon="1.76277">
        <ele>2226.8</ele>
        <time>2024-07-10T15:11:16Z</time>
      </trkpt>
      <trkpt lat="42.61996" lon="1.76278">
        <ele>2225.6</ele>
        <time>2024-07-10T15:11:23Z</time>
      </trkpt>
      <trkpt lat="42.6199" lon="1.76275">
        <ele>2223.4</ele>
        <time>2024-07-10T15:11:29Z</time>
      </trkpt>
      <trkpt lat="42.61989" lon="1.76275">
        <ele>2223.2</ele>
        <time>2024-07-10T15:11:30Z</time>
      </trkpt>
      <trkpt lat="42.61983" lon="1.76276">
        <ele>2221.8</ele>
        <time>2024-07-10T15:11:35Z</time>
      </trkpt>
      <trkpt lat="42.6198" lon="1.76278">
        <ele>2221.2</ele>
        <time>2024-07-10T15:11:38Z</time>
      </trkpt>
      <trkpt lat="42.61978" lon="1.76278">
        <ele>2221</ele>
        <time>2024-07-10T15:11:40Z</time>
      </trkpt>
      <trkpt lat="42.61975" lon="1.76281">
        <ele>2221.2</ele>
        <time>2024-07-10T15:11:44Z</time>
      </trkpt>
      <trkpt lat="42.61972" lon="1.76283">
        <ele>2222</ele>
        <time>2024-07-10T15:11:48Z</time>
      </trkpt>
      <trkpt lat="42.61969" lon="1.76286">
        <ele>2222.8</ele>
        <time>2024-07-10T15:11:51Z</time>
      </trkpt>
      <trkpt lat="42.61963" lon="1.7629">
        <ele>2223</ele>
        <time>2024-07-10T15:11:59Z</time>
      </trkpt>
      <trkpt lat="42.6196" lon="1.76292">
        <ele>2222.4</ele>
        <time>2024-07-10T15:12:02Z</time>
      </trkpt>
      <trkpt lat="42.61957" lon="1.76296">
        <ele>2221.4</ele>
        <time>2024-07-10T15:12:06Z</time>
      </trkpt>
      <trkpt lat="42.61952" lon="1.76307">
        <ele>2221.8</ele>
        <time>2024-07-10T15:12:15Z</time>
      </trkpt>
      <trkpt lat="42.61947" lon="1.76317">
        <ele>2221.6</ele>
        <time>2024-07-10T15:12:23Z</time>
      </trkpt>
      <trkpt lat="42.61943" lon="1.76328">
        <ele>2220.8</ele>
        <time>2024-07-10T15:12:31Z</time>
      </trkpt>
      <trkpt lat="42.6194" lon="1.76344">
        <ele>2221</ele>
        <time>2024-07-10T15:12:41Z</time>
      </trkpt>
      <trkpt lat="42.6193" lon="1.76353">
        <ele>2220.6</ele>
        <time>2024-07-10T15:12:51Z</time>
      </trkpt>
      <trkpt lat="42.61921" lon="1.76357">
        <ele>2218.6</ele>
        <time>2024-07-10T15:12:59Z</time>
      </trkpt>
      <trkpt lat="42.61918" lon="1.76359">
        <ele>2218</ele>
        <time>2024-07-10T15:13:02Z</time>
      </trkpt>
      <trkpt lat="42.61916" lon="1.76358">
        <ele>2217.4</ele>
        <time>2024-07-10T15:13:05Z</time>
      </trkpt>
      <trkpt lat="42.61911" lon="1.76361">
        <ele>2216.2</ele>
        <time>2024-07-10T15:13:11Z</time>
      </trkpt>
      <trkpt lat="42.61907" lon="1.76367">
        <ele>2214.6</ele>
        <time>2024-07-10T15:13:20Z</time>
      </trkpt>
      <trkpt lat="42.619" lon="1.76371">
        <ele>2213.2</ele>
        <time>2024-07-10T15:13:29Z</time>
      </trkpt>
      <trkpt lat="42.61894" lon="1.76372">
        <ele>2210.6</ele>
        <time>2024-07-10T15:13:35Z</time>
      </trkpt>
      <trkpt lat="42.61893" lon="1.76372">
        <ele>2210.4</ele>
        <time>2024-07-10T15:13:36Z</time>
      </trkpt>
      <trkpt lat="42.61891" lon="1.76373">
        <ele>2210.2</ele>
        <time>2024-07-10T15:13:38Z</time>
      </trkpt>
      <trkpt lat="42.61889" lon="1.76369">
        <ele>2210.4</ele>
        <time>2024-07-10T15:13:42Z</time>
      </trkpt>
      <trkpt lat="42.61883" lon="1.76362">
        <ele>2211</ele>
        <time>2024-07-10T15:13:51Z</time>
      </trkpt>
      <trkpt lat="42.6188" lon="1.76363">
        <ele>2211.6</ele>
        <time>2024-07-10T15:13:54Z</time>
      </trkpt>
      <trkpt lat="42.61878" lon="1.76364">
        <ele>2212.4</ele>
        <time>2024-07-10T15:13:57Z</time>
      </trkpt>
      <trkpt lat="42.61872" lon="1.76366">
        <ele>2213.2</ele>
        <time>2024-07-10T15:14:04Z</time>
      </trkpt>
      <trkpt lat="42.61863" lon="1.76367">
        <ele>2213.8</ele>
        <time>2024-07-10T15:14:13Z</time>
      </trkpt>
      <trkpt lat="42.61861" lon="1.76365">
        <ele>2214</ele>
        <time>2024-07-10T15:14:16Z</time>
      </trkpt>
      <trkpt lat="42.61858" lon="1.76364">
        <ele>2213.6</ele>
        <time>2024-07-10T15:14:20Z</time>
      </trkpt>
      <trkpt lat="42.61857" lon="1.76363">
        <ele>2213.4</ele>
        <time>2024-07-10T15:14:26Z</time>
      </trkpt>
      <trkpt lat="42.61856" lon="1.76357">
        <ele>2214</ele>
        <time>2024-07-10T15:14:55Z</time>
      </trkpt>
      <trkpt lat="42.61852" lon="1.76351">
        <ele>2214.4</ele>
        <time>2024-07-10T15:15:02Z</time>
      </trkpt>
      <trkpt lat="42.61851" lon="1.76352">
        <ele>2215</ele>
        <time>2024-07-10T15:15:09Z</time>
      </trkpt>
      <trkpt lat="42.6185" lon="1.76352">
        <ele>2216.8</ele>
        <time>2024-07-10T15:15:34Z</time>
      </trkpt>
      <trkpt lat="42.61853" lon="1.76354">
        <ele>2218.8</ele>
        <time>2024-07-10T15:19:30Z</time>
      </trkpt>
      <trkpt lat="42.61857" lon="1.76365">
        <ele>2219.4</ele>
        <time>2024-07-10T15:19:36Z</time>
      </trkpt>
      <trkpt lat="42.61857" lon="1.76368">
        <ele>2219.4</ele>
        <time>2024-07-10T15:19:38Z</time>
      </trkpt>
      <trkpt lat="42.61853" lon="1.76377">
        <ele>2218</ele>
        <time>2024-07-10T15:19:48Z</time>
      </trkpt>
      <trkpt lat="42.61853" lon="1.76377">
        <ele>2218</ele>
        <time>2024-07-10T15:20:02Z</time>
      </trkpt>
      <trkpt lat="42.61849" lon="1.76376">
        <ele>2218</ele>
        <time>2024-07-10T15:20:07Z</time>
      </trkpt>
      <trkpt lat="42.61837" lon="1.76376">
        <ele>2217.2</ele>
        <time>2024-07-10T15:20:16Z</time>
      </trkpt>
      <trkpt lat="42.61831" lon="1.76379">
        <ele>2216</ele>
        <time>2024-07-10T15:20:25Z</time>
      </trkpt>
      <trkpt lat="42.61828" lon="1.7638">
        <ele>2215.6</ele>
        <time>2024-07-10T15:20:33Z</time>
      </trkpt>
      <trkpt lat="42.61823" lon="1.76377">
        <ele>2216.4</ele>
        <time>2024-07-10T15:20:43Z</time>
      </trkpt>
      <trkpt lat="42.61819" lon="1.76373">
        <ele>2217.6</ele>
        <time>2024-07-10T15:20:52Z</time>
      </trkpt>
      <trkpt lat="42.61816" lon="1.76372">
        <ele>2218.4</ele>
        <time>2024-07-10T15:21:00Z</time>
      </trkpt>
      <trkpt lat="42.61809" lon="1.76374">
        <ele>2218.6</ele>
        <time>2024-07-10T15:21:12Z</time>
      </trkpt>
      <trkpt lat="42.61804" lon="1.76377">
        <ele>2220.6</ele>
        <time>2024-07-10T15:21:22Z</time>
      </trkpt>
      <trkpt lat="42.61802" lon="1.76385">
        <ele>2220.8</ele>
        <time>2024-07-10T15:21:31Z</time>
      </trkpt>
      <trkpt lat="42.618" lon="1.76388">
        <ele>2221.4</ele>
        <time>2024-07-10T15:21:37Z</time>
      </trkpt>
      <trkpt lat="42.61796" lon="1.76388">
        <ele>2222.4</ele>
        <time>2024-07-10T15:21:44Z</time>
      </trkpt>
      <trkpt lat="42.61791" lon="1.76387">
        <ele>2224</ele>
        <time>2024-07-10T15:21:54Z</time>
      </trkpt>
      <trkpt lat="42.61786" lon="1.76385">
        <ele>2226.4</ele>
        <time>2024-07-10T15:22:02Z</time>
      </trkpt>
      <trkpt lat="42.61784" lon="1.76388">
        <ele>2227.8</ele>
        <time>2024-07-10T15:22:09Z</time>
      </trkpt>
      <trkpt lat="42.61783" lon="1.76394">
        <ele>2229.8</ele>
        <time>2024-07-10T15:22:18Z</time>
      </trkpt>
      <trkpt lat="42.61781" lon="1.76399">
        <ele>2230.8</ele>
        <time>2024-07-10T15:22:26Z</time>
      </trkpt>
      <trkpt lat="42.61781" lon="1.76405">
        <ele>2231.8</ele>
        <time>2024-07-10T15:22:33Z</time>
      </trkpt>
      <trkpt lat="42.61779" lon="1.76407">
        <ele>2233.6</ele>
        <time>2024-07-10T15:22:39Z</time>
      </trkpt>
      <trkpt lat="42.61779" lon="1.76411">
        <ele>2236.6</ele>
        <time>2024-07-10T15:22:47Z</time>
      </trkpt>
      <trkpt lat="42.61776" lon="1.76414">
        <ele>2239.4</ele>
        <time>2024-07-10T15:22:56Z</time>
      </trkpt>
      <trkpt lat="42.61771" lon="1.76417">
        <ele>2239.8</ele>
        <time>2024-07-10T15:23:04Z</time>
      </trkpt>
      <trkpt lat="42.61765" lon="1.76421">
        <ele>2241.2</ele>
        <time>2024-07-10T15:23:11Z</time>
      </trkpt>
      <trkpt lat="42.61761" lon="1.76426">
        <ele>2243.2</ele>
        <time>2024-07-10T15:23:19Z</time>
      </trkpt>
      <trkpt lat="42.61757" lon="1.76432">
        <ele>2243.6</ele>
        <time>2024-07-10T15:23:26Z</time>
      </trkpt>
      <trkpt lat="42.61754" lon="1.76436">
        <ele>2244.8</ele>
        <time>2024-07-10T15:23:33Z</time>
      </trkpt>
      <trkpt lat="42.61749" lon="1.76442">
        <ele>2245</ele>
        <time>2024-07-10T15:23:41Z</time>
      </trkpt>
      <trkpt lat="42.61745" lon="1.76449">
        <ele>2244.6</ele>
        <time>2024-07-10T15:23:49Z</time>
      </trkpt>
      <trkpt lat="42.61739" lon="1.76453">
        <ele>2245.6</ele>
        <time>2024-07-10T15:23:57Z</time>
      </trkpt>
      <trkpt lat="42.61734" lon="1.76457">
        <ele>2246.6</ele>
        <time>2024-07-10T15:24:05Z</time>
      </trkpt>
      <trkpt lat="42.61729" lon="1.76464">
        <ele>2248.6</ele>
        <time>2024-07-10T15:24:14Z</time>
      </trkpt>
      <trkpt lat="42.61723" lon="1.7647">
        <ele>2249.8</ele>
        <time>2024-07-10T15:24:25Z</time>
      </trkpt>
      <trkpt lat="42.61718" lon="1.76479">
        <ele>2250.8</ele>
        <time>2024-07-10T15:24:34Z</time>
      </trkpt>
      <trkpt lat="42.61713" lon="1.76488">
        <ele>2250.2</ele>
        <time>2024-07-10T15:24:43Z</time>
      </trkpt>
      <trkpt lat="42.61709" lon="1.765">
        <ele>2249.2</ele>
        <time>2024-07-10T15:24:55Z</time>
      </trkpt>
      <trkpt lat="42.61704" lon="1.76506">
        <ele>2249.4</ele>
        <time>2024-07-10T15:25:04Z</time>
      </trkpt>
      <trkpt lat="42.61701" lon="1.76513">
        <ele>2250.6</ele>
        <time>2024-07-10T15:25:12Z</time>
      </trkpt>
      <trkpt lat="42.61699" lon="1.76514">
        <ele>2251.2</ele>
        <time>2024-07-10T15:25:14Z</time>
      </trkpt>
      <trkpt lat="42.61698" lon="1.76516">
        <ele>2252.4</ele>
        <time>2024-07-10T15:25:19Z</time>
      </trkpt>
      <trkpt lat="42.61694" lon="1.76523">
        <ele>2253.4</ele>
        <time>2024-07-10T15:25:56Z</time>
      </trkpt>
      <trkpt lat="42.61688" lon="1.76535">
        <ele>2256.8</ele>
        <time>2024-07-10T15:26:06Z</time>
      </trkpt>
      <trkpt lat="42.61683" lon="1.76541">
        <ele>2258</ele>
        <time>2024-07-10T15:26:15Z</time>
      </trkpt>
      <trkpt lat="42.61681" lon="1.76543">
        <ele>2258.4</ele>
        <time>2024-07-10T15:26:17Z</time>
      </trkpt>
      <trkpt lat="42.61677" lon="1.76543">
        <ele>2259.4</ele>
        <time>2024-07-10T15:26:22Z</time>
      </trkpt>
      <trkpt lat="42.61671" lon="1.76543">
        <ele>2261.4</ele>
        <time>2024-07-10T15:26:31Z</time>
      </trkpt>
      <trkpt lat="42.61665" lon="1.76544">
        <ele>2264.4</ele>
        <time>2024-07-10T15:26:42Z</time>
      </trkpt>
      <trkpt lat="42.6166" lon="1.76549">
        <ele>2268.2</ele>
        <time>2024-07-10T15:26:53Z</time>
      </trkpt>
      <trkpt lat="42.61655" lon="1.76555">
        <ele>2270.2</ele>
        <time>2024-07-10T15:27:04Z</time>
      </trkpt>
      <trkpt lat="42.61652" lon="1.76559">
        <ele>2270.6</ele>
        <time>2024-07-10T15:27:10Z</time>
      </trkpt>
      <trkpt lat="42.61652" lon="1.76561">
        <ele>2270.8</ele>
        <time>2024-07-10T15:27:11Z</time>
      </trkpt>
      <trkpt lat="42.61646" lon="1.76565">
        <ele>2271.8</ele>
        <time>2024-07-10T15:27:17Z</time>
      </trkpt>
      <trkpt lat="42.61637" lon="1.76571">
        <ele>2271.2</ele>
        <time>2024-07-10T15:27:27Z</time>
      </trkpt>
      <trkpt lat="42.61627" lon="1.76578">
        <ele>2270.8</ele>
        <time>2024-07-10T15:27:37Z</time>
      </trkpt>
      <trkpt lat="42.61618" lon="1.76585">
        <ele>2271.2</ele>
        <time>2024-07-10T15:27:47Z</time>
      </trkpt>
      <trkpt lat="42.6161" lon="1.76591">
        <ele>2271.8</ele>
        <time>2024-07-10T15:27:56Z</time>
      </trkpt>
      <trkpt lat="42.61605" lon="1.76594">
        <ele>2272</ele>
        <time>2024-07-10T15:28:01Z</time>
      </trkpt>
      <trkpt lat="42.61602" lon="1.76595">
        <ele>2272</ele>
        <time>2024-07-10T15:28:04Z</time>
      </trkpt>
      <trkpt lat="42.61598" lon="1.76597">
        <ele>2271.8</ele>
        <time>2024-07-10T15:28:08Z</time>
      </trkpt>
      <trkpt lat="42.61596" lon="1.766">
        <ele>2271.6</ele>
        <time>2024-07-10T15:28:11Z</time>
      </trkpt>
      <trkpt lat="42.61595" lon="1.76601">
        <ele>2271.6</ele>
        <time>2024-07-10T15:28:12Z</time>
      </trkpt>
      <trkpt lat="42.61593" lon="1.76603">
        <ele>2270.6</ele>
        <time>2024-07-10T15:28:17Z</time>
      </trkpt>
      <trkpt lat="42.61589" lon="1.76608">
        <ele>2270</ele>
        <time>2024-07-10T15:28:24Z</time>
      </trkpt>
      <trkpt lat="42.61583" lon="1.76619">
        <ele>2269.4</ele>
        <time>2024-07-10T15:28:34Z</time>
      </trkpt>
      <trkpt lat="42.61581" lon="1.7662">
        <ele>2269.6</ele>
        <time>2024-07-10T15:28:40Z</time>
      </trkpt>
      <trkpt lat="42.61576" lon="1.76622">
        <ele>2269.6</ele>
        <time>2024-07-10T15:28:50Z</time>
      </trkpt>
      <trkpt lat="42.61572" lon="1.76628">
        <ele>2268.4</ele>
        <time>2024-07-10T15:28:57Z</time>
      </trkpt>
      <trkpt lat="42.61564" lon="1.76638">
        <ele>2266.6</ele>
        <time>2024-07-10T15:29:06Z</time>
      </trkpt>
      <trkpt lat="42.61558" lon="1.7665">
        <ele>2265</ele>
        <time>2024-07-10T15:29:15Z</time>
      </trkpt>
      <trkpt lat="42.61556" lon="1.76662">
        <ele>2263</ele>
        <time>2024-07-10T15:29:24Z</time>
      </trkpt>
      <trkpt lat="42.61557" lon="1.7667">
        <ele>2261.2</ele>
        <time>2024-07-10T15:29:32Z</time>
      </trkpt>
      <trkpt lat="42.61557" lon="1.76671">
        <ele>2261.2</ele>
        <time>2024-07-10T15:29:39Z</time>
      </trkpt>
      <trkpt lat="42.61557" lon="1.76679">
        <ele>2260.8</ele>
        <time>2024-07-10T15:29:54Z</time>
      </trkpt>
      <trkpt lat="42.61559" lon="1.76693">
        <ele>2259.2</ele>
        <time>2024-07-10T15:30:02Z</time>
      </trkpt>
      <trkpt lat="42.61562" lon="1.76709">
        <ele>2257.2</ele>
        <time>2024-07-10T15:30:12Z</time>
      </trkpt>
      <trkpt lat="42.61563" lon="1.76724">
        <ele>2255.4</ele>
        <time>2024-07-10T15:30:20Z</time>
      </trkpt>
      <trkpt lat="42.61565" lon="1.76738">
        <ele>2253.2</ele>
        <time>2024-07-10T15:30:28Z</time>
      </trkpt>
      <trkpt lat="42.61568" lon="1.76751">
        <ele>2252.6</ele>
        <time>2024-07-10T15:30:36Z</time>
      </trkpt>
      <trkpt lat="42.61572" lon="1.76764">
        <ele>2253.2</ele>
        <time>2024-07-10T15:30:44Z</time>
      </trkpt>
      <trkpt lat="42.61574" lon="1.76778">
        <ele>2254.2</ele>
        <time>2024-07-10T15:30:52Z</time>
      </trkpt>
      <trkpt lat="42.61578" lon="1.76793">
        <ele>2256</ele>
        <time>2024-07-10T15:31:02Z</time>
      </trkpt>
      <trkpt lat="42.61578" lon="1.768">
        <ele>2256.6</ele>
        <time>2024-07-10T15:31:07Z</time>
      </trkpt>
      <trkpt lat="42.61578" lon="1.76802">
        <ele>2256.6</ele>
        <time>2024-07-10T15:31:09Z</time>
      </trkpt>
      <trkpt lat="42.61585" lon="1.76813">
        <ele>2256</ele>
        <time>2024-07-10T15:31:17Z</time>
      </trkpt>
      <trkpt lat="42.61593" lon="1.76828">
        <ele>2254.8</ele>
        <time>2024-07-10T15:31:28Z</time>
      </trkpt>
      <trkpt lat="42.61595" lon="1.76837">
        <ele>2254.2</ele>
        <time>2024-07-10T15:31:33Z</time>
      </trkpt>
      <trkpt lat="42.61594" lon="1.76841">
        <ele>2254</ele>
        <time>2024-07-10T15:31:36Z</time>
      </trkpt>
      <trkpt lat="42.61593" lon="1.76845">
        <ele>2253.4</ele>
        <time>2024-07-10T15:31:39Z</time>
      </trkpt>
      <trkpt lat="42.6159" lon="1.76849">
        <ele>2252.4</ele>
        <time>2024-07-10T15:31:43Z</time>
      </trkpt>
      <trkpt lat="42.61581" lon="1.76857">
        <ele>2251.2</ele>
        <time>2024-07-10T15:31:51Z</time>
      </trkpt>
      <trkpt lat="42.61575" lon="1.76862">
        <ele>2250.8</ele>
        <time>2024-07-10T15:31:57Z</time>
      </trkpt>
      <trkpt lat="42.61574" lon="1.76862">
        <ele>2250.8</ele>
        <time>2024-07-10T15:31:58Z</time>
      </trkpt>
      <trkpt lat="42.61569" lon="1.76865">
        <ele>2250</ele>
        <time>2024-07-10T15:32:04Z</time>
      </trkpt>
      <trkpt lat="42.61568" lon="1.76865">
        <ele>2249.6</ele>
        <time>2024-07-10T15:32:05Z</time>
      </trkpt>
      <trkpt lat="42.61568" lon="1.76866">
        <ele>2248.6</ele>
        <time>2024-07-10T15:32:14Z</time>
      </trkpt>
      <trkpt lat="42.61572" lon="1.76871">
        <ele>2248.6</ele>
        <time>2024-07-10T15:32:24Z</time>
      </trkpt>
      <trkpt lat="42.61576" lon="1.76881">
        <ele>2248</ele>
        <time>2024-07-10T15:32:30Z</time>
      </trkpt>
      <trkpt lat="42.61576" lon="1.76895">
        <ele>2246.8</ele>
        <time>2024-07-10T15:32:40Z</time>
      </trkpt>
      <trkpt lat="42.61577" lon="1.76902">
        <ele>2245.8</ele>
        <time>2024-07-10T15:32:47Z</time>
      </trkpt>
      <trkpt lat="42.61577" lon="1.76902">
        <ele>2244.8</ele>
        <time>2024-07-10T15:32:52Z</time>
      </trkpt>
      <trkpt lat="42.61577" lon="1.76903">
        <ele>2245.4</ele>
        <time>2024-07-10T15:33:01Z</time>
      </trkpt>
      <trkpt lat="42.61576" lon="1.76907">
        <ele>2245</ele>
        <time>2024-07-10T15:33:28Z</time>
      </trkpt>
      <trkpt lat="42.61575" lon="1.76911">
        <ele>2244</ele>
        <time>2024-07-10T15:33:38Z</time>
      </trkpt>
      <trkpt lat="42.61575" lon="1.76916">
        <ele>2243.8</ele>
        <time>2024-07-10T15:34:21Z</time>
      </trkpt>
      <trkpt lat="42.61575" lon="1.76931">
        <ele>2238</ele>
        <time>2024-07-10T15:34:32Z</time>
      </trkpt>
      <trkpt lat="42.61575" lon="1.76938">
        <ele>2236.6</ele>
        <time>2024-07-10T15:34:38Z</time>
      </trkpt>
      <trkpt lat="42.61573" lon="1.76944">
        <ele>2235.8</ele>
        <time>2024-07-10T15:34:44Z</time>
      </trkpt>
      <trkpt lat="42.61567" lon="1.76947">
        <ele>2232</ele>
        <time>2024-07-10T15:34:53Z</time>
      </trkpt>
      <trkpt lat="42.6156" lon="1.7695">
        <ele>2227.4</ele>
        <time>2024-07-10T15:35:01Z</time>
      </trkpt>
      <trkpt lat="42.61554" lon="1.76947">
        <ele>2224.6</ele>
        <time>2024-07-10T15:35:09Z</time>
      </trkpt>
      <trkpt lat="42.61554" lon="1.76934">
        <ele>2222.4</ele>
        <time>2024-07-10T15:35:18Z</time>
      </trkpt>
      <trkpt lat="42.61549" lon="1.76922">
        <ele>2221.6</ele>
        <time>2024-07-10T15:35:27Z</time>
      </trkpt>
      <trkpt lat="42.61545" lon="1.76911">
        <ele>2220.6</ele>
        <time>2024-07-10T15:35:35Z</time>
      </trkpt>
      <trkpt lat="42.61545" lon="1.76898">
        <ele>2220.6</ele>
        <time>2024-07-10T15:35:44Z</time>
      </trkpt>
      <trkpt lat="42.61542" lon="1.7689">
        <ele>2220.6</ele>
        <time>2024-07-10T15:35:51Z</time>
      </trkpt>
      <trkpt lat="42.61541" lon="1.7689">
        <ele>2220.6</ele>
        <time>2024-07-10T15:35:52Z</time>
      </trkpt>
      <trkpt lat="42.61541" lon="1.76889">
        <ele>2221.2</ele>
        <time>2024-07-10T15:35:57Z</time>
      </trkpt>
      <trkpt lat="42.61544" lon="1.76896">
        <ele>2222.8</ele>
        <time>2024-07-10T15:36:47Z</time>
      </trkpt>
      <trkpt lat="42.61545" lon="1.76911">
        <ele>2222.8</ele>
        <time>2024-07-10T15:36:53Z</time>
      </trkpt>
      <trkpt lat="42.61546" lon="1.76923">
        <ele>2222.4</ele>
        <time>2024-07-10T15:37:00Z</time>
      </trkpt>
      <trkpt lat="42.61546" lon="1.76934">
        <ele>2222.6</ele>
        <time>2024-07-10T15:37:06Z</time>
      </trkpt>
      <trkpt lat="42.61544" lon="1.76951">
        <ele>2223</ele>
        <time>2024-07-10T15:37:16Z</time>
      </trkpt>
      <trkpt lat="42.61539" lon="1.76966">
        <ele>2221.6</ele>
        <time>2024-07-10T15:37:25Z</time>
      </trkpt>
      <trkpt lat="42.61533" lon="1.76976">
        <ele>2221.2</ele>
        <time>2024-07-10T15:37:32Z</time>
      </trkpt>
      <trkpt lat="42.61524" lon="1.7699">
        <ele>2220.8</ele>
        <time>2024-07-10T15:37:42Z</time>
      </trkpt>
      <trkpt lat="42.61518" lon="1.77005">
        <ele>2219.6</ele>
        <time>2024-07-10T15:37:52Z</time>
      </trkpt>
      <trkpt lat="42.61512" lon="1.77023">
        <ele>2218.6</ele>
        <time>2024-07-10T15:38:03Z</time>
      </trkpt>
      <trkpt lat="42.61512" lon="1.77038">
        <ele>2219.4</ele>
        <time>2024-07-10T15:38:12Z</time>
      </trkpt>
      <trkpt lat="42.61508" lon="1.77051">
        <ele>2218.4</ele>
        <time>2024-07-10T15:38:20Z</time>
      </trkpt>
      <trkpt lat="42.61503" lon="1.77067">
        <ele>2215.6</ele>
        <time>2024-07-10T15:38:29Z</time>
      </trkpt>
      <trkpt lat="42.61498" lon="1.77077">
        <ele>2215.2</ele>
        <time>2024-07-10T15:38:37Z</time>
      </trkpt>
      <trkpt lat="42.61496" lon="1.77082">
        <ele>2215.2</ele>
        <time>2024-07-10T15:38:41Z</time>
      </trkpt>
      <trkpt lat="42.61495" lon="1.77084">
        <ele>2215.4</ele>
        <time>2024-07-10T15:38:45Z</time>
      </trkpt>
      <trkpt lat="42.6149" lon="1.77091">
        <ele>2215.2</ele>
        <time>2024-07-10T15:38:53Z</time>
      </trkpt>
      <trkpt lat="42.61487" lon="1.77095">
        <ele>2213.8</ele>
        <time>2024-07-10T15:39:00Z</time>
      </trkpt>
      <trkpt lat="42.61482" lon="1.77098">
        <ele>2211.2</ele>
        <time>2024-07-10T15:39:07Z</time>
      </trkpt>
      <trkpt lat="42.61477" lon="1.77105">
        <ele>2208.2</ele>
        <time>2024-07-10T15:39:13Z</time>
      </trkpt>
      <trkpt lat="42.61466" lon="1.77121">
        <ele>2204.8</ele>
        <time>2024-07-10T15:39:24Z</time>
      </trkpt>
      <trkpt lat="42.61456" lon="1.77138">
        <ele>2204.2</ele>
        <time>2024-07-10T15:39:35Z</time>
      </trkpt>
      <trkpt lat="42.61447" lon="1.77151">
        <ele>2202.8</ele>
        <time>2024-07-10T15:39:44Z</time>
      </trkpt>
      <trkpt lat="42.61438" lon="1.77166">
        <ele>2199.2</ele>
        <time>2024-07-10T15:39:54Z</time>
      </trkpt>
      <trkpt lat="42.6143" lon="1.7718">
        <ele>2197.8</ele>
        <time>2024-07-10T15:40:04Z</time>
      </trkpt>
      <trkpt lat="42.61419" lon="1.77196">
        <ele>2196.6</ele>
        <time>2024-07-10T15:40:16Z</time>
      </trkpt>
      <trkpt lat="42.61412" lon="1.77206">
        <ele>2194.8</ele>
        <time>2024-07-10T15:40:24Z</time>
      </trkpt>
      <trkpt lat="42.614" lon="1.77221">
        <ele>2192.2</ele>
        <time>2024-07-10T15:40:35Z</time>
      </trkpt>
      <trkpt lat="42.61398" lon="1.7722">
        <ele>2192.2</ele>
        <time>2024-07-10T15:40:36Z</time>
      </trkpt>
      <trkpt lat="42.61394" lon="1.7722">
        <ele>2190.8</ele>
        <time>2024-07-10T15:40:39Z</time>
      </trkpt>
      <trkpt lat="42.61393" lon="1.7722">
        <ele>2190.2</ele>
        <time>2024-07-10T15:40:40Z</time>
      </trkpt>
      <trkpt lat="42.61382" lon="1.77222">
        <ele>2186</ele>
        <time>2024-07-10T15:40:48Z</time>
      </trkpt>
      <trkpt lat="42.61369" lon="1.77224">
        <ele>2183.8</ele>
        <time>2024-07-10T15:40:57Z</time>
      </trkpt>
      <trkpt lat="42.61358" lon="1.77228">
        <ele>2181.2</ele>
        <time>2024-07-10T15:41:05Z</time>
      </trkpt>
      <trkpt lat="42.61342" lon="1.77234">
        <ele>2178.2</ele>
        <time>2024-07-10T15:41:16Z</time>
      </trkpt>
      <trkpt lat="42.61342" lon="1.77234">
        <ele>2178</ele>
        <time>2024-07-10T15:41:20Z</time>
      </trkpt>
      <trkpt lat="42.61341" lon="1.77234">
        <ele>2178</ele>
        <time>2024-07-10T15:41:48Z</time>
      </trkpt>
      <trkpt lat="42.61336" lon="1.77236">
        <ele>2178.2</ele>
        <time>2024-07-10T15:42:05Z</time>
      </trkpt>
      <trkpt lat="42.61323" lon="1.77241">
        <ele>2178.4</ele>
        <time>2024-07-10T15:42:14Z</time>
      </trkpt>
      <trkpt lat="42.61315" lon="1.77249">
        <ele>2176.4</ele>
        <time>2024-07-10T15:42:22Z</time>
      </trkpt>
      <trkpt lat="42.61308" lon="1.77261">
        <ele>2175.8</ele>
        <time>2024-07-10T15:42:32Z</time>
      </trkpt>
      <trkpt lat="42.61307" lon="1.77272">
        <ele>2175.2</ele>
        <time>2024-07-10T15:42:40Z</time>
      </trkpt>
      <trkpt lat="42.61306" lon="1.77275">
        <ele>2175.2</ele>
        <time>2024-07-10T15:42:42Z</time>
      </trkpt>
      <trkpt lat="42.61304" lon="1.77282">
        <ele>2175</ele>
        <time>2024-07-10T15:42:46Z</time>
      </trkpt>
      <trkpt lat="42.613" lon="1.77302">
        <ele>2175</ele>
        <time>2024-07-10T15:42:58Z</time>
      </trkpt>
      <trkpt lat="42.61295" lon="1.77314">
        <ele>2174.4</ele>
        <time>2024-07-10T15:43:06Z</time>
      </trkpt>
      <trkpt lat="42.61289" lon="1.77325">
        <ele>2175</ele>
        <time>2024-07-10T15:43:14Z</time>
      </trkpt>
      <trkpt lat="42.61285" lon="1.77337">
        <ele>2175.8</ele>
        <time>2024-07-10T15:43:23Z</time>
      </trkpt>
      <trkpt lat="42.61282" lon="1.77351">
        <ele>2176</ele>
        <time>2024-07-10T15:43:31Z</time>
      </trkpt>
      <trkpt lat="42.61279" lon="1.77358">
        <ele>2176.4</ele>
        <time>2024-07-10T15:43:36Z</time>
      </trkpt>
      <trkpt lat="42.61279" lon="1.77361">
        <ele>2176.4</ele>
        <time>2024-07-10T15:43:38Z</time>
      </trkpt>
      <trkpt lat="42.61277" lon="1.77373">
        <ele>2175</ele>
        <time>2024-07-10T15:43:45Z</time>
      </trkpt>
      <trkpt lat="42.61274" lon="1.77383">
        <ele>2173.2</ele>
        <time>2024-07-10T15:43:52Z</time>
      </trkpt>
      <trkpt lat="42.61269" lon="1.77393">
        <ele>2170.2</ele>
        <time>2024-07-10T15:44:00Z</time>
      </trkpt>
      <trkpt lat="42.61262" lon="1.77401">
        <ele>2168</ele>
        <time>2024-07-10T15:44:09Z</time>
      </trkpt>
      <trkpt lat="42.6126" lon="1.77412">
        <ele>2165.8</ele>
        <time>2024-07-10T15:44:16Z</time>
      </trkpt>
      <trkpt lat="42.61259" lon="1.77425">
        <ele>2164.4</ele>
        <time>2024-07-10T15:44:24Z</time>
      </trkpt>
      <trkpt lat="42.61251" lon="1.7744">
        <ele>2162.4</ele>
        <time>2024-07-10T15:44:33Z</time>
      </trkpt>
      <trkpt lat="42.6124" lon="1.77456">
        <ele>2161.2</ele>
        <time>2024-07-10T15:44:46Z</time>
      </trkpt>
      <trkpt lat="42.61232" lon="1.77466">
        <ele>2161</ele>
        <time>2024-07-10T15:44:54Z</time>
      </trkpt>
      <trkpt lat="42.61216" lon="1.77478">
        <ele>2160.4</ele>
        <time>2024-07-10T15:45:08Z</time>
      </trkpt>
      <trkpt lat="42.61209" lon="1.77492">
        <ele>2157</ele>
        <time>2024-07-10T15:45:18Z</time>
      </trkpt>
      <trkpt lat="42.61207" lon="1.77506">
        <ele>2155.6</ele>
        <time>2024-07-10T15:45:25Z</time>
      </trkpt>
      <trkpt lat="42.61206" lon="1.77522">
        <ele>2155.4</ele>
        <time>2024-07-10T15:45:34Z</time>
      </trkpt>
      <trkpt lat="42.61209" lon="1.77525">
        <ele>2155.6</ele>
        <time>2024-07-10T15:45:38Z</time>
      </trkpt>
      <trkpt lat="42.61208" lon="1.77528">
        <ele>2155.8</ele>
        <time>2024-07-10T15:45:40Z</time>
      </trkpt>
      <trkpt lat="42.61207" lon="1.77538">
        <ele>2157</ele>
        <time>2024-07-10T15:45:47Z</time>
      </trkpt>
      <trkpt lat="42.61205" lon="1.77553">
        <ele>2156.6</ele>
        <time>2024-07-10T15:45:57Z</time>
      </trkpt>
      <trkpt lat="42.61204" lon="1.77555">
        <ele>2155.8</ele>
        <time>2024-07-10T15:45:59Z</time>
      </trkpt>
      <trkpt lat="42.61203" lon="1.7756">
        <ele>2154.4</ele>
        <time>2024-07-10T15:46:04Z</time>
      </trkpt>
      <trkpt lat="42.61199" lon="1.77562">
        <ele>2153.2</ele>
        <time>2024-07-10T15:46:09Z</time>
      </trkpt>
      <trkpt lat="42.61197" lon="1.77563">
        <ele>2153</ele>
        <time>2024-07-10T15:46:10Z</time>
      </trkpt>
      <trkpt lat="42.6119" lon="1.77569">
        <ele>2152.2</ele>
        <time>2024-07-10T15:46:16Z</time>
      </trkpt>
      <trkpt lat="42.6119" lon="1.77571">
        <ele>2151.8</ele>
        <time>2024-07-10T15:46:18Z</time>
      </trkpt>
      <trkpt lat="42.61188" lon="1.77572">
        <ele>2151</ele>
        <time>2024-07-10T15:46:21Z</time>
      </trkpt>
      <trkpt lat="42.61187" lon="1.77572">
        <ele>2150.8</ele>
        <time>2024-07-10T15:46:22Z</time>
      </trkpt>
      <trkpt lat="42.61187" lon="1.77578">
        <ele>2150.2</ele>
        <time>2024-07-10T15:46:26Z</time>
      </trkpt>
      <trkpt lat="42.61184" lon="1.77588">
        <ele>2148.6</ele>
        <time>2024-07-10T15:46:34Z</time>
      </trkpt>
      <trkpt lat="42.61181" lon="1.77599">
        <ele>2146.2</ele>
        <time>2024-07-10T15:46:42Z</time>
      </trkpt>
      <trkpt lat="42.61175" lon="1.77609">
        <ele>2143.6</ele>
        <time>2024-07-10T15:46:51Z</time>
      </trkpt>
      <trkpt lat="42.61169" lon="1.77618">
        <ele>2140.4</ele>
        <time>2024-07-10T15:46:59Z</time>
      </trkpt>
      <trkpt lat="42.61166" lon="1.77626">
        <ele>2138.6</ele>
        <time>2024-07-10T15:47:05Z</time>
      </trkpt>
      <trkpt lat="42.61165" lon="1.77627">
        <ele>2138.2</ele>
        <time>2024-07-10T15:47:07Z</time>
      </trkpt>
      <trkpt lat="42.61161" lon="1.77631">
        <ele>2137</ele>
        <time>2024-07-10T15:47:13Z</time>
      </trkpt>
      <trkpt lat="42.6116" lon="1.77632">
        <ele>2136.8</ele>
        <time>2024-07-10T15:47:14Z</time>
      </trkpt>
      <trkpt lat="42.61153" lon="1.77635">
        <ele>2134.6</ele>
        <time>2024-07-10T15:47:22Z</time>
      </trkpt>
      <trkpt lat="42.6115" lon="1.77634">
        <ele>2133</ele>
        <time>2024-07-10T15:47:26Z</time>
      </trkpt>
      <trkpt lat="42.61147" lon="1.77636">
        <ele>2131</ele>
        <time>2024-07-10T15:47:30Z</time>
      </trkpt>
      <trkpt lat="42.61141" lon="1.77641">
        <ele>2128.2</ele>
        <time>2024-07-10T15:47:36Z</time>
      </trkpt>
      <trkpt lat="42.61133" lon="1.77646">
        <ele>2127</ele>
        <time>2024-07-10T15:47:45Z</time>
      </trkpt>
      <trkpt lat="42.61133" lon="1.77646">
        <ele>2126.8</ele>
        <time>2024-07-10T15:47:46Z</time>
      </trkpt>
      <trkpt lat="42.61131" lon="1.77648">
        <ele>2126.2</ele>
        <time>2024-07-10T15:47:48Z</time>
      </trkpt>
      <trkpt lat="42.61129" lon="1.77647">
        <ele>2125.4</ele>
        <time>2024-07-10T15:47:50Z</time>
      </trkpt>
      <trkpt lat="42.61129" lon="1.77649">
        <ele>2124.8</ele>
        <time>2024-07-10T15:47:52Z</time>
      </trkpt>
      <trkpt lat="42.61128" lon="1.77652">
        <ele>2124</ele>
        <time>2024-07-10T15:47:55Z</time>
      </trkpt>
      <trkpt lat="42.61127" lon="1.77652">
        <ele>2123</ele>
        <time>2024-07-10T15:47:57Z</time>
      </trkpt>
      <trkpt lat="42.61126" lon="1.77654">
        <ele>2122</ele>
        <time>2024-07-10T15:47:59Z</time>
      </trkpt>
      <trkpt lat="42.61121" lon="1.77657">
        <ele>2120</ele>
        <time>2024-07-10T15:48:06Z</time>
      </trkpt>
      <trkpt lat="42.61119" lon="1.77659">
        <ele>2118</ele>
        <time>2024-07-10T15:48:13Z</time>
      </trkpt>
      <trkpt lat="42.61116" lon="1.77663">
        <ele>2116.6</ele>
        <time>2024-07-10T15:48:19Z</time>
      </trkpt>
      <trkpt lat="42.6111" lon="1.77667">
        <ele>2113.2</ele>
        <time>2024-07-10T15:48:28Z</time>
      </trkpt>
      <trkpt lat="42.61105" lon="1.77671">
        <ele>2111</ele>
        <time>2024-07-10T15:48:34Z</time>
      </trkpt>
      <trkpt lat="42.61103" lon="1.77679">
        <ele>2107.6</ele>
        <time>2024-07-10T15:48:40Z</time>
      </trkpt>
      <trkpt lat="42.61095" lon="1.77685">
        <ele>2105.6</ele>
        <time>2024-07-10T15:48:48Z</time>
      </trkpt>
      <trkpt lat="42.61084" lon="1.77692">
        <ele>2103.8</ele>
        <time>2024-07-10T15:48:59Z</time>
      </trkpt>
      <trkpt lat="42.61073" lon="1.77696">
        <ele>2101</ele>
        <time>2024-07-10T15:49:08Z</time>
      </trkpt>
      <trkpt lat="42.61065" lon="1.77699">
        <ele>2100.2</ele>
        <time>2024-07-10T15:49:14Z</time>
      </trkpt>
      <trkpt lat="42.61063" lon="1.77701">
        <ele>2100</ele>
        <time>2024-07-10T15:49:16Z</time>
      </trkpt>
      <trkpt lat="42.61057" lon="1.77705">
        <ele>2099</ele>
        <time>2024-07-10T15:49:21Z</time>
      </trkpt>
      <trkpt lat="42.61054" lon="1.77706">
        <ele>2098.8</ele>
        <time>2024-07-10T15:49:24Z</time>
      </trkpt>
      <trkpt lat="42.61048" lon="1.77714">
        <ele>2098.6</ele>
        <time>2024-07-10T15:49:31Z</time>
      </trkpt>
      <trkpt lat="42.61036" lon="1.77719">
        <ele>2098</ele>
        <time>2024-07-10T15:49:41Z</time>
      </trkpt>
      <trkpt lat="42.6102" lon="1.77724">
        <ele>2097.4</ele>
        <time>2024-07-10T15:49:53Z</time>
      </trkpt>
      <trkpt lat="42.6101" lon="1.77725">
        <ele>2095.4</ele>
        <time>2024-07-10T15:50:02Z</time>
      </trkpt>
      <trkpt lat="42.61009" lon="1.77736">
        <ele>2094.8</ele>
        <time>2024-07-10T15:50:10Z</time>
      </trkpt>
      <trkpt lat="42.61003" lon="1.77754">
        <ele>2093.2</ele>
        <time>2024-07-10T15:50:21Z</time>
      </trkpt>
      <trkpt lat="42.61" lon="1.77767">
        <ele>2093.6</ele>
        <time>2024-07-10T15:50:30Z</time>
      </trkpt>
      <trkpt lat="42.60999" lon="1.77768">
        <ele>2093.8</ele>
        <time>2024-07-10T15:50:31Z</time>
      </trkpt>
      <trkpt lat="42.60995" lon="1.77776">
        <ele>2094.6</ele>
        <time>2024-07-10T15:50:37Z</time>
      </trkpt>
      <trkpt lat="42.60992" lon="1.77779">
        <ele>2094</ele>
        <time>2024-07-10T15:50:42Z</time>
      </trkpt>
      <trkpt lat="42.60989" lon="1.77779">
        <ele>2093.4</ele>
        <time>2024-07-10T15:50:45Z</time>
      </trkpt>
      <trkpt lat="42.60987" lon="1.77781">
        <ele>2093.2</ele>
        <time>2024-07-10T15:50:47Z</time>
      </trkpt>
      <trkpt lat="42.60987" lon="1.77788">
        <ele>2093.2</ele>
        <time>2024-07-10T15:50:51Z</time>
      </trkpt>
      <trkpt lat="42.60987" lon="1.77798">
        <ele>2093</ele>
        <time>2024-07-10T15:50:58Z</time>
      </trkpt>
      <trkpt lat="42.60985" lon="1.778">
        <ele>2092.8</ele>
        <time>2024-07-10T15:51:00Z</time>
      </trkpt>
      <trkpt lat="42.60979" lon="1.77805">
        <ele>2091.6</ele>
        <time>2024-07-10T15:51:06Z</time>
      </trkpt>
      <trkpt lat="42.60976" lon="1.77806">
        <ele>2091</ele>
        <time>2024-07-10T15:51:08Z</time>
      </trkpt>
      <trkpt lat="42.60969" lon="1.7781">
        <ele>2089.6</ele>
        <time>2024-07-10T15:51:15Z</time>
      </trkpt>
      <trkpt lat="42.60969" lon="1.7781">
        <ele>2089.2</ele>
        <time>2024-07-10T15:51:16Z</time>
      </trkpt>
      <trkpt lat="42.60968" lon="1.77811">
        <ele>2088.8</ele>
        <time>2024-07-10T15:51:18Z</time>
      </trkpt>
      <trkpt lat="42.60969" lon="1.77813">
        <ele>2088.4</ele>
        <time>2024-07-10T15:51:20Z</time>
      </trkpt>
      <trkpt lat="42.60967" lon="1.77822">
        <ele>2087.2</ele>
        <time>2024-07-10T15:51:26Z</time>
      </trkpt>
      <trkpt lat="42.60965" lon="1.77826">
        <ele>2086.8</ele>
        <time>2024-07-10T15:51:29Z</time>
      </trkpt>
      <trkpt lat="42.6096" lon="1.77826">
        <ele>2084.2</ele>
        <time>2024-07-10T15:51:34Z</time>
      </trkpt>
      <trkpt lat="42.60958" lon="1.77826">
        <ele>2083.4</ele>
        <time>2024-07-10T15:51:36Z</time>
      </trkpt>
      <trkpt lat="42.60953" lon="1.77827">
        <ele>2082.4</ele>
        <time>2024-07-10T15:51:41Z</time>
      </trkpt>
      <trkpt lat="42.60945" lon="1.7783">
        <ele>2080.4</ele>
        <time>2024-07-10T15:51:49Z</time>
      </trkpt>
      <trkpt lat="42.60943" lon="1.77832">
        <ele>2078.2</ele>
        <time>2024-07-10T15:51:55Z</time>
      </trkpt>
      <trkpt lat="42.60939" lon="1.77835">
        <ele>2077</ele>
        <time>2024-07-10T15:52:00Z</time>
      </trkpt>
      <trkpt lat="42.60937" lon="1.77835">
        <ele>2076.8</ele>
        <time>2024-07-10T15:52:02Z</time>
      </trkpt>
      <trkpt lat="42.60934" lon="1.77833">
        <ele>2076.4</ele>
        <time>2024-07-10T15:52:05Z</time>
      </trkpt>
      <trkpt lat="42.60933" lon="1.77833">
        <ele>2076.2</ele>
        <time>2024-07-10T15:52:07Z</time>
      </trkpt>
      <trkpt lat="42.60933" lon="1.77834">
        <ele>2076.2</ele>
        <time>2024-07-10T15:52:08Z</time>
      </trkpt>
      <trkpt lat="42.60933" lon="1.77836">
        <ele>2075.8</ele>
        <time>2024-07-10T15:52:10Z</time>
      </trkpt>
      <trkpt lat="42.60934" lon="1.77839">
        <ele>2075.4</ele>
        <time>2024-07-10T15:52:13Z</time>
      </trkpt>
      <trkpt lat="42.60933" lon="1.77845">
        <ele>2075</ele>
        <time>2024-07-10T15:52:18Z</time>
      </trkpt>
      <trkpt lat="42.60926" lon="1.77855">
        <ele>2073.8</ele>
        <time>2024-07-10T15:52:26Z</time>
      </trkpt>
      <trkpt lat="42.60917" lon="1.77863">
        <ele>2071.8</ele>
        <time>2024-07-10T15:52:34Z</time>
      </trkpt>
      <trkpt lat="42.60914" lon="1.77863">
        <ele>2070.8</ele>
        <time>2024-07-10T15:52:37Z</time>
      </trkpt>
      <trkpt lat="42.60911" lon="1.77866">
        <ele>2070</ele>
        <time>2024-07-10T15:52:40Z</time>
      </trkpt>
      <trkpt lat="42.60908" lon="1.77869">
        <ele>2069.4</ele>
        <time>2024-07-10T15:52:43Z</time>
      </trkpt>
      <trkpt lat="42.60903" lon="1.7787">
        <ele>2069</ele>
        <time>2024-07-10T15:52:47Z</time>
      </trkpt>
      <trkpt lat="42.60896" lon="1.77875">
        <ele>2069.6</ele>
        <time>2024-07-10T15:52:54Z</time>
      </trkpt>
      <trkpt lat="42.6089" lon="1.77882">
        <ele>2069.8</ele>
        <time>2024-07-10T15:53:01Z</time>
      </trkpt>
      <trkpt lat="42.60889" lon="1.77883">
        <ele>2069.8</ele>
        <time>2024-07-10T15:53:02Z</time>
      </trkpt>
      <trkpt lat="42.60883" lon="1.77884">
        <ele>2069.6</ele>
        <time>2024-07-10T15:53:07Z</time>
      </trkpt>
      <trkpt lat="42.60875" lon="1.77891">
        <ele>2068.8</ele>
        <time>2024-07-10T15:53:13Z</time>
      </trkpt>
      <trkpt lat="42.60874" lon="1.77891">
        <ele>2068.6</ele>
        <time>2024-07-10T15:53:14Z</time>
      </trkpt>
      <trkpt lat="42.6087" lon="1.7789">
        <ele>2068.4</ele>
        <time>2024-07-10T15:53:18Z</time>
      </trkpt>
      <trkpt lat="42.60866" lon="1.77893">
        <ele>2067.6</ele>
        <time>2024-07-10T15:53:22Z</time>
      </trkpt>
      <trkpt lat="42.60862" lon="1.77901">
        <ele>2066.6</ele>
        <time>2024-07-10T15:53:27Z</time>
      </trkpt>
      <trkpt lat="42.60862" lon="1.77905">
        <ele>2066.4</ele>
        <time>2024-07-10T15:53:30Z</time>
      </trkpt>
      <trkpt lat="42.60856" lon="1.7791">
        <ele>2065.4</ele>
        <time>2024-07-10T15:53:37Z</time>
      </trkpt>
      <trkpt lat="42.60846" lon="1.7792">
        <ele>2064.4</ele>
        <time>2024-07-10T15:53:46Z</time>
      </trkpt>
      <trkpt lat="42.60835" lon="1.77932">
        <ele>2064</ele>
        <time>2024-07-10T15:53:56Z</time>
      </trkpt>
      <trkpt lat="42.60828" lon="1.7794">
        <ele>2064</ele>
        <time>2024-07-10T15:54:03Z</time>
      </trkpt>
      <trkpt lat="42.60816" lon="1.77945">
        <ele>2063.8</ele>
        <time>2024-07-10T15:54:12Z</time>
      </trkpt>
      <trkpt lat="42.60805" lon="1.77949">
        <ele>2063.6</ele>
        <time>2024-07-10T15:54:20Z</time>
      </trkpt>
      <trkpt lat="42.60794" lon="1.77952">
        <ele>2063.4</ele>
        <time>2024-07-10T15:54:28Z</time>
      </trkpt>
      <trkpt lat="42.60785" lon="1.77959">
        <ele>2063</ele>
        <time>2024-07-10T15:54:36Z</time>
      </trkpt>
      <trkpt lat="42.60781" lon="1.77962">
        <ele>2062.6</ele>
        <time>2024-07-10T15:54:40Z</time>
      </trkpt>
      <trkpt lat="42.60777" lon="1.7796">
        <ele>2062.4</ele>
        <time>2024-07-10T15:54:43Z</time>
      </trkpt>
      <trkpt lat="42.60766" lon="1.77957">
        <ele>2061.8</ele>
        <time>2024-07-10T15:54:53Z</time>
      </trkpt>
      <trkpt lat="42.60756" lon="1.77962">
        <ele>2059.8</ele>
        <time>2024-07-10T15:55:01Z</time>
      </trkpt>
      <trkpt lat="42.60754" lon="1.77963">
        <ele>2059.6</ele>
        <time>2024-07-10T15:55:07Z</time>
      </trkpt>
      <trkpt lat="42.60751" lon="1.77964">
        <ele>2060.2</ele>
        <time>2024-07-10T15:55:28Z</time>
      </trkpt>
      <trkpt lat="42.60738" lon="1.77962">
        <ele>2060</ele>
        <time>2024-07-10T15:55:37Z</time>
      </trkpt>
      <trkpt lat="42.60726" lon="1.77957">
        <ele>2059.2</ele>
        <time>2024-07-10T15:55:46Z</time>
      </trkpt>
      <trkpt lat="42.60721" lon="1.77947">
        <ele>2057.8</ele>
        <time>2024-07-10T15:55:53Z</time>
      </trkpt>
      <trkpt lat="42.60713" lon="1.77939">
        <ele>2059</ele>
        <time>2024-07-10T15:56:01Z</time>
      </trkpt>
      <trkpt lat="42.60712" lon="1.77938">
        <ele>2059.2</ele>
        <time>2024-07-10T15:56:03Z</time>
      </trkpt>
      <trkpt lat="42.60712" lon="1.77937">
        <ele>2059.4</ele>
        <time>2024-07-10T15:56:06Z</time>
      </trkpt>
      <trkpt lat="42.60711" lon="1.77936">
        <ele>2059.4</ele>
        <time>2024-07-10T15:56:18Z</time>
      </trkpt>
      <trkpt lat="42.60708" lon="1.77932">
        <ele>2059.8</ele>
        <time>2024-07-10T15:57:01Z</time>
      </trkpt>
      <trkpt lat="42.60705" lon="1.77931">
        <ele>2059.8</ele>
        <time>2024-07-10T15:57:07Z</time>
      </trkpt>
      <trkpt lat="42.607" lon="1.77931">
        <ele>2059.8</ele>
        <time>2024-07-10T15:57:22Z</time>
      </trkpt>
      <trkpt lat="42.60684" lon="1.7793">
        <ele>2057.8</ele>
        <time>2024-07-10T15:57:32Z</time>
      </trkpt>
      <trkpt lat="42.60673" lon="1.77934">
        <ele>2055.6</ele>
        <time>2024-07-10T15:57:40Z</time>
      </trkpt>
      <trkpt lat="42.6066" lon="1.77941">
        <ele>2055.4</ele>
        <time>2024-07-10T15:57:50Z</time>
      </trkpt>
      <trkpt lat="42.60651" lon="1.7794">
        <ele>2054.4</ele>
        <time>2024-07-10T15:57:57Z</time>
      </trkpt>
      <trkpt lat="42.60641" lon="1.77945">
        <ele>2052</ele>
        <time>2024-07-10T15:58:05Z</time>
      </trkpt>
      <trkpt lat="42.60632" lon="1.77946">
        <ele>2050.8</ele>
        <time>2024-07-10T15:58:13Z</time>
      </trkpt>
      <trkpt lat="42.60623" lon="1.77956">
        <ele>2048.8</ele>
        <time>2024-07-10T15:58:22Z</time>
      </trkpt>
      <trkpt lat="42.60622" lon="1.77958">
        <ele>2048.6</ele>
        <time>2024-07-10T15:58:24Z</time>
      </trkpt>
      <trkpt lat="42.60618" lon="1.77961">
        <ele>2048.4</ele>
        <time>2024-07-10T15:58:27Z</time>
      </trkpt>
      <trkpt lat="42.60608" lon="1.77963">
        <ele>2048</ele>
        <time>2024-07-10T15:58:35Z</time>
      </trkpt>
      <trkpt lat="42.60595" lon="1.77967">
        <ele>2046.4</ele>
        <time>2024-07-10T15:58:45Z</time>
      </trkpt>
      <trkpt lat="42.60582" lon="1.77972">
        <ele>2045.8</ele>
        <time>2024-07-10T15:58:56Z</time>
      </trkpt>
      <trkpt lat="42.60573" lon="1.77983">
        <ele>2044.2</ele>
        <time>2024-07-10T15:59:05Z</time>
      </trkpt>
      <trkpt lat="42.60567" lon="1.77994">
        <ele>2042.2</ele>
        <time>2024-07-10T15:59:13Z</time>
      </trkpt>
      <trkpt lat="42.60564" lon="1.77995">
        <ele>2042.2</ele>
        <time>2024-07-10T15:59:15Z</time>
      </trkpt>
      <trkpt lat="42.60558" lon="1.77995">
        <ele>2042.6</ele>
        <time>2024-07-10T15:59:20Z</time>
      </trkpt>
      <trkpt lat="42.60549" lon="1.77996">
        <ele>2043.4</ele>
        <time>2024-07-10T15:59:27Z</time>
      </trkpt>
      <trkpt lat="42.6054" lon="1.78003">
        <ele>2043.8</ele>
        <time>2024-07-10T15:59:36Z</time>
      </trkpt>
      <trkpt lat="42.6053" lon="1.78005">
        <ele>2042.2</ele>
        <time>2024-07-10T15:59:44Z</time>
      </trkpt>
      <trkpt lat="42.60523" lon="1.78009">
        <ele>2042.2</ele>
        <time>2024-07-10T15:59:51Z</time>
      </trkpt>
      <trkpt lat="42.60521" lon="1.78009">
        <ele>2042.2</ele>
        <time>2024-07-10T15:59:54Z</time>
      </trkpt>
      <trkpt lat="42.60518" lon="1.78012">
        <ele>2041.6</ele>
        <time>2024-07-10T15:59:57Z</time>
      </trkpt>
      <trkpt lat="42.60508" lon="1.78011">
        <ele>2039.6</ele>
        <time>2024-07-10T16:00:05Z</time>
      </trkpt>
      <trkpt lat="42.60499" lon="1.7801">
        <ele>2038.2</ele>
        <time>2024-07-10T16:00:12Z</time>
      </trkpt>
      <trkpt lat="42.60489" lon="1.78009">
        <ele>2037</ele>
        <time>2024-07-10T16:00:19Z</time>
      </trkpt>
      <trkpt lat="42.60482" lon="1.78014">
        <ele>2036</ele>
        <time>2024-07-10T16:00:25Z</time>
      </trkpt>
      <trkpt lat="42.60481" lon="1.78014">
        <ele>2035.8</ele>
        <time>2024-07-10T16:00:26Z</time>
      </trkpt>
      <trkpt lat="42.60473" lon="1.78016">
        <ele>2035</ele>
        <time>2024-07-10T16:00:34Z</time>
      </trkpt>
      <trkpt lat="42.60473" lon="1.78016">
        <ele>2034.8</ele>
        <time>2024-07-10T16:00:35Z</time>
      </trkpt>
      <trkpt lat="42.60472" lon="1.78016">
        <ele>2034.6</ele>
        <time>2024-07-10T16:00:39Z</time>
      </trkpt>
      <trkpt lat="42.60471" lon="1.78014">
        <ele>2034.2</ele>
        <time>2024-07-10T16:00:50Z</time>
      </trkpt>
      <trkpt lat="42.60472" lon="1.78023">
        <ele>2032.2</ele>
        <time>2024-07-10T16:00:56Z</time>
      </trkpt>
      <trkpt lat="42.6047" lon="1.78033">
        <ele>2030.4</ele>
        <time>2024-07-10T16:01:02Z</time>
      </trkpt>
      <trkpt lat="42.60463" lon="1.78044">
        <ele>2029.2</ele>
        <time>2024-07-10T16:01:10Z</time>
      </trkpt>
      <trkpt lat="42.60452" lon="1.78051">
        <ele>2028.8</ele>
        <time>2024-07-10T16:01:19Z</time>
      </trkpt>
      <trkpt lat="42.6045" lon="1.78058">
        <ele>2029.2</ele>
        <time>2024-07-10T16:01:24Z</time>
      </trkpt>
      <trkpt lat="42.60449" lon="1.78057">
        <ele>2029.2</ele>
        <time>2024-07-10T16:01:25Z</time>
      </trkpt>
      <trkpt lat="42.60439" lon="1.78054">
        <ele>2029.6</ele>
        <time>2024-07-10T16:01:33Z</time>
      </trkpt>
      <trkpt lat="42.6043" lon="1.78049">
        <ele>2030</ele>
        <time>2024-07-10T16:01:41Z</time>
      </trkpt>
      <trkpt lat="42.6042" lon="1.78041">
        <ele>2030.2</ele>
        <time>2024-07-10T16:01:49Z</time>
      </trkpt>
      <trkpt lat="42.60412" lon="1.78038">
        <ele>2030.6</ele>
        <time>2024-07-10T16:01:56Z</time>
      </trkpt>
      <trkpt lat="42.60405" lon="1.78029">
        <ele>2030.6</ele>
        <time>2024-07-10T16:02:04Z</time>
      </trkpt>
      <trkpt lat="42.60401" lon="1.78023">
        <ele>2029.8</ele>
        <time>2024-07-10T16:02:09Z</time>
      </trkpt>
      <trkpt lat="42.60399" lon="1.78022">
        <ele>2029.4</ele>
        <time>2024-07-10T16:02:11Z</time>
      </trkpt>
      <trkpt lat="42.60394" lon="1.7801">
        <ele>2027.6</ele>
        <time>2024-07-10T16:02:18Z</time>
      </trkpt>
      <trkpt lat="42.60392" lon="1.78002">
        <ele>2025.6</ele>
        <time>2024-07-10T16:02:23Z</time>
      </trkpt>
      <trkpt lat="42.60389" lon="1.78">
        <ele>2025</ele>
        <time>2024-07-10T16:02:26Z</time>
      </trkpt>
      <trkpt lat="42.60381" lon="1.77993">
        <ele>2023.6</ele>
        <time>2024-07-10T16:02:34Z</time>
      </trkpt>
      <trkpt lat="42.60373" lon="1.77989">
        <ele>2023.2</ele>
        <time>2024-07-10T16:02:41Z</time>
      </trkpt>
      <trkpt lat="42.60373" lon="1.77988">
        <ele>2023.2</ele>
        <time>2024-07-10T16:02:42Z</time>
      </trkpt>
      <trkpt lat="42.60373" lon="1.77987">
        <ele>2023.2</ele>
        <time>2024-07-10T16:02:43Z</time>
      </trkpt>
      <trkpt lat="42.60374" lon="1.77987">
        <ele>2023.6</ele>
        <time>2024-07-10T16:02:46Z</time>
      </trkpt>
      <trkpt lat="42.60374" lon="1.77988">
        <ele>2024.6</ele>
        <time>2024-07-10T16:02:54Z</time>
      </trkpt>
      <trkpt lat="42.6037" lon="1.77989">
        <ele>2024.8</ele>
        <time>2024-07-10T16:03:45Z</time>
      </trkpt>
      <trkpt lat="42.60362" lon="1.77997">
        <ele>2023.2</ele>
        <time>2024-07-10T16:03:52Z</time>
      </trkpt>
      <trkpt lat="42.60353" lon="1.78001">
        <ele>2020.2</ele>
        <time>2024-07-10T16:04:00Z</time>
      </trkpt>
      <trkpt lat="42.60345" lon="1.78003">
        <ele>2017.8</ele>
        <time>2024-07-10T16:04:08Z</time>
      </trkpt>
      <trkpt lat="42.60333" lon="1.77998">
        <ele>2018</ele>
        <time>2024-07-10T16:04:18Z</time>
      </trkpt>
      <trkpt lat="42.6033" lon="1.7799">
        <ele>2019.2</ele>
        <time>2024-07-10T16:04:24Z</time>
      </trkpt>
      <trkpt lat="42.60323" lon="1.77984">
        <ele>2019</ele>
        <time>2024-07-10T16:04:31Z</time>
      </trkpt>
      <trkpt lat="42.60314" lon="1.77986">
        <ele>2016.4</ele>
        <time>2024-07-10T16:04:39Z</time>
      </trkpt>
      <trkpt lat="42.60303" lon="1.77992">
        <ele>2012.8</ele>
        <time>2024-07-10T16:04:47Z</time>
      </trkpt>
      <trkpt lat="42.60296" lon="1.77996">
        <ele>2011.6</ele>
        <time>2024-07-10T16:04:53Z</time>
      </trkpt>
      <trkpt lat="42.60295" lon="1.77999">
        <ele>2011.4</ele>
        <time>2024-07-10T16:04:55Z</time>
      </trkpt>
      <trkpt lat="42.60286" lon="1.7801">
        <ele>2008.8</ele>
        <time>2024-07-10T16:05:05Z</time>
      </trkpt>
      <trkpt lat="42.60281" lon="1.78018">
        <ele>2006.8</ele>
        <time>2024-07-10T16:05:13Z</time>
      </trkpt>
      <trkpt lat="42.60281" lon="1.7802">
        <ele>2006.4</ele>
        <time>2024-07-10T16:05:14Z</time>
      </trkpt>
      <trkpt lat="42.60274" lon="1.78031">
        <ele>2005</ele>
        <time>2024-07-10T16:05:23Z</time>
      </trkpt>
      <trkpt lat="42.60267" lon="1.78035">
        <ele>2004.8</ele>
        <time>2024-07-10T16:05:30Z</time>
      </trkpt>
      <trkpt lat="42.60265" lon="1.78036">
        <ele>2004.8</ele>
        <time>2024-07-10T16:05:32Z</time>
      </trkpt>
      <trkpt lat="42.60255" lon="1.78041">
        <ele>2004.2</ele>
        <time>2024-07-10T16:05:42Z</time>
      </trkpt>
      <trkpt lat="42.60247" lon="1.78049">
        <ele>2001.6</ele>
        <time>2024-07-10T16:05:50Z</time>
      </trkpt>
      <trkpt lat="42.60237" lon="1.78062">
        <ele>2000.6</ele>
        <time>2024-07-10T16:05:59Z</time>
      </trkpt>
      <trkpt lat="42.60229" lon="1.78073">
        <ele>2001</ele>
        <time>2024-07-10T16:06:08Z</time>
      </trkpt>
      <trkpt lat="42.60226" lon="1.78083">
        <ele>1999.4</ele>
        <time>2024-07-10T16:06:15Z</time>
      </trkpt>
      <trkpt lat="42.60224" lon="1.78092">
        <ele>1997.8</ele>
        <time>2024-07-10T16:06:22Z</time>
      </trkpt>
      <trkpt lat="42.60219" lon="1.78102">
        <ele>1997</ele>
        <time>2024-07-10T16:06:31Z</time>
      </trkpt>
      <trkpt lat="42.60213" lon="1.78112">
        <ele>1996.8</ele>
        <time>2024-07-10T16:06:38Z</time>
      </trkpt>
      <trkpt lat="42.60211" lon="1.78101">
        <ele>1996.8</ele>
        <time>2024-07-10T16:06:41Z</time>
      </trkpt>
      <trkpt lat="42.60206" lon="1.78114">
        <ele>1996.6</ele>
        <time>2024-07-10T16:06:44Z</time>
      </trkpt>
      <trkpt lat="42.60205" lon="1.78115">
        <ele>1995.2</ele>
        <time>2024-07-10T16:06:51Z</time>
      </trkpt>
      <trkpt lat="42.602" lon="1.78117">
        <ele>1995</ele>
        <time>2024-07-10T16:06:57Z</time>
      </trkpt>
      <trkpt lat="42.60191" lon="1.78123">
        <ele>1995.2</ele>
        <time>2024-07-10T16:07:05Z</time>
      </trkpt>
      <trkpt lat="42.60184" lon="1.78128">
        <ele>1992.4</ele>
        <time>2024-07-10T16:07:12Z</time>
      </trkpt>
      <trkpt lat="42.6018" lon="1.78136">
        <ele>1991</ele>
        <time>2024-07-10T16:07:19Z</time>
      </trkpt>
      <trkpt lat="42.6017" lon="1.78144">
        <ele>1992</ele>
        <time>2024-07-10T16:07:28Z</time>
      </trkpt>
      <trkpt lat="42.60164" lon="1.78147">
        <ele>1992.2</ele>
        <time>2024-07-10T16:07:34Z</time>
      </trkpt>
      <trkpt lat="42.60163" lon="1.78148">
        <ele>1992.2</ele>
        <time>2024-07-10T16:07:35Z</time>
      </trkpt>
      <trkpt lat="42.60158" lon="1.78153">
        <ele>1991</ele>
        <time>2024-07-10T16:07:41Z</time>
      </trkpt>
      <trkpt lat="42.60154" lon="1.78164">
        <ele>1989.6</ele>
        <time>2024-07-10T16:07:48Z</time>
      </trkpt>
      <trkpt lat="42.60147" lon="1.78177">
        <ele>1992</ele>
        <time>2024-07-10T16:07:58Z</time>
      </trkpt>
      <trkpt lat="42.60139" lon="1.78187">
        <ele>1993</ele>
        <time>2024-07-10T16:08:07Z</time>
      </trkpt>
      <trkpt lat="42.60134" lon="1.78195">
        <ele>1994.6</ele>
        <time>2024-07-10T16:08:15Z</time>
      </trkpt>
      <trkpt lat="42.60133" lon="1.78196">
        <ele>1994.8</ele>
        <time>2024-07-10T16:08:16Z</time>
      </trkpt>
      <trkpt lat="42.6013" lon="1.78202">
        <ele>1995.4</ele>
        <time>2024-07-10T16:08:21Z</time>
      </trkpt>
      <trkpt lat="42.60129" lon="1.78202">
        <ele>1995.8</ele>
        <time>2024-07-10T16:08:26Z</time>
      </trkpt>
      <trkpt lat="42.60129" lon="1.78202">
        <ele>1996.2</ele>
        <time>2024-07-10T16:08:31Z</time>
      </trkpt>
      <trkpt lat="42.60129" lon="1.78202">
        <ele>1997.8</ele>
        <time>2024-07-10T16:08:38Z</time>
      </trkpt>
      <trkpt lat="42.60125" lon="1.78206">
        <ele>1998.4</ele>
        <time>2024-07-10T16:08:51Z</time>
      </trkpt>
      <trkpt lat="42.60119" lon="1.78216">
        <ele>1998.8</ele>
        <time>2024-07-10T16:08:57Z</time>
      </trkpt>
      <trkpt lat="42.60113" lon="1.78223">
        <ele>1999.4</ele>
        <time>2024-07-10T16:09:04Z</time>
      </trkpt>
      <trkpt lat="42.60105" lon="1.78233">
        <ele>2000</ele>
        <time>2024-07-10T16:09:14Z</time>
      </trkpt>
      <trkpt lat="42.60098" lon="1.78238">
        <ele>1999.2</ele>
        <time>2024-07-10T16:09:20Z</time>
      </trkpt>
      <trkpt lat="42.60096" lon="1.78241">
        <ele>1999.2</ele>
        <time>2024-07-10T16:09:22Z</time>
      </trkpt>
      <trkpt lat="42.60092" lon="1.78249">
        <ele>1998.8</ele>
        <time>2024-07-10T16:09:28Z</time>
      </trkpt>
      <trkpt lat="42.6009" lon="1.7825">
        <ele>1998.6</ele>
        <time>2024-07-10T16:09:30Z</time>
      </trkpt>
      <trkpt lat="42.60083" lon="1.78257">
        <ele>1998.4</ele>
        <time>2024-07-10T16:09:37Z</time>
      </trkpt>
      <trkpt lat="42.60082" lon="1.78258">
        <ele>1998.4</ele>
        <time>2024-07-10T16:09:38Z</time>
      </trkpt>
      <trkpt lat="42.60075" lon="1.78268">
        <ele>1999.6</ele>
        <time>2024-07-10T16:09:47Z</time>
      </trkpt>
      <trkpt lat="42.60069" lon="1.7828">
        <ele>1998.8</ele>
        <time>2024-07-10T16:09:56Z</time>
      </trkpt>
      <trkpt lat="42.60062" lon="1.78295">
        <ele>1995.2</ele>
        <time>2024-07-10T16:10:06Z</time>
      </trkpt>
      <trkpt lat="42.60053" lon="1.7831">
        <ele>1992.2</ele>
        <time>2024-07-10T16:10:17Z</time>
      </trkpt>
      <trkpt lat="42.60049" lon="1.78315">
        <ele>1991.4</ele>
        <time>2024-07-10T16:10:22Z</time>
      </trkpt>
      <trkpt lat="42.60049" lon="1.78317">
        <ele>1991.2</ele>
        <time>2024-07-10T16:10:23Z</time>
      </trkpt>
      <trkpt lat="42.60049" lon="1.78318">
        <ele>1991</ele>
        <time>2024-07-10T16:10:24Z</time>
      </trkpt>
      <trkpt lat="42.60045" lon="1.78323">
        <ele>1990.6</ele>
        <time>2024-07-10T16:10:28Z</time>
      </trkpt>
      <trkpt lat="42.60038" lon="1.7833">
        <ele>1989.6</ele>
        <time>2024-07-10T16:10:35Z</time>
      </trkpt>
      <trkpt lat="42.60034" lon="1.78341">
        <ele>1988.6</ele>
        <time>2024-07-10T16:10:42Z</time>
      </trkpt>
      <trkpt lat="42.60029" lon="1.78347">
        <ele>1987</ele>
        <time>2024-07-10T16:10:48Z</time>
      </trkpt>
      <trkpt lat="42.60028" lon="1.78347">
        <ele>1986.6</ele>
        <time>2024-07-10T16:10:50Z</time>
      </trkpt>
      <trkpt lat="42.60021" lon="1.78348">
        <ele>1985.2</ele>
        <time>2024-07-10T16:10:56Z</time>
      </trkpt>
      <trkpt lat="42.6002" lon="1.7835">
        <ele>1984.4</ele>
        <time>2024-07-10T16:10:58Z</time>
      </trkpt>
      <trkpt lat="42.6001" lon="1.78361">
        <ele>1981</ele>
        <time>2024-07-10T16:11:08Z</time>
      </trkpt>
      <trkpt lat="42.60001" lon="1.78374">
        <ele>1978</ele>
        <time>2024-07-10T16:11:18Z</time>
      </trkpt>
      <trkpt lat="42.6" lon="1.78374">
        <ele>1977.8</ele>
        <time>2024-07-10T16:11:19Z</time>
      </trkpt>
      <trkpt lat="42.59992" lon="1.78378">
        <ele>1977.4</ele>
        <time>2024-07-10T16:11:24Z</time>
      </trkpt>
      <trkpt lat="42.59983" lon="1.78381">
        <ele>1977.8</ele>
        <time>2024-07-10T16:11:31Z</time>
      </trkpt>
      <trkpt lat="42.59975" lon="1.78389">
        <ele>1977.2</ele>
        <time>2024-07-10T16:11:39Z</time>
      </trkpt>
      <trkpt lat="42.59965" lon="1.78395">
        <ele>1976.2</ele>
        <time>2024-07-10T16:11:47Z</time>
      </trkpt>
      <trkpt lat="42.59958" lon="1.78405">
        <ele>1973.2</ele>
        <time>2024-07-10T16:11:55Z</time>
      </trkpt>
      <trkpt lat="42.5995" lon="1.78414">
        <ele>1970.6</ele>
        <time>2024-07-10T16:12:04Z</time>
      </trkpt>
      <trkpt lat="42.59941" lon="1.78422">
        <ele>1969.6</ele>
        <time>2024-07-10T16:12:12Z</time>
      </trkpt>
      <trkpt lat="42.59929" lon="1.78431">
        <ele>1970.4</ele>
        <time>2024-07-10T16:12:22Z</time>
      </trkpt>
      <trkpt lat="42.59916" lon="1.78441">
        <ele>1970.2</ele>
        <time>2024-07-10T16:12:33Z</time>
      </trkpt>
      <trkpt lat="42.59909" lon="1.78449">
        <ele>1970.6</ele>
        <time>2024-07-10T16:12:40Z</time>
      </trkpt>
      <trkpt lat="42.59902" lon="1.78458">
        <ele>1969.8</ele>
        <time>2024-07-10T16:12:47Z</time>
      </trkpt>
      <trkpt lat="42.59896" lon="1.78465">
        <ele>1969.6</ele>
        <time>2024-07-10T16:12:53Z</time>
      </trkpt>
      <trkpt lat="42.59895" lon="1.78465">
        <ele>1969.6</ele>
        <time>2024-07-10T16:12:54Z</time>
      </trkpt>
      <trkpt lat="42.59888" lon="1.78468">
        <ele>1969.6</ele>
        <time>2024-07-10T16:13:00Z</time>
      </trkpt>
      <trkpt lat="42.59877" lon="1.78472">
        <ele>1969.2</ele>
        <time>2024-07-10T16:13:08Z</time>
      </trkpt>
      <trkpt lat="42.59863" lon="1.78473">
        <ele>1968.4</ele>
        <time>2024-07-10T16:13:17Z</time>
      </trkpt>
      <trkpt lat="42.59854" lon="1.78477">
        <ele>1968</ele>
        <time>2024-07-10T16:13:25Z</time>
      </trkpt>
      <trkpt lat="42.59844" lon="1.7848">
        <ele>1966.2</ele>
        <time>2024-07-10T16:13:32Z</time>
      </trkpt>
      <trkpt lat="42.59835" lon="1.78492">
        <ele>1964.4</ele>
        <time>2024-07-10T16:13:42Z</time>
      </trkpt>
      <trkpt lat="42.59827" lon="1.78502">
        <ele>1964.8</ele>
        <time>2024-07-10T16:13:50Z</time>
      </trkpt>
      <trkpt lat="42.59821" lon="1.78508">
        <ele>1964.6</ele>
        <time>2024-07-10T16:13:56Z</time>
      </trkpt>
      <trkpt lat="42.59822" lon="1.7851">
        <ele>1964</ele>
        <time>2024-07-10T16:13:58Z</time>
      </trkpt>
      <trkpt lat="42.59823" lon="1.78512">
        <ele>1963.4</ele>
        <time>2024-07-10T16:14:00Z</time>
      </trkpt>
      <trkpt lat="42.59823" lon="1.78517">
        <ele>1962.4</ele>
        <time>2024-07-10T16:14:03Z</time>
      </trkpt>
      <trkpt lat="42.59816" lon="1.78525">
        <ele>1959.4</ele>
        <time>2024-07-10T16:14:10Z</time>
      </trkpt>
      <trkpt lat="42.59804" lon="1.78536">
        <ele>1956</ele>
        <time>2024-07-10T16:14:21Z</time>
      </trkpt>
      <trkpt lat="42.59793" lon="1.78544">
        <ele>1954</ele>
        <time>2024-07-10T16:14:30Z</time>
      </trkpt>
      <trkpt lat="42.59785" lon="1.78557">
        <ele>1951</ele>
        <time>2024-07-10T16:14:39Z</time>
      </trkpt>
      <trkpt lat="42.5978" lon="1.78564">
        <ele>1950</ele>
        <time>2024-07-10T16:14:44Z</time>
      </trkpt>
      <trkpt lat="42.5978" lon="1.78566">
        <ele>1949.6</ele>
        <time>2024-07-10T16:14:46Z</time>
      </trkpt>
      <trkpt lat="42.5978" lon="1.78573">
        <ele>1948.6</ele>
        <time>2024-07-10T16:14:53Z</time>
      </trkpt>
      <trkpt lat="42.59782" lon="1.78577">
        <ele>1947.2</ele>
        <time>2024-07-10T16:14:58Z</time>
      </trkpt>
      <trkpt lat="42.59778" lon="1.78585">
        <ele>1945.8</ele>
        <time>2024-07-10T16:15:05Z</time>
      </trkpt>
      <trkpt lat="42.59777" lon="1.78586">
        <ele>1945.6</ele>
        <time>2024-07-10T16:15:06Z</time>
      </trkpt>
      <trkpt lat="42.59776" lon="1.78596">
        <ele>1944.4</ele>
        <time>2024-07-10T16:15:13Z</time>
      </trkpt>
      <trkpt lat="42.59777" lon="1.78596">
        <ele>1944</ele>
        <time>2024-07-10T16:15:14Z</time>
      </trkpt>
      <trkpt lat="42.59784" lon="1.78599">
        <ele>1940.8</ele>
        <time>2024-07-10T16:15:21Z</time>
      </trkpt>
      <trkpt lat="42.59784" lon="1.786">
        <ele>1940.2</ele>
        <time>2024-07-10T16:15:22Z</time>
      </trkpt>
      <trkpt lat="42.59785" lon="1.78603">
        <ele>1939.2</ele>
        <time>2024-07-10T16:15:25Z</time>
      </trkpt>
      <trkpt lat="42.59784" lon="1.78606">
        <ele>1938.2</ele>
        <time>2024-07-10T16:15:28Z</time>
      </trkpt>
      <trkpt lat="42.59785" lon="1.78607">
        <ele>1938</ele>
        <time>2024-07-10T16:15:29Z</time>
      </trkpt>
      <trkpt lat="42.59787" lon="1.78612">
        <ele>1936.8</ele>
        <time>2024-07-10T16:15:33Z</time>
      </trkpt>
      <trkpt lat="42.59786" lon="1.78615">
        <ele>1935.8</ele>
        <time>2024-07-10T16:15:35Z</time>
      </trkpt>
      <trkpt lat="42.59781" lon="1.7863">
        <ele>1932.2</ele>
        <time>2024-07-10T16:15:45Z</time>
      </trkpt>
      <trkpt lat="42.59774" lon="1.78644">
        <ele>1928.8</ele>
        <time>2024-07-10T16:15:55Z</time>
      </trkpt>
      <trkpt lat="42.59765" lon="1.7865">
        <ele>1925.2</ele>
        <time>2024-07-10T16:16:03Z</time>
      </trkpt>
      <trkpt lat="42.59765" lon="1.78651">
        <ele>1925</ele>
        <time>2024-07-10T16:16:04Z</time>
      </trkpt>
      <trkpt lat="42.59765" lon="1.78657">
        <ele>1924.2</ele>
        <time>2024-07-10T16:16:07Z</time>
      </trkpt>
      <trkpt lat="42.59763" lon="1.78659">
        <ele>1923.8</ele>
        <time>2024-07-10T16:16:09Z</time>
      </trkpt>
      <trkpt lat="42.59762" lon="1.7866">
        <ele>1923.6</ele>
        <time>2024-07-10T16:16:10Z</time>
      </trkpt>
      <trkpt lat="42.5975" lon="1.78663">
        <ele>1923</ele>
        <time>2024-07-10T16:16:18Z</time>
      </trkpt>
      <trkpt lat="42.59738" lon="1.78659">
        <ele>1923.2</ele>
        <time>2024-07-10T16:16:26Z</time>
      </trkpt>
      <trkpt lat="42.59729" lon="1.78655">
        <ele>1923</ele>
        <time>2024-07-10T16:16:34Z</time>
      </trkpt>
      <trkpt lat="42.59727" lon="1.78656">
        <ele>1922.4</ele>
        <time>2024-07-10T16:16:37Z</time>
      </trkpt>
      <trkpt lat="42.59727" lon="1.7866">
        <ele>1921.6</ele>
        <time>2024-07-10T16:16:39Z</time>
      </trkpt>
      <trkpt lat="42.5972" lon="1.78665">
        <ele>1918.6</ele>
        <time>2024-07-10T16:16:46Z</time>
      </trkpt>
      <trkpt lat="42.59718" lon="1.78667">
        <ele>1917.8</ele>
        <time>2024-07-10T16:16:48Z</time>
      </trkpt>
      <trkpt lat="42.59715" lon="1.78673">
        <ele>1916</ele>
        <time>2024-07-10T16:16:52Z</time>
      </trkpt>
      <trkpt lat="42.59706" lon="1.78683">
        <ele>1913.6</ele>
        <time>2024-07-10T16:16:59Z</time>
      </trkpt>
      <trkpt lat="42.59695" lon="1.78695">
        <ele>1911.8</ele>
        <time>2024-07-10T16:17:08Z</time>
      </trkpt>
      <trkpt lat="42.59687" lon="1.78699">
        <ele>1909.8</ele>
        <time>2024-07-10T16:17:14Z</time>
      </trkpt>
      <trkpt lat="42.59686" lon="1.78702">
        <ele>1909</ele>
        <time>2024-07-10T16:17:16Z</time>
      </trkpt>
      <trkpt lat="42.59681" lon="1.78708">
        <ele>1906.6</ele>
        <time>2024-07-10T16:17:22Z</time>
      </trkpt>
      <trkpt lat="42.59677" lon="1.7872">
        <ele>1904.8</ele>
        <time>2024-07-10T16:17:30Z</time>
      </trkpt>
      <trkpt lat="42.59675" lon="1.78724">
        <ele>1904.2</ele>
        <time>2024-07-10T16:17:34Z</time>
      </trkpt>
      <trkpt lat="42.59674" lon="1.78725">
        <ele>1904</ele>
        <time>2024-07-10T16:17:37Z</time>
      </trkpt>
      <trkpt lat="42.59674" lon="1.78725">
        <ele>1903.6</ele>
        <time>2024-07-10T16:17:46Z</time>
      </trkpt>
      <trkpt lat="42.59669" lon="1.78726">
        <ele>1903</ele>
        <time>2024-07-10T16:18:25Z</time>
      </trkpt>
      <trkpt lat="42.59659" lon="1.7873">
        <ele>1903.6</ele>
        <time>2024-07-10T16:18:32Z</time>
      </trkpt>
      <trkpt lat="42.59654" lon="1.78732">
        <ele>1904</ele>
        <time>2024-07-10T16:18:36Z</time>
      </trkpt>
      <trkpt lat="42.59653" lon="1.78734">
        <ele>1904.2</ele>
        <time>2024-07-10T16:18:38Z</time>
      </trkpt>
      <trkpt lat="42.59652" lon="1.78735">
        <ele>1904.4</ele>
        <time>2024-07-10T16:18:39Z</time>
      </trkpt>
      <trkpt lat="42.59647" lon="1.78737">
        <ele>1905</ele>
        <time>2024-07-10T16:18:44Z</time>
      </trkpt>
      <trkpt lat="42.59645" lon="1.78738">
        <ele>1905</ele>
        <time>2024-07-10T16:18:48Z</time>
      </trkpt>
      <trkpt lat="42.59637" lon="1.7874">
        <ele>1901.8</ele>
        <time>2024-07-10T16:18:56Z</time>
      </trkpt>
      <trkpt lat="42.59629" lon="1.7874">
        <ele>1897.8</ele>
        <time>2024-07-10T16:19:04Z</time>
      </trkpt>
      <trkpt lat="42.59615" lon="1.78737">
        <ele>1893.4</ele>
        <time>2024-07-10T16:19:15Z</time>
      </trkpt>
      <trkpt lat="42.59604" lon="1.78731">
        <ele>1891.2</ele>
        <time>2024-07-10T16:19:24Z</time>
      </trkpt>
      <trkpt lat="42.59596" lon="1.78728">
        <ele>1890</ele>
        <time>2024-07-10T16:19:31Z</time>
      </trkpt>
      <trkpt lat="42.59595" lon="1.78728">
        <ele>1889.8</ele>
        <time>2024-07-10T16:19:32Z</time>
      </trkpt>
      <trkpt lat="42.59588" lon="1.78729">
        <ele>1887.4</ele>
        <time>2024-07-10T16:19:39Z</time>
      </trkpt>
      <trkpt lat="42.59587" lon="1.7873">
        <ele>1887</ele>
        <time>2024-07-10T16:19:40Z</time>
      </trkpt>
      <trkpt lat="42.59575" lon="1.78736">
        <ele>1882.6</ele>
        <time>2024-07-10T16:19:49Z</time>
      </trkpt>
      <trkpt lat="42.59567" lon="1.7874">
        <ele>1879.8</ele>
        <time>2024-07-10T16:19:57Z</time>
      </trkpt>
      <trkpt lat="42.59559" lon="1.78744">
        <ele>1877.8</ele>
        <time>2024-07-10T16:20:04Z</time>
      </trkpt>
      <trkpt lat="42.59551" lon="1.78749">
        <ele>1875.8</ele>
        <time>2024-07-10T16:20:11Z</time>
      </trkpt>
      <trkpt lat="42.59541" lon="1.78753">
        <ele>1874.6</ele>
        <time>2024-07-10T16:20:19Z</time>
      </trkpt>
      <trkpt lat="42.59539" lon="1.78754">
        <ele>1873.6</ele>
        <time>2024-07-10T16:20:22Z</time>
      </trkpt>
      <trkpt lat="42.59534" lon="1.78757">
        <ele>1870.8</ele>
        <time>2024-07-10T16:20:28Z</time>
      </trkpt>
      <trkpt lat="42.59528" lon="1.78758">
        <ele>1868.4</ele>
        <time>2024-07-10T16:20:34Z</time>
      </trkpt>
      <trkpt lat="42.59528" lon="1.78759">
        <ele>1868.2</ele>
        <time>2024-07-10T16:20:35Z</time>
      </trkpt>
      <trkpt lat="42.59525" lon="1.78774">
        <ele>1865</ele>
        <time>2024-07-10T16:20:44Z</time>
      </trkpt>
      <trkpt lat="42.59516" lon="1.78778">
        <ele>1864</ele>
        <time>2024-07-10T16:20:50Z</time>
      </trkpt>
      <trkpt lat="42.59514" lon="1.7878">
        <ele>1863.8</ele>
        <time>2024-07-10T16:20:52Z</time>
      </trkpt>
      <trkpt lat="42.59503" lon="1.7878">
        <ele>1862</ele>
        <time>2024-07-10T16:20:59Z</time>
      </trkpt>
      <trkpt lat="42.59506" lon="1.78773">
        <ele>1861.4</ele>
        <time>2024-07-10T16:21:03Z</time>
      </trkpt>
      <trkpt lat="42.59511" lon="1.78768">
        <ele>1859.6</ele>
        <time>2024-07-10T16:21:08Z</time>
      </trkpt>
      <trkpt lat="42.59511" lon="1.78764">
        <ele>1858.8</ele>
        <time>2024-07-10T16:21:10Z</time>
      </trkpt>
      <trkpt lat="42.59512" lon="1.78758">
        <ele>1858.4</ele>
        <time>2024-07-10T16:21:13Z</time>
      </trkpt>
      <trkpt lat="42.59509" lon="1.78759">
        <ele>1858.2</ele>
        <time>2024-07-10T16:21:15Z</time>
      </trkpt>
      <trkpt lat="42.59499" lon="1.78762">
        <ele>1855.6</ele>
        <time>2024-07-10T16:21:23Z</time>
      </trkpt>
      <trkpt lat="42.59491" lon="1.78764">
        <ele>1853.4</ele>
        <time>2024-07-10T16:21:29Z</time>
      </trkpt>
      <trkpt lat="42.59487" lon="1.78764">
        <ele>1852.6</ele>
        <time>2024-07-10T16:21:33Z</time>
      </trkpt>
      <trkpt lat="42.59486" lon="1.78762">
        <ele>1852.4</ele>
        <time>2024-07-10T16:21:34Z</time>
      </trkpt>
      <trkpt lat="42.59485" lon="1.78756">
        <ele>1852</ele>
        <time>2024-07-10T16:21:37Z</time>
      </trkpt>
      <trkpt lat="42.59484" lon="1.78753">
        <ele>1851.8</ele>
        <time>2024-07-10T16:21:39Z</time>
      </trkpt>
      <trkpt lat="42.5948" lon="1.78754">
        <ele>1851</ele>
        <time>2024-07-10T16:21:42Z</time>
      </trkpt>
      <trkpt lat="42.59473" lon="1.78758">
        <ele>1848.8</ele>
        <time>2024-07-10T16:21:49Z</time>
      </trkpt>
      <trkpt lat="42.59465" lon="1.78758">
        <ele>1845.6</ele>
        <time>2024-07-10T16:21:55Z</time>
      </trkpt>
      <trkpt lat="42.59462" lon="1.78755">
        <ele>1844.2</ele>
        <time>2024-07-10T16:21:58Z</time>
      </trkpt>
      <trkpt lat="42.59458" lon="1.78747">
        <ele>1841.8</ele>
        <time>2024-07-10T16:22:04Z</time>
      </trkpt>
      <trkpt lat="42.59454" lon="1.78745">
        <ele>1840.6</ele>
        <time>2024-07-10T16:22:08Z</time>
      </trkpt>
      <trkpt lat="42.59454" lon="1.78744">
        <ele>1840.4</ele>
        <time>2024-07-10T16:22:09Z</time>
      </trkpt>
      <trkpt lat="42.59453" lon="1.78743">
        <ele>1839.2</ele>
        <time>2024-07-10T16:22:12Z</time>
      </trkpt>
      <trkpt lat="42.59451" lon="1.78743">
        <ele>1838.2</ele>
        <time>2024-07-10T16:22:14Z</time>
      </trkpt>
      <trkpt lat="42.59445" lon="1.78746">
        <ele>1836.8</ele>
        <time>2024-07-10T16:22:20Z</time>
      </trkpt>
      <trkpt lat="42.59444" lon="1.78739">
        <ele>1835.6</ele>
        <time>2024-07-10T16:22:25Z</time>
      </trkpt>
      <trkpt lat="42.59444" lon="1.78728">
        <ele>1833.2</ele>
        <time>2024-07-10T16:22:31Z</time>
      </trkpt>
      <trkpt lat="42.59444" lon="1.78716">
        <ele>1830.4</ele>
        <time>2024-07-10T16:22:40Z</time>
      </trkpt>
      <trkpt lat="42.59439" lon="1.78706">
        <ele>1829.8</ele>
        <time>2024-07-10T16:22:47Z</time>
      </trkpt>
      <trkpt lat="42.59438" lon="1.78705">
        <ele>1829.6</ele>
        <time>2024-07-10T16:22:48Z</time>
      </trkpt>
      <trkpt lat="42.59429" lon="1.78695">
        <ele>1827.4</ele>
        <time>2024-07-10T16:22:57Z</time>
      </trkpt>
      <trkpt lat="42.59426" lon="1.78688">
        <ele>1826.4</ele>
        <time>2024-07-10T16:23:04Z</time>
      </trkpt>
      <trkpt lat="42.59423" lon="1.78686">
        <ele>1825.8</ele>
        <time>2024-07-10T16:23:12Z</time>
      </trkpt>
      <trkpt lat="42.5942" lon="1.78684">
        <ele>1825.8</ele>
        <time>2024-07-10T16:23:19Z</time>
      </trkpt>
      <trkpt lat="42.59417" lon="1.78679">
        <ele>1825.8</ele>
        <time>2024-07-10T16:23:26Z</time>
      </trkpt>
      <trkpt lat="42.59412" lon="1.78672">
        <ele>1824.2</ele>
        <time>2024-07-10T16:23:35Z</time>
      </trkpt>
      <trkpt lat="42.59408" lon="1.78668">
        <ele>1822.8</ele>
        <time>2024-07-10T16:23:41Z</time>
      </trkpt>
      <trkpt lat="42.59404" lon="1.78662">
        <ele>1819.6</ele>
        <time>2024-07-10T16:23:48Z</time>
      </trkpt>
      <trkpt lat="42.59398" lon="1.78655">
        <ele>1817</ele>
        <time>2024-07-10T16:23:55Z</time>
      </trkpt>
      <trkpt lat="42.59397" lon="1.78652">
        <ele>1816.6</ele>
        <time>2024-07-10T16:23:57Z</time>
      </trkpt>
      <trkpt lat="42.59387" lon="1.78649">
        <ele>1814.2</ele>
        <time>2024-07-10T16:24:06Z</time>
      </trkpt>
      <trkpt lat="42.59384" lon="1.78645">
        <ele>1813.6</ele>
        <time>2024-07-10T16:24:12Z</time>
      </trkpt>
      <trkpt lat="42.59381" lon="1.7864">
        <ele>1813.6</ele>
        <time>2024-07-10T16:24:19Z</time>
      </trkpt>
      <trkpt lat="42.59377" lon="1.78639">
        <ele>1813.2</ele>
        <time>2024-07-10T16:24:23Z</time>
      </trkpt>
      <trkpt lat="42.59376" lon="1.78638">
        <ele>1813.2</ele>
        <time>2024-07-10T16:24:24Z</time>
      </trkpt>
      <trkpt lat="42.5937" lon="1.78634">
        <ele>1813</ele>
        <time>2024-07-10T16:24:30Z</time>
      </trkpt>
      <trkpt lat="42.5937" lon="1.78634">
        <ele>1812.8</ele>
        <time>2024-07-10T16:24:31Z</time>
      </trkpt>
      <trkpt lat="42.59361" lon="1.78629">
        <ele>1811</ele>
        <time>2024-07-10T16:24:40Z</time>
      </trkpt>
      <trkpt lat="42.59359" lon="1.78631">
        <ele>1809.4</ele>
        <time>2024-07-10T16:24:46Z</time>
      </trkpt>
      <trkpt lat="42.59359" lon="1.78635">
        <ele>1808.2</ele>
        <time>2024-07-10T16:24:51Z</time>
      </trkpt>
      <trkpt lat="42.5936" lon="1.78638">
        <ele>1807.4</ele>
        <time>2024-07-10T16:24:53Z</time>
      </trkpt>
      <trkpt lat="42.59363" lon="1.78649">
        <ele>1804.6</ele>
        <time>2024-07-10T16:25:03Z</time>
      </trkpt>
      <trkpt lat="42.59359" lon="1.78657">
        <ele>1800.6</ele>
        <time>2024-07-10T16:25:12Z</time>
      </trkpt>
      <trkpt lat="42.59353" lon="1.78652">
        <ele>1797</ele>
        <time>2024-07-10T16:25:20Z</time>
      </trkpt>
      <trkpt lat="42.59345" lon="1.78646">
        <ele>1795.4</ele>
        <time>2024-07-10T16:25:29Z</time>
      </trkpt>
      <trkpt lat="42.59344" lon="1.78646">
        <ele>1795.4</ele>
        <time>2024-07-10T16:25:30Z</time>
      </trkpt>
      <trkpt lat="42.59341" lon="1.78644">
        <ele>1795.4</ele>
        <time>2024-07-10T16:25:34Z</time>
      </trkpt>
      <trkpt lat="42.5934" lon="1.78645">
        <ele>1794</ele>
        <time>2024-07-10T16:25:41Z</time>
      </trkpt>
      <trkpt lat="42.59338" lon="1.78645">
        <ele>1793.6</ele>
        <time>2024-07-10T16:25:48Z</time>
      </trkpt>
      <trkpt lat="42.59332" lon="1.78642">
        <ele>1793.2</ele>
        <time>2024-07-10T16:26:07Z</time>
      </trkpt>
      <trkpt lat="42.59327" lon="1.78641">
        <ele>1793.2</ele>
        <time>2024-07-10T16:26:10Z</time>
      </trkpt>
      <trkpt lat="42.5932" lon="1.78639">
        <ele>1793.2</ele>
        <time>2024-07-10T16:26:14Z</time>
      </trkpt>
      <trkpt lat="42.5931" lon="1.78632">
        <ele>1791</ele>
        <time>2024-07-10T16:26:24Z</time>
      </trkpt>
      <trkpt lat="42.59302" lon="1.78631">
        <ele>1790.2</ele>
        <time>2024-07-10T16:26:31Z</time>
      </trkpt>
      <trkpt lat="42.59301" lon="1.78631">
        <ele>1790</ele>
        <time>2024-07-10T16:26:32Z</time>
      </trkpt>
      <trkpt lat="42.59293" lon="1.78631">
        <ele>1788.6</ele>
        <time>2024-07-10T16:26:41Z</time>
      </trkpt>
      <trkpt lat="42.59284" lon="1.7863">
        <ele>1786</ele>
        <time>2024-07-10T16:26:50Z</time>
      </trkpt>
      <trkpt lat="42.59275" lon="1.78627">
        <ele>1782.8</ele>
        <time>2024-07-10T16:26:58Z</time>
      </trkpt>
      <trkpt lat="42.59271" lon="1.78623">
        <ele>1781.2</ele>
        <time>2024-07-10T16:27:02Z</time>
      </trkpt>
      <trkpt lat="42.59267" lon="1.78622">
        <ele>1778.8</ele>
        <time>2024-07-10T16:27:06Z</time>
      </trkpt>
      <trkpt lat="42.59257" lon="1.78618">
        <ele>1775.6</ele>
        <time>2024-07-10T16:27:17Z</time>
      </trkpt>
      <trkpt lat="42.59248" lon="1.7861">
        <ele>1773.6</ele>
        <time>2024-07-10T16:27:27Z</time>
      </trkpt>
      <trkpt lat="42.59241" lon="1.78604">
        <ele>1772.2</ele>
        <time>2024-07-10T16:27:34Z</time>
      </trkpt>
      <trkpt lat="42.59233" lon="1.78597">
        <ele>1771.8</ele>
        <time>2024-07-10T16:27:43Z</time>
      </trkpt>
      <trkpt lat="42.5923" lon="1.78595">
        <ele>1771.8</ele>
        <time>2024-07-10T16:27:46Z</time>
      </trkpt>
      <trkpt lat="42.59224" lon="1.78591">
        <ele>1771.6</ele>
        <time>2024-07-10T16:27:52Z</time>
      </trkpt>
      <trkpt lat="42.59212" lon="1.78581">
        <ele>1771</ele>
        <time>2024-07-10T16:28:03Z</time>
      </trkpt>
      <trkpt lat="42.59208" lon="1.78576">
        <ele>1772.2</ele>
        <time>2024-07-10T16:28:09Z</time>
      </trkpt>
      <trkpt lat="42.59206" lon="1.78576">
        <ele>1772.4</ele>
        <time>2024-07-10T16:28:11Z</time>
      </trkpt>
      <trkpt lat="42.59199" lon="1.78572">
        <ele>1772</ele>
        <time>2024-07-10T16:28:18Z</time>
      </trkpt>
      <trkpt lat="42.59186" lon="1.78564">
        <ele>1769.4</ele>
        <time>2024-07-10T16:28:29Z</time>
      </trkpt>
      <trkpt lat="42.59178" lon="1.78557">
        <ele>1768.2</ele>
        <time>2024-07-10T16:28:37Z</time>
      </trkpt>
      <trkpt lat="42.59169" lon="1.78549">
        <ele>1767.2</ele>
        <time>2024-07-10T16:28:46Z</time>
      </trkpt>
      <trkpt lat="42.59167" lon="1.78548">
        <ele>1767.2</ele>
        <time>2024-07-10T16:28:48Z</time>
      </trkpt>
      <trkpt lat="42.59163" lon="1.78543">
        <ele>1767.4</ele>
        <time>2024-07-10T16:28:53Z</time>
      </trkpt>
      <trkpt lat="42.59154" lon="1.7854">
        <ele>1767.4</ele>
        <time>2024-07-10T16:29:01Z</time>
      </trkpt>
      <trkpt lat="42.59153" lon="1.78539">
        <ele>1766.8</ele>
        <time>2024-07-10T16:29:06Z</time>
      </trkpt>
      <trkpt lat="42.59149" lon="1.78534">
        <ele>1766.8</ele>
        <time>2024-07-10T16:29:16Z</time>
      </trkpt>
      <trkpt lat="42.5914" lon="1.78528">
        <ele>1767.2</ele>
        <time>2024-07-10T16:29:24Z</time>
      </trkpt>
      <trkpt lat="42.59131" lon="1.78521">
        <ele>1765.8</ele>
        <time>2024-07-10T16:29:33Z</time>
      </trkpt>
      <trkpt lat="42.59121" lon="1.78515">
        <ele>1764</ele>
        <time>2024-07-10T16:29:42Z</time>
      </trkpt>
      <trkpt lat="42.59111" lon="1.7851">
        <ele>1762</ele>
        <time>2024-07-10T16:29:50Z</time>
      </trkpt>
      <trkpt lat="42.59103" lon="1.78499">
        <ele>1758.8</ele>
        <time>2024-07-10T16:29:57Z</time>
      </trkpt>
      <trkpt lat="42.59095" lon="1.78487">
        <ele>1758.6</ele>
        <time>2024-07-10T16:30:06Z</time>
      </trkpt>
      <trkpt lat="42.59082" lon="1.78473">
        <ele>1758.2</ele>
        <time>2024-07-10T16:30:18Z</time>
      </trkpt>
      <trkpt lat="42.59071" lon="1.7846">
        <ele>1757.8</ele>
        <time>2024-07-10T16:30:29Z</time>
      </trkpt>
      <trkpt lat="42.59061" lon="1.7845">
        <ele>1756.6</ele>
        <time>2024-07-10T16:30:38Z</time>
      </trkpt>
      <trkpt lat="42.59051" lon="1.78438">
        <ele>1754.6</ele>
        <time>2024-07-10T16:30:48Z</time>
      </trkpt>
      <trkpt lat="42.59044" lon="1.78431">
        <ele>1753.4</ele>
        <time>2024-07-10T16:30:55Z</time>
      </trkpt>
      <trkpt lat="42.59039" lon="1.78429">
        <ele>1753.4</ele>
        <time>2024-07-10T16:30:59Z</time>
      </trkpt>
      <trkpt lat="42.59036" lon="1.78428">
        <ele>1753.4</ele>
        <time>2024-07-10T16:31:01Z</time>
      </trkpt>
      <trkpt lat="42.59035" lon="1.78427">
        <ele>1753.4</ele>
        <time>2024-07-10T16:31:02Z</time>
      </trkpt>
      <trkpt lat="42.59028" lon="1.78424">
        <ele>1753.2</ele>
        <time>2024-07-10T16:31:08Z</time>
      </trkpt>
      <trkpt lat="42.59026" lon="1.78424">
        <ele>1753</ele>
        <time>2024-07-10T16:31:10Z</time>
      </trkpt>
      <trkpt lat="42.59021" lon="1.78423">
        <ele>1753</ele>
        <time>2024-07-10T16:31:14Z</time>
      </trkpt>
      <trkpt lat="42.59019" lon="1.78422">
        <ele>1753</ele>
        <time>2024-07-10T16:31:16Z</time>
      </trkpt>
      <trkpt lat="42.5901" lon="1.7841">
        <ele>1752.4</ele>
        <time>2024-07-10T16:31:25Z</time>
      </trkpt>
      <trkpt lat="42.59003" lon="1.78404">
        <ele>1752</ele>
        <time>2024-07-10T16:31:31Z</time>
      </trkpt>
      <trkpt lat="42.59001" lon="1.78401">
        <ele>1751.8</ele>
        <time>2024-07-10T16:31:33Z</time>
      </trkpt>
      <trkpt lat="42.58992" lon="1.78392">
        <ele>1750</ele>
        <time>2024-07-10T16:31:41Z</time>
      </trkpt>
      <trkpt lat="42.58982" lon="1.78385">
        <ele>1749.2</ele>
        <time>2024-07-10T16:31:50Z</time>
      </trkpt>
      <trkpt lat="42.5898" lon="1.78385">
        <ele>1749</ele>
        <time>2024-07-10T16:31:51Z</time>
      </trkpt>
      <trkpt lat="42.5897" lon="1.78384">
        <ele>1749</ele>
        <time>2024-07-10T16:31:59Z</time>
      </trkpt>
      <trkpt lat="42.5896" lon="1.78382">
        <ele>1747</ele>
        <time>2024-07-10T16:32:08Z</time>
      </trkpt>
      <trkpt lat="42.58959" lon="1.78386">
        <ele>1746</ele>
        <time>2024-07-10T16:32:11Z</time>
      </trkpt>
      <trkpt lat="42.5896" lon="1.78389">
        <ele>1745.8</ele>
        <time>2024-07-10T16:32:13Z</time>
      </trkpt>
      <trkpt lat="42.58966" lon="1.78407">
        <ele>1742.8</ele>
        <time>2024-07-10T16:32:23Z</time>
      </trkpt>
      <trkpt lat="42.58959" lon="1.78415">
        <ele>1742.2</ele>
        <time>2024-07-10T16:32:30Z</time>
      </trkpt>
      <trkpt lat="42.58955" lon="1.78421">
        <ele>1742.2</ele>
        <time>2024-07-10T16:32:35Z</time>
      </trkpt>
      <trkpt lat="42.58955" lon="1.78423">
        <ele>1742</ele>
        <time>2024-07-10T16:32:37Z</time>
      </trkpt>
      <trkpt lat="42.58952" lon="1.78429">
        <ele>1741.2</ele>
        <time>2024-07-10T16:32:42Z</time>
      </trkpt>
      <trkpt lat="42.58951" lon="1.78431">
        <ele>1740.8</ele>
        <time>2024-07-10T16:32:44Z</time>
      </trkpt>
      <trkpt lat="42.5895" lon="1.78433">
        <ele>1740.6</ele>
        <time>2024-07-10T16:32:45Z</time>
      </trkpt>
      <trkpt lat="42.58951" lon="1.78441">
        <ele>1740</ele>
        <time>2024-07-10T16:32:50Z</time>
      </trkpt>
      <trkpt lat="42.5895" lon="1.78445">
        <ele>1739.6</ele>
        <time>2024-07-10T16:32:53Z</time>
      </trkpt>
      <trkpt lat="42.58946" lon="1.78449">
        <ele>1738.8</ele>
        <time>2024-07-10T16:32:57Z</time>
      </trkpt>
      <trkpt lat="42.58939" lon="1.78459">
        <ele>1738.8</ele>
        <time>2024-07-10T16:33:05Z</time>
      </trkpt>
      <trkpt lat="42.58941" lon="1.78473">
        <ele>1739.8</ele>
        <time>2024-07-10T16:33:16Z</time>
      </trkpt>
      <trkpt lat="42.58947" lon="1.78486">
        <ele>1738.8</ele>
        <time>2024-07-10T16:33:25Z</time>
      </trkpt>
      <trkpt lat="42.58948" lon="1.78494">
        <ele>1739</ele>
        <time>2024-07-10T16:33:30Z</time>
      </trkpt>
      <trkpt lat="42.5895" lon="1.78496">
        <ele>1739</ele>
        <time>2024-07-10T16:33:32Z</time>
      </trkpt>
      <trkpt lat="42.58957" lon="1.78509">
        <ele>1738.4</ele>
        <time>2024-07-10T16:33:41Z</time>
      </trkpt>
      <trkpt lat="42.58957" lon="1.78512">
        <ele>1738.4</ele>
        <time>2024-07-10T16:33:43Z</time>
      </trkpt>
      <trkpt lat="42.58961" lon="1.78517">
        <ele>1738.4</ele>
        <time>2024-07-10T16:33:47Z</time>
      </trkpt>
      <trkpt lat="42.58967" lon="1.78526">
        <ele>1736.8</ele>
        <time>2024-07-10T16:33:54Z</time>
      </trkpt>
      <trkpt lat="42.58969" lon="1.78527">
        <ele>1735.8</ele>
        <time>2024-07-10T16:33:56Z</time>
      </trkpt>
      <trkpt lat="42.5898" lon="1.7854">
        <ele>1733.2</ele>
        <time>2024-07-10T16:34:06Z</time>
      </trkpt>
      <trkpt lat="42.58985" lon="1.78547">
        <ele>1730.4</ele>
        <time>2024-07-10T16:34:13Z</time>
      </trkpt>
      <trkpt lat="42.58992" lon="1.78559">
        <ele>1729.2</ele>
        <time>2024-07-10T16:34:22Z</time>
      </trkpt>
      <trkpt lat="42.58996" lon="1.78573">
        <ele>1727.8</ele>
        <time>2024-07-10T16:34:30Z</time>
      </trkpt>
      <trkpt lat="42.58996" lon="1.78574">
        <ele>1727.6</ele>
        <time>2024-07-10T16:34:31Z</time>
      </trkpt>
      <trkpt lat="42.59001" lon="1.78582">
        <ele>1725.8</ele>
        <time>2024-07-10T16:34:36Z</time>
      </trkpt>
      <trkpt lat="42.59001" lon="1.786">
        <ele>1721.6</ele>
        <time>2024-07-10T16:34:46Z</time>
      </trkpt>
      <trkpt lat="42.59001" lon="1.78616">
        <ele>1719.4</ele>
        <time>2024-07-10T16:34:55Z</time>
      </trkpt>
      <trkpt lat="42.59002" lon="1.78617">
        <ele>1719.2</ele>
        <time>2024-07-10T16:34:56Z</time>
      </trkpt>
      <trkpt lat="42.59006" lon="1.78626">
        <ele>1718</ele>
        <time>2024-07-10T16:35:02Z</time>
      </trkpt>
      <trkpt lat="42.59009" lon="1.78641">
        <ele>1717</ele>
        <time>2024-07-10T16:35:11Z</time>
      </trkpt>
      <trkpt lat="42.59008" lon="1.78646">
        <ele>1717</ele>
        <time>2024-07-10T16:35:14Z</time>
      </trkpt>
      <trkpt lat="42.59007" lon="1.78652">
        <ele>1716.8</ele>
        <time>2024-07-10T16:35:18Z</time>
      </trkpt>
      <trkpt lat="42.59008" lon="1.78666">
        <ele>1716.4</ele>
        <time>2024-07-10T16:35:26Z</time>
      </trkpt>
      <trkpt lat="42.5901" lon="1.78672">
        <ele>1716.2</ele>
        <time>2024-07-10T16:35:29Z</time>
      </trkpt>
      <trkpt lat="42.59012" lon="1.78675">
        <ele>1715.6</ele>
        <time>2024-07-10T16:35:32Z</time>
      </trkpt>
      <trkpt lat="42.59017" lon="1.78687">
        <ele>1713.8</ele>
        <time>2024-07-10T16:35:39Z</time>
      </trkpt>
      <trkpt lat="42.5902" lon="1.78698">
        <ele>1712</ele>
        <time>2024-07-10T16:35:46Z</time>
      </trkpt>
      <trkpt lat="42.5902" lon="1.78699">
        <ele>1711.6</ele>
        <time>2024-07-10T16:35:47Z</time>
      </trkpt>
      <trkpt lat="42.59021" lon="1.78714">
        <ele>1707.8</ele>
        <time>2024-07-10T16:35:56Z</time>
      </trkpt>
      <trkpt lat="42.59022" lon="1.78728">
        <ele>1707.4</ele>
        <time>2024-07-10T16:36:05Z</time>
      </trkpt>
      <trkpt lat="42.59024" lon="1.78741">
        <ele>1706.8</ele>
        <time>2024-07-10T16:36:14Z</time>
      </trkpt>
      <trkpt lat="42.59024" lon="1.78743">
        <ele>1706.6</ele>
        <time>2024-07-10T16:36:15Z</time>
      </trkpt>
      <trkpt lat="42.59024" lon="1.7875">
        <ele>1705.8</ele>
        <time>2024-07-10T16:36:21Z</time>
      </trkpt>
      <trkpt lat="42.59022" lon="1.78761">
        <ele>1704</ele>
        <time>2024-07-10T16:36:30Z</time>
      </trkpt>
      <trkpt lat="42.59022" lon="1.78762">
        <ele>1703.8</ele>
        <time>2024-07-10T16:36:31Z</time>
      </trkpt>
      <trkpt lat="42.59022" lon="1.78764">
        <ele>1703.6</ele>
        <time>2024-07-10T16:36:33Z</time>
      </trkpt>
      <trkpt lat="42.59023" lon="1.78767">
        <ele>1703.2</ele>
        <time>2024-07-10T16:36:36Z</time>
      </trkpt>
      <trkpt lat="42.59024" lon="1.78773">
        <ele>1702.4</ele>
        <time>2024-07-10T16:36:40Z</time>
      </trkpt>
      <trkpt lat="42.59024" lon="1.78776">
        <ele>1701.6</ele>
        <time>2024-07-10T16:36:43Z</time>
      </trkpt>
      <trkpt lat="42.59017" lon="1.78791">
        <ele>1700.2</ele>
        <time>2024-07-10T16:36:53Z</time>
      </trkpt>
      <trkpt lat="42.59017" lon="1.78792">
        <ele>1700.2</ele>
        <time>2024-07-10T16:36:54Z</time>
      </trkpt>
      <trkpt lat="42.59019" lon="1.78803">
        <ele>1697.8</ele>
        <time>2024-07-10T16:37:01Z</time>
      </trkpt>
      <trkpt lat="42.59021" lon="1.78817">
        <ele>1695.6</ele>
        <time>2024-07-10T16:37:10Z</time>
      </trkpt>
      <trkpt lat="42.59022" lon="1.78817">
        <ele>1695.2</ele>
        <time>2024-07-10T16:37:11Z</time>
      </trkpt>
      <trkpt lat="42.59022" lon="1.78813">
        <ele>1694.2</ele>
        <time>2024-07-10T16:37:14Z</time>
      </trkpt>
      <trkpt lat="42.59028" lon="1.78799">
        <ele>1694</ele>
        <time>2024-07-10T16:37:23Z</time>
      </trkpt>
      <trkpt lat="42.59034" lon="1.78792">
        <ele>1694.2</ele>
        <time>2024-07-10T16:37:30Z</time>
      </trkpt>
      <trkpt lat="42.59036" lon="1.78792">
        <ele>1694.4</ele>
        <time>2024-07-10T16:37:32Z</time>
      </trkpt>
      <trkpt lat="42.59037" lon="1.78794">
        <ele>1694.4</ele>
        <time>2024-07-10T16:37:34Z</time>
      </trkpt>
      <trkpt lat="42.59037" lon="1.78796">
        <ele>1694.4</ele>
        <time>2024-07-10T16:37:35Z</time>
      </trkpt>
      <trkpt lat="42.59037" lon="1.78807">
        <ele>1693.4</ele>
        <time>2024-07-10T16:37:42Z</time>
      </trkpt>
      <trkpt lat="42.59037" lon="1.78809">
        <ele>1692.6</ele>
        <time>2024-07-10T16:37:43Z</time>
      </trkpt>
      <trkpt lat="42.59038" lon="1.78814">
        <ele>1690</ele>
        <time>2024-07-10T16:37:46Z</time>
      </trkpt>
      <trkpt lat="42.59041" lon="1.78821">
        <ele>1687.4</ele>
        <time>2024-07-10T16:37:51Z</time>
      </trkpt>
      <trkpt lat="42.59045" lon="1.78838">
        <ele>1683.8</ele>
        <time>2024-07-10T16:38:00Z</time>
      </trkpt>
      <trkpt lat="42.59048" lon="1.78847">
        <ele>1683</ele>
        <time>2024-07-10T16:38:06Z</time>
      </trkpt>
      <trkpt lat="42.59049" lon="1.7885">
        <ele>1682.8</ele>
        <time>2024-07-10T16:38:09Z</time>
      </trkpt>
      <trkpt lat="42.59051" lon="1.78857">
        <ele>1682.8</ele>
        <time>2024-07-10T16:38:15Z</time>
      </trkpt>
      <trkpt lat="42.59051" lon="1.78858">
        <ele>1682.8</ele>
        <time>2024-07-10T16:38:16Z</time>
      </trkpt>
      <trkpt lat="42.59054" lon="1.78865">
        <ele>1681.6</ele>
        <time>2024-07-10T16:38:21Z</time>
      </trkpt>
      <trkpt lat="42.59055" lon="1.78871">
        <ele>1679</ele>
        <time>2024-07-10T16:38:28Z</time>
      </trkpt>
      <trkpt lat="42.59055" lon="1.78869">
        <ele>1678.2</ele>
        <time>2024-07-10T16:38:30Z</time>
      </trkpt>
      <trkpt lat="42.59059" lon="1.78859">
        <ele>1677</ele>
        <time>2024-07-10T16:38:35Z</time>
      </trkpt>
      <trkpt lat="42.5906" lon="1.78856">
        <ele>1676.8</ele>
        <time>2024-07-10T16:38:37Z</time>
      </trkpt>
      <trkpt lat="42.59065" lon="1.78853">
        <ele>1676.8</ele>
        <time>2024-07-10T16:38:41Z</time>
      </trkpt>
      <trkpt lat="42.59068" lon="1.78852">
        <ele>1676.2</ele>
        <time>2024-07-10T16:38:45Z</time>
      </trkpt>
      <trkpt lat="42.59072" lon="1.78853">
        <ele>1675.8</ele>
        <time>2024-07-10T16:38:48Z</time>
      </trkpt>
      <trkpt lat="42.59077" lon="1.78854">
        <ele>1675.4</ele>
        <time>2024-07-10T16:38:52Z</time>
      </trkpt>
      <trkpt lat="42.59079" lon="1.78858">
        <ele>1674.2</ele>
        <time>2024-07-10T16:38:55Z</time>
      </trkpt>
      <trkpt lat="42.59078" lon="1.7886">
        <ele>1673.8</ele>
        <time>2024-07-10T16:38:56Z</time>
      </trkpt>
      <trkpt lat="42.59077" lon="1.78865">
        <ele>1672.8</ele>
        <time>2024-07-10T16:39:00Z</time>
      </trkpt>
      <trkpt lat="42.59077" lon="1.78866">
        <ele>1672.6</ele>
        <time>2024-07-10T16:39:01Z</time>
      </trkpt>
      <trkpt lat="42.59079" lon="1.78871">
        <ele>1669.8</ele>
        <time>2024-07-10T16:39:07Z</time>
      </trkpt>
      <trkpt lat="42.5908" lon="1.78873">
        <ele>1669.2</ele>
        <time>2024-07-10T16:39:08Z</time>
      </trkpt>
      <trkpt lat="42.59083" lon="1.78877">
        <ele>1667.8</ele>
        <time>2024-07-10T16:39:11Z</time>
      </trkpt>
      <trkpt lat="42.59083" lon="1.78881">
        <ele>1666.8</ele>
        <time>2024-07-10T16:39:14Z</time>
      </trkpt>
      <trkpt lat="42.59082" lon="1.78884">
        <ele>1665.8</ele>
        <time>2024-07-10T16:39:16Z</time>
      </trkpt>
      <trkpt lat="42.59078" lon="1.78891">
        <ele>1662.8</ele>
        <time>2024-07-10T16:39:22Z</time>
      </trkpt>
      <trkpt lat="42.59079" lon="1.78892">
        <ele>1661.8</ele>
        <time>2024-07-10T16:39:25Z</time>
      </trkpt>
      <trkpt lat="42.59081" lon="1.78894">
        <ele>1661.2</ele>
        <time>2024-07-10T16:39:27Z</time>
      </trkpt>
      <trkpt lat="42.59081" lon="1.78894">
        <ele>1660.6</ele>
        <time>2024-07-10T16:39:28Z</time>
      </trkpt>
      <trkpt lat="42.59081" lon="1.78898">
        <ele>1659.6</ele>
        <time>2024-07-10T16:39:31Z</time>
      </trkpt>
      <trkpt lat="42.59081" lon="1.78901">
        <ele>1659</ele>
        <time>2024-07-10T16:39:33Z</time>
      </trkpt>
      <trkpt lat="42.5908" lon="1.78903">
        <ele>1658</ele>
        <time>2024-07-10T16:39:37Z</time>
      </trkpt>
      <trkpt lat="42.59084" lon="1.78902">
        <ele>1657.6</ele>
        <time>2024-07-10T16:39:42Z</time>
      </trkpt>
      <trkpt lat="42.59086" lon="1.78904">
        <ele>1657.8</ele>
        <time>2024-07-10T16:39:45Z</time>
      </trkpt>
      <trkpt lat="42.59088" lon="1.78904">
        <ele>1658</ele>
        <time>2024-07-10T16:39:47Z</time>
      </trkpt>
      <trkpt lat="42.59091" lon="1.78905">
        <ele>1657.4</ele>
        <time>2024-07-10T16:39:50Z</time>
      </trkpt>
      <trkpt lat="42.59091" lon="1.78907">
        <ele>1656.8</ele>
        <time>2024-07-10T16:39:51Z</time>
      </trkpt>
      <trkpt lat="42.59089" lon="1.78914">
        <ele>1654</ele>
        <time>2024-07-10T16:39:56Z</time>
      </trkpt>
      <trkpt lat="42.59085" lon="1.78923">
        <ele>1653</ele>
        <time>2024-07-10T16:40:05Z</time>
      </trkpt>
      <trkpt lat="42.59087" lon="1.78929">
        <ele>1652.4</ele>
        <time>2024-07-10T16:40:11Z</time>
      </trkpt>
      <trkpt lat="42.59087" lon="1.78931">
        <ele>1652</ele>
        <time>2024-07-10T16:40:13Z</time>
      </trkpt>
      <trkpt lat="42.59086" lon="1.78932">
        <ele>1651.4</ele>
        <time>2024-07-10T16:40:16Z</time>
      </trkpt>
      <trkpt lat="42.59085" lon="1.78932">
        <ele>1649.8</ele>
        <time>2024-07-10T16:40:21Z</time>
      </trkpt>
      <trkpt lat="42.59084" lon="1.78932">
        <ele>1649.4</ele>
        <time>2024-07-10T16:40:29Z</time>
      </trkpt>
      <trkpt lat="42.59082" lon="1.78932">
        <ele>1649.6</ele>
        <time>2024-07-10T16:40:40Z</time>
      </trkpt>
      <trkpt lat="42.59088" lon="1.78928">
        <ele>1649.6</ele>
        <time>2024-07-10T16:41:01Z</time>
      </trkpt>
      <trkpt lat="42.59091" lon="1.78933">
        <ele>1650</ele>
        <time>2024-07-10T16:41:05Z</time>
      </trkpt>
      <trkpt lat="42.59091" lon="1.78943">
        <ele>1649.4</ele>
        <time>2024-07-10T16:41:12Z</time>
      </trkpt>
      <trkpt lat="42.59089" lon="1.78954">
        <ele>1646.2</ele>
        <time>2024-07-10T16:41:19Z</time>
      </trkpt>
      <trkpt lat="42.59089" lon="1.78959">
        <ele>1644.2</ele>
        <time>2024-07-10T16:41:24Z</time>
      </trkpt>
      <trkpt lat="42.59093" lon="1.7896">
        <ele>1641.8</ele>
        <time>2024-07-10T16:41:29Z</time>
      </trkpt>
      <trkpt lat="42.59092" lon="1.78968">
        <ele>1640</ele>
        <time>2024-07-10T16:41:36Z</time>
      </trkpt>
      <trkpt lat="42.59091" lon="1.7897">
        <ele>1639</ele>
        <time>2024-07-10T16:41:38Z</time>
      </trkpt>
      <trkpt lat="42.59091" lon="1.78979">
        <ele>1635.8</ele>
        <time>2024-07-10T16:41:43Z</time>
      </trkpt>
      <trkpt lat="42.59091" lon="1.78982">
        <ele>1634.6</ele>
        <time>2024-07-10T16:41:45Z</time>
      </trkpt>
      <trkpt lat="42.59091" lon="1.78988">
        <ele>1632.8</ele>
        <time>2024-07-10T16:41:49Z</time>
      </trkpt>
      <trkpt lat="42.59091" lon="1.78998">
        <ele>1630.4</ele>
        <time>2024-07-10T16:41:57Z</time>
      </trkpt>
      <trkpt lat="42.5909" lon="1.79003">
        <ele>1628.2</ele>
        <time>2024-07-10T16:42:02Z</time>
      </trkpt>
      <trkpt lat="42.59087" lon="1.79007">
        <ele>1626</ele>
        <time>2024-07-10T16:42:08Z</time>
      </trkpt>
      <trkpt lat="42.59081" lon="1.79014">
        <ele>1622.4</ele>
        <time>2024-07-10T16:42:16Z</time>
      </trkpt>
      <trkpt lat="42.59076" lon="1.79021">
        <ele>1622</ele>
        <time>2024-07-10T16:42:23Z</time>
      </trkpt>
      <trkpt lat="42.59068" lon="1.79039">
        <ele>1621.8</ele>
        <time>2024-07-10T16:42:33Z</time>
      </trkpt>
      <trkpt lat="42.59067" lon="1.79042">
        <ele>1622.4</ele>
        <time>2024-07-10T16:42:41Z</time>
      </trkpt>
      <trkpt lat="42.59067" lon="1.79042">
        <ele>1624.2</ele>
        <time>2024-07-10T16:42:56Z</time>
      </trkpt>
      <trkpt lat="42.59066" lon="1.79044">
        <ele>1623.8</ele>
        <time>2024-07-10T16:43:15Z</time>
      </trkpt>
      <trkpt lat="42.59055" lon="1.79051">
        <ele>1630.6</ele>
        <time>2024-07-10T16:47:42Z</time>
      </trkpt>
      <trkpt lat="42.59052" lon="1.79053">
        <ele>1630.4</ele>
        <time>2024-07-10T16:47:48Z</time>
      </trkpt>
      <trkpt lat="42.59053" lon="1.79053">
        <ele>1628.6</ele>
        <time>2024-07-10T16:47:57Z</time>
      </trkpt>
      <trkpt lat="42.59054" lon="1.7906">
        <ele>1628.4</ele>
        <time>2024-07-10T16:48:27Z</time>
      </trkpt>
      <trkpt lat="42.59056" lon="1.79067">
        <ele>1625.6</ele>
        <time>2024-07-10T16:48:35Z</time>
      </trkpt>
      <trkpt lat="42.59057" lon="1.79067">
        <ele>1626.4</ele>
        <time>2024-07-10T16:48:45Z</time>
      </trkpt>
      <trkpt lat="42.59065" lon="1.79072">
        <ele>1621.6</ele>
        <time>2024-07-10T16:55:21Z</time>
      </trkpt>
      <trkpt lat="42.59065" lon="1.79081">
        <ele>1620.2</ele>
        <time>2024-07-10T16:55:28Z</time>
      </trkpt>
      <trkpt lat="42.59059" lon="1.7909">
        <ele>1618.6</ele>
        <time>2024-07-10T16:55:34Z</time>
      </trkpt>
      <trkpt lat="42.5906" lon="1.79092">
        <ele>1617.4</ele>
        <time>2024-07-10T16:55:36Z</time>
      </trkpt>
      <trkpt lat="42.59061" lon="1.79093">
        <ele>1617</ele>
        <time>2024-07-10T16:55:37Z</time>
      </trkpt>
      <trkpt lat="42.59067" lon="1.79096">
        <ele>1615.8</ele>
        <time>2024-07-10T16:55:42Z</time>
      </trkpt>
      <trkpt lat="42.59069" lon="1.79098">
        <ele>1615.2</ele>
        <time>2024-07-10T16:55:45Z</time>
      </trkpt>
      <trkpt lat="42.59068" lon="1.79103">
        <ele>1613.6</ele>
        <time>2024-07-10T16:55:48Z</time>
      </trkpt>
      <trkpt lat="42.5906" lon="1.79108">
        <ele>1608.2</ele>
        <time>2024-07-10T16:55:56Z</time>
      </trkpt>
      <trkpt lat="42.5905" lon="1.79112">
        <ele>1603</ele>
        <time>2024-07-10T16:56:04Z</time>
      </trkpt>
      <trkpt lat="42.59049" lon="1.79115">
        <ele>1602</ele>
        <time>2024-07-10T16:56:07Z</time>
      </trkpt>
      <trkpt lat="42.5905" lon="1.79118">
        <ele>1601.4</ele>
        <time>2024-07-10T16:56:09Z</time>
      </trkpt>
      <trkpt lat="42.5906" lon="1.79126">
        <ele>1598</ele>
        <time>2024-07-10T16:56:17Z</time>
      </trkpt>
      <trkpt lat="42.59067" lon="1.79139">
        <ele>1596.6</ele>
        <time>2024-07-10T16:56:25Z</time>
      </trkpt>
      <trkpt lat="42.59071" lon="1.7915">
        <ele>1594.6</ele>
        <time>2024-07-10T16:56:32Z</time>
      </trkpt>
      <trkpt lat="42.59071" lon="1.79152">
        <ele>1594.4</ele>
        <time>2024-07-10T16:56:34Z</time>
      </trkpt>
      <trkpt lat="42.59066" lon="1.79155">
        <ele>1593.2</ele>
        <time>2024-07-10T16:56:37Z</time>
      </trkpt>
      <trkpt lat="42.59064" lon="1.79154">
        <ele>1592.4</ele>
        <time>2024-07-10T16:56:39Z</time>
      </trkpt>
      <trkpt lat="42.59059" lon="1.79153">
        <ele>1591</ele>
        <time>2024-07-10T16:56:43Z</time>
      </trkpt>
      <trkpt lat="42.5905" lon="1.79154">
        <ele>1588.6</ele>
        <time>2024-07-10T16:56:50Z</time>
      </trkpt>
      <trkpt lat="42.59041" lon="1.79152">
        <ele>1587.2</ele>
        <time>2024-07-10T16:56:57Z</time>
      </trkpt>
      <trkpt lat="42.59041" lon="1.79152">
        <ele>1587.2</ele>
        <time>2024-07-10T16:56:58Z</time>
      </trkpt>
      <trkpt lat="42.5904" lon="1.79152">
        <ele>1587.2</ele>
        <time>2024-07-10T16:57:04Z</time>
      </trkpt>
      <trkpt lat="42.5904" lon="1.79152">
        <ele>1587.8</ele>
        <time>2024-07-10T16:57:14Z</time>
      </trkpt>
      <trkpt lat="42.59032" lon="1.79152">
        <ele>1587</ele>
        <time>2024-07-10T16:58:06Z</time>
      </trkpt>
      <trkpt lat="42.59028" lon="1.79153">
        <ele>1586.8</ele>
        <time>2024-07-10T16:58:09Z</time>
      </trkpt>
      <trkpt lat="42.59024" lon="1.79154">
        <ele>1586.6</ele>
        <time>2024-07-10T16:58:11Z</time>
      </trkpt>
      <trkpt lat="42.59017" lon="1.79158">
        <ele>1587.4</ele>
        <time>2024-07-10T16:58:18Z</time>
      </trkpt>
      <trkpt lat="42.59014" lon="1.79161">
        <ele>1586.8</ele>
        <time>2024-07-10T16:58:21Z</time>
      </trkpt>
      <trkpt lat="42.59014" lon="1.79167">
        <ele>1585.8</ele>
        <time>2024-07-10T16:58:25Z</time>
      </trkpt>
      <trkpt lat="42.59004" lon="1.79171">
        <ele>1582</ele>
        <time>2024-07-10T16:58:33Z</time>
      </trkpt>
      <trkpt lat="42.58994" lon="1.79176">
        <ele>1577</ele>
        <time>2024-07-10T16:58:41Z</time>
      </trkpt>
      <trkpt lat="42.58987" lon="1.79181">
        <ele>1575.4</ele>
        <time>2024-07-10T16:58:47Z</time>
      </trkpt>
      <trkpt lat="42.58986" lon="1.79181">
        <ele>1575.2</ele>
        <time>2024-07-10T16:58:48Z</time>
      </trkpt>
      <trkpt lat="42.58982" lon="1.79182">
        <ele>1574</ele>
        <time>2024-07-10T16:58:51Z</time>
      </trkpt>
      <trkpt lat="42.58978" lon="1.79184">
        <ele>1571.6</ele>
        <time>2024-07-10T16:58:55Z</time>
      </trkpt>
      <trkpt lat="42.58964" lon="1.79198">
        <ele>1564.4</ele>
        <time>2024-07-10T16:59:06Z</time>
      </trkpt>
      <trkpt lat="42.58956" lon="1.79206">
        <ele>1561.8</ele>
        <time>2024-07-10T16:59:13Z</time>
      </trkpt>
      <trkpt lat="42.58951" lon="1.79213">
        <ele>1561.2</ele>
        <time>2024-07-10T16:59:20Z</time>
      </trkpt>
      <trkpt lat="42.58949" lon="1.79221">
        <ele>1559.4</ele>
        <time>2024-07-10T16:59:26Z</time>
      </trkpt>
      <trkpt lat="42.58944" lon="1.79231">
        <ele>1558.4</ele>
        <time>2024-07-10T16:59:33Z</time>
      </trkpt>
      <trkpt lat="42.58942" lon="1.79232">
        <ele>1558</ele>
        <time>2024-07-10T16:59:35Z</time>
      </trkpt>
      <trkpt lat="42.58942" lon="1.79234">
        <ele>1558</ele>
        <time>2024-07-10T16:59:37Z</time>
      </trkpt>
      <trkpt lat="42.58943" lon="1.79236">
        <ele>1557.8</ele>
        <time>2024-07-10T16:59:38Z</time>
      </trkpt>
      <trkpt lat="42.58943" lon="1.7924">
        <ele>1557.6</ele>
        <time>2024-07-10T16:59:40Z</time>
      </trkpt>
      <trkpt lat="42.5894" lon="1.79244">
        <ele>1556.4</ele>
        <time>2024-07-10T16:59:44Z</time>
      </trkpt>
      <trkpt lat="42.58935" lon="1.79256">
        <ele>1554.6</ele>
        <time>2024-07-10T16:59:52Z</time>
      </trkpt>
      <trkpt lat="42.5893" lon="1.79263">
        <ele>1554.4</ele>
        <time>2024-07-10T16:59:57Z</time>
      </trkpt>
      <trkpt lat="42.58929" lon="1.79266">
        <ele>1554.4</ele>
        <time>2024-07-10T16:59:59Z</time>
      </trkpt>
      <trkpt lat="42.58927" lon="1.79277">
        <ele>1551.2</ele>
        <time>2024-07-10T17:00:06Z</time>
      </trkpt>
      <trkpt lat="42.58926" lon="1.7928">
        <ele>1550.4</ele>
        <time>2024-07-10T17:00:08Z</time>
      </trkpt>
      <trkpt lat="42.58924" lon="1.79281">
        <ele>1549.8</ele>
        <time>2024-07-10T17:00:10Z</time>
      </trkpt>
      <trkpt lat="42.58923" lon="1.79282">
        <ele>1549.2</ele>
        <time>2024-07-10T17:00:12Z</time>
      </trkpt>
      <trkpt lat="42.58922" lon="1.79287">
        <ele>1547.4</ele>
        <time>2024-07-10T17:00:16Z</time>
      </trkpt>
      <trkpt lat="42.58922" lon="1.7929">
        <ele>1546.6</ele>
        <time>2024-07-10T17:00:18Z</time>
      </trkpt>
      <trkpt lat="42.5892" lon="1.79296">
        <ele>1546.2</ele>
        <time>2024-07-10T17:00:22Z</time>
      </trkpt>
      <trkpt lat="42.58915" lon="1.79304">
        <ele>1546.6</ele>
        <time>2024-07-10T17:00:28Z</time>
      </trkpt>
      <trkpt lat="42.58905" lon="1.79313">
        <ele>1546.2</ele>
        <time>2024-07-10T17:00:36Z</time>
      </trkpt>
      <trkpt lat="42.58897" lon="1.79323">
        <ele>1542.6</ele>
        <time>2024-07-10T17:00:45Z</time>
      </trkpt>
      <trkpt lat="42.5889" lon="1.79333">
        <ele>1539</ele>
        <time>2024-07-10T17:00:53Z</time>
      </trkpt>
      <trkpt lat="42.58886" lon="1.79343">
        <ele>1537.6</ele>
        <time>2024-07-10T17:01:00Z</time>
      </trkpt>
      <trkpt lat="42.58882" lon="1.79349">
        <ele>1536.2</ele>
        <time>2024-07-10T17:01:04Z</time>
      </trkpt>
      <trkpt lat="42.58879" lon="1.79351">
        <ele>1535.6</ele>
        <time>2024-07-10T17:01:07Z</time>
      </trkpt>
      <trkpt lat="42.58877" lon="1.79352">
        <ele>1535.2</ele>
        <time>2024-07-10T17:01:09Z</time>
      </trkpt>
      <trkpt lat="42.58871" lon="1.79358">
        <ele>1534.8</ele>
        <time>2024-07-10T17:01:14Z</time>
      </trkpt>
      <trkpt lat="42.5886" lon="1.79364">
        <ele>1532.6</ele>
        <time>2024-07-10T17:01:22Z</time>
      </trkpt>
      <trkpt lat="42.58847" lon="1.79371">
        <ele>1528.8</ele>
        <time>2024-07-10T17:01:32Z</time>
      </trkpt>
      <trkpt lat="42.58845" lon="1.79373">
        <ele>1528.4</ele>
        <time>2024-07-10T17:01:34Z</time>
      </trkpt>
      <trkpt lat="42.58837" lon="1.79377">
        <ele>1528.4</ele>
        <time>2024-07-10T17:01:40Z</time>
      </trkpt>
      <trkpt lat="42.58823" lon="1.79386">
        <ele>1528.4</ele>
        <time>2024-07-10T17:01:48Z</time>
      </trkpt>
      <trkpt lat="42.58812" lon="1.79391">
        <ele>1526.4</ele>
        <time>2024-07-10T17:01:57Z</time>
      </trkpt>
      <trkpt lat="42.58797" lon="1.79394">
        <ele>1526</ele>
        <time>2024-07-10T17:02:05Z</time>
      </trkpt>
      <trkpt lat="42.5879" lon="1.79395">
        <ele>1525.6</ele>
        <time>2024-07-10T17:02:11Z</time>
      </trkpt>
      <trkpt lat="42.58779" lon="1.79397">
        <ele>1520.8</ele>
        <time>2024-07-10T17:02:19Z</time>
      </trkpt>
      <trkpt lat="42.58766" lon="1.79398">
        <ele>1517.2</ele>
        <time>2024-07-10T17:02:27Z</time>
      </trkpt>
      <trkpt lat="42.58754" lon="1.794">
        <ele>1515</ele>
        <time>2024-07-10T17:02:35Z</time>
      </trkpt>
      <trkpt lat="42.58742" lon="1.79409">
        <ele>1515.4</ele>
        <time>2024-07-10T17:02:44Z</time>
      </trkpt>
      <trkpt lat="42.58739" lon="1.79411">
        <ele>1515.8</ele>
        <time>2024-07-10T17:02:47Z</time>
      </trkpt>
      <trkpt lat="42.58734" lon="1.79412">
        <ele>1515.6</ele>
        <time>2024-07-10T17:02:51Z</time>
      </trkpt>
      <trkpt lat="42.58724" lon="1.79418">
        <ele>1514.8</ele>
        <time>2024-07-10T17:02:59Z</time>
      </trkpt>
      <trkpt lat="42.58718" lon="1.79425">
        <ele>1513</ele>
        <time>2024-07-10T17:03:05Z</time>
      </trkpt>
      <trkpt lat="42.58708" lon="1.79435">
        <ele>1511</ele>
        <time>2024-07-10T17:03:14Z</time>
      </trkpt>
      <trkpt lat="42.58697" lon="1.79443">
        <ele>1509</ele>
        <time>2024-07-10T17:03:22Z</time>
      </trkpt>
      <trkpt lat="42.58688" lon="1.79449">
        <ele>1507.2</ele>
        <time>2024-07-10T17:03:30Z</time>
      </trkpt>
      <trkpt lat="42.58685" lon="1.79451">
        <ele>1507</ele>
        <time>2024-07-10T17:03:33Z</time>
      </trkpt>
      <trkpt lat="42.58675" lon="1.79459">
        <ele>1507.2</ele>
        <time>2024-07-10T17:03:38Z</time>
      </trkpt>
      <trkpt lat="42.58665" lon="1.79469">
        <ele>1506.6</ele>
        <time>2024-07-10T17:03:46Z</time>
      </trkpt>
      <trkpt lat="42.5866" lon="1.79471">
        <ele>1505.2</ele>
        <time>2024-07-10T17:03:49Z</time>
      </trkpt>
      <trkpt lat="42.58655" lon="1.79473">
        <ele>1501.6</ele>
        <time>2024-07-10T17:03:54Z</time>
      </trkpt>
      <trkpt lat="42.5865" lon="1.79481">
        <ele>1498.6</ele>
        <time>2024-07-10T17:04:00Z</time>
      </trkpt>
      <trkpt lat="42.58639" lon="1.7949">
        <ele>1497.6</ele>
        <time>2024-07-10T17:04:08Z</time>
      </trkpt>
      <trkpt lat="42.58631" lon="1.79498">
        <ele>1494.2</ele>
        <time>2024-07-10T17:04:15Z</time>
      </trkpt>
      <trkpt lat="42.58631" lon="1.79498">
        <ele>1493.4</ele>
        <time>2024-07-10T17:04:17Z</time>
      </trkpt>
      <trkpt lat="42.58633" lon="1.79498">
        <ele>1492.2</ele>
        <time>2024-07-10T17:04:19Z</time>
      </trkpt>
      <trkpt lat="42.58639" lon="1.79498">
        <ele>1489.2</ele>
        <time>2024-07-10T17:04:23Z</time>
      </trkpt>
      <trkpt lat="42.58653" lon="1.795">
        <ele>1486.4</ele>
        <time>2024-07-10T17:04:33Z</time>
      </trkpt>
      <trkpt lat="42.58663" lon="1.79501">
        <ele>1484.6</ele>
        <time>2024-07-10T17:04:41Z</time>
      </trkpt>
      <trkpt lat="42.58674" lon="1.79504">
        <ele>1482.2</ele>
        <time>2024-07-10T17:04:49Z</time>
      </trkpt>
      <trkpt lat="42.58681" lon="1.79505">
        <ele>1481.2</ele>
        <time>2024-07-10T17:04:54Z</time>
      </trkpt>
      <trkpt lat="42.58681" lon="1.79506">
        <ele>1481</ele>
        <time>2024-07-10T17:04:55Z</time>
      </trkpt>
      <trkpt lat="42.58684" lon="1.7951">
        <ele>1479.8</ele>
        <time>2024-07-10T17:05:00Z</time>
      </trkpt>
      <trkpt lat="42.58695" lon="1.7951">
        <ele>1478.4</ele>
        <time>2024-07-10T17:05:09Z</time>
      </trkpt>
      <trkpt lat="42.58703" lon="1.79507">
        <ele>1477.8</ele>
        <time>2024-07-10T17:05:16Z</time>
      </trkpt>
      <trkpt lat="42.58713" lon="1.79509">
        <ele>1476</ele>
        <time>2024-07-10T17:05:24Z</time>
      </trkpt>
      <trkpt lat="42.58715" lon="1.7951">
        <ele>1475.2</ele>
        <time>2024-07-10T17:05:26Z</time>
      </trkpt>
      <trkpt lat="42.58722" lon="1.7951">
        <ele>1473.4</ele>
        <time>2024-07-10T17:05:32Z</time>
      </trkpt>
      <trkpt lat="42.58735" lon="1.79514">
        <ele>1469.6</ele>
        <time>2024-07-10T17:05:42Z</time>
      </trkpt>
      <trkpt lat="42.58739" lon="1.79515">
        <ele>1468.6</ele>
        <time>2024-07-10T17:05:45Z</time>
      </trkpt>
      <trkpt lat="42.58739" lon="1.79518">
        <ele>1467.6</ele>
        <time>2024-07-10T17:05:47Z</time>
      </trkpt>
      <trkpt lat="42.58738" lon="1.79524">
        <ele>1465.8</ele>
        <time>2024-07-10T17:05:51Z</time>
      </trkpt>
      <trkpt lat="42.58735" lon="1.79525">
        <ele>1465</ele>
        <time>2024-07-10T17:05:53Z</time>
      </trkpt>
      <trkpt lat="42.58734" lon="1.79525">
        <ele>1464.8</ele>
        <time>2024-07-10T17:05:54Z</time>
      </trkpt>
      <trkpt lat="42.58726" lon="1.79529">
        <ele>1464</ele>
        <time>2024-07-10T17:06:00Z</time>
      </trkpt>
      <trkpt lat="42.58721" lon="1.79531">
        <ele>1464</ele>
        <time>2024-07-10T17:06:05Z</time>
      </trkpt>
      <trkpt lat="42.58721" lon="1.79534">
        <ele>1463.8</ele>
        <time>2024-07-10T17:06:07Z</time>
      </trkpt>
      <trkpt lat="42.5872" lon="1.79534">
        <ele>1463.6</ele>
        <time>2024-07-10T17:06:08Z</time>
      </trkpt>
      <trkpt lat="42.58717" lon="1.79536">
        <ele>1462.4</ele>
        <time>2024-07-10T17:06:12Z</time>
      </trkpt>
      <trkpt lat="42.58717" lon="1.79537">
        <ele>1462.2</ele>
        <time>2024-07-10T17:06:13Z</time>
      </trkpt>
      <trkpt lat="42.58714" lon="1.79546">
        <ele>1461.2</ele>
        <time>2024-07-10T17:06:19Z</time>
      </trkpt>
      <trkpt lat="42.58709" lon="1.79556">
        <ele>1460.6</ele>
        <time>2024-07-10T17:06:27Z</time>
      </trkpt>
      <trkpt lat="42.58703" lon="1.79573">
        <ele>1458.2</ele>
        <time>2024-07-10T17:06:37Z</time>
      </trkpt>
      <trkpt lat="42.587" lon="1.79575">
        <ele>1457.2</ele>
        <time>2024-07-10T17:06:40Z</time>
      </trkpt>
      <trkpt lat="42.58698" lon="1.79576">
        <ele>1456.4</ele>
        <time>2024-07-10T17:06:43Z</time>
      </trkpt>
      <trkpt lat="42.58698" lon="1.79575">
        <ele>1455</ele>
        <time>2024-07-10T17:06:48Z</time>
      </trkpt>
      <trkpt lat="42.58693" lon="1.79577">
        <ele>1454.4</ele>
        <time>2024-07-10T17:06:54Z</time>
      </trkpt>
      <trkpt lat="42.58695" lon="1.79582">
        <ele>1454.2</ele>
        <time>2024-07-10T17:06:59Z</time>
      </trkpt>
      <trkpt lat="42.58697" lon="1.79598">
        <ele>1451.4</ele>
        <time>2024-07-10T17:07:09Z</time>
      </trkpt>
      <trkpt lat="42.58705" lon="1.79604">
        <ele>1447</ele>
        <time>2024-07-10T17:07:16Z</time>
      </trkpt>
      <trkpt lat="42.58701" lon="1.79609">
        <ele>1443.6</ele>
        <time>2024-07-10T17:07:21Z</time>
      </trkpt>
      <trkpt lat="42.58693" lon="1.79607">
        <ele>1441.6</ele>
        <time>2024-07-10T17:07:27Z</time>
      </trkpt>
      <trkpt lat="42.58684" lon="1.79609">
        <ele>1442</ele>
        <time>2024-07-10T17:07:32Z</time>
      </trkpt>
      <trkpt lat="42.58681" lon="1.7961">
        <ele>1442.4</ele>
        <time>2024-07-10T17:07:34Z</time>
      </trkpt>
      <trkpt lat="42.58678" lon="1.79611">
        <ele>1442.8</ele>
        <time>2024-07-10T17:07:37Z</time>
      </trkpt>
      <trkpt lat="42.58669" lon="1.79614">
        <ele>1443.8</ele>
        <time>2024-07-10T17:07:45Z</time>
      </trkpt>
      <trkpt lat="42.58654" lon="1.79615">
        <ele>1444.4</ele>
        <time>2024-07-10T17:07:54Z</time>
      </trkpt>
      <trkpt lat="42.58655" lon="1.79614">
        <ele>1444.8</ele>
        <time>2024-07-10T17:08:00Z</time>
      </trkpt>
      <trkpt lat="42.58668" lon="1.79612">
        <ele>1445.4</ele>
        <time>2024-07-10T17:08:07Z</time>
      </trkpt>
      <trkpt lat="42.58679" lon="1.79609">
        <ele>1445.4</ele>
        <time>2024-07-10T17:08:15Z</time>
      </trkpt>
      <trkpt lat="42.58683" lon="1.7961">
        <ele>1445.8</ele>
        <time>2024-07-10T17:08:19Z</time>
      </trkpt>
      <trkpt lat="42.58683" lon="1.79613">
        <ele>1446</ele>
        <time>2024-07-10T17:08:20Z</time>
      </trkpt>
      <trkpt lat="42.58685" lon="1.79615">
        <ele>1446.2</ele>
        <time>2024-07-10T17:08:21Z</time>
      </trkpt>
      <trkpt lat="42.58693" lon="1.79612">
        <ele>1446.2</ele>
        <time>2024-07-10T17:08:24Z</time>
      </trkpt>
      <trkpt lat="42.58701" lon="1.79604">
        <ele>1444.6</ele>
        <time>2024-07-10T17:08:30Z</time>
      </trkpt>
      <trkpt lat="42.58703" lon="1.79601">
        <ele>1444.4</ele>
        <time>2024-07-10T17:08:34Z</time>
      </trkpt>
      <trkpt lat="42.58702" lon="1.796">
        <ele>1444.2</ele>
        <time>2024-07-10T17:08:35Z</time>
      </trkpt>
      <trkpt lat="42.58695" lon="1.79596">
        <ele>1445.8</ele>
        <time>2024-07-10T17:08:43Z</time>
      </trkpt>
      <trkpt lat="42.58695" lon="1.79594">
        <ele>1446</ele>
        <time>2024-07-10T17:08:44Z</time>
      </trkpt>
      <trkpt lat="42.58695" lon="1.7959">
        <ele>1446.4</ele>
        <time>2024-07-10T17:08:47Z</time>
      </trkpt>
      <trkpt lat="42.58694" lon="1.79583">
        <ele>1447.4</ele>
        <time>2024-07-10T17:08:53Z</time>
      </trkpt>
      <trkpt lat="42.58691" lon="1.7958">
        <ele>1448.4</ele>
        <time>2024-07-10T17:08:58Z</time>
      </trkpt>
      <trkpt lat="42.58687" lon="1.79582">
        <ele>1449.2</ele>
        <time>2024-07-10T17:09:02Z</time>
      </trkpt>
      <trkpt lat="42.58684" lon="1.79587">
        <ele>1449.8</ele>
        <time>2024-07-10T17:09:06Z</time>
      </trkpt>
      <trkpt lat="42.58685" lon="1.79591">
        <ele>1450</ele>
        <time>2024-07-10T17:09:08Z</time>
      </trkpt>
      <trkpt lat="42.58686" lon="1.79592">
        <ele>1450</ele>
        <time>2024-07-10T17:09:09Z</time>
      </trkpt>
      <trkpt lat="42.58688" lon="1.79594">
        <ele>1448.8</ele>
        <time>2024-07-10T17:09:16Z</time>
      </trkpt>
      <trkpt lat="42.58688" lon="1.79594">
        <ele>1447.8</ele>
        <time>2024-07-10T17:09:21Z</time>
      </trkpt>
      <trkpt lat="42.58688" lon="1.79592">
        <ele>1447.4</ele>
        <time>2024-07-10T17:09:28Z</time>
      </trkpt>
      <trkpt lat="42.58688" lon="1.79592">
        <ele>1447.6</ele>
        <time>2024-07-10T17:09:35Z</time>
      </trkpt>
      <trkpt lat="42.58689" lon="1.79592">
        <ele>1448</ele>
        <time>2024-07-10T17:09:44Z</time>
      </trkpt>
      <trkpt lat="42.58695" lon="1.79601">
        <ele>1453.8</ele>
        <time>2024-07-10T17:10:31Z</time>
      </trkpt>
      <trkpt lat="42.58707" lon="1.79616">
        <ele>1451.2</ele>
        <time>2024-07-10T17:10:41Z</time>
      </trkpt>
      <trkpt lat="42.58717" lon="1.79631">
        <ele>1447.6</ele>
        <time>2024-07-10T17:10:52Z</time>
      </trkpt>
      <trkpt lat="42.58728" lon="1.79646">
        <ele>1446.2</ele>
        <time>2024-07-10T17:11:03Z</time>
      </trkpt>
      <trkpt lat="42.58734" lon="1.79655">
        <ele>1446.8</ele>
        <time>2024-07-10T17:11:12Z</time>
      </trkpt>
      <trkpt lat="42.58734" lon="1.79657">
        <ele>1446.8</ele>
        <time>2024-07-10T17:11:13Z</time>
      </trkpt>
      <trkpt lat="42.58742" lon="1.79669">
        <ele>1445.6</ele>
        <time>2024-07-10T17:11:22Z</time>
      </trkpt>
      <trkpt lat="42.58755" lon="1.79683">
        <ele>1441.4</ele>
        <time>2024-07-10T17:11:34Z</time>
      </trkpt>
      <trkpt lat="42.58769" lon="1.79699">
        <ele>1438.4</ele>
        <time>2024-07-10T17:11:47Z</time>
      </trkpt>
      <trkpt lat="42.58779" lon="1.79713">
        <ele>1441.2</ele>
        <time>2024-07-10T17:11:58Z</time>
      </trkpt>
      <trkpt lat="42.58786" lon="1.7972">
        <ele>1445.4</ele>
        <time>2024-07-10T17:12:04Z</time>
      </trkpt>
      <trkpt lat="42.58789" lon="1.79723">
        <ele>1447.6</ele>
        <time>2024-07-10T17:12:07Z</time>
      </trkpt>
      <trkpt lat="42.58791" lon="1.79727">
        <ele>1448.8</ele>
        <time>2024-07-10T17:12:10Z</time>
      </trkpt>
      <trkpt lat="42.58798" lon="1.7974">
        <ele>1449.6</ele>
        <time>2024-07-10T17:12:19Z</time>
      </trkpt>
      <trkpt lat="42.588" lon="1.79745">
        <ele>1450</ele>
        <time>2024-07-10T17:12:22Z</time>
      </trkpt>
      <trkpt lat="42.58799" lon="1.79751">
        <ele>1451.2</ele>
        <time>2024-07-10T17:12:26Z</time>
      </trkpt>
      <trkpt lat="42.58799" lon="1.79759">
        <ele>1451.4</ele>
        <time>2024-07-10T17:12:30Z</time>
      </trkpt>
      <trkpt lat="42.58801" lon="1.79763">
        <ele>1451</ele>
        <time>2024-07-10T17:12:33Z</time>
      </trkpt>
      <trkpt lat="42.58807" lon="1.79775">
        <ele>1448.4</ele>
        <time>2024-07-10T17:12:40Z</time>
      </trkpt>
      <trkpt lat="42.58815" lon="1.79789">
        <ele>1447.6</ele>
        <time>2024-07-10T17:12:50Z</time>
      </trkpt>
      <trkpt lat="42.58816" lon="1.79792">
        <ele>1447.6</ele>
        <time>2024-07-10T17:12:52Z</time>
      </trkpt>
      <trkpt lat="42.58819" lon="1.79798">
        <ele>1446.6</ele>
        <time>2024-07-10T17:12:56Z</time>
      </trkpt>
      <trkpt lat="42.58827" lon="1.79812">
        <ele>1443.8</ele>
        <time>2024-07-10T17:13:05Z</time>
      </trkpt>
      <trkpt lat="42.58834" lon="1.79823">
        <ele>1442.4</ele>
        <time>2024-07-10T17:13:13Z</time>
      </trkpt>
      <trkpt lat="42.58836" lon="1.79832">
        <ele>1441</ele>
        <time>2024-07-10T17:13:19Z</time>
      </trkpt>
      <trkpt lat="42.58836" lon="1.79834">
        <ele>1441</ele>
        <time>2024-07-10T17:13:20Z</time>
      </trkpt>
      <trkpt lat="42.58838" lon="1.79835">
        <ele>1440.8</ele>
        <time>2024-07-10T17:13:22Z</time>
      </trkpt>
      <trkpt lat="42.58839" lon="1.79834">
        <ele>1440.8</ele>
        <time>2024-07-10T17:13:25Z</time>
      </trkpt>
      <trkpt lat="42.5884" lon="1.79833">
        <ele>1440.8</ele>
        <time>2024-07-10T17:13:26Z</time>
      </trkpt>
      <trkpt lat="42.58846" lon="1.79833">
        <ele>1440.8</ele>
        <time>2024-07-10T17:13:31Z</time>
      </trkpt>
      <trkpt lat="42.58853" lon="1.79838">
        <ele>1440.2</ele>
        <time>2024-07-10T17:13:38Z</time>
      </trkpt>
      <trkpt lat="42.58854" lon="1.7984">
        <ele>1439.8</ele>
        <time>2024-07-10T17:13:40Z</time>
      </trkpt>
      <trkpt lat="42.58855" lon="1.79843">
        <ele>1439.2</ele>
        <time>2024-07-10T17:13:42Z</time>
      </trkpt>
      <trkpt lat="42.58855" lon="1.79845">
        <ele>1438.8</ele>
        <time>2024-07-10T17:13:44Z</time>
      </trkpt>
      <trkpt lat="42.58856" lon="1.79846">
        <ele>1438.6</ele>
        <time>2024-07-10T17:13:46Z</time>
      </trkpt>
      <trkpt lat="42.58856" lon="1.79846">
        <ele>1438.6</ele>
        <time>2024-07-10T17:13:48Z</time>
      </trkpt>
      <trkpt lat="42.58857" lon="1.79846">
        <ele>1439.2</ele>
        <time>2024-07-10T17:13:54Z</time>
      </trkpt>
      <trkpt lat="42.58857" lon="1.79847">
        <ele>1438.8</ele>
        <time>2024-07-10T17:14:01Z</time>
      </trkpt>
      <trkpt lat="42.58856" lon="1.79847">
        <ele>1438.4</ele>
        <time>2024-07-10T17:14:17Z</time>
      </trkpt>
      <trkpt lat="42.58861" lon="1.79817">
        <ele>1444</ele>
        <time>2024-07-10T17:17:34Z</time>
      </trkpt>
      <trkpt lat="42.58869" lon="1.79813">
        <ele>1444</ele>
        <time>2024-07-10T17:17:35Z</time>
      </trkpt>
      <trkpt lat="42.58871" lon="1.79833">
        <ele>1456.8</ele>
        <time>2024-07-10T17:17:36Z</time>
      </trkpt>
      <trkpt lat="42.58845" lon="1.79859">
        <ele>1458.4</ele>
        <time>2024-07-10T17:17:41Z</time>
      </trkpt>
      <trkpt lat="42.58851" lon="1.79856">
        <ele>1457.4</ele>
        <time>2024-07-10T17:17:44Z</time>
      </trkpt>
      <trkpt lat="42.58855" lon="1.79859">
        <ele>1451.4</ele>
        <time>2024-07-10T17:17:51Z</time>
      </trkpt>
      <trkpt lat="42.58854" lon="1.7986">
        <ele>1451.6</ele>
        <time>2024-07-10T17:17:55Z</time>
      </trkpt>
      <trkpt lat="42.58856" lon="1.79861">
        <ele>1453.2</ele>
        <time>2024-07-10T17:18:05Z</time>
      </trkpt>
      <trkpt lat="42.58858" lon="1.79857">
        <ele>1453.6</ele>
        <time>2024-07-10T17:18:16Z</time>
      </trkpt>
      <trkpt lat="42.58855" lon="1.79852">
        <ele>1452</ele>
        <time>2024-07-10T17:18:24Z</time>
      </trkpt>
      <trkpt lat="42.58856" lon="1.7985">
        <ele>1452</ele>
        <time>2024-07-10T17:18:28Z</time>
      </trkpt>
      <trkpt lat="42.58855" lon="1.79843">
        <ele>1452.6</ele>
        <time>2024-07-10T17:18:34Z</time>
      </trkpt>
      <trkpt lat="42.58848" lon="1.7984">
        <ele>1454.4</ele>
        <time>2024-07-10T17:18:42Z</time>
      </trkpt>
      <trkpt lat="42.58846" lon="1.7984">
        <ele>1454.6</ele>
        <time>2024-07-10T17:18:44Z</time>
      </trkpt>
      <trkpt lat="42.58842" lon="1.79839">
        <ele>1454.6</ele>
        <time>2024-07-10T17:18:48Z</time>
      </trkpt>
      <trkpt lat="42.58834" lon="1.79842">
        <ele>1456.2</ele>
        <time>2024-07-10T17:18:55Z</time>
      </trkpt>
      <trkpt lat="42.58829" lon="1.79845">
        <ele>1456.2</ele>
        <time>2024-07-10T17:18:59Z</time>
      </trkpt>
      <trkpt lat="42.58825" lon="1.79849">
        <ele>1455</ele>
        <time>2024-07-10T17:19:04Z</time>
      </trkpt>
      <trkpt lat="42.58819" lon="1.79852">
        <ele>1454.2</ele>
        <time>2024-07-10T17:19:08Z</time>
      </trkpt>
      <trkpt lat="42.58814" lon="1.79855">
        <ele>1451.2</ele>
        <time>2024-07-10T17:19:13Z</time>
      </trkpt>
      <trkpt lat="42.58806" lon="1.79864">
        <ele>1446.2</ele>
        <time>2024-07-10T17:19:23Z</time>
      </trkpt>
      <trkpt lat="42.58801" lon="1.79872">
        <ele>1441.6</ele>
        <time>2024-07-10T17:19:33Z</time>
      </trkpt>
      <trkpt lat="42.58801" lon="1.79874">
        <ele>1439.6</ele>
        <time>2024-07-10T17:19:39Z</time>
      </trkpt>
      <trkpt lat="42.58801" lon="1.79875">
        <ele>1439.8</ele>
        <time>2024-07-10T17:19:44Z</time>
      </trkpt>
      <trkpt lat="42.58805" lon="1.79877">
        <ele>1443.4</ele>
        <time>2024-07-10T17:19:49Z</time>
      </trkpt>
      <trkpt lat="42.58807" lon="1.7988">
        <ele>1450.4</ele>
        <time>2024-07-10T17:19:57Z</time>
      </trkpt>
      <trkpt lat="42.5881" lon="1.79879">
        <ele>1455.6</ele>
        <time>2024-07-10T17:20:03Z</time>
      </trkpt>
      <trkpt lat="42.58812" lon="1.79879">
        <ele>1457.8</ele>
        <time>2024-07-10T17:20:07Z</time>
      </trkpt>
      <trkpt lat="42.58812" lon="1.79877">
        <ele>1458</ele>
        <time>2024-07-10T17:20:08Z</time>
      </trkpt>
    </trkseg>
  </trk>
</gpx>